<?xml version="1.0" encoding="utf-8"?>
<gpx xmlns:xsi="http://www.w3.org/2001/XMLSchema-instance" xmlns:xsd="http://www.w3.org/2001/XMLSchema" version="1.1" creator="Shapelink.com" xmlns="http://www.topografix.com/GPX/1/1" xmlns:gpxtpx="http://www.garmin.com/xmlschemas/TrackPointExtension/v1">
  <metadata>
    <name>Löpning 12.09 km, 2017-12-20</name>
    <desc></desc>
    <author><name>Bengt-Åke Forslund</name></author> 
    <time>2017-12-20T18:17:29Z</time>
  </metadata>
  <trk>
    <name>Löpning 12.09 km, 2017-12-20</name>
    <trkseg>
      <trkpt lat="62.635208044618" lon="17.968397717704">
        <ele>25</ele>
        <time>2017-12-20T18:17:29Z</time>
      </trkpt>
      <trkpt lat="62.635607945067" lon="17.968295709981">
        <ele>25.2</ele>
        <time>2017-12-20T18:17:37Z</time>
      </trkpt>
      <trkpt lat="62.6356252956" lon="17.968331416875">
        <ele>25.2</ele>
        <time>2017-12-20T18:17:38Z</time>
      </trkpt>
      <trkpt lat="62.635650022205" lon="17.968375254212">
        <ele>25.2</ele>
        <time>2017-12-20T18:17:39Z</time>
      </trkpt>
      <trkpt lat="62.635670306403" lon="17.968418756273">
        <ele>25.2</ele>
        <time>2017-12-20T18:17:40Z</time>
      </trkpt>
      <trkpt lat="62.635689165678" lon="17.968458067384">
        <ele>25.2</ele>
        <time>2017-12-20T18:17:41Z</time>
      </trkpt>
      <trkpt lat="62.635707354401" lon="17.968495953572">
        <ele>25.2</ele>
        <time>2017-12-20T18:17:42Z</time>
      </trkpt>
      <trkpt lat="62.635725291667" lon="17.96853803071">
        <ele>25.2</ele>
        <time>2017-12-20T18:17:43Z</time>
      </trkpt>
      <trkpt lat="62.635739708535" lon="17.968572564138">
        <ele>25.4</ele>
        <time>2017-12-20T18:17:44Z</time>
      </trkpt>
      <trkpt lat="62.635761752932" lon="17.96859838039">
        <ele>25.6</ele>
        <time>2017-12-20T18:17:45Z</time>
      </trkpt>
      <trkpt lat="62.635779774017" lon="17.968618999864">
        <ele>25.8</ele>
        <time>2017-12-20T18:17:46Z</time>
      </trkpt>
      <trkpt lat="62.635801399319" lon="17.968631153619">
        <ele>25.8</ele>
        <time>2017-12-20T18:17:47Z</time>
      </trkpt>
      <trkpt lat="62.635827047933" lon="17.968649761437">
        <ele>26</ele>
        <time>2017-12-20T18:17:48Z</time>
      </trkpt>
      <trkpt lat="62.635851271624" lon="17.968658478613">
        <ele>26.2</ele>
        <time>2017-12-20T18:17:49Z</time>
      </trkpt>
      <trkpt lat="62.635883625758" lon="17.968674152766">
        <ele>26.2</ele>
        <time>2017-12-20T18:17:50Z</time>
      </trkpt>
      <trkpt lat="62.635920589937" lon="17.968707177452">
        <ele>26.2</ele>
        <time>2017-12-20T18:17:51Z</time>
      </trkpt>
      <trkpt lat="62.635945065085" lon="17.968727713107">
        <ele>26.2</ele>
        <time>2017-12-20T18:17:52Z</time>
      </trkpt>
      <trkpt lat="62.635972222441" lon="17.968740369776">
        <ele>26.2</ele>
        <time>2017-12-20T18:17:53Z</time>
      </trkpt>
      <trkpt lat="62.63599745196" lon="17.968757468852">
        <ele>26.2</ele>
        <time>2017-12-20T18:17:54Z</time>
      </trkpt>
      <trkpt lat="62.636021172737" lon="17.968774065014">
        <ele>26.2</ele>
        <time>2017-12-20T18:17:55Z</time>
      </trkpt>
      <trkpt lat="62.636048162455" lon="17.968815387781">
        <ele>26.2</ele>
        <time>2017-12-20T18:17:56Z</time>
      </trkpt>
      <trkpt lat="62.636079510761" lon="17.968857548738">
        <ele>26</ele>
        <time>2017-12-20T18:17:57Z</time>
      </trkpt>
      <trkpt lat="62.636103231538" lon="17.968901050799">
        <ele>26</ele>
        <time>2017-12-20T18:17:58Z</time>
      </trkpt>
      <trkpt lat="62.636126281763" lon="17.968942541204">
        <ele>26</ele>
        <time>2017-12-20T18:17:59Z</time>
      </trkpt>
      <trkpt lat="62.636150589273" lon="17.968980930306">
        <ele>26.2</ele>
        <time>2017-12-20T18:18:00Z</time>
      </trkpt>
      <trkpt lat="62.636176154068" lon="17.969035999389">
        <ele>26.2</ele>
        <time>2017-12-20T18:18:01Z</time>
      </trkpt>
      <trkpt lat="62.636197611732" lon="17.969072712111">
        <ele>26.4</ele>
        <time>2017-12-20T18:18:02Z</time>
      </trkpt>
      <trkpt lat="62.636220578138" lon="17.969128367927">
        <ele>26.4</ele>
        <time>2017-12-20T18:18:03Z</time>
      </trkpt>
      <trkpt lat="62.636243544544" lon="17.96915829131">
        <ele>26.4</ele>
        <time>2017-12-20T18:18:04Z</time>
      </trkpt>
      <trkpt lat="62.636271707728" lon="17.96921109728">
        <ele>26.4</ele>
        <time>2017-12-20T18:18:05Z</time>
      </trkpt>
      <trkpt lat="62.636293249211" lon="17.969267423648">
        <ele>26.4</ele>
        <time>2017-12-20T18:18:06Z</time>
      </trkpt>
      <trkpt lat="62.636311857029" lon="17.969318469419">
        <ele>26.4</ele>
        <time>2017-12-20T18:18:07Z</time>
      </trkpt>
      <trkpt lat="62.636333398512" lon="17.969365743335">
        <ele>26.4</ele>
        <time>2017-12-20T18:18:08Z</time>
      </trkpt>
      <trkpt lat="62.636356029642" lon="17.969416370011">
        <ele>26.6</ele>
        <time>2017-12-20T18:18:09Z</time>
      </trkpt>
      <trkpt lat="62.636380253333" lon="17.969481329736">
        <ele>26.6</ele>
        <time>2017-12-20T18:18:10Z</time>
      </trkpt>
      <trkpt lat="62.636402381549" lon="17.96952458034">
        <ele>26.6</ele>
        <time>2017-12-20T18:18:11Z</time>
      </trkpt>
      <trkpt lat="62.636423001023" lon="17.969587947504">
        <ele>26.6</ele>
        <time>2017-12-20T18:18:12Z</time>
      </trkpt>
      <trkpt lat="62.636443285221" lon="17.969634886144">
        <ele>26.8</ele>
        <time>2017-12-20T18:18:13Z</time>
      </trkpt>
      <trkpt lat="62.636458875555" lon="17.969682579155">
        <ele>26.8</ele>
        <time>2017-12-20T18:18:14Z</time>
      </trkpt>
      <trkpt lat="62.636474633527" lon="17.969729014881">
        <ele>26.8</ele>
        <time>2017-12-20T18:18:15Z</time>
      </trkpt>
      <trkpt lat="62.636485697635" lon="17.969751226916">
        <ele>26.8</ele>
        <time>2017-12-20T18:18:16Z</time>
      </trkpt>
      <trkpt lat="62.636506903842" lon="17.969813923528">
        <ele>26.6</ele>
        <time>2017-12-20T18:18:17Z</time>
      </trkpt>
      <trkpt lat="62.636526601307" lon="17.969848876051">
        <ele>26.8</ele>
        <time>2017-12-20T18:18:18Z</time>
      </trkpt>
      <trkpt lat="62.636549567713" lon="17.969902017297">
        <ele>27</ele>
        <time>2017-12-20T18:18:19Z</time>
      </trkpt>
      <trkpt lat="62.636574378137" lon="17.969953314525">
        <ele>27</ele>
        <time>2017-12-20T18:18:20Z</time>
      </trkpt>
      <trkpt lat="62.636597344543" lon="17.969999331156">
        <ele>27.2</ele>
        <time>2017-12-20T18:18:21Z</time>
      </trkpt>
      <trkpt lat="62.636617042008" lon="17.970030428005">
        <ele>27.2</ele>
        <time>2017-12-20T18:18:22Z</time>
      </trkpt>
      <trkpt lat="62.63664872559" lon="17.970069655297">
        <ele>27.2</ele>
        <time>2017-12-20T18:18:23Z</time>
      </trkpt>
      <trkpt lat="62.636681666457" lon="17.970107373847">
        <ele>27.2</ele>
        <time>2017-12-20T18:18:24Z</time>
      </trkpt>
      <trkpt lat="62.636713936772" lon="17.970126233122">
        <ele>27.2</ele>
        <time>2017-12-20T18:18:25Z</time>
      </trkpt>
      <trkpt lat="62.636750314218" lon="17.97015909017">
        <ele>27</ele>
        <time>2017-12-20T18:18:26Z</time>
      </trkpt>
      <trkpt lat="62.636785602017" lon="17.970163364939">
        <ele>27</ele>
        <time>2017-12-20T18:18:27Z</time>
      </trkpt>
      <trkpt lat="62.636826254232" lon="17.970171746839">
        <ele>27</ele>
        <time>2017-12-20T18:18:28Z</time>
      </trkpt>
      <trkpt lat="62.636915940562" lon="17.970176775979">
        <ele>26.8</ele>
        <time>2017-12-20T18:18:30Z</time>
      </trkpt>
      <trkpt lat="62.636958352976" lon="17.970166550061">
        <ele>26.8</ele>
        <time>2017-12-20T18:18:31Z</time>
      </trkpt>
      <trkpt lat="62.63700327996" lon="17.97014064999">
        <ele>26.8</ele>
        <time>2017-12-20T18:18:32Z</time>
      </trkpt>
      <trkpt lat="62.637048206944" lon="17.970121874534">
        <ele>26.8</ele>
        <time>2017-12-20T18:18:33Z</time>
      </trkpt>
      <trkpt lat="62.63709128991" lon="17.97009957868">
        <ele>26.6</ele>
        <time>2017-12-20T18:18:34Z</time>
      </trkpt>
      <trkpt lat="62.637146107536" lon="17.970068900926">
        <ele>26.4</ele>
        <time>2017-12-20T18:18:35Z</time>
      </trkpt>
      <trkpt lat="62.637195476927" lon="17.970039480457">
        <ele>26.2</ele>
        <time>2017-12-20T18:18:36Z</time>
      </trkpt>
      <trkpt lat="62.637248199078" lon="17.970020034449">
        <ele>25.8</ele>
        <time>2017-12-20T18:18:37Z</time>
      </trkpt>
      <trkpt lat="62.637296395003" lon="17.970006874866">
        <ele>25.4</ele>
        <time>2017-12-20T18:18:38Z</time>
      </trkpt>
      <trkpt lat="62.637347021679" lon="17.970010646721">
        <ele>25.2</ele>
        <time>2017-12-20T18:18:39Z</time>
      </trkpt>
      <trkpt lat="62.637395133785" lon="17.97004341995">
        <ele>25</ele>
        <time>2017-12-20T18:18:40Z</time>
      </trkpt>
      <trkpt lat="62.637441904787" lon="17.970092370246">
        <ele>24.6</ele>
        <time>2017-12-20T18:18:41Z</time>
      </trkpt>
      <trkpt lat="62.637481383536" lon="17.970160012179">
        <ele>24.4</ele>
        <time>2017-12-20T18:18:42Z</time>
      </trkpt>
      <trkpt lat="62.637518515353" lon="17.970194629426">
        <ele>24.2</ele>
        <time>2017-12-20T18:18:43Z</time>
      </trkpt>
      <trkpt lat="62.637545169795" lon="17.970263696282">
        <ele>24</ele>
        <time>2017-12-20T18:18:44Z</time>
      </trkpt>
      <trkpt lat="62.637581547241" lon="17.970338714287">
        <ele>24</ele>
        <time>2017-12-20T18:18:45Z</time>
      </trkpt>
      <trkpt lat="62.637597724308" lon="17.970394789198">
        <ele>24</ele>
        <time>2017-12-20T18:18:46Z</time>
      </trkpt>
      <trkpt lat="62.637621612723" lon="17.970465448615">
        <ele>24</ele>
        <time>2017-12-20T18:18:47Z</time>
      </trkpt>
      <trkpt lat="62.637644327672" lon="17.970515740015">
        <ele>24</ele>
        <time>2017-12-20T18:18:48Z</time>
      </trkpt>
      <trkpt lat="62.637662684033" lon="17.970597044445">
        <ele>24.2</ele>
        <time>2017-12-20T18:18:49Z</time>
      </trkpt>
      <trkpt lat="62.637681794765" lon="17.970662339446">
        <ele>24.2</ele>
        <time>2017-12-20T18:18:50Z</time>
      </trkpt>
      <trkpt lat="62.637696714547" lon="17.970716989434">
        <ele>24.4</ele>
        <time>2017-12-20T18:18:51Z</time>
      </trkpt>
      <trkpt lat="62.637708449207" lon="17.970791755982">
        <ele>24.6</ele>
        <time>2017-12-20T18:18:52Z</time>
      </trkpt>
      <trkpt lat="62.637722698437" lon="17.970837688794">
        <ele>24.4</ele>
        <time>2017-12-20T18:18:53Z</time>
      </trkpt>
      <trkpt lat="62.637731918527" lon="17.970912036247">
        <ele>24.4</ele>
        <time>2017-12-20T18:18:54Z</time>
      </trkpt>
      <trkpt lat="62.637748598508" lon="17.970965261312">
        <ele>24.4</ele>
        <time>2017-12-20T18:18:55Z</time>
      </trkpt>
      <trkpt lat="62.637758656788" lon="17.97103332234">
        <ele>24.6</ele>
        <time>2017-12-20T18:18:56Z</time>
      </trkpt>
      <trkpt lat="62.637771984009" lon="17.971100209902">
        <ele>24.6</ele>
        <time>2017-12-20T18:18:57Z</time>
      </trkpt>
      <trkpt lat="62.637780868823" lon="17.971147986732">
        <ele>24.8</ele>
        <time>2017-12-20T18:18:58Z</time>
      </trkpt>
      <trkpt lat="62.637790843284" lon="17.971211521534">
        <ele>24.8</ele>
        <time>2017-12-20T18:18:59Z</time>
      </trkpt>
      <trkpt lat="62.637801320659" lon="17.971251587016">
        <ele>24.6</ele>
        <time>2017-12-20T18:19:00Z</time>
      </trkpt>
      <trkpt lat="62.637805930704" lon="17.971318893673">
        <ele>24.6</ele>
        <time>2017-12-20T18:19:01Z</time>
      </trkpt>
      <trkpt lat="62.63781967702" lon="17.971360719354">
        <ele>24.6</ele>
        <time>2017-12-20T18:19:02Z</time>
      </trkpt>
      <trkpt lat="62.637826717816" lon="17.971412687134">
        <ele>24.6</ele>
        <time>2017-12-20T18:19:03Z</time>
      </trkpt>
      <trkpt lat="62.637831244042" lon="17.97146666657">
        <ele>24.8</ele>
        <time>2017-12-20T18:19:04Z</time>
      </trkpt>
      <trkpt lat="62.637838871571" lon="17.971511006821">
        <ele>25.2</ele>
        <time>2017-12-20T18:19:05Z</time>
      </trkpt>
      <trkpt lat="62.637843565435" lon="17.971584516084">
        <ele>25</ele>
        <time>2017-12-20T18:19:06Z</time>
      </trkpt>
      <trkpt lat="62.63785069005" lon="17.97162592267">
        <ele>25.2</ele>
        <time>2017-12-20T18:19:07Z</time>
      </trkpt>
      <trkpt lat="62.637849768041" lon="17.971695827716">
        <ele>25.2</ele>
        <time>2017-12-20T18:19:08Z</time>
      </trkpt>
      <trkpt lat="62.637860999787" lon="17.971750477704">
        <ele>25.2</ele>
        <time>2017-12-20T18:19:09Z</time>
      </trkpt>
      <trkpt lat="62.637863681995" lon="17.971821304759">
        <ele>25.2</ele>
        <time>2017-12-20T18:19:10Z</time>
      </trkpt>
      <trkpt lat="62.637867286212" lon="17.971878972231">
        <ele>25.4</ele>
        <time>2017-12-20T18:19:11Z</time>
      </trkpt>
      <trkpt lat="62.637870722791" lon="17.971933286943">
        <ele>25.6</ele>
        <time>2017-12-20T18:19:12Z</time>
      </trkpt>
      <trkpt lat="62.637867872945" lon="17.972002856713">
        <ele>25.6</ele>
        <time>2017-12-20T18:19:13Z</time>
      </trkpt>
      <trkpt lat="62.637875500474" lon="17.972046274955">
        <ele>25.8</ele>
        <time>2017-12-20T18:19:14Z</time>
      </trkpt>
      <trkpt lat="62.637875584293" lon="17.972125316272">
        <ele>26</ele>
        <time>2017-12-20T18:19:15Z</time>
      </trkpt>
      <trkpt lat="62.637881954537" lon="17.972172254912">
        <ele>26</ele>
        <time>2017-12-20T18:19:16Z</time>
      </trkpt>
      <trkpt lat="62.637880697252" lon="17.972256493007">
        <ele>26</ele>
        <time>2017-12-20T18:19:17Z</time>
      </trkpt>
      <trkpt lat="62.637888995333" lon="17.972305778579">
        <ele>26</ele>
        <time>2017-12-20T18:19:18Z</time>
      </trkpt>
      <trkpt lat="62.63789595231" lon="17.972339976731">
        <ele>25.8</ele>
        <time>2017-12-20T18:19:19Z</time>
      </trkpt>
      <trkpt lat="62.637915146861" lon="17.972390771045">
        <ele>25.8</ele>
        <time>2017-12-20T18:19:20Z</time>
      </trkpt>
      <trkpt lat="62.637919756906" lon="17.972441397721">
        <ele>26</ele>
        <time>2017-12-20T18:19:21Z</time>
      </trkpt>
      <trkpt lat="62.637925875693" lon="17.972481379384">
        <ele>26</ele>
        <time>2017-12-20T18:19:22Z</time>
      </trkpt>
      <trkpt lat="62.637929647548" lon="17.972528820938">
        <ele>26</ele>
        <time>2017-12-20T18:19:23Z</time>
      </trkpt>
      <trkpt lat="62.637933922317" lon="17.972584057659">
        <ele>26.2</ele>
        <time>2017-12-20T18:19:24Z</time>
      </trkpt>
      <trkpt lat="62.637939286733" lon="17.972635019611">
        <ele>26.2</ele>
        <time>2017-12-20T18:19:25Z</time>
      </trkpt>
      <trkpt lat="62.637943310045" lon="17.972688831409">
        <ele>26.4</ele>
        <time>2017-12-20T18:19:26Z</time>
      </trkpt>
      <trkpt lat="62.637947500995" lon="17.972741805017">
        <ele>26.6</ele>
        <time>2017-12-20T18:19:27Z</time>
      </trkpt>
      <trkpt lat="62.637950602298" lon="17.972787905467">
        <ele>26.6</ele>
        <time>2017-12-20T18:19:28Z</time>
      </trkpt>
      <trkpt lat="62.637951440488" lon="17.972849763889">
        <ele>26.8</ele>
        <time>2017-12-20T18:19:29Z</time>
      </trkpt>
      <trkpt lat="62.637954122696" lon="17.9728974569">
        <ele>26.8</ele>
        <time>2017-12-20T18:19:30Z</time>
      </trkpt>
      <trkpt lat="62.637957726913" lon="17.972954789096">
        <ele>27</ele>
        <time>2017-12-20T18:19:31Z</time>
      </trkpt>
      <trkpt lat="62.637962672234" lon="17.973008684713">
        <ele>27.2</ele>
        <time>2017-12-20T18:19:32Z</time>
      </trkpt>
      <trkpt lat="62.63796468389" lon="17.973057048276">
        <ele>27.2</ele>
        <time>2017-12-20T18:19:33Z</time>
      </trkpt>
      <trkpt lat="62.637966108813" lon="17.973108596961">
        <ele>27.4</ele>
        <time>2017-12-20T18:19:34Z</time>
      </trkpt>
      <trkpt lat="62.63796803665" lon="17.973159642732">
        <ele>27.4</ele>
        <time>2017-12-20T18:19:35Z</time>
      </trkpt>
      <trkpt lat="62.637966276451" lon="17.973204737354">
        <ele>27.6</ele>
        <time>2017-12-20T18:19:36Z</time>
      </trkpt>
      <trkpt lat="62.637967282279" lon="17.973255112573">
        <ele>27.8</ele>
        <time>2017-12-20T18:19:37Z</time>
      </trkpt>
      <trkpt lat="62.637968958659" lon="17.973303727593">
        <ele>28</ele>
        <time>2017-12-20T18:19:38Z</time>
      </trkpt>
      <trkpt lat="62.63796803665" lon="17.97336097597">
        <ele>28.2</ele>
        <time>2017-12-20T18:19:39Z</time>
      </trkpt>
      <trkpt lat="62.637969545392" lon="17.973405483859">
        <ele>28.4</ele>
        <time>2017-12-20T18:19:40Z</time>
      </trkpt>
      <trkpt lat="62.637970132125" lon="17.973460385304">
        <ele>28.4</ele>
        <time>2017-12-20T18:19:41Z</time>
      </trkpt>
      <trkpt lat="62.63797055122" lon="17.973516292577">
        <ele>28.4</ele>
        <time>2017-12-20T18:19:42Z</time>
      </trkpt>
      <trkpt lat="62.637970299763" lon="17.973568427995">
        <ele>28.6</ele>
        <time>2017-12-20T18:19:43Z</time>
      </trkpt>
      <trkpt lat="62.637971892324" lon="17.973632800987">
        <ele>28.6</ele>
        <time>2017-12-20T18:19:44Z</time>
      </trkpt>
      <trkpt lat="62.637972981971" lon="17.973690133183">
        <ele>28.6</ele>
        <time>2017-12-20T18:19:45Z</time>
      </trkpt>
      <trkpt lat="62.6379722276" lon="17.973751740148">
        <ele>28.6</ele>
        <time>2017-12-20T18:19:46Z</time>
      </trkpt>
      <trkpt lat="62.637974239256" lon="17.97381359857">
        <ele>28.8</ele>
        <time>2017-12-20T18:19:47Z</time>
      </trkpt>
      <trkpt lat="62.637978346387" lon="17.973872104232">
        <ele>28.8</ele>
        <time>2017-12-20T18:19:48Z</time>
      </trkpt>
      <trkpt lat="62.637982537337" lon="17.973933543559">
        <ele>28.8</ele>
        <time>2017-12-20T18:19:49Z</time>
      </trkpt>
      <trkpt lat="62.637985219545" lon="17.973996156352">
        <ele>28.8</ele>
        <time>2017-12-20T18:19:50Z</time>
      </trkpt>
      <trkpt lat="62.637989997228" lon="17.974056506032">
        <ele>28.6</ele>
        <time>2017-12-20T18:19:51Z</time>
      </trkpt>
      <trkpt lat="62.637995194006" lon="17.974117358626">
        <ele>28.6</ele>
        <time>2017-12-20T18:19:52Z</time>
      </trkpt>
      <trkpt lat="62.63799821149" lon="17.974180809609">
        <ele>28.6</ele>
        <time>2017-12-20T18:19:53Z</time>
      </trkpt>
      <trkpt lat="62.638000223146" lon="17.97424945737">
        <ele>28.6</ele>
        <time>2017-12-20T18:19:54Z</time>
      </trkpt>
      <trkpt lat="62.638002989173" lon="17.974314500914">
        <ele>28.6</ele>
        <time>2017-12-20T18:19:55Z</time>
      </trkpt>
      <trkpt lat="62.638003995001" lon="17.974379460639">
        <ele>28.6</ele>
        <time>2017-12-20T18:19:56Z</time>
      </trkpt>
      <trkpt lat="62.638002989173" lon="17.974446096744">
        <ele>28.6</ele>
        <time>2017-12-20T18:19:57Z</time>
      </trkpt>
      <trkpt lat="62.63800324063" lon="17.974512732849">
        <ele>28.6</ele>
        <time>2017-12-20T18:19:58Z</time>
      </trkpt>
      <trkpt lat="62.637993266169" lon="17.974576602927">
        <ele>28.6</ele>
        <time>2017-12-20T18:19:59Z</time>
      </trkpt>
      <trkpt lat="62.637983878441" lon="17.974639886272">
        <ele>28.6</ele>
        <time>2017-12-20T18:20:00Z</time>
      </trkpt>
      <trkpt lat="62.637969293935" lon="17.974701996151">
        <ele>28.6</ele>
        <time>2017-12-20T18:20:01Z</time>
      </trkpt>
      <trkpt lat="62.637952865411" lon="17.974755388854">
        <ele>28.6</ele>
        <time>2017-12-20T18:20:02Z</time>
      </trkpt>
      <trkpt lat="62.637940627837" lon="17.974797382173">
        <ele>28.6</ele>
        <time>2017-12-20T18:20:03Z</time>
      </trkpt>
      <trkpt lat="62.637925791874" lon="17.97483786675">
        <ele>28.8</ele>
        <time>2017-12-20T18:20:04Z</time>
      </trkpt>
      <trkpt lat="62.637910452997" lon="17.97488145263">
        <ele>28.8</ele>
        <time>2017-12-20T18:20:05Z</time>
      </trkpt>
      <trkpt lat="62.637894611206" lon="17.974920344646">
        <ele>28.8</ele>
        <time>2017-12-20T18:20:06Z</time>
      </trkpt>
      <trkpt lat="62.63787667394" lon="17.974959823395">
        <ele>28.8</ele>
        <time>2017-12-20T18:20:07Z</time>
      </trkpt>
      <trkpt lat="62.637864520185" lon="17.974991506977">
        <ele>29</ele>
        <time>2017-12-20T18:20:08Z</time>
      </trkpt>
      <trkpt lat="62.637849265127" lon="17.97502729769">
        <ele>29</ele>
        <time>2017-12-20T18:20:09Z</time>
      </trkpt>
      <trkpt lat="62.637833590974" lon="17.975060070919">
        <ele>29.2</ele>
        <time>2017-12-20T18:20:10Z</time>
      </trkpt>
      <trkpt lat="62.637817413907" lon="17.975093766157">
        <ele>29.4</ele>
        <time>2017-12-20T18:20:11Z</time>
      </trkpt>
      <trkpt lat="62.637804002867" lon="17.975127209938">
        <ele>29.6</ele>
        <time>2017-12-20T18:20:12Z</time>
      </trkpt>
      <trkpt lat="62.637790172732" lon="17.97515554076">
        <ele>29.8</ele>
        <time>2017-12-20T18:20:13Z</time>
      </trkpt>
      <trkpt lat="62.637772822199" lon="17.975188816903">
        <ele>30</ele>
        <time>2017-12-20T18:20:14Z</time>
      </trkpt>
      <trkpt lat="62.637759997892" lon="17.975216309535">
        <ele>30</ele>
        <time>2017-12-20T18:20:15Z</time>
      </trkpt>
      <trkpt lat="62.637745245748" lon="17.975242628701">
        <ele>30.2</ele>
        <time>2017-12-20T18:20:16Z</time>
      </trkpt>
      <trkpt lat="62.637729320138" lon="17.975271378618">
        <ele>30.4</ele>
        <time>2017-12-20T18:20:17Z</time>
      </trkpt>
      <trkpt lat="62.63771741784" lon="17.97529635668">
        <ele>30.4</ele>
        <time>2017-12-20T18:20:18Z</time>
      </trkpt>
      <trkpt lat="62.637703084791" lon="17.975323597855">
        <ele>30.6</ele>
        <time>2017-12-20T18:20:19Z</time>
      </trkpt>
      <trkpt lat="62.637687745914" lon="17.975344384967">
        <ele>30.8</ele>
        <time>2017-12-20T18:20:20Z</time>
      </trkpt>
      <trkpt lat="62.637674334874" lon="17.975363914794">
        <ele>31</ele>
        <time>2017-12-20T18:20:21Z</time>
      </trkpt>
      <trkpt lat="62.637660504739" lon="17.975382019698">
        <ele>31.2</ele>
        <time>2017-12-20T18:20:22Z</time>
      </trkpt>
      <trkpt lat="62.637645249681" lon="17.975397023299">
        <ele>31.4</ele>
        <time>2017-12-20T18:20:23Z</time>
      </trkpt>
      <trkpt lat="62.637630748994" lon="17.975412529814">
        <ele>31.4</ele>
        <time>2017-12-20T18:20:24Z</time>
      </trkpt>
      <trkpt lat="62.637612560271" lon="17.97542124699">
        <ele>31.6</ele>
        <time>2017-12-20T18:20:25Z</time>
      </trkpt>
      <trkpt lat="62.637591940797" lon="17.975438681342">
        <ele>31.8</ele>
        <time>2017-12-20T18:20:26Z</time>
      </trkpt>
      <trkpt lat="62.637571740418" lon="17.975457121522">
        <ele>32</ele>
        <time>2017-12-20T18:20:27Z</time>
      </trkpt>
      <trkpt lat="62.637549193107" lon="17.975469778191">
        <ele>32</ele>
        <time>2017-12-20T18:20:28Z</time>
      </trkpt>
      <trkpt lat="62.637529830918" lon="17.97549081676">
        <ele>32.2</ele>
        <time>2017-12-20T18:20:29Z</time>
      </trkpt>
      <trkpt lat="62.637510887824" lon="17.975498025194">
        <ele>32.2</ele>
        <time>2017-12-20T18:20:30Z</time>
      </trkpt>
      <trkpt lat="62.6374944593" lon="17.975501461773">
        <ele>32.4</ele>
        <time>2017-12-20T18:20:31Z</time>
      </trkpt>
      <trkpt lat="62.637478617509" lon="17.975504982171">
        <ele>32.6</ele>
        <time>2017-12-20T18:20:32Z</time>
      </trkpt>
      <trkpt lat="62.637461266976" lon="17.975519399039">
        <ele>32.8</ele>
        <time>2017-12-20T18:20:33Z</time>
      </trkpt>
      <trkpt lat="62.637443916443" lon="17.975532893898">
        <ele>33</ele>
        <time>2017-12-20T18:20:34Z</time>
      </trkpt>
      <trkpt lat="62.637426062996" lon="17.975543371273">
        <ele>33.2</ele>
        <time>2017-12-20T18:20:35Z</time>
      </trkpt>
      <trkpt lat="62.637411394671" lon="17.975555441209">
        <ele>33.4</ele>
        <time>2017-12-20T18:20:36Z</time>
      </trkpt>
      <trkpt lat="62.637393960319" lon="17.975568014059">
        <ele>33.6</ele>
        <time>2017-12-20T18:20:37Z</time>
      </trkpt>
      <trkpt lat="62.637379459632" lon="17.975585699868">
        <ele>33.6</ele>
        <time>2017-12-20T18:20:38Z</time>
      </trkpt>
      <trkpt lat="62.637358253425" lon="17.975605397333">
        <ele>33.8</ele>
        <time>2017-12-20T18:20:39Z</time>
      </trkpt>
      <trkpt lat="62.637337969227" lon="17.975622161133">
        <ele>34</ele>
        <time>2017-12-20T18:20:40Z</time>
      </trkpt>
      <trkpt lat="62.637316092468" lon="17.975643618797">
        <ele>34.2</ele>
        <time>2017-12-20T18:20:41Z</time>
      </trkpt>
      <trkpt lat="62.637295892089" lon="17.975663316262">
        <ele>34.2</ele>
        <time>2017-12-20T18:20:42Z</time>
      </trkpt>
      <trkpt lat="62.637281475221" lon="17.975688797238">
        <ele>34</ele>
        <time>2017-12-20T18:20:43Z</time>
      </trkpt>
      <trkpt lat="62.637265298154" lon="17.975713440024">
        <ele>34.2</ele>
        <time>2017-12-20T18:20:44Z</time>
      </trkpt>
      <trkpt lat="62.637253228218" lon="17.97573556824">
        <ele>34.4</ele>
        <time>2017-12-20T18:20:45Z</time>
      </trkpt>
      <trkpt lat="62.637240990644" lon="17.975764234338">
        <ele>34.4</ele>
        <time>2017-12-20T18:20:46Z</time>
      </trkpt>
      <trkpt lat="62.637226322319" lon="17.975793319531">
        <ele>34.4</ele>
        <time>2017-12-20T18:20:47Z</time>
      </trkpt>
      <trkpt lat="62.637216766953" lon="17.97582106362">
        <ele>34.6</ele>
        <time>2017-12-20T18:20:48Z</time>
      </trkpt>
      <trkpt lat="62.637207295406" lon="17.975855177953">
        <ele>34.8</ele>
        <time>2017-12-20T18:20:49Z</time>
      </trkpt>
      <trkpt lat="62.63719522547" lon="17.975886190983">
        <ele>35</ele>
        <time>2017-12-20T18:20:50Z</time>
      </trkpt>
      <trkpt lat="62.637185418647" lon="17.975918628936">
        <ele>35.2</ele>
        <time>2017-12-20T18:20:51Z</time>
      </trkpt>
      <trkpt lat="62.637177372023" lon="17.975951150708">
        <ele>35.4</ele>
        <time>2017-12-20T18:20:52Z</time>
      </trkpt>
      <trkpt lat="62.63716924158" lon="17.975985684136">
        <ele>35.8</ele>
        <time>2017-12-20T18:20:53Z</time>
      </trkpt>
      <trkpt lat="62.637158848024" lon="17.976025917256">
        <ele>36.2</ele>
        <time>2017-12-20T18:20:54Z</time>
      </trkpt>
      <trkpt lat="62.637149208839" lon="17.976067994394">
        <ele>36.4</ele>
        <time>2017-12-20T18:20:55Z</time>
      </trkpt>
      <trkpt lat="62.637141078396" lon="17.976111831731">
        <ele>36.6</ele>
        <time>2017-12-20T18:20:56Z</time>
      </trkpt>
      <trkpt lat="62.637131355392" lon="17.976158016">
        <ele>36.6</ele>
        <time>2017-12-20T18:20:57Z</time>
      </trkpt>
      <trkpt lat="62.637119453094" lon="17.976203864993">
        <ele>36.6</ele>
        <time>2017-12-20T18:20:58Z</time>
      </trkpt>
      <trkpt lat="62.637114004859" lon="17.976250468357">
        <ele>36.8</ele>
        <time>2017-12-20T18:20:59Z</time>
      </trkpt>
      <trkpt lat="62.637101851104" lon="17.976293048409">
        <ele>37</ele>
        <time>2017-12-20T18:21:00Z</time>
      </trkpt>
      <trkpt lat="62.637089194435" lon="17.976341495791">
        <ele>37</ele>
        <time>2017-12-20T18:21:01Z</time>
      </trkpt>
      <trkpt lat="62.637080058164" lon="17.976383740567">
        <ele>37</ele>
        <time>2017-12-20T18:21:02Z</time>
      </trkpt>
      <trkpt lat="62.637074358472" lon="17.976429505741">
        <ele>37</ele>
        <time>2017-12-20T18:21:03Z</time>
      </trkpt>
      <trkpt lat="62.63707033516" lon="17.976481138245">
        <ele>37</ele>
        <time>2017-12-20T18:21:04Z</time>
      </trkpt>
      <trkpt lat="62.63706782059" lon="17.976534782405">
        <ele>37.2</ele>
        <time>2017-12-20T18:21:05Z</time>
      </trkpt>
      <trkpt lat="62.637064970744" lon="17.97658633109">
        <ele>37.2</ele>
        <time>2017-12-20T18:21:06Z</time>
      </trkpt>
      <trkpt lat="62.637063881097" lon="17.976636873947">
        <ele>37.2</ele>
        <time>2017-12-20T18:21:07Z</time>
      </trkpt>
      <trkpt lat="62.637060528337" lon="17.976686746252">
        <ele>37.4</ele>
        <time>2017-12-20T18:21:08Z</time>
      </trkpt>
      <trkpt lat="62.637058349043" lon="17.976740306593">
        <ele>37.6</ele>
        <time>2017-12-20T18:21:09Z</time>
      </trkpt>
      <trkpt lat="62.637058265224" lon="17.976792106735">
        <ele>37.6</ele>
        <time>2017-12-20T18:21:10Z</time>
      </trkpt>
      <trkpt lat="62.637058432862" lon="17.976849103655">
        <ele>37.6</ele>
        <time>2017-12-20T18:21:11Z</time>
      </trkpt>
      <trkpt lat="62.637057678491" lon="17.976910040068">
        <ele>37.6</ele>
        <time>2017-12-20T18:21:12Z</time>
      </trkpt>
      <trkpt lat="62.6370586005" lon="17.976962929857">
        <ele>37.6</ele>
        <time>2017-12-20T18:21:13Z</time>
      </trkpt>
      <trkpt lat="62.637059187233" lon="17.977028141039">
        <ele>37.6</ele>
        <time>2017-12-20T18:21:14Z</time>
      </trkpt>
      <trkpt lat="62.637055080102" lon="17.977084886502">
        <ele>37.8</ele>
        <time>2017-12-20T18:21:15Z</time>
      </trkpt>
      <trkpt lat="62.637049883324" lon="17.977148337485">
        <ele>37.6</ele>
        <time>2017-12-20T18:21:16Z</time>
      </trkpt>
      <trkpt lat="62.637042171976" lon="17.977220170368">
        <ele>37.6</ele>
        <time>2017-12-20T18:21:17Z</time>
      </trkpt>
      <trkpt lat="62.637033873895" lon="17.977274652718">
        <ele>37.6</ele>
        <time>2017-12-20T18:21:18Z</time>
      </trkpt>
      <trkpt lat="62.637022223054" lon="17.977338858072">
        <ele>37.8</ele>
        <time>2017-12-20T18:21:19Z</time>
      </trkpt>
      <trkpt lat="62.63700998548" lon="17.977388646558">
        <ele>37.8</ele>
        <time>2017-12-20T18:21:20Z</time>
      </trkpt>
      <trkpt lat="62.636994730422" lon="17.977436758664">
        <ele>37.8</ele>
        <time>2017-12-20T18:21:21Z</time>
      </trkpt>
      <trkpt lat="62.636977379889" lon="17.977484116399">
        <ele>37.6</ele>
        <time>2017-12-20T18:21:22Z</time>
      </trkpt>
      <trkpt lat="62.636971931654" lon="17.977549746676">
        <ele>37.6</ele>
        <time>2017-12-20T18:21:23Z</time>
      </trkpt>
      <trkpt lat="62.636963549754" lon="17.977612191831">
        <ele>37.8</ele>
        <time>2017-12-20T18:21:24Z</time>
      </trkpt>
      <trkpt lat="62.63695634132" lon="17.977669775484">
        <ele>37.8</ele>
        <time>2017-12-20T18:21:25Z</time>
      </trkpt>
      <trkpt lat="62.636947540325" lon="17.97772710768">
        <ele>37.8</ele>
        <time>2017-12-20T18:21:26Z</time>
      </trkpt>
      <trkpt lat="62.636940164253" lon="17.977784858971">
        <ele>37.8</ele>
        <time>2017-12-20T18:21:27Z</time>
      </trkpt>
      <trkpt lat="62.636933123457" lon="17.977841520615">
        <ele>37.8</ele>
        <time>2017-12-20T18:21:28Z</time>
      </trkpt>
      <trkpt lat="62.636926920851" lon="17.977904636322">
        <ele>37.8</ele>
        <time>2017-12-20T18:21:29Z</time>
      </trkpt>
      <trkpt lat="62.636920382969" lon="17.97796347726">
        <ele>37.8</ele>
        <time>2017-12-20T18:21:30Z</time>
      </trkpt>
      <trkpt lat="62.636912839259" lon="17.978021815284">
        <ele>37.8</ele>
        <time>2017-12-20T18:21:31Z</time>
      </trkpt>
      <trkpt lat="62.636904289721" lon="17.978080069489">
        <ele>38</ele>
        <time>2017-12-20T18:21:32Z</time>
      </trkpt>
      <trkpt lat="62.636896662192" lon="17.978127511043">
        <ele>38</ele>
        <time>2017-12-20T18:21:33Z</time>
      </trkpt>
      <trkpt lat="62.636888364111" lon="17.978178975909">
        <ele>38</ele>
        <time>2017-12-20T18:21:34Z</time>
      </trkpt>
      <trkpt lat="62.636877719098" lon="17.978232452431">
        <ele>38</ele>
        <time>2017-12-20T18:21:35Z</time>
      </trkpt>
      <trkpt lat="62.636863134592" lon="17.978282911469">
        <ele>38.2</ele>
        <time>2017-12-20T18:21:36Z</time>
      </trkpt>
      <trkpt lat="62.636848801543" lon="17.978331945584">
        <ele>38.2</ele>
        <time>2017-12-20T18:21:37Z</time>
      </trkpt>
      <trkpt lat="62.636834552313" lon="17.978375782921">
        <ele>38.2</ele>
        <time>2017-12-20T18:21:38Z</time>
      </trkpt>
      <trkpt lat="62.636817034142" lon="17.978429594719">
        <ele>38.2</ele>
        <time>2017-12-20T18:21:39Z</time>
      </trkpt>
      <trkpt lat="62.636800605618" lon="17.978469324925">
        <ele>38.2</ele>
        <time>2017-12-20T18:21:40Z</time>
      </trkpt>
      <trkpt lat="62.636783590361" lon="17.978519700144">
        <ele>38.2</ele>
        <time>2017-12-20T18:21:41Z</time>
      </trkpt>
      <trkpt lat="62.636768000027" lon="17.978557502513">
        <ele>38.4</ele>
        <time>2017-12-20T18:21:42Z</time>
      </trkpt>
      <trkpt lat="62.636750817132" lon="17.978586168611">
        <ele>38.4</ele>
        <time>2017-12-20T18:21:43Z</time>
      </trkpt>
      <trkpt lat="62.636733466599" lon="17.978612320139">
        <ele>38.8</ele>
        <time>2017-12-20T18:21:44Z</time>
      </trkpt>
      <trkpt lat="62.636717205713" lon="17.97863319107">
        <ele>38.8</ele>
        <time>2017-12-20T18:21:45Z</time>
      </trkpt>
      <trkpt lat="62.63669734061" lon="17.978658588227">
        <ele>38.8</ele>
        <time>2017-12-20T18:21:46Z</time>
      </trkpt>
      <trkpt lat="62.636673619833" lon="17.978681470814">
        <ele>39</ele>
        <time>2017-12-20T18:21:47Z</time>
      </trkpt>
      <trkpt lat="62.636653000359" lon="17.978692870198">
        <ele>39</ele>
        <time>2017-12-20T18:21:48Z</time>
      </trkpt>
      <trkpt lat="62.636631207419" lon="17.978704604858">
        <ele>39</ele>
        <time>2017-12-20T18:21:49Z</time>
      </trkpt>
      <trkpt lat="62.636607235185" lon="17.978712735301">
        <ele>39</ele>
        <time>2017-12-20T18:21:50Z</time>
      </trkpt>
      <trkpt lat="62.636583514408" lon="17.978720865744">
        <ele>39.2</ele>
        <time>2017-12-20T18:21:51Z</time>
      </trkpt>
      <trkpt lat="62.636564403676" lon="17.978731678395">
        <ele>39.4</ele>
        <time>2017-12-20T18:21:52Z</time>
      </trkpt>
      <trkpt lat="62.636536911044" lon="17.978722625943">
        <ele>39.4</ele>
        <time>2017-12-20T18:21:53Z</time>
      </trkpt>
      <trkpt lat="62.636514279914" lon="17.978724805237">
        <ele>39.6</ele>
        <time>2017-12-20T18:21:54Z</time>
      </trkpt>
      <trkpt lat="62.636494163354" lon="17.97872455378">
        <ele>39.8</ele>
        <time>2017-12-20T18:21:55Z</time>
      </trkpt>
      <trkpt lat="62.636472789509" lon="17.978725559608">
        <ele>40</ele>
        <time>2017-12-20T18:21:56Z</time>
      </trkpt>
      <trkpt lat="62.636451248026" lon="17.978724050866">
        <ele>40</ele>
        <time>2017-12-20T18:21:57Z</time>
      </trkpt>
      <trkpt lat="62.636432807846" lon="17.978721871572">
        <ele>40</ele>
        <time>2017-12-20T18:21:58Z</time>
      </trkpt>
      <trkpt lat="62.636408248879" lon="17.978717596803">
        <ele>40.2</ele>
        <time>2017-12-20T18:21:59Z</time>
      </trkpt>
      <trkpt lat="62.636387964681" lon="17.978718267355">
        <ele>40.4</ele>
        <time>2017-12-20T18:22:00Z</time>
      </trkpt>
      <trkpt lat="62.636370362691" lon="17.978724889056">
        <ele>40.4</ele>
        <time>2017-12-20T18:22:01Z</time>
      </trkpt>
      <trkpt lat="62.636354604719" lon="17.978733690051">
        <ele>40.6</ele>
        <time>2017-12-20T18:22:02Z</time>
      </trkpt>
      <trkpt lat="62.636337421824" lon="17.978742239589">
        <ele>40.6</ele>
        <time>2017-12-20T18:22:03Z</time>
      </trkpt>
      <trkpt lat="62.636321663852" lon="17.978749867118">
        <ele>40.8</ele>
        <time>2017-12-20T18:22:04Z</time>
      </trkpt>
      <trkpt lat="62.63630506769" lon="17.978757829923">
        <ele>40.8</ele>
        <time>2017-12-20T18:22:05Z</time>
      </trkpt>
      <trkpt lat="62.636289896451" lon="17.978767720565">
        <ele>41.2</ele>
        <time>2017-12-20T18:22:06Z</time>
      </trkpt>
      <trkpt lat="62.636278413248" lon="17.978783646175">
        <ele>41.2</ele>
        <time>2017-12-20T18:22:07Z</time>
      </trkpt>
      <trkpt lat="62.636263493466" lon="17.978800074699">
        <ele>41.4</ele>
        <time>2017-12-20T18:22:08Z</time>
      </trkpt>
      <trkpt lat="62.636243712182" lon="17.978819101612">
        <ele>41.8</ele>
        <time>2017-12-20T18:22:09Z</time>
      </trkpt>
      <trkpt lat="62.636228540943" lon="17.978839888724">
        <ele>42.2</ele>
        <time>2017-12-20T18:22:10Z</time>
      </trkpt>
      <trkpt lat="62.636209849306" lon="17.978862603673">
        <ele>42.4</ele>
        <time>2017-12-20T18:22:11Z</time>
      </trkpt>
      <trkpt lat="62.636192917868" lon="17.978883390785">
        <ele>42.6</ele>
        <time>2017-12-20T18:22:12Z</time>
      </trkpt>
      <trkpt lat="62.63618269195" lon="17.978902501517">
        <ele>42.8</ele>
        <time>2017-12-20T18:22:13Z</time>
      </trkpt>
      <trkpt lat="62.636168945634" lon="17.978919181498">
        <ele>43</ele>
        <time>2017-12-20T18:22:14Z</time>
      </trkpt>
      <trkpt lat="62.636154528766" lon="17.978931167615">
        <ele>43</ele>
        <time>2017-12-20T18:22:15Z</time>
      </trkpt>
      <trkpt lat="62.63614329702" lon="17.978942399361">
        <ele>43.2</ele>
        <time>2017-12-20T18:22:16Z</time>
      </trkpt>
      <trkpt lat="62.636130388894" lon="17.978953295831">
        <ele>43.2</ele>
        <time>2017-12-20T18:22:17Z</time>
      </trkpt>
      <trkpt lat="62.63612066589" lon="17.978966120138">
        <ele>43.4</ele>
        <time>2017-12-20T18:22:18Z</time>
      </trkpt>
      <trkpt lat="62.636107003393" lon="17.978987242526">
        <ele>43.4</ele>
        <time>2017-12-20T18:22:19Z</time>
      </trkpt>
      <trkpt lat="62.636095939285" lon="17.979006017982">
        <ele>43.8</ele>
        <time>2017-12-20T18:22:20Z</time>
      </trkpt>
      <trkpt lat="62.636086383919" lon="17.979018842289">
        <ele>44</ele>
        <time>2017-12-20T18:22:21Z</time>
      </trkpt>
      <trkpt lat="62.636077750562" lon="17.979030744587">
        <ele>44.2</ele>
        <time>2017-12-20T18:22:22Z</time>
      </trkpt>
      <trkpt lat="62.636066015902" lon="17.979067038214">
        <ele>44.4</ele>
        <time>2017-12-20T18:22:23Z</time>
      </trkpt>
      <trkpt lat="62.636057634002" lon="17.979088495878">
        <ele>44.8</ele>
        <time>2017-12-20T18:22:24Z</time>
      </trkpt>
      <trkpt lat="62.636048413912" lon="17.979111043189">
        <ele>45.2</ele>
        <time>2017-12-20T18:22:25Z</time>
      </trkpt>
      <trkpt lat="62.636037182166" lon="17.979134596328">
        <ele>45.6</ele>
        <time>2017-12-20T18:22:26Z</time>
      </trkpt>
      <trkpt lat="62.636027878257" lon="17.979152533594">
        <ele>46</ele>
        <time>2017-12-20T18:22:27Z</time>
      </trkpt>
      <trkpt lat="62.636020502185" lon="17.979167285738">
        <ele>46</ele>
        <time>2017-12-20T18:22:28Z</time>
      </trkpt>
      <trkpt lat="62.636018574348" lon="17.979174997086">
        <ele>46.2</ele>
        <time>2017-12-20T18:22:29Z</time>
      </trkpt>
      <trkpt lat="62.636018993443" lon="17.979174829448">
        <ele>46.4</ele>
        <time>2017-12-20T18:22:30Z</time>
      </trkpt>
      <trkpt lat="62.636012371742" lon="17.97917466181">
        <ele>46.6</ele>
        <time>2017-12-20T18:22:32Z</time>
      </trkpt>
      <trkpt lat="62.635962667075" lon="17.979665505874">
        <ele>46.6</ele>
        <time>2017-12-20T18:22:43Z</time>
      </trkpt>
      <trkpt lat="62.635952692614" lon="17.979798107532">
        <ele>46.4</ele>
        <time>2017-12-20T18:22:44Z</time>
      </trkpt>
      <trkpt lat="62.635946741465" lon="17.979922159652">
        <ele>45.6</ele>
        <time>2017-12-20T18:22:45Z</time>
      </trkpt>
      <trkpt lat="62.635944226895" lon="17.980054426034">
        <ele>44.6</ele>
        <time>2017-12-20T18:22:46Z</time>
      </trkpt>
      <trkpt lat="62.635948501664" lon="17.980193314117">
        <ele>43.4</ele>
        <time>2017-12-20T18:22:47Z</time>
      </trkpt>
      <trkpt lat="62.635962918532" lon="17.98034645143">
        <ele>42.2</ele>
        <time>2017-12-20T18:22:48Z</time>
      </trkpt>
      <trkpt lat="62.635982615997" lon="17.9804914583">
        <ele>40.8</ele>
        <time>2017-12-20T18:22:49Z</time>
      </trkpt>
      <trkpt lat="62.636010779181" lon="17.980627999451">
        <ele>40.4</ele>
        <time>2017-12-20T18:22:50Z</time>
      </trkpt>
      <trkpt lat="62.636039277641" lon="17.980757080711">
        <ele>40.2</ele>
        <time>2017-12-20T18:22:51Z</time>
      </trkpt>
      <trkpt lat="62.636054951794" lon="17.980871409827">
        <ele>40</ele>
        <time>2017-12-20T18:22:52Z</time>
      </trkpt>
      <trkpt lat="62.636085294272" lon="17.981013147756">
        <ele>39.6</ele>
        <time>2017-12-20T18:22:53Z</time>
      </trkpt>
      <trkpt lat="62.636116391121" lon="17.981152203477">
        <ele>39.2</ele>
        <time>2017-12-20T18:22:54Z</time>
      </trkpt>
      <trkpt lat="62.63614162064" lon="17.981278937805">
        <ele>39.2</ele>
        <time>2017-12-20T18:22:55Z</time>
      </trkpt>
      <trkpt lat="62.636166095788" lon="17.981397290233">
        <ele>38.8</ele>
        <time>2017-12-20T18:22:56Z</time>
      </trkpt>
      <trkpt lat="62.636193420782" lon="17.981511116435">
        <ele>38.6</ele>
        <time>2017-12-20T18:22:57Z</time>
      </trkpt>
      <trkpt lat="62.636218231206" lon="17.98160206005">
        <ele>38.4</ele>
        <time>2017-12-20T18:22:58Z</time>
      </trkpt>
      <trkpt lat="62.636241197612" lon="17.981717897908">
        <ele>38.2</ele>
        <time>2017-12-20T18:22:59Z</time>
      </trkpt>
      <trkpt lat="62.636255865937" lon="17.981826359694">
        <ele>38.2</ele>
        <time>2017-12-20T18:23:00Z</time>
      </trkpt>
      <trkpt lat="62.63626483457" lon="17.981935911127">
        <ele>38.2</ele>
        <time>2017-12-20T18:23:01Z</time>
      </trkpt>
      <trkpt lat="62.636264918389" lon="17.982043869999">
        <ele>38.2</ele>
        <time>2017-12-20T18:23:02Z</time>
      </trkpt>
      <trkpt lat="62.636260140706" lon="17.982146212998">
        <ele>38</ele>
        <time>2017-12-20T18:23:03Z</time>
      </trkpt>
      <trkpt lat="62.636259889249" lon="17.982250902929">
        <ele>38</ele>
        <time>2017-12-20T18:23:04Z</time>
      </trkpt>
      <trkpt lat="62.636253854281" lon="17.982357353059">
        <ele>38</ele>
        <time>2017-12-20T18:23:05Z</time>
      </trkpt>
      <trkpt lat="62.63624974715" lon="17.982469419062">
        <ele>38</ele>
        <time>2017-12-20T18:23:06Z</time>
      </trkpt>
      <trkpt lat="62.636251507349" lon="17.982570337138">
        <ele>38.2</ele>
        <time>2017-12-20T18:23:07Z</time>
      </trkpt>
      <trkpt lat="62.636249579512" lon="17.98266488497">
        <ele>38.6</ele>
        <time>2017-12-20T18:23:08Z</time>
      </trkpt>
      <trkpt lat="62.636237341938" lon="17.98276798234">
        <ele>38.8</ele>
        <time>2017-12-20T18:23:09Z</time>
      </trkpt>
      <trkpt lat="62.636231390789" lon="17.982840318137">
        <ele>39.2</ele>
        <time>2017-12-20T18:23:10Z</time>
      </trkpt>
      <trkpt lat="62.636230301142" lon="17.98291969473">
        <ele>39.6</ele>
        <time>2017-12-20T18:23:11Z</time>
      </trkpt>
      <trkpt lat="62.636237341938" lon="17.983007117947">
        <ele>39.4</ele>
        <time>2017-12-20T18:23:12Z</time>
      </trkpt>
      <trkpt lat="62.636245137105" lon="17.983089763481">
        <ele>39.6</ele>
        <time>2017-12-20T18:23:13Z</time>
      </trkpt>
      <trkpt lat="62.636256368851" lon="17.983181964381">
        <ele>39.6</ele>
        <time>2017-12-20T18:23:14Z</time>
      </trkpt>
      <trkpt lat="62.636259051059" lon="17.983255976558">
        <ele>39.6</ele>
        <time>2017-12-20T18:23:15Z</time>
      </trkpt>
      <trkpt lat="62.636261565629" lon="17.983325546328">
        <ele>39.6</ele>
        <time>2017-12-20T18:23:16Z</time>
      </trkpt>
      <trkpt lat="62.636261817086" lon="17.98339578665">
        <ele>39.6</ele>
        <time>2017-12-20T18:23:17Z</time>
      </trkpt>
      <trkpt lat="62.636256704127" lon="17.983453286484">
        <ele>39.6</ele>
        <time>2017-12-20T18:23:18Z</time>
      </trkpt>
      <trkpt lat="62.636253854281" lon="17.983513384707">
        <ele>39.6</ele>
        <time>2017-12-20T18:23:19Z</time>
      </trkpt>
      <trkpt lat="62.636248992779" lon="17.983561580632">
        <ele>39.8</ele>
        <time>2017-12-20T18:23:20Z</time>
      </trkpt>
      <trkpt lat="62.636235162644" lon="17.98361371605">
        <ele>39.8</ele>
        <time>2017-12-20T18:23:21Z</time>
      </trkpt>
      <trkpt lat="62.636224266174" lon="17.983654368265">
        <ele>39.8</ele>
        <time>2017-12-20T18:23:22Z</time>
      </trkpt>
      <trkpt lat="62.636212447695" lon="17.983708515339">
        <ele>40.2</ele>
        <time>2017-12-20T18:23:23Z</time>
      </trkpt>
      <trkpt lat="62.636206328908" lon="17.983772385417">
        <ele>40.2</ele>
        <time>2017-12-20T18:23:24Z</time>
      </trkpt>
      <trkpt lat="62.636197444094" lon="17.983832232183">
        <ele>40.4</ele>
        <time>2017-12-20T18:23:25Z</time>
      </trkpt>
      <trkpt lat="62.636191576764" lon="17.983885960162">
        <ele>40.4</ele>
        <time>2017-12-20T18:23:26Z</time>
      </trkpt>
      <trkpt lat="62.636177746629" lon="17.983945052557">
        <ele>40.6</ele>
        <time>2017-12-20T18:23:27Z</time>
      </trkpt>
      <trkpt lat="62.636166179607" lon="17.984000876011">
        <ele>40.6</ele>
        <time>2017-12-20T18:23:28Z</time>
      </trkpt>
      <trkpt lat="62.636157713888" lon="17.984060052225">
        <ele>40.8</ele>
        <time>2017-12-20T18:23:29Z</time>
      </trkpt>
      <trkpt lat="62.636157294793" lon="17.984111852367">
        <ele>40.8</ele>
        <time>2017-12-20T18:23:30Z</time>
      </trkpt>
      <trkpt lat="62.636151762739" lon="17.98416440688">
        <ele>41</ele>
        <time>2017-12-20T18:23:31Z</time>
      </trkpt>
      <trkpt lat="62.636147739427" lon="17.984221152343">
        <ele>41.2</ele>
        <time>2017-12-20T18:23:32Z</time>
      </trkpt>
      <trkpt lat="62.636146565961" lon="17.984280663833">
        <ele>41.4</ele>
        <time>2017-12-20T18:23:33Z</time>
      </trkpt>
      <trkpt lat="62.636145057219" lon="17.984338331305">
        <ele>41.4</ele>
        <time>2017-12-20T18:23:34Z</time>
      </trkpt>
      <trkpt lat="62.63614329702" lon="17.984395328225">
        <ele>41.4</ele>
        <time>2017-12-20T18:23:35Z</time>
      </trkpt>
      <trkpt lat="62.636139273708" lon="17.98445022967">
        <ele>41.4</ele>
        <time>2017-12-20T18:23:36Z</time>
      </trkpt>
      <trkpt lat="62.636129131609" lon="17.984505214934">
        <ele>41.4</ele>
        <time>2017-12-20T18:23:37Z</time>
      </trkpt>
      <trkpt lat="62.636119743881" lon="17.984559278189">
        <ele>41.4</ele>
        <time>2017-12-20T18:23:38Z</time>
      </trkpt>
      <trkpt lat="62.636109685601" lon="17.984619795507">
        <ele>41.4</ele>
        <time>2017-12-20T18:23:39Z</time>
      </trkpt>
      <trkpt lat="62.63609803476" lon="17.98467318821">
        <ele>41.4</ele>
        <time>2017-12-20T18:23:40Z</time>
      </trkpt>
      <trkpt lat="62.636090826326" lon="17.984732951157">
        <ele>41.6</ele>
        <time>2017-12-20T18:23:41Z</time>
      </trkpt>
      <trkpt lat="62.636090071955" lon="17.984785421851">
        <ele>41.6</ele>
        <time>2017-12-20T18:23:42Z</time>
      </trkpt>
      <trkpt lat="62.63608127096" lon="17.984837305812">
        <ele>41.6</ele>
        <time>2017-12-20T18:23:43Z</time>
      </trkpt>
      <trkpt lat="62.636079259304" lon="17.984896901121">
        <ele>41.6</ele>
        <time>2017-12-20T18:23:44Z</time>
      </trkpt>
      <trkpt lat="62.63607708001" lon="17.984949539453">
        <ele>41.8</ele>
        <time>2017-12-20T18:23:45Z</time>
      </trkpt>
      <trkpt lat="62.6360779182" lon="17.985000836681">
        <ele>42</ele>
        <time>2017-12-20T18:23:46Z</time>
      </trkpt>
      <trkpt lat="62.636075487449" lon="17.985057498325">
        <ele>42.2</ele>
        <time>2017-12-20T18:23:47Z</time>
      </trkpt>
      <trkpt lat="62.636072218508" lon="17.985102257671">
        <ele>42</ele>
        <time>2017-12-20T18:23:48Z</time>
      </trkpt>
      <trkpt lat="62.636069703938" lon="17.985138802755">
        <ele>42.2</ele>
        <time>2017-12-20T18:23:49Z</time>
      </trkpt>
      <trkpt lat="62.636068614291" lon="17.985189764707">
        <ele>42.4</ele>
        <time>2017-12-20T18:23:50Z</time>
      </trkpt>
      <trkpt lat="62.636073894888" lon="17.985245504342">
        <ele>42.4</ele>
        <time>2017-12-20T18:23:51Z</time>
      </trkpt>
      <trkpt lat="62.636074481621" lon="17.985295628104">
        <ele>42.4</ele>
        <time>2017-12-20T18:23:52Z</time>
      </trkpt>
      <trkpt lat="62.636070039214" lon="17.985361677476">
        <ele>42.6</ele>
        <time>2017-12-20T18:23:53Z</time>
      </trkpt>
      <trkpt lat="62.636067943739" lon="17.985419093491">
        <ele>42.8</ele>
        <time>2017-12-20T18:23:54Z</time>
      </trkpt>
      <trkpt lat="62.636067105549" lon="17.985463433742">
        <ele>42.8</ele>
        <time>2017-12-20T18:23:55Z</time>
      </trkpt>
      <trkpt lat="62.63605780164" lon="17.985516239712">
        <ele>43</ele>
        <time>2017-12-20T18:23:56Z</time>
      </trkpt>
      <trkpt lat="62.636050928482" lon="17.985577511401">
        <ele>43</ele>
        <time>2017-12-20T18:23:57Z</time>
      </trkpt>
      <trkpt lat="62.636042546582" lon="17.985632580484">
        <ele>43</ele>
        <time>2017-12-20T18:23:58Z</time>
      </trkpt>
      <trkpt lat="62.63602259766" lon="17.985685386454">
        <ele>43</ele>
        <time>2017-12-20T18:23:59Z</time>
      </trkpt>
      <trkpt lat="62.636002816376" lon="17.985720674253">
        <ele>43.2</ele>
        <time>2017-12-20T18:24:00Z</time>
      </trkpt>
      <trkpt lat="62.635980017608" lon="17.985754118034">
        <ele>43.2</ele>
        <time>2017-12-20T18:24:01Z</time>
      </trkpt>
      <trkpt lat="62.635958643763" lon="17.985793429145">
        <ele>43.2</ele>
        <time>2017-12-20T18:24:02Z</time>
      </trkpt>
      <trkpt lat="62.635940706497" lon="17.985823939261">
        <ele>43.4</ele>
        <time>2017-12-20T18:24:03Z</time>
      </trkpt>
      <trkpt lat="62.635917740091" lon="17.985847911495">
        <ele>43.6</ele>
        <time>2017-12-20T18:24:04Z</time>
      </trkpt>
      <trkpt lat="62.6359018983" lon="17.985864842933">
        <ele>43.8</ele>
        <time>2017-12-20T18:24:05Z</time>
      </trkpt>
      <trkpt lat="62.635888068165" lon="17.985884037484">
        <ele>44</ele>
        <time>2017-12-20T18:24:06Z</time>
      </trkpt>
      <trkpt lat="62.635871220546" lon="17.98590197475">
        <ele>44.2</ele>
        <time>2017-12-20T18:24:07Z</time>
      </trkpt>
      <trkpt lat="62.635850936348" lon="17.985910691926">
        <ele>44.4</ele>
        <time>2017-12-20T18:24:08Z</time>
      </trkpt>
      <trkpt lat="62.635825874467" lon="17.985919409102">
        <ele>44.6</ele>
        <time>2017-12-20T18:24:09Z</time>
      </trkpt>
      <trkpt lat="62.63579880093" lon="17.985929132106">
        <ele>44.6</ele>
        <time>2017-12-20T18:24:10Z</time>
      </trkpt>
      <trkpt lat="62.635776672714" lon="17.985963916991">
        <ele>44.6</ele>
        <time>2017-12-20T18:24:11Z</time>
      </trkpt>
      <trkpt lat="62.635753371032" lon="17.986007502871">
        <ele>44.6</ele>
        <time>2017-12-20T18:24:12Z</time>
      </trkpt>
      <trkpt lat="62.635730823721" lon="17.986046478706">
        <ele>44.6</ele>
        <time>2017-12-20T18:24:13Z</time>
      </trkpt>
      <trkpt lat="62.635707605858" lon="17.986085203084">
        <ele>44.6</ele>
        <time>2017-12-20T18:24:14Z</time>
      </trkpt>
      <trkpt lat="62.635688243669" lon="17.986121245254">
        <ele>44.6</ele>
        <time>2017-12-20T18:24:15Z</time>
      </trkpt>
      <trkpt lat="62.635676676647" lon="17.986153515569">
        <ele>44.6</ele>
        <time>2017-12-20T18:24:16Z</time>
      </trkpt>
      <trkpt lat="62.635662259779" lon="17.98618193021">
        <ele>44.8</ele>
        <time>2017-12-20T18:24:17Z</time>
      </trkpt>
      <trkpt lat="62.635650022205" lon="17.986213697611">
        <ele>44.8</ele>
        <time>2017-12-20T18:24:18Z</time>
      </trkpt>
      <trkpt lat="62.63563786845" lon="17.986252924903">
        <ele>44.8</ele>
        <time>2017-12-20T18:24:19Z</time>
      </trkpt>
      <trkpt lat="62.635622864849" lon="17.986280585173">
        <ele>45</ele>
        <time>2017-12-20T18:24:20Z</time>
      </trkpt>
      <trkpt lat="62.635602413013" lon="17.986313609859">
        <ele>45.2</ele>
        <time>2017-12-20T18:24:21Z</time>
      </trkpt>
      <trkpt lat="62.635586152127" lon="17.986349819667">
        <ele>45.4</ele>
        <time>2017-12-20T18:24:22Z</time>
      </trkpt>
      <trkpt lat="62.635571232345" lon="17.986390136606">
        <ele>45.6</ele>
        <time>2017-12-20T18:24:23Z</time>
      </trkpt>
      <trkpt lat="62.635543069161" lon="17.986440428006">
        <ele>45.6</ele>
        <time>2017-12-20T18:24:24Z</time>
      </trkpt>
      <trkpt lat="62.635527395008" lon="17.986484097705">
        <ele>45.8</ele>
        <time>2017-12-20T18:24:25Z</time>
      </trkpt>
      <trkpt lat="62.635512223769" lon="17.986535814028">
        <ele>46</ele>
        <time>2017-12-20T18:24:26Z</time>
      </trkpt>
      <trkpt lat="62.635499399462" lon="17.986581914478">
        <ele>46</ele>
        <time>2017-12-20T18:24:27Z</time>
      </trkpt>
      <trkpt lat="62.635484814956" lon="17.98661695082">
        <ele>46</ele>
        <time>2017-12-20T18:24:28Z</time>
      </trkpt>
      <trkpt lat="62.635467212966" lon="17.986659027958">
        <ele>46</ele>
        <time>2017-12-20T18:24:29Z</time>
      </trkpt>
      <trkpt lat="62.635452125546" lon="17.986700686001">
        <ele>46</ele>
        <time>2017-12-20T18:24:30Z</time>
      </trkpt>
      <trkpt lat="62.635433266271" lon="17.986746954089">
        <ele>46.2</ele>
        <time>2017-12-20T18:24:31Z</time>
      </trkpt>
      <trkpt lat="62.635413568806" lon="17.98679045615">
        <ele>46.4</ele>
        <time>2017-12-20T18:24:32Z</time>
      </trkpt>
      <trkpt lat="62.635395128626" lon="17.986838400618">
        <ele>46.6</ele>
        <time>2017-12-20T18:24:33Z</time>
      </trkpt>
      <trkpt lat="62.635376939903" lon="17.986884668706">
        <ele>46.8</ele>
        <time>2017-12-20T18:24:34Z</time>
      </trkpt>
      <trkpt lat="62.635358499723" lon="17.98693630121">
        <ele>46.8</ele>
        <time>2017-12-20T18:24:35Z</time>
      </trkpt>
      <trkpt lat="62.635343747579" lon="17.986976785787">
        <ele>47</ele>
        <time>2017-12-20T18:24:36Z</time>
      </trkpt>
      <trkpt lat="62.635325726494" lon="17.987007798817">
        <ele>47</ele>
        <time>2017-12-20T18:24:37Z</time>
      </trkpt>
      <trkpt lat="62.635311141988" lon="17.987033447431">
        <ele>47.2</ele>
        <time>2017-12-20T18:24:38Z</time>
      </trkpt>
      <trkpt lat="62.635298150043" lon="17.987063454633">
        <ele>47.2</ele>
        <time>2017-12-20T18:24:39Z</time>
      </trkpt>
      <trkpt lat="62.635284822822" lon="17.987086421039">
        <ele>47.2</ele>
        <time>2017-12-20T18:24:40Z</time>
      </trkpt>
      <trkpt lat="62.635267891384" lon="17.987144675244">
        <ele>47.6</ele>
        <time>2017-12-20T18:24:41Z</time>
      </trkpt>
      <trkpt lat="62.635248361557" lon="17.987189937504">
        <ele>47.6</ele>
        <time>2017-12-20T18:24:42Z</time>
      </trkpt>
      <trkpt lat="62.635230759567" lon="17.987226566407">
        <ele>47.6</ele>
        <time>2017-12-20T18:24:43Z</time>
      </trkpt>
      <trkpt lat="62.635208547532" lon="17.987275935798">
        <ele>47.8</ele>
        <time>2017-12-20T18:24:44Z</time>
      </trkpt>
      <trkpt lat="62.635194298302" lon="17.987318432031">
        <ele>47.8</ele>
        <time>2017-12-20T18:24:45Z</time>
      </trkpt>
      <trkpt lat="62.635176780131" lon="17.987359922436">
        <ele>48</ele>
        <time>2017-12-20T18:24:46Z</time>
      </trkpt>
      <trkpt lat="62.635158088494" lon="17.987417589908">
        <ele>47.8</ele>
        <time>2017-12-20T18:24:47Z</time>
      </trkpt>
      <trkpt lat="62.635141073237" lon="17.987461511064">
        <ele>47.8</ele>
        <time>2017-12-20T18:24:48Z</time>
      </trkpt>
      <trkpt lat="62.63512573436" lon="17.987496631225">
        <ele>48</ele>
        <time>2017-12-20T18:24:49Z</time>
      </trkpt>
      <trkpt lat="62.635109054379" lon="17.987525716418">
        <ele>48.2</ele>
        <time>2017-12-20T18:24:50Z</time>
      </trkpt>
      <trkpt lat="62.635089440733" lon="17.987562848235">
        <ele>48.4</ele>
        <time>2017-12-20T18:24:51Z</time>
      </trkpt>
      <trkpt lat="62.635073096028" lon="17.987594028903">
        <ele>48.6</ele>
        <time>2017-12-20T18:24:52Z</time>
      </trkpt>
      <trkpt lat="62.635054152934" lon="17.987635938403">
        <ele>48.8</ele>
        <time>2017-12-20T18:24:53Z</time>
      </trkpt>
      <trkpt lat="62.63503772441" lon="17.987678015541">
        <ele>49</ele>
        <time>2017-12-20T18:24:54Z</time>
      </trkpt>
      <trkpt lat="62.635016015289" lon="17.987704418526">
        <ele>49</ele>
        <time>2017-12-20T18:24:55Z</time>
      </trkpt>
      <trkpt lat="62.635005035" lon="17.987740628334">
        <ele>49</ele>
        <time>2017-12-20T18:24:56Z</time>
      </trkpt>
      <trkpt lat="62.634987265372" lon="17.987774742667">
        <ele>49.2</ele>
        <time>2017-12-20T18:24:57Z</time>
      </trkpt>
      <trkpt lat="62.634973351418" lon="17.98781053338">
        <ele>49.4</ele>
        <time>2017-12-20T18:24:58Z</time>
      </trkpt>
      <trkpt lat="62.634951893754" lon="17.987850850319">
        <ele>49.4</ele>
        <time>2017-12-20T18:24:59Z</time>
      </trkpt>
      <trkpt lat="62.634933202117" lon="17.987872307983">
        <ele>49.4</ele>
        <time>2017-12-20T18:25:00Z</time>
      </trkpt>
      <trkpt lat="62.634915516308" lon="17.987898208054">
        <ele>49.6</ele>
        <time>2017-12-20T18:25:01Z</time>
      </trkpt>
      <trkpt lat="62.634895735024" lon="17.987922347926">
        <ele>49.8</ele>
        <time>2017-12-20T18:25:02Z</time>
      </trkpt>
      <trkpt lat="62.634878887405" lon="17.987949170006">
        <ele>49.8</ele>
        <time>2017-12-20T18:25:03Z</time>
      </trkpt>
      <trkpt lat="62.634858184112" lon="17.98796978948">
        <ele>49.8</ele>
        <time>2017-12-20T18:25:04Z</time>
      </trkpt>
      <trkpt lat="62.634833960421" lon="17.987994767542">
        <ele>50</ele>
        <time>2017-12-20T18:25:05Z</time>
      </trkpt>
      <trkpt lat="62.634811748386" lon="17.988014381188">
        <ele>50</ele>
        <time>2017-12-20T18:25:06Z</time>
      </trkpt>
      <trkpt lat="62.634785764496" lon="17.988029049513">
        <ele>50.2</ele>
        <time>2017-12-20T18:25:07Z</time>
      </trkpt>
      <trkpt lat="62.634761456986" lon="17.988039945983">
        <ele>50.2</ele>
        <time>2017-12-20T18:25:08Z</time>
      </trkpt>
      <trkpt lat="62.634736478924" lon="17.988044053114">
        <ele>50.2</ele>
        <time>2017-12-20T18:25:09Z</time>
      </trkpt>
      <trkpt lat="62.6347116685" lon="17.988046567684">
        <ele>50.4</ele>
        <time>2017-12-20T18:25:10Z</time>
      </trkpt>
      <trkpt lat="62.634687193352" lon="17.988051764462">
        <ele>50.6</ele>
        <time>2017-12-20T18:25:11Z</time>
      </trkpt>
      <trkpt lat="62.634656934693" lon="17.98805360848">
        <ele>50.8</ele>
        <time>2017-12-20T18:25:12Z</time>
      </trkpt>
      <trkpt lat="62.634627933319" lon="17.988056039231">
        <ele>51</ele>
        <time>2017-12-20T18:25:13Z</time>
      </trkpt>
      <trkpt lat="62.634598764307" lon="17.98805863762">
        <ele>51.2</ele>
        <time>2017-12-20T18:25:14Z</time>
      </trkpt>
      <trkpt lat="62.634577306643" lon="17.988063582941">
        <ele>51.4</ele>
        <time>2017-12-20T18:25:15Z</time>
      </trkpt>
      <trkpt lat="62.634556184255" lon="17.988063834398">
        <ele>51.6</ele>
        <time>2017-12-20T18:25:16Z</time>
      </trkpt>
      <trkpt lat="62.634535313324" lon="17.988059978724">
        <ele>51.8</ele>
        <time>2017-12-20T18:25:17Z</time>
      </trkpt>
      <trkpt lat="62.634511424909" lon="17.988065678416">
        <ele>51.8</ele>
        <time>2017-12-20T18:25:18Z</time>
      </trkpt>
      <trkpt lat="62.634487452675" lon="17.988075485239">
        <ele>52</ele>
        <time>2017-12-20T18:25:19Z</time>
      </trkpt>
      <trkpt lat="62.634462474613" lon="17.988072300117">
        <ele>52.2</ele>
        <time>2017-12-20T18:25:20Z</time>
      </trkpt>
      <trkpt lat="62.63443674218" lon="17.988079257094">
        <ele>52</ele>
        <time>2017-12-20T18:25:21Z</time>
      </trkpt>
      <trkpt lat="62.634412267032" lon="17.988095098885">
        <ele>52</ele>
        <time>2017-12-20T18:25:22Z</time>
      </trkpt>
      <trkpt lat="62.634386786056" lon="17.988104151337">
        <ele>52.2</ele>
        <time>2017-12-20T18:25:23Z</time>
      </trkpt>
      <trkpt lat="62.634363232917" lon="17.988110186305">
        <ele>52.4</ele>
        <time>2017-12-20T18:25:24Z</time>
      </trkpt>
      <trkpt lat="62.634335405009" lon="17.988112197961">
        <ele>52.4</ele>
        <time>2017-12-20T18:25:25Z</time>
      </trkpt>
      <trkpt lat="62.634296429174" lon="17.988111946504">
        <ele>52.4</ele>
        <time>2017-12-20T18:25:26Z</time>
      </trkpt>
      <trkpt lat="62.634267595438" lon="17.988114544893">
        <ele>52.6</ele>
        <time>2017-12-20T18:25:27Z</time>
      </trkpt>
      <trkpt lat="62.634239599892" lon="17.988119574033">
        <ele>52.6</ele>
        <time>2017-12-20T18:25:28Z</time>
      </trkpt>
      <trkpt lat="62.634207245758" lon="17.988121082775">
        <ele>52.8</ele>
        <time>2017-12-20T18:25:29Z</time>
      </trkpt>
      <trkpt lat="62.634180339859" lon="17.988112030323">
        <ele>52.6</ele>
        <time>2017-12-20T18:25:30Z</time>
      </trkpt>
      <trkpt lat="62.634148488639" lon="17.988106665907">
        <ele>52.6</ele>
        <time>2017-12-20T18:25:31Z</time>
      </trkpt>
      <trkpt lat="62.634118816713" lon="17.988091913763">
        <ele>52.6</ele>
        <time>2017-12-20T18:25:32Z</time>
      </trkpt>
      <trkpt lat="62.634090150615" lon="17.988076155791">
        <ele>52.6</ele>
        <time>2017-12-20T18:25:33Z</time>
      </trkpt>
      <trkpt lat="62.634058634671" lon="17.988054781946">
        <ele>52.6</ele>
        <time>2017-12-20T18:25:34Z</time>
      </trkpt>
      <trkpt lat="62.634030890582" lon="17.988030390617">
        <ele>52.8</ele>
        <time>2017-12-20T18:25:35Z</time>
      </trkpt>
      <trkpt lat="62.634004319959" lon="17.988020416156">
        <ele>53</ele>
        <time>2017-12-20T18:25:36Z</time>
      </trkpt>
      <trkpt lat="62.633980096268" lon="17.988007424211">
        <ele>53.2</ele>
        <time>2017-12-20T18:25:37Z</time>
      </trkpt>
      <trkpt lat="62.633952184541" lon="17.987990325135">
        <ele>53.2</ele>
        <time>2017-12-20T18:25:38Z</time>
      </trkpt>
      <trkpt lat="62.633930894515" lon="17.987980099217">
        <ele>53.4</ele>
        <time>2017-12-20T18:25:39Z</time>
      </trkpt>
      <trkpt lat="62.633910191222" lon="17.987966520539">
        <ele>53.4</ele>
        <time>2017-12-20T18:25:40Z</time>
      </trkpt>
      <trkpt lat="62.633883704418" lon="17.987956546078">
        <ele>53.4</ele>
        <time>2017-12-20T18:25:41Z</time>
      </trkpt>
      <trkpt lat="62.633859899822" lon="17.987937183889">
        <ele>53.4</ele>
        <time>2017-12-20T18:25:42Z</time>
      </trkpt>
      <trkpt lat="62.633838945072" lon="17.987913882207">
        <ele>53.4</ele>
        <time>2017-12-20T18:25:43Z</time>
      </trkpt>
      <trkpt lat="62.633812793544" lon="17.987886221937">
        <ele>53.6</ele>
        <time>2017-12-20T18:25:44Z</time>
      </trkpt>
      <trkpt lat="62.633787815482" lon="17.987862333522">
        <ele>53.6</ele>
        <time>2017-12-20T18:25:45Z</time>
      </trkpt>
      <trkpt lat="62.633760825764" lon="17.987834757071">
        <ele>53.6</ele>
        <time>2017-12-20T18:25:46Z</time>
      </trkpt>
      <trkpt lat="62.633725202689" lon="17.987808521724">
        <ele>53.6</ele>
        <time>2017-12-20T18:25:47Z</time>
      </trkpt>
      <trkpt lat="62.633699470256" lon="17.987783124567">
        <ele>53.6</ele>
        <time>2017-12-20T18:25:48Z</time>
      </trkpt>
      <trkpt lat="62.633679437515" lon="17.987753452641">
        <ele>53.6</ele>
        <time>2017-12-20T18:25:49Z</time>
      </trkpt>
      <trkpt lat="62.633661919344" lon="17.987740628334">
        <ele>53.6</ele>
        <time>2017-12-20T18:25:50Z</time>
      </trkpt>
      <trkpt lat="62.633639036757" lon="17.987721852878">
        <ele>53.6</ele>
        <time>2017-12-20T18:25:51Z</time>
      </trkpt>
      <trkpt lat="62.633619590749" lon="17.987696204264">
        <ele>53.8</ele>
        <time>2017-12-20T18:25:52Z</time>
      </trkpt>
      <trkpt lat="62.633599306551" lon="17.987681200663">
        <ele>53.8</ele>
        <time>2017-12-20T18:25:53Z</time>
      </trkpt>
      <trkpt lat="62.633577681249" lon="17.987657060791">
        <ele>54.2</ele>
        <time>2017-12-20T18:25:54Z</time>
      </trkpt>
      <trkpt lat="62.633557061775" lon="17.98763032253">
        <ele>54.6</ele>
        <time>2017-12-20T18:25:55Z</time>
      </trkpt>
      <trkpt lat="62.633534514464" lon="17.987606937029">
        <ele>54.8</ele>
        <time>2017-12-20T18:25:56Z</time>
      </trkpt>
      <trkpt lat="62.633511296601" lon="17.987572319782">
        <ele>55.2</ele>
        <time>2017-12-20T18:25:57Z</time>
      </trkpt>
      <trkpt lat="62.63349126386" lon="17.987532673395">
        <ele>55.2</ele>
        <time>2017-12-20T18:25:58Z</time>
      </trkpt>
      <trkpt lat="62.633460837563" lon="17.987513311206">
        <ele>55.4</ele>
        <time>2017-12-20T18:25:59Z</time>
      </trkpt>
      <trkpt lat="62.633441140098" lon="17.987474503009">
        <ele>55.4</ele>
        <time>2017-12-20T18:26:00Z</time>
      </trkpt>
      <trkpt lat="62.633417419321" lon="17.98744340616">
        <ele>55.6</ele>
        <time>2017-12-20T18:26:01Z</time>
      </trkpt>
      <trkpt lat="62.633393950001" lon="17.987412225492">
        <ele>55.8</ele>
        <time>2017-12-20T18:26:02Z</time>
      </trkpt>
      <trkpt lat="62.633377186201" lon="17.987378949349">
        <ele>56</ele>
        <time>2017-12-20T18:26:03Z</time>
      </trkpt>
      <trkpt lat="62.633361428229" lon="17.987337123668">
        <ele>56</ele>
        <time>2017-12-20T18:26:04Z</time>
      </trkpt>
      <trkpt lat="62.633339048556" lon="17.987281803128">
        <ele>56.2</ele>
        <time>2017-12-20T18:26:05Z</time>
      </trkpt>
      <trkpt lat="62.633308789897" lon="17.98722882952">
        <ele>56.2</ele>
        <time>2017-12-20T18:26:06Z</time>
      </trkpt>
      <trkpt lat="62.633282219274" lon="17.987176777921">
        <ele>56.4</ele>
        <time>2017-12-20T18:26:07Z</time>
      </trkpt>
      <trkpt lat="62.633259169049" lon="17.987099999717">
        <ele>56.6</ele>
        <time>2017-12-20T18:26:08Z</time>
      </trkpt>
      <trkpt lat="62.63324148324" lon="17.987005787161">
        <ele>56.6</ele>
        <time>2017-12-20T18:26:09Z</time>
      </trkpt>
      <trkpt lat="62.63322639582" lon="17.986907886569">
        <ele>56.4</ele>
        <time>2017-12-20T18:26:10Z</time>
      </trkpt>
      <trkpt lat="62.633218684472" lon="17.986793138358">
        <ele>56.2</ele>
        <time>2017-12-20T18:26:11Z</time>
      </trkpt>
      <trkpt lat="62.633214158246" lon="17.986682916373">
        <ele>55.4</ele>
        <time>2017-12-20T18:26:12Z</time>
      </trkpt>
      <trkpt lat="62.633203680871" lon="17.98658845236">
        <ele>54.8</ele>
        <time>2017-12-20T18:26:13Z</time>
      </trkpt>
      <trkpt lat="62.633198903188" lon="17.986464735516">
        <ele>54.2</ele>
        <time>2017-12-20T18:26:14Z</time>
      </trkpt>
      <trkpt lat="62.633191275659" lon="17.986340264301">
        <ele>53.4</ele>
        <time>2017-12-20T18:26:15Z</time>
      </trkpt>
      <trkpt lat="62.633184821596" lon="17.986217385647">
        <ele>52.6</ele>
        <time>2017-12-20T18:26:16Z</time>
      </trkpt>
      <trkpt lat="62.633182893759" lon="17.986074222795">
        <ele>52.2</ele>
        <time>2017-12-20T18:26:17Z</time>
      </trkpt>
      <trkpt lat="62.633182474664" lon="17.985947488467">
        <ele>52</ele>
        <time>2017-12-20T18:26:18Z</time>
      </trkpt>
      <trkpt lat="62.633182390845" lon="17.985800805217">
        <ele>51.4</ele>
        <time>2017-12-20T18:26:19Z</time>
      </trkpt>
      <trkpt lat="62.633185073053" lon="17.985679602943">
        <ele>51</ele>
        <time>2017-12-20T18:26:20Z</time>
      </trkpt>
      <trkpt lat="62.633184234863" lon="17.985537026824">
        <ele>50.6</ele>
        <time>2017-12-20T18:26:21Z</time>
      </trkpt>
      <trkpt lat="62.633179876275" lon="17.985422781527">
        <ele>50.2</ele>
        <time>2017-12-20T18:26:22Z</time>
      </trkpt>
      <trkpt lat="62.63318448632" lon="17.985268889843">
        <ele>50</ele>
        <time>2017-12-20T18:26:23Z</time>
      </trkpt>
      <trkpt lat="62.633192784401" lon="17.985102173852">
        <ele>49.8</ele>
        <time>2017-12-20T18:26:24Z</time>
      </trkpt>
      <trkpt lat="62.633213320056" lon="17.984942414838">
        <ele>49.4</ele>
        <time>2017-12-20T18:26:25Z</time>
      </trkpt>
      <trkpt lat="62.633233771892" lon="17.984790953905">
        <ele>49</ele>
        <time>2017-12-20T18:26:26Z</time>
      </trkpt>
      <trkpt lat="62.633258749954" lon="17.984657178781">
        <ele>48.6</ele>
        <time>2017-12-20T18:26:27Z</time>
      </trkpt>
      <trkpt lat="62.633283728016" lon="17.984540335095">
        <ele>48.2</ele>
        <time>2017-12-20T18:26:28Z</time>
      </trkpt>
      <trkpt lat="62.633324547869" lon="17.984416199156">
        <ele>47.8</ele>
        <time>2017-12-20T18:26:29Z</time>
      </trkpt>
      <trkpt lat="62.633354219795" lon="17.984307569732">
        <ele>47.4</ele>
        <time>2017-12-20T18:26:30Z</time>
      </trkpt>
      <trkpt lat="62.633378862581" lon="17.98420296362">
        <ele>47</ele>
        <time>2017-12-20T18:26:31Z</time>
      </trkpt>
      <trkpt lat="62.633401326073" lon="17.984107996693">
        <ele>47</ele>
        <time>2017-12-20T18:26:32Z</time>
      </trkpt>
      <trkpt lat="62.63341917952" lon="17.984019651467">
        <ele>46.8</ele>
        <time>2017-12-20T18:26:33Z</time>
      </trkpt>
      <trkpt lat="62.633431417094" lon="17.983929546042">
        <ele>46.8</ele>
        <time>2017-12-20T18:26:34Z</time>
      </trkpt>
      <trkpt lat="62.633451785111" lon="17.983827705957">
        <ele>46.8</ele>
        <time>2017-12-20T18:26:35Z</time>
      </trkpt>
      <trkpt lat="62.633475505888" lon="17.98373776817">
        <ele>46.8</ele>
        <time>2017-12-20T18:26:36Z</time>
      </trkpt>
      <trkpt lat="62.633504255805" lon="17.983665013278">
        <ele>47.2</ele>
        <time>2017-12-20T18:26:37Z</time>
      </trkpt>
      <trkpt lat="62.633529569143" lon="17.983593934766">
        <ele>47.6</ele>
        <time>2017-12-20T18:26:38Z</time>
      </trkpt>
      <trkpt lat="62.63354993716" lon="17.983533082172">
        <ele>48.2</ele>
        <time>2017-12-20T18:26:39Z</time>
      </trkpt>
      <trkpt lat="62.633564773123" lon="17.983474744148">
        <ele>48.8</ele>
        <time>2017-12-20T18:26:40Z</time>
      </trkpt>
      <trkpt lat="62.633580112" lon="17.983401234885">
        <ele>49</ele>
        <time>2017-12-20T18:26:41Z</time>
      </trkpt>
      <trkpt lat="62.633590589375" lon="17.983338202997">
        <ele>48.8</ele>
        <time>2017-12-20T18:26:42Z</time>
      </trkpt>
      <trkpt lat="62.633603329863" lon="17.983267375942">
        <ele>48.8</ele>
        <time>2017-12-20T18:26:43Z</time>
      </trkpt>
      <trkpt lat="62.633631995961" lon="17.983167044599">
        <ele>48.8</ele>
        <time>2017-12-20T18:26:44Z</time>
      </trkpt>
      <trkpt lat="62.633648173028" lon="17.983099151209">
        <ele>48.6</ele>
        <time>2017-12-20T18:26:45Z</time>
      </trkpt>
      <trkpt lat="62.633667116122" lon="17.983038214796">
        <ele>48.6</ele>
        <time>2017-12-20T18:26:46Z</time>
      </trkpt>
      <trkpt lat="62.633691004537" lon="17.982968812664">
        <ele>48.8</ele>
        <time>2017-12-20T18:26:47Z</time>
      </trkpt>
      <trkpt lat="62.633706930147" lon="17.982901422188">
        <ele>48.8</ele>
        <time>2017-12-20T18:26:48Z</time>
      </trkpt>
      <trkpt lat="62.633727549621" lon="17.982824308708">
        <ele>49</ele>
        <time>2017-12-20T18:26:49Z</time>
      </trkpt>
      <trkpt lat="62.633744648697" lon="17.982762282648">
        <ele>49</ele>
        <time>2017-12-20T18:26:50Z</time>
      </trkpt>
      <trkpt lat="62.633759987574" lon="17.982702016787">
        <ele>49</ele>
        <time>2017-12-20T18:26:51Z</time>
      </trkpt>
      <trkpt lat="62.633763088877" lon="17.982637476157">
        <ele>49</ele>
        <time>2017-12-20T18:26:52Z</time>
      </trkpt>
      <trkpt lat="62.633764765257" lon="17.982554662985">
        <ele>49.2</ele>
        <time>2017-12-20T18:26:53Z</time>
      </trkpt>
      <trkpt lat="62.633759149384" lon="17.982446787932">
        <ele>49.2</ele>
        <time>2017-12-20T18:26:54Z</time>
      </trkpt>
      <trkpt lat="62.633758478832" lon="17.982371267013">
        <ele>49.2</ele>
        <time>2017-12-20T18:26:55Z</time>
      </trkpt>
      <trkpt lat="62.633764765257" lon="17.982292812429">
        <ele>49.2</ele>
        <time>2017-12-20T18:26:56Z</time>
      </trkpt>
      <trkpt lat="62.633766441637" lon="17.982225421953">
        <ele>49.2</ele>
        <time>2017-12-20T18:26:57Z</time>
      </trkpt>
      <trkpt lat="62.63377373389" lon="17.982165407549">
        <ele>49</ele>
        <time>2017-12-20T18:26:58Z</time>
      </trkpt>
      <trkpt lat="62.633781361419" lon="17.982080079807">
        <ele>49</ele>
        <time>2017-12-20T18:26:59Z</time>
      </trkpt>
      <trkpt lat="62.633781109962" lon="17.982007995467">
        <ele>49.2</ele>
        <time>2017-12-20T18:27:00Z</time>
      </trkpt>
      <trkpt lat="62.633780523229" lon="17.981937671326">
        <ele>49.2</ele>
        <time>2017-12-20T18:27:01Z</time>
      </trkpt>
      <trkpt lat="62.63377624846" lon="17.981865754624">
        <ele>49.2</ele>
        <time>2017-12-20T18:27:02Z</time>
      </trkpt>
      <trkpt lat="62.633774069166" lon="17.981808170971">
        <ele>49.2</ele>
        <time>2017-12-20T18:27:03Z</time>
      </trkpt>
      <trkpt lat="62.633781109962" lon="17.981742792151">
        <ele>49.2</ele>
        <time>2017-12-20T18:27:04Z</time>
      </trkpt>
      <trkpt lat="62.63379217407" lon="17.981669282888">
        <ele>49.2</ele>
        <time>2017-12-20T18:27:05Z</time>
      </trkpt>
      <trkpt lat="62.63379887959" lon="17.981601640955">
        <ele>49.2</ele>
        <time>2017-12-20T18:27:06Z</time>
      </trkpt>
      <trkpt lat="62.633806004205" lon="17.981523605466">
        <ele>49.2</ele>
        <time>2017-12-20T18:27:07Z</time>
      </trkpt>
      <trkpt lat="62.633818744693" lon="17.981448084547">
        <ele>49.2</ele>
        <time>2017-12-20T18:27:08Z</time>
      </trkpt>
      <trkpt lat="62.633831317543" lon="17.981367785945">
        <ele>49.4</ele>
        <time>2017-12-20T18:27:09Z</time>
      </trkpt>
      <trkpt lat="62.633842633108" lon="17.98129444432">
        <ele>49.4</ele>
        <time>2017-12-20T18:27:10Z</time>
      </trkpt>
      <trkpt lat="62.633853026664" lon="17.981230909518">
        <ele>49.4</ele>
        <time>2017-12-20T18:27:11Z</time>
      </trkpt>
      <trkpt lat="62.633865431876" lon="17.981164608689">
        <ele>49.4</ele>
        <time>2017-12-20T18:27:12Z</time>
      </trkpt>
      <trkpt lat="62.633885716074" lon="17.981099900421">
        <ele>49.4</ele>
        <time>2017-12-20T18:27:13Z</time>
      </trkpt>
      <trkpt lat="62.633910191222" lon="17.981034102506">
        <ele>49.6</ele>
        <time>2017-12-20T18:27:14Z</time>
      </trkpt>
      <trkpt lat="62.633931062153" lon="17.980976267396">
        <ele>49.6</ele>
        <time>2017-12-20T18:27:15Z</time>
      </trkpt>
      <trkpt lat="62.633949921428" lon="17.980918767562">
        <ele>49.6</ele>
        <time>2017-12-20T18:27:16Z</time>
      </trkpt>
      <trkpt lat="62.633969786531" lon="17.980862105918">
        <ele>49.6</ele>
        <time>2017-12-20T18:27:17Z</time>
      </trkpt>
      <trkpt lat="62.633985209227" lon="17.980815167278">
        <ele>49.6</ele>
        <time>2017-12-20T18:27:18Z</time>
      </trkpt>
      <trkpt lat="62.634002978855" lon="17.980758589453">
        <ele>49.6</ele>
        <time>2017-12-20T18:27:19Z</time>
      </trkpt>
      <trkpt lat="62.634024520338" lon="17.980714584478">
        <ele>49.8</ele>
        <time>2017-12-20T18:27:20Z</time>
      </trkpt>
      <trkpt lat="62.634050085133" lon="17.980671333874">
        <ele>50</ele>
        <time>2017-12-20T18:27:21Z</time>
      </trkpt>
      <trkpt lat="62.634069866417" lon="17.980624814329">
        <ele>50</ele>
        <time>2017-12-20T18:27:22Z</time>
      </trkpt>
      <trkpt lat="62.634091324081" lon="17.980580641716">
        <ele>50.6</ele>
        <time>2017-12-20T18:27:23Z</time>
      </trkpt>
      <trkpt lat="62.634111440641" lon="17.980515095258">
        <ele>50.6</ele>
        <time>2017-12-20T18:27:24Z</time>
      </trkpt>
      <trkpt lat="62.634133149762" lon="17.980456841053">
        <ele>51.2</ele>
        <time>2017-12-20T18:27:25Z</time>
      </trkpt>
      <trkpt lat="62.634155026521" lon="17.980410824422">
        <ele>51.2</ele>
        <time>2017-12-20T18:27:26Z</time>
      </trkpt>
      <trkpt lat="62.634176400366" lon="17.980361790307">
        <ele>51.2</ele>
        <time>2017-12-20T18:27:27Z</time>
      </trkpt>
      <trkpt lat="62.634199115315" lon="17.980316360409">
        <ele>51.2</ele>
        <time>2017-12-20T18:27:28Z</time>
      </trkpt>
      <trkpt lat="62.634229793069" lon="17.980259531127">
        <ele>51</ele>
        <time>2017-12-20T18:27:29Z</time>
      </trkpt>
      <trkpt lat="62.63425401676" lon="17.980204964958">
        <ele>50.6</ele>
        <time>2017-12-20T18:27:30Z</time>
      </trkpt>
      <trkpt lat="62.634276396433" lon="17.980129527858">
        <ele>50.6</ele>
        <time>2017-12-20T18:27:31Z</time>
      </trkpt>
      <trkpt lat="62.634297518821" lon="17.980059371355">
        <ele>50.6</ele>
        <time>2017-12-20T18:27:32Z</time>
      </trkpt>
      <trkpt lat="62.634313025336" lon="17.97999105887">
        <ele>50.6</ele>
        <time>2017-12-20T18:27:33Z</time>
      </trkpt>
      <trkpt lat="62.634329034765" lon="17.97990556349">
        <ele>50.4</ele>
        <time>2017-12-20T18:27:34Z</time>
      </trkpt>
      <trkpt lat="62.634349235144" lon="17.979823923784">
        <ele>50.6</ele>
        <time>2017-12-20T18:27:35Z</time>
      </trkpt>
      <trkpt lat="62.634364909297" lon="17.979746977942">
        <ele>50.4</ele>
        <time>2017-12-20T18:27:36Z</time>
      </trkpt>
      <trkpt lat="62.634382762744" lon="17.979669277729">
        <ele>50.4</ele>
        <time>2017-12-20T18:27:37Z</time>
      </trkpt>
      <trkpt lat="62.634404639503" lon="17.979612951361">
        <ele>50.2</ele>
        <time>2017-12-20T18:27:38Z</time>
      </trkpt>
      <trkpt lat="62.634419643104" lon="17.979539190641">
        <ele>50.4</ele>
        <time>2017-12-20T18:27:39Z</time>
      </trkpt>
      <trkpt lat="62.634435401076" lon="17.979466771025">
        <ele>50.2</ele>
        <time>2017-12-20T18:27:40Z</time>
      </trkpt>
      <trkpt lat="62.634448979754" lon="17.979399212911">
        <ele>50.2</ele>
        <time>2017-12-20T18:27:41Z</time>
      </trkpt>
      <trkpt lat="62.634458367482" lon="17.979320339232">
        <ele>50</ele>
        <time>2017-12-20T18:27:42Z</time>
      </trkpt>
      <trkpt lat="62.634461384966" lon="17.97925512805">
        <ele>50.2</ele>
        <time>2017-12-20T18:27:43Z</time>
      </trkpt>
      <trkpt lat="62.634471527065" lon="17.979175164724">
        <ele>50.2</ele>
        <time>2017-12-20T18:27:44Z</time>
      </trkpt>
      <trkpt lat="62.634484938105" lon="17.979115485596">
        <ele>50.2</ele>
        <time>2017-12-20T18:27:45Z</time>
      </trkpt>
      <trkpt lat="62.634499438792" lon="17.979058488676">
        <ele>50.4</ele>
        <time>2017-12-20T18:27:46Z</time>
      </trkpt>
      <trkpt lat="62.634522740474" lon="17.978944578655">
        <ele>50.6</ele>
        <time>2017-12-20T18:27:48Z</time>
      </trkpt>
      <trkpt lat="62.634545455423" lon="17.978882301138">
        <ele>50.6</ele>
        <time>2017-12-20T18:27:49Z</time>
      </trkpt>
      <trkpt lat="62.634566996906" lon="17.978845504597">
        <ele>50.4</ele>
        <time>2017-12-20T18:27:50Z</time>
      </trkpt>
      <trkpt lat="62.634591472054" lon="17.978815245938">
        <ele>50.4</ele>
        <time>2017-12-20T18:27:51Z</time>
      </trkpt>
      <trkpt lat="62.634618461772" lon="17.978793620636">
        <ele>50.4</ele>
        <time>2017-12-20T18:27:52Z</time>
      </trkpt>
      <trkpt lat="62.634626592215" lon="17.978779790501">
        <ele>50.2</ele>
        <time>2017-12-20T18:27:53Z</time>
      </trkpt>
      <trkpt lat="62.63465467158" lon="17.978777443569">
        <ele>50.4</ele>
        <time>2017-12-20T18:27:54Z</time>
      </trkpt>
      <trkpt lat="62.634682248031" lon="17.978791692799">
        <ele>50.2</ele>
        <time>2017-12-20T18:27:55Z</time>
      </trkpt>
      <trkpt lat="62.634715105079" lon="17.978806864038">
        <ele>50.4</ele>
        <time>2017-12-20T18:27:56Z</time>
      </trkpt>
      <trkpt lat="62.63474938705" lon="17.978824382209">
        <ele>50.4</ele>
        <time>2017-12-20T18:27:57Z</time>
      </trkpt>
      <trkpt lat="62.634773946017" lon="17.978831171548">
        <ele>50.4</ele>
        <time>2017-12-20T18:27:58Z</time>
      </trkpt>
      <trkpt lat="62.634821722847" lon="17.978849779366">
        <ele>50.4</ele>
        <time>2017-12-20T18:27:59Z</time>
      </trkpt>
      <trkpt lat="62.634856256275" lon="17.978867632813">
        <ele>50.4</ele>
        <time>2017-12-20T18:28:00Z</time>
      </trkpt>
      <trkpt lat="62.634891460255" lon="17.978882468776">
        <ele>50</ele>
        <time>2017-12-20T18:28:01Z</time>
      </trkpt>
      <trkpt lat="62.634923982027" lon="17.978895293083">
        <ele>49.8</ele>
        <time>2017-12-20T18:28:02Z</time>
      </trkpt>
      <trkpt lat="62.634949882098" lon="17.978899232576">
        <ele>49.6</ele>
        <time>2017-12-20T18:28:03Z</time>
      </trkpt>
      <trkpt lat="62.634980140757" lon="17.978908033571">
        <ele>49.4</ele>
        <time>2017-12-20T18:28:04Z</time>
      </trkpt>
      <trkpt lat="62.635002352792" lon="17.978932676357">
        <ele>49.4</ele>
        <time>2017-12-20T18:28:05Z</time>
      </trkpt>
      <trkpt lat="62.635028252863" lon="17.978944913931">
        <ele>49.4</ele>
        <time>2017-12-20T18:28:06Z</time>
      </trkpt>
      <trkpt lat="62.635056248409" lon="17.978953044374">
        <ele>49.4</ele>
        <time>2017-12-20T18:28:07Z</time>
      </trkpt>
      <trkpt lat="62.635087848172" lon="17.978963354111">
        <ele>49.4</ele>
        <time>2017-12-20T18:28:08Z</time>
      </trkpt>
      <trkpt lat="62.635126153455" lon="17.978973328572">
        <ele>49.2</ele>
        <time>2017-12-20T18:28:09Z</time>
      </trkpt>
      <trkpt lat="62.635158339951" lon="17.978980704644">
        <ele>49.2</ele>
        <time>2017-12-20T18:28:10Z</time>
      </trkpt>
      <trkpt lat="62.635198824528" lon="17.978987074888">
        <ele>49</ele>
        <time>2017-12-20T18:28:11Z</time>
      </trkpt>
      <trkpt lat="62.635235118155" lon="17.978990762924">
        <ele>48.8</ele>
        <time>2017-12-20T18:28:12Z</time>
      </trkpt>
      <trkpt lat="62.635267975203" lon="17.978992858399">
        <ele>48.6</ele>
        <time>2017-12-20T18:28:13Z</time>
      </trkpt>
      <trkpt lat="62.635311393445" lon="17.979000485928">
        <ele>48.6</ele>
        <time>2017-12-20T18:28:14Z</time>
      </trkpt>
      <trkpt lat="62.635349782547" lon="17.979005179792">
        <ele>48.4</ele>
        <time>2017-12-20T18:28:15Z</time>
      </trkpt>
      <trkpt lat="62.635386830545" lon="17.979007945819">
        <ele>48.2</ele>
        <time>2017-12-20T18:28:16Z</time>
      </trkpt>
      <trkpt lat="62.63543502647" lon="17.979005012154">
        <ele>48</ele>
        <time>2017-12-20T18:28:17Z</time>
      </trkpt>
      <trkpt lat="62.63547106864" lon="17.978995708245">
        <ele>48</ele>
        <time>2017-12-20T18:28:18Z</time>
      </trkpt>
      <trkpt lat="62.635520102755" lon="17.978986655793">
        <ele>48</ele>
        <time>2017-12-20T18:28:19Z</time>
      </trkpt>
      <trkpt lat="62.635567544309" lon="17.978982381024">
        <ele>47.8</ele>
        <time>2017-12-20T18:28:20Z</time>
      </trkpt>
      <trkpt lat="62.635614902044" lon="17.978976681332">
        <ele>47.8</ele>
        <time>2017-12-20T18:28:21Z</time>
      </trkpt>
      <trkpt lat="62.635660331942" lon="17.978969808174">
        <ele>47.6</ele>
        <time>2017-12-20T18:28:22Z</time>
      </trkpt>
      <trkpt lat="62.635700816519" lon="17.978971484554">
        <ele>47.4</ele>
        <time>2017-12-20T18:28:23Z</time>
      </trkpt>
      <trkpt lat="62.635749682996" lon="17.978971652192">
        <ele>47</ele>
        <time>2017-12-20T18:28:24Z</time>
      </trkpt>
      <trkpt lat="62.635793101238" lon="17.978975759323">
        <ele>46.8</ele>
        <time>2017-12-20T18:28:25Z</time>
      </trkpt>
      <trkpt lat="62.63582981396" lon="17.978987577802">
        <ele>46.4</ele>
        <time>2017-12-20T18:28:26Z</time>
      </trkpt>
      <trkpt lat="62.635859485886" lon="17.979000234471">
        <ele>46.2</ele>
        <time>2017-12-20T18:28:27Z</time>
      </trkpt>
      <trkpt lat="62.63588764907" lon="17.979015154253">
        <ele>46.2</ele>
        <time>2017-12-20T18:28:28Z</time>
      </trkpt>
      <trkpt lat="62.635908520001" lon="17.979013561692">
        <ele>46</ele>
        <time>2017-12-20T18:28:29Z</time>
      </trkpt>
      <trkpt lat="62.63592872038" lon="17.979021943592">
        <ele>46</ele>
        <time>2017-12-20T18:28:30Z</time>
      </trkpt>
      <trkpt lat="62.635946573827" lon="17.979024877257">
        <ele>46.2</ele>
        <time>2017-12-20T18:28:31Z</time>
      </trkpt>
      <trkpt lat="62.635964846369" lon="17.979029822578">
        <ele>46.2</ele>
        <time>2017-12-20T18:28:32Z</time>
      </trkpt>
      <trkpt lat="62.635981274893" lon="17.979039294125">
        <ele>46.4</ele>
        <time>2017-12-20T18:28:33Z</time>
      </trkpt>
      <trkpt lat="62.635994015381" lon="17.979061589979">
        <ele>46.4</ele>
        <time>2017-12-20T18:28:34Z</time>
      </trkpt>
      <trkpt lat="62.636000553263" lon="17.979098470339">
        <ele>46.4</ele>
        <time>2017-12-20T18:28:35Z</time>
      </trkpt>
      <trkpt lat="62.636001978186" lon="17.979130153921">
        <ele>46.4</ele>
        <time>2017-12-20T18:28:36Z</time>
      </trkpt>
      <trkpt lat="62.635999295978" lon="17.979156808363">
        <ele>46.4</ele>
        <time>2017-12-20T18:28:37Z</time>
      </trkpt>
      <trkpt lat="62.635996278494" lon="17.979181032054">
        <ele>46.4</ele>
        <time>2017-12-20T18:28:38Z</time>
      </trkpt>
      <trkpt lat="62.635992255182" lon="17.979198214949">
        <ele>46.4</ele>
        <time>2017-12-20T18:28:39Z</time>
      </trkpt>
      <trkpt lat="62.635989656793" lon="17.979207854134">
        <ele>46.4</ele>
        <time>2017-12-20T18:28:41Z</time>
      </trkpt>
      <trkpt lat="62.635985633481" lon="17.979217744776">
        <ele>46.4</ele>
        <time>2017-12-20T18:28:42Z</time>
      </trkpt>
      <trkpt lat="62.635986723128" lon="17.979226210495">
        <ele>46.4</ele>
        <time>2017-12-20T18:28:43Z</time>
      </trkpt>
      <trkpt lat="62.635974737011" lon="17.979413629779">
        <ele>46.2</ele>
        <time>2017-12-20T18:28:46Z</time>
      </trkpt>
      <trkpt lat="62.635967528577" lon="17.979491665268">
        <ele>46</ele>
        <time>2017-12-20T18:28:47Z</time>
      </trkpt>
      <trkpt lat="62.635961242152" lon="17.979571377137">
        <ele>45.8</ele>
        <time>2017-12-20T18:28:48Z</time>
      </trkpt>
      <trkpt lat="62.6359521897" lon="17.979687298814">
        <ele>45.6</ele>
        <time>2017-12-20T18:28:49Z</time>
      </trkpt>
      <trkpt lat="62.635947747293" lon="17.979795844419">
        <ele>45.4</ele>
        <time>2017-12-20T18:28:50Z</time>
      </trkpt>
      <trkpt lat="62.635945735637" lon="17.979971948138">
        <ele>44.8</ele>
        <time>2017-12-20T18:28:51Z</time>
      </trkpt>
      <trkpt lat="62.635959146677" lon="17.980107148185">
        <ele>43.4</ele>
        <time>2017-12-20T18:28:52Z</time>
      </trkpt>
      <trkpt lat="62.635980017608" lon="17.980259531127">
        <ele>42.4</ele>
        <time>2017-12-20T18:28:53Z</time>
      </trkpt>
      <trkpt lat="62.636006085317" lon="17.980418116675">
        <ele>41</ele>
        <time>2017-12-20T18:28:54Z</time>
      </trkpt>
      <trkpt lat="62.636032823578" lon="17.980567230676">
        <ele>40</ele>
        <time>2017-12-20T18:28:55Z</time>
      </trkpt>
      <trkpt lat="62.63606785992" lon="17.980725145672">
        <ele>39.4</ele>
        <time>2017-12-20T18:28:56Z</time>
      </trkpt>
      <trkpt lat="62.636101555158" lon="17.980872918569">
        <ele>39.2</ele>
        <time>2017-12-20T18:28:57Z</time>
      </trkpt>
      <trkpt lat="62.636127287591" lon="17.981016081421">
        <ele>39</ele>
        <time>2017-12-20T18:28:58Z</time>
      </trkpt>
      <trkpt lat="62.636154612585" lon="17.981185060525">
        <ele>38.6</ele>
        <time>2017-12-20T18:28:59Z</time>
      </trkpt>
      <trkpt lat="62.636178668638" lon="17.981307268627">
        <ele>38.4</ele>
        <time>2017-12-20T18:29:00Z</time>
      </trkpt>
      <trkpt lat="62.636204652528" lon="17.981429728186">
        <ele>38.2</ele>
        <time>2017-12-20T18:29:01Z</time>
      </trkpt>
      <trkpt lat="62.636226696925" lon="17.981546488053">
        <ele>38</ele>
        <time>2017-12-20T18:29:02Z</time>
      </trkpt>
      <trkpt lat="62.636252680815" lon="17.981666349223">
        <ele>37.8</ele>
        <time>2017-12-20T18:29:03Z</time>
      </trkpt>
      <trkpt lat="62.636271120995" lon="17.981782941452">
        <ele>37.6</ele>
        <time>2017-12-20T18:29:04Z</time>
      </trkpt>
      <trkpt lat="62.636279670533" lon="17.981891403238">
        <ele>37.6</ele>
        <time>2017-12-20T18:29:05Z</time>
      </trkpt>
      <trkpt lat="62.636287381881" lon="17.982004558888">
        <ele>37.6</ele>
        <time>2017-12-20T18:29:06Z</time>
      </trkpt>
      <trkpt lat="62.636285873139" lon="17.982108494448">
        <ele>37.4</ele>
        <time>2017-12-20T18:29:07Z</time>
      </trkpt>
      <trkpt lat="62.636276485411" lon="17.982218632614">
        <ele>37.4</ele>
        <time>2017-12-20T18:29:08Z</time>
      </trkpt>
      <trkpt lat="62.636276401592" lon="17.982325669477">
        <ele>37.4</ele>
        <time>2017-12-20T18:29:09Z</time>
      </trkpt>
      <trkpt lat="62.636277826515" lon="17.98243270634">
        <ele>37.4</ele>
        <time>2017-12-20T18:29:10Z</time>
      </trkpt>
      <trkpt lat="62.636277155963" lon="17.982552986605">
        <ele>38</ele>
        <time>2017-12-20T18:29:11Z</time>
      </trkpt>
      <trkpt lat="62.636275898678" lon="17.982648372627">
        <ele>38.4</ele>
        <time>2017-12-20T18:29:12Z</time>
      </trkpt>
      <trkpt lat="62.636270785719" lon="17.982736466396">
        <ele>38.6</ele>
        <time>2017-12-20T18:29:13Z</time>
      </trkpt>
      <trkpt lat="62.636266427131" lon="17.98283587573">
        <ele>39</ele>
        <time>2017-12-20T18:29:14Z</time>
      </trkpt>
      <trkpt lat="62.636259218697" lon="17.982938218729">
        <ele>39.2</ele>
        <time>2017-12-20T18:29:15Z</time>
      </trkpt>
      <trkpt lat="62.63626734914" lon="17.983027150688">
        <ele>39.6</ele>
        <time>2017-12-20T18:29:16Z</time>
      </trkpt>
      <trkpt lat="62.636274222298" lon="17.983114657724">
        <ele>39.6</ele>
        <time>2017-12-20T18:29:17Z</time>
      </trkpt>
      <trkpt lat="62.636274725212" lon="17.983196632706">
        <ele>39.4</ele>
        <time>2017-12-20T18:29:18Z</time>
      </trkpt>
      <trkpt lat="62.636274473755" lon="17.98328430738">
        <ele>39.4</ele>
        <time>2017-12-20T18:29:19Z</time>
      </trkpt>
      <trkpt lat="62.636274389936" lon="17.983365192715">
        <ele>39.6</ele>
        <time>2017-12-20T18:29:20Z</time>
      </trkpt>
      <trkpt lat="62.636267935873" lon="17.983450436638">
        <ele>39.4</ele>
        <time>2017-12-20T18:29:21Z</time>
      </trkpt>
      <trkpt lat="62.636263074371" lon="17.983517408019">
        <ele>39.2</ele>
        <time>2017-12-20T18:29:22Z</time>
      </trkpt>
      <trkpt lat="62.636254524833" lon="17.983583038296">
        <ele>39.4</ele>
        <time>2017-12-20T18:29:23Z</time>
      </trkpt>
      <trkpt lat="62.636244131277" lon="17.983655374093">
        <ele>39.6</ele>
        <time>2017-12-20T18:29:24Z</time>
      </trkpt>
      <trkpt lat="62.636235414101" lon="17.983727374614">
        <ele>39.6</ele>
        <time>2017-12-20T18:29:25Z</time>
      </trkpt>
      <trkpt lat="62.636224433812" lon="17.983797363479">
        <ele>39.6</ele>
        <time>2017-12-20T18:29:26Z</time>
      </trkpt>
      <trkpt lat="62.636216471007" lon="17.98386182029">
        <ele>39.6</ele>
        <time>2017-12-20T18:29:27Z</time>
      </trkpt>
      <trkpt lat="62.636210855134" lon="17.983913201337">
        <ele>40</ele>
        <time>2017-12-20T18:29:28Z</time>
      </trkpt>
      <trkpt lat="62.636203562881" lon="17.983978663976">
        <ele>40.2</ele>
        <time>2017-12-20T18:29:29Z</time>
      </trkpt>
      <trkpt lat="62.63619610299" lon="17.984038762199">
        <ele>40.4</ele>
        <time>2017-12-20T18:29:30Z</time>
      </trkpt>
      <trkpt lat="62.636189565108" lon="17.984102464639">
        <ele>40.4</ele>
        <time>2017-12-20T18:29:31Z</time>
      </trkpt>
      <trkpt lat="62.636186463805" lon="17.984168346373">
        <ele>40.4</ele>
        <time>2017-12-20T18:29:32Z</time>
      </trkpt>
      <trkpt lat="62.636181602303" lon="17.984222577266">
        <ele>40.4</ele>
        <time>2017-12-20T18:29:33Z</time>
      </trkpt>
      <trkpt lat="62.636176154068" lon="17.984287034077">
        <ele>40.6</ele>
        <time>2017-12-20T18:29:34Z</time>
      </trkpt>
      <trkpt lat="62.636171292566" lon="17.984361968263">
        <ele>40.8</ele>
        <time>2017-12-20T18:29:35Z</time>
      </trkpt>
      <trkpt lat="62.636166514883" lon="17.984432460042">
        <ele>40.8</ele>
        <time>2017-12-20T18:29:36Z</time>
      </trkpt>
      <trkpt lat="62.636158300621" lon="17.984493983188">
        <ele>41</ele>
        <time>2017-12-20T18:29:37Z</time>
      </trkpt>
      <trkpt lat="62.63614748797" lon="17.9845566798">
        <ele>41.2</ele>
        <time>2017-12-20T18:29:38Z</time>
      </trkpt>
      <trkpt lat="62.636140279536" lon="17.984631781624">
        <ele>41.2</ele>
        <time>2017-12-20T18:29:39Z</time>
      </trkpt>
      <trkpt lat="62.636135250396" lon="17.984687605078">
        <ele>41.2</ele>
        <time>2017-12-20T18:29:40Z</time>
      </trkpt>
      <trkpt lat="62.636130388894" lon="17.984749128224">
        <ele>41.2</ele>
        <time>2017-12-20T18:29:41Z</time>
      </trkpt>
      <trkpt lat="62.636121671718" lon="17.98481148956">
        <ele>41.4</ele>
        <time>2017-12-20T18:29:42Z</time>
      </trkpt>
      <trkpt lat="62.636114966198" lon="17.984866726281">
        <ele>41.6</ele>
        <time>2017-12-20T18:29:43Z</time>
      </trkpt>
      <trkpt lat="62.636117061673" lon="17.984931602187">
        <ele>41.6</ele>
        <time>2017-12-20T18:29:44Z</time>
      </trkpt>
      <trkpt lat="62.636119660062" lon="17.984994466437">
        <ele>41.8</ele>
        <time>2017-12-20T18:29:45Z</time>
      </trkpt>
      <trkpt lat="62.636121168804" lon="17.985057498325">
        <ele>41.8</ele>
        <time>2017-12-20T18:29:46Z</time>
      </trkpt>
      <trkpt lat="62.63612401865" lon="17.98512329624">
        <ele>42</ele>
        <time>2017-12-20T18:29:47Z</time>
      </trkpt>
      <trkpt lat="62.636107171031" lon="17.985179119694">
        <ele>42.2</ele>
        <time>2017-12-20T18:29:48Z</time>
      </trkpt>
      <trkpt lat="62.636099292045" lon="17.985228572904">
        <ele>42.2</ele>
        <time>2017-12-20T18:29:49Z</time>
      </trkpt>
      <trkpt lat="62.636097112751" lon="17.985276098277">
        <ele>42.4</ele>
        <time>2017-12-20T18:29:50Z</time>
      </trkpt>
      <trkpt lat="62.636097867122" lon="17.985332927559">
        <ele>42.4</ele>
        <time>2017-12-20T18:29:51Z</time>
      </trkpt>
      <trkpt lat="62.636100214054" lon="17.985390511212">
        <ele>42.4</ele>
        <time>2017-12-20T18:29:52Z</time>
      </trkpt>
      <trkpt lat="62.636099794959" lon="17.985456225308">
        <ele>42.6</ele>
        <time>2017-12-20T18:29:53Z</time>
      </trkpt>
      <trkpt lat="62.636099040588" lon="17.985516910264">
        <ele>42.4</ele>
        <time>2017-12-20T18:29:54Z</time>
      </trkpt>
      <trkpt lat="62.636084539901" lon="17.985583378731">
        <ele>42.6</ele>
        <time>2017-12-20T18:29:55Z</time>
      </trkpt>
      <trkpt lat="62.636064926255" lon="17.985643225497">
        <ele>42.6</ele>
        <time>2017-12-20T18:29:56Z</time>
      </trkpt>
      <trkpt lat="62.636045396428" lon="17.985689409766">
        <ele>42.8</ele>
        <time>2017-12-20T18:29:57Z</time>
      </trkpt>
      <trkpt lat="62.636031566293" lon="17.985725787212">
        <ele>42.8</ele>
        <time>2017-12-20T18:29:58Z</time>
      </trkpt>
      <trkpt lat="62.636000469444" lon="17.985765517418">
        <ele>43</ele>
        <time>2017-12-20T18:29:59Z</time>
      </trkpt>
      <trkpt lat="62.635981107255" lon="17.985803403606">
        <ele>43</ele>
        <time>2017-12-20T18:30:00Z</time>
      </trkpt>
      <trkpt lat="62.635962499437" lon="17.985837937034">
        <ele>43.2</ele>
        <time>2017-12-20T18:30:01Z</time>
      </trkpt>
      <trkpt lat="62.63594213142" lon="17.985869117702">
        <ele>43.4</ele>
        <time>2017-12-20T18:30:02Z</time>
      </trkpt>
      <trkpt lat="62.635921092851" lon="17.985899711637">
        <ele>43.4</ele>
        <time>2017-12-20T18:30:03Z</time>
      </trkpt>
      <trkpt lat="62.635897120617" lon="17.985937262549">
        <ele>43.4</ele>
        <time>2017-12-20T18:30:04Z</time>
      </trkpt>
      <trkpt lat="62.635875495315" lon="17.985965593371">
        <ele>43.6</ele>
        <time>2017-12-20T18:30:05Z</time>
      </trkpt>
      <trkpt lat="62.635849595244" lon="17.985976322203">
        <ele>43.6</ele>
        <time>2017-12-20T18:30:06Z</time>
      </trkpt>
      <trkpt lat="62.635827047933" lon="17.985988727415">
        <ele>43.8</ele>
        <time>2017-12-20T18:30:07Z</time>
      </trkpt>
      <trkpt lat="62.635803997708" lon="17.986004317749">
        <ele>43.8</ele>
        <time>2017-12-20T18:30:08Z</time>
      </trkpt>
      <trkpt lat="62.635781869492" lon="17.986028792897">
        <ele>44</ele>
        <time>2017-12-20T18:30:09Z</time>
      </trkpt>
      <trkpt lat="62.635758316353" lon="17.986056369348">
        <ele>44</ele>
        <time>2017-12-20T18:30:10Z</time>
      </trkpt>
      <trkpt lat="62.635732248644" lon="17.986092914432">
        <ele>44</ele>
        <time>2017-12-20T18:30:11Z</time>
      </trkpt>
      <trkpt lat="62.635709533695" lon="17.986135997398">
        <ele>44</ele>
        <time>2017-12-20T18:30:12Z</time>
      </trkpt>
      <trkpt lat="62.635691261153" lon="17.986167178066">
        <ele>44.2</ele>
        <time>2017-12-20T18:30:13Z</time>
      </trkpt>
      <trkpt lat="62.635672318059" lon="17.986192742861">
        <ele>44.4</ele>
        <time>2017-12-20T18:30:14Z</time>
      </trkpt>
      <trkpt lat="62.635656476268" lon="17.986219397303">
        <ele>44.6</ele>
        <time>2017-12-20T18:30:15Z</time>
      </trkpt>
      <trkpt lat="62.635638287545" lon="17.986244710641">
        <ele>44.8</ele>
        <time>2017-12-20T18:30:16Z</time>
      </trkpt>
      <trkpt lat="62.635614734406" lon="17.986271784178">
        <ele>45</ele>
        <time>2017-12-20T18:30:17Z</time>
      </trkpt>
      <trkpt lat="62.635596545683" lon="17.986311598203">
        <ele>45.2</ele>
        <time>2017-12-20T18:30:18Z</time>
      </trkpt>
      <trkpt lat="62.635579362788" lon="17.986368176028">
        <ele>45.4</ele>
        <time>2017-12-20T18:30:19Z</time>
      </trkpt>
      <trkpt lat="62.635567041395" lon="17.986414360297">
        <ele>45.6</ele>
        <time>2017-12-20T18:30:20Z</time>
      </trkpt>
      <trkpt lat="62.635558910952" lon="17.986472279226">
        <ele>45.6</ele>
        <time>2017-12-20T18:30:21Z</time>
      </trkpt>
      <trkpt lat="62.635547930663" lon="17.986516954753">
        <ele>45.6</ele>
        <time>2017-12-20T18:30:22Z</time>
      </trkpt>
      <trkpt lat="62.635530496311" lon="17.986568503438">
        <ele>45.6</ele>
        <time>2017-12-20T18:30:23Z</time>
      </trkpt>
      <trkpt lat="62.635510882665" lon="17.986618543381">
        <ele>45.6</ele>
        <time>2017-12-20T18:30:24Z</time>
      </trkpt>
      <trkpt lat="62.635491939571" lon="17.986662380718">
        <ele>45.8</ele>
        <time>2017-12-20T18:30:25Z</time>
      </trkpt>
      <trkpt lat="62.635476516875" lon="17.986711331014">
        <ele>45.8</ele>
        <time>2017-12-20T18:30:26Z</time>
      </trkpt>
      <trkpt lat="62.635462938197" lon="17.986758353473">
        <ele>45.8</ele>
        <time>2017-12-20T18:30:27Z</time>
      </trkpt>
      <trkpt lat="62.635451035899" lon="17.986804034828">
        <ele>45.8</ele>
        <time>2017-12-20T18:30:28Z</time>
      </trkpt>
      <trkpt lat="62.635430584063" lon="17.986859355368">
        <ele>46</ele>
        <time>2017-12-20T18:30:29Z</time>
      </trkpt>
      <trkpt lat="62.635414742272" lon="17.986904701447">
        <ele>46.2</ele>
        <time>2017-12-20T18:30:30Z</time>
      </trkpt>
      <trkpt lat="62.635401666508" lon="17.98695138863">
        <ele>46.4</ele>
        <time>2017-12-20T18:30:31Z</time>
      </trkpt>
      <trkpt lat="62.635388339287" lon="17.986998914003">
        <ele>46.4</ele>
        <time>2017-12-20T18:30:32Z</time>
      </trkpt>
      <trkpt lat="62.63537802955" lon="17.987033866526">
        <ele>46.6</ele>
        <time>2017-12-20T18:30:33Z</time>
      </trkpt>
      <trkpt lat="62.635366378709" lon="17.987068483773">
        <ele>46.8</ele>
        <time>2017-12-20T18:30:34Z</time>
      </trkpt>
      <trkpt lat="62.635350872194" lon="17.987106118504">
        <ele>46.8</ele>
        <time>2017-12-20T18:30:35Z</time>
      </trkpt>
      <trkpt lat="62.635333521661" lon="17.987147357452">
        <ele>46.8</ele>
        <time>2017-12-20T18:30:36Z</time>
      </trkpt>
      <trkpt lat="62.635315919671" lon="17.987178286663">
        <ele>47</ele>
        <time>2017-12-20T18:30:37Z</time>
      </trkpt>
      <trkpt lat="62.635296641301" lon="17.987209215874">
        <ele>47.2</ele>
        <time>2017-12-20T18:30:38Z</time>
      </trkpt>
      <trkpt lat="62.635275938008" lon="17.987236457049">
        <ele>47.4</ele>
        <time>2017-12-20T18:30:39Z</time>
      </trkpt>
      <trkpt lat="62.635260347674" lon="17.987255316324">
        <ele>47.4</ele>
        <time>2017-12-20T18:30:40Z</time>
      </trkpt>
      <trkpt lat="62.635237884182" lon="17.987291609951">
        <ele>47.6</ele>
        <time>2017-12-20T18:30:41Z</time>
      </trkpt>
      <trkpt lat="62.635216929432" lon="17.987320359868">
        <ele>47.6</ele>
        <time>2017-12-20T18:30:42Z</time>
      </trkpt>
      <trkpt lat="62.635199075985" lon="17.987350786165">
        <ele>47.6</ele>
        <time>2017-12-20T18:30:43Z</time>
      </trkpt>
      <trkpt lat="62.635180635805" lon="17.987380625729">
        <ele>47.8</ele>
        <time>2017-12-20T18:30:44Z</time>
      </trkpt>
      <trkpt lat="62.6351642911" lon="17.98741658408">
        <ele>48</ele>
        <time>2017-12-20T18:30:45Z</time>
      </trkpt>
      <trkpt lat="62.635148700766" lon="17.987445166359">
        <ele>48</ele>
        <time>2017-12-20T18:30:46Z</time>
      </trkpt>
      <trkpt lat="62.635132020785" lon="17.987479867425">
        <ele>48</ele>
        <time>2017-12-20T18:30:47Z</time>
      </trkpt>
      <trkpt lat="62.635115256985" lon="17.987513227387">
        <ele>48.2</ele>
        <time>2017-12-20T18:30:48Z</time>
      </trkpt>
      <trkpt lat="62.635094218416" lon="17.987550526842">
        <ele>48.2</ele>
        <time>2017-12-20T18:30:49Z</time>
      </trkpt>
      <trkpt lat="62.635075359141" lon="17.987580953139">
        <ele>48.4</ele>
        <time>2017-12-20T18:30:50Z</time>
      </trkpt>
      <trkpt lat="62.635055494038" lon="17.987611798531">
        <ele>48.4</ele>
        <time>2017-12-20T18:30:51Z</time>
      </trkpt>
      <trkpt lat="62.635040909532" lon="17.98764038081">
        <ele>48.6</ele>
        <time>2017-12-20T18:30:52Z</time>
      </trkpt>
      <trkpt lat="62.635021044429" lon="17.987672483487">
        <ele>48.8</ele>
        <time>2017-12-20T18:30:53Z</time>
      </trkpt>
      <trkpt lat="62.634996401643" lon="17.987703580336">
        <ele>49</ele>
        <time>2017-12-20T18:30:54Z</time>
      </trkpt>
      <trkpt lat="62.634973686694" lon="17.987732497891">
        <ele>49.2</ele>
        <time>2017-12-20T18:30:55Z</time>
      </trkpt>
      <trkpt lat="62.634953402496" lon="17.987765606396">
        <ele>49.2</ele>
        <time>2017-12-20T18:30:56Z</time>
      </trkpt>
      <trkpt lat="62.634933202117" lon="17.987794272494">
        <ele>49.4</ele>
        <time>2017-12-20T18:30:57Z</time>
      </trkpt>
      <trkpt lat="62.634913923747" lon="17.987814137597">
        <ele>49.4</ele>
        <time>2017-12-20T18:30:58Z</time>
      </trkpt>
      <trkpt lat="62.63489858487" lon="17.987865183368">
        <ele>49.6</ele>
        <time>2017-12-20T18:30:59Z</time>
      </trkpt>
      <trkpt lat="62.634879557957" lon="17.987892089267">
        <ele>49.6</ele>
        <time>2017-12-20T18:31:00Z</time>
      </trkpt>
      <trkpt lat="62.634861536872" lon="17.987920755365">
        <ele>49.8</ele>
        <time>2017-12-20T18:31:01Z</time>
      </trkpt>
      <trkpt lat="62.634840917398" lon="17.987946068703">
        <ele>49.8</ele>
        <time>2017-12-20T18:31:02Z</time>
      </trkpt>
      <trkpt lat="62.634818705363" lon="17.987963838331">
        <ele>50</ele>
        <time>2017-12-20T18:31:03Z</time>
      </trkpt>
      <trkpt lat="62.634794733129" lon="17.987973393697">
        <ele>50</ele>
        <time>2017-12-20T18:31:04Z</time>
      </trkpt>
      <trkpt lat="62.634774197474" lon="17.987971717317">
        <ele>50.2</ele>
        <time>2017-12-20T18:31:05Z</time>
      </trkpt>
      <trkpt lat="62.634751147249" lon="17.987969705661">
        <ele>50.2</ele>
        <time>2017-12-20T18:31:06Z</time>
      </trkpt>
      <trkpt lat="62.634728683757" lon="17.987982194692">
        <ele>50.4</ele>
        <time>2017-12-20T18:31:07Z</time>
      </trkpt>
      <trkpt lat="62.63471083031" lon="17.987990157497">
        <ele>50.4</ele>
        <time>2017-12-20T18:31:08Z</time>
      </trkpt>
      <trkpt lat="62.634688534456" lon="17.987994013171">
        <ele>50.4</ele>
        <time>2017-12-20T18:31:09Z</time>
      </trkpt>
      <trkpt lat="62.634666825335" lon="17.988001137786">
        <ele>50.6</ele>
        <time>2017-12-20T18:31:10Z</time>
      </trkpt>
      <trkpt lat="62.634640841445" lon="17.988009938781">
        <ele>50.6</ele>
        <time>2017-12-20T18:31:11Z</time>
      </trkpt>
      <trkpt lat="62.634618713229" lon="17.988020835251">
        <ele>50.6</ele>
        <time>2017-12-20T18:31:12Z</time>
      </trkpt>
      <trkpt lat="62.634594992452" lon="17.988038185784">
        <ele>50.6</ele>
        <time>2017-12-20T18:31:13Z</time>
      </trkpt>
      <trkpt lat="62.63457336715" lon="17.988056458326">
        <ele>50.6</ele>
        <time>2017-12-20T18:31:14Z</time>
      </trkpt>
      <trkpt lat="62.634554340237" lon="17.988065846054">
        <ele>50.8</ele>
        <time>2017-12-20T18:31:15Z</time>
      </trkpt>
      <trkpt lat="62.634534642772" lon="17.98806701952">
        <ele>50.8</ele>
        <time>2017-12-20T18:31:16Z</time>
      </trkpt>
      <trkpt lat="62.634514861488" lon="17.988064085855">
        <ele>51.2</ele>
        <time>2017-12-20T18:31:17Z</time>
      </trkpt>
      <trkpt lat="62.634497846231" lon="17.988066851882">
        <ele>51.2</ele>
        <time>2017-12-20T18:31:18Z</time>
      </trkpt>
      <trkpt lat="62.634476556205" lon="17.988067941529">
        <ele>51.4</ele>
        <time>2017-12-20T18:31:19Z</time>
      </trkpt>
      <trkpt lat="62.634453925075" lon="17.988076323429">
        <ele>51.6</ele>
        <time>2017-12-20T18:31:20Z</time>
      </trkpt>
      <trkpt lat="62.634428947013" lon="17.98808378332">
        <ele>51.6</ele>
        <time>2017-12-20T18:31:21Z</time>
      </trkpt>
      <trkpt lat="62.634406818797" lon="17.988088058089">
        <ele>51.6</ele>
        <time>2017-12-20T18:31:22Z</time>
      </trkpt>
      <trkpt lat="62.634388043341" lon="17.988089315374">
        <ele>51.8</ele>
        <time>2017-12-20T18:31:23Z</time>
      </trkpt>
      <trkpt lat="62.634373458835" lon="17.98808210694">
        <ele>51.6</ele>
        <time>2017-12-20T18:31:24Z</time>
      </trkpt>
      <trkpt lat="62.634351330619" lon="17.988082777492">
        <ele>51.6</ele>
        <time>2017-12-20T18:31:25Z</time>
      </trkpt>
      <trkpt lat="62.634323167435" lon="17.988086884623">
        <ele>51.6</ele>
        <time>2017-12-20T18:31:26Z</time>
      </trkpt>
      <trkpt lat="62.634294166061" lon="17.988092835772">
        <ele>51.6</ele>
        <time>2017-12-20T18:31:27Z</time>
      </trkpt>
      <trkpt lat="62.634270193827" lon="17.988093422505">
        <ele>51.8</ele>
        <time>2017-12-20T18:31:28Z</time>
      </trkpt>
      <trkpt lat="62.634243539385" lon="17.988091662306">
        <ele>51.8</ele>
        <time>2017-12-20T18:31:29Z</time>
      </trkpt>
      <trkpt lat="62.634215208563" lon="17.988091662306">
        <ele>52</ele>
        <time>2017-12-20T18:31:30Z</time>
      </trkpt>
      <trkpt lat="62.63419115251" lon="17.988090321202">
        <ele>52</ele>
        <time>2017-12-20T18:31:31Z</time>
      </trkpt>
      <trkpt lat="62.634159720385" lon="17.988077748352">
        <ele>52.2</ele>
        <time>2017-12-20T18:31:32Z</time>
      </trkpt>
      <trkpt lat="62.634128120622" lon="17.988065762235">
        <ele>52.4</ele>
        <time>2017-12-20T18:31:33Z</time>
      </trkpt>
      <trkpt lat="62.634100125076" lon="17.98806199038">
        <ele>52.4</ele>
        <time>2017-12-20T18:31:34Z</time>
      </trkpt>
      <trkpt lat="62.634064837277" lon="17.988053357023">
        <ele>52.4</ele>
        <time>2017-12-20T18:31:35Z</time>
      </trkpt>
      <trkpt lat="62.634030722944" lon="17.988040532716">
        <ele>52.4</ele>
        <time>2017-12-20T18:31:36Z</time>
      </trkpt>
      <trkpt lat="62.634001386294" lon="17.988029887703">
        <ele>52.6</ele>
        <time>2017-12-20T18:31:37Z</time>
      </trkpt>
      <trkpt lat="62.63397657587" lon="17.98802091907">
        <ele>52.6</ele>
        <time>2017-12-20T18:31:38Z</time>
      </trkpt>
      <trkpt lat="62.633950256704" lon="17.988008849134">
        <ele>52.6</ele>
        <time>2017-12-20T18:31:39Z</time>
      </trkpt>
      <trkpt lat="62.633925111004" lon="17.987999629044">
        <ele>52.8</ele>
        <time>2017-12-20T18:31:40Z</time>
      </trkpt>
      <trkpt lat="62.633890326119" lon="17.987981440321">
        <ele>52.8</ele>
        <time>2017-12-20T18:31:41Z</time>
      </trkpt>
      <trkpt lat="62.633866940618" lon="17.987975321534">
        <ele>53</ele>
        <time>2017-12-20T18:31:42Z</time>
      </trkpt>
      <trkpt lat="62.633846907877" lon="17.987965430892">
        <ele>53.2</ele>
        <time>2017-12-20T18:31:43Z</time>
      </trkpt>
      <trkpt lat="62.633827545688" lon="17.987955204974">
        <ele>53</ele>
        <time>2017-12-20T18:31:44Z</time>
      </trkpt>
      <trkpt lat="62.633810949526" lon="17.987944895237">
        <ele>53.2</ele>
        <time>2017-12-20T18:31:45Z</time>
      </trkpt>
      <trkpt lat="62.633794772459" lon="17.987933663491">
        <ele>53.2</ele>
        <time>2017-12-20T18:31:46Z</time>
      </trkpt>
      <trkpt lat="62.633768201836" lon="17.987926119781">
        <ele>53.4</ele>
        <time>2017-12-20T18:31:47Z</time>
      </trkpt>
      <trkpt lat="62.633740541566" lon="17.987912960198">
        <ele>53.4</ele>
        <time>2017-12-20T18:31:48Z</time>
      </trkpt>
      <trkpt lat="62.633710702002" lon="17.987886473394">
        <ele>53.4</ele>
        <time>2017-12-20T18:31:49Z</time>
      </trkpt>
      <trkpt lat="62.633685556302" lon="17.987863674626">
        <ele>53.6</ele>
        <time>2017-12-20T18:31:50Z</time>
      </trkpt>
      <trkpt lat="62.633665020647" lon="17.987841630229">
        <ele>53.6</ele>
        <time>2017-12-20T18:31:51Z</time>
      </trkpt>
      <trkpt lat="62.633641802784" lon="17.987816819805">
        <ele>53.8</ele>
        <time>2017-12-20T18:31:52Z</time>
      </trkpt>
      <trkpt lat="62.633620512758" lon="17.987789913906">
        <ele>53.8</ele>
        <time>2017-12-20T18:31:53Z</time>
      </trkpt>
      <trkpt lat="62.633600815293" lon="17.987767115138">
        <ele>53.8</ele>
        <time>2017-12-20T18:31:54Z</time>
      </trkpt>
      <trkpt lat="62.633578016525" lon="17.987736185927">
        <ele>54</ele>
        <time>2017-12-20T18:31:55Z</time>
      </trkpt>
      <trkpt lat="62.633552954644" lon="17.987719254489">
        <ele>54.2</ele>
        <time>2017-12-20T18:31:56Z</time>
      </trkpt>
      <trkpt lat="62.633528647134" lon="17.987694611703">
        <ele>54.4</ele>
        <time>2017-12-20T18:31:57Z</time>
      </trkpt>
      <trkpt lat="62.633508949669" lon="17.987666616157">
        <ele>54.6</ele>
        <time>2017-12-20T18:31:58Z</time>
      </trkpt>
      <trkpt lat="62.633473578051" lon="17.987627556503">
        <ele>54.8</ele>
        <time>2017-12-20T18:31:59Z</time>
      </trkpt>
      <trkpt lat="62.63344516341" lon="17.987599812414">
        <ele>54.8</ele>
        <time>2017-12-20T18:32:00Z</time>
      </trkpt>
      <trkpt lat="62.633420520624" lon="17.987562010045">
        <ele>55</ele>
        <time>2017-12-20T18:32:01Z</time>
      </trkpt>
      <trkpt lat="62.633400152607" lon="17.987525464961">
        <ele>55</ele>
        <time>2017-12-20T18:32:02Z</time>
      </trkpt>
      <trkpt lat="62.633383556445" lon="17.987496463587">
        <ele>55.2</ele>
        <time>2017-12-20T18:32:03Z</time>
      </trkpt>
      <trkpt lat="62.633364948627" lon="17.987455057001">
        <ele>55.2</ele>
        <time>2017-12-20T18:32:04Z</time>
      </trkpt>
      <trkpt lat="62.633346843723" lon="17.987411219664">
        <ele>55.4</ele>
        <time>2017-12-20T18:32:05Z</time>
      </trkpt>
      <trkpt lat="62.633329241733" lon="17.987372495286">
        <ele>55.4</ele>
        <time>2017-12-20T18:32:06Z</time>
      </trkpt>
      <trkpt lat="62.633311975019" lon="17.987328657949">
        <ele>55.6</ele>
        <time>2017-12-20T18:32:07Z</time>
      </trkpt>
      <trkpt lat="62.633294456848" lon="17.987277695997">
        <ele>55.8</ele>
        <time>2017-12-20T18:32:08Z</time>
      </trkpt>
      <trkpt lat="62.633278279781" lon="17.987213909738">
        <ele>56.2</ele>
        <time>2017-12-20T18:32:09Z</time>
      </trkpt>
      <trkpt lat="62.633261515981" lon="17.98713998138">
        <ele>56.4</ele>
        <time>2017-12-20T18:32:10Z</time>
      </trkpt>
      <trkpt lat="62.633244333086" lon="17.98702598754">
        <ele>56.2</ele>
        <time>2017-12-20T18:32:11Z</time>
      </trkpt>
      <trkpt lat="62.63322891039" lon="17.98693043388">
        <ele>56.2</ele>
        <time>2017-12-20T18:32:12Z</time>
      </trkpt>
      <trkpt lat="62.633220025576" lon="17.986842340111">
        <ele>55.8</ele>
        <time>2017-12-20T18:32:13Z</time>
      </trkpt>
      <trkpt lat="62.633223545974" lon="17.986747121727">
        <ele>55.4</ele>
        <time>2017-12-20T18:32:14Z</time>
      </trkpt>
      <trkpt lat="62.633223965069" lon="17.986648550583">
        <ele>54.8</ele>
        <time>2017-12-20T18:32:15Z</time>
      </trkpt>
      <trkpt lat="62.633227653105" lon="17.986554840941">
        <ele>53.6</ele>
        <time>2017-12-20T18:32:16Z</time>
      </trkpt>
      <trkpt lat="62.633237711385" lon="17.986450905381">
        <ele>53</ele>
        <time>2017-12-20T18:32:17Z</time>
      </trkpt>
      <trkpt lat="62.633242489068" lon="17.98634453907">
        <ele>52.2</ele>
        <time>2017-12-20T18:32:18Z</time>
      </trkpt>
      <trkpt lat="62.633254726642" lon="17.986225348452">
        <ele>52</ele>
        <time>2017-12-20T18:32:19Z</time>
      </trkpt>
      <trkpt lat="62.633271909537" lon="17.986120993797">
        <ele>51.8</ele>
        <time>2017-12-20T18:32:20Z</time>
      </trkpt>
      <trkpt lat="62.633290517355" lon="17.986021165368">
        <ele>51.4</ele>
        <time>2017-12-20T18:32:21Z</time>
      </trkpt>
      <trkpt lat="62.633311807381" lon="17.985934999436">
        <ele>51.2</ele>
        <time>2017-12-20T18:32:22Z</time>
      </trkpt>
      <trkpt lat="62.633341646945" lon="17.985850258427">
        <ele>50.8</ele>
        <time>2017-12-20T18:32:23Z</time>
      </trkpt>
      <trkpt lat="62.633380874237" lon="17.985759398631">
        <ele>50.2</ele>
        <time>2017-12-20T18:32:24Z</time>
      </trkpt>
      <trkpt lat="62.633425130669" lon="17.985659318745">
        <ele>50</ele>
        <time>2017-12-20T18:32:25Z</time>
      </trkpt>
      <trkpt lat="62.633474248603" lon="17.985554712633">
        <ele>49.8</ele>
        <time>2017-12-20T18:32:26Z</time>
      </trkpt>
      <trkpt lat="62.633515487551" lon="17.985439629146">
        <ele>49.4</ele>
        <time>2017-12-20T18:32:27Z</time>
      </trkpt>
      <trkpt lat="62.633545997667" lon="17.985313397732">
        <ele>49.2</ele>
        <time>2017-12-20T18:32:28Z</time>
      </trkpt>
      <trkpt lat="62.633577262154" lon="17.985148358121">
        <ele>48.6</ele>
        <time>2017-12-20T18:32:29Z</time>
      </trkpt>
      <trkpt lat="62.63359268485" lon="17.984994550256">
        <ele>48</ele>
        <time>2017-12-20T18:32:30Z</time>
      </trkpt>
      <trkpt lat="62.633606431166" lon="17.984857506191">
        <ele>47.4</ele>
        <time>2017-12-20T18:32:31Z</time>
      </trkpt>
      <trkpt lat="62.633611711763" lon="17.984710320027">
        <ele>47</ele>
        <time>2017-12-20T18:32:32Z</time>
      </trkpt>
      <trkpt lat="62.633611879401" lon="17.984575203799">
        <ele>47</ele>
        <time>2017-12-20T18:32:33Z</time>
      </trkpt>
      <trkpt lat="62.633610119202" lon="17.98442927492">
        <ele>46.8</ele>
        <time>2017-12-20T18:32:34Z</time>
      </trkpt>
      <trkpt lat="62.633610957392" lon="17.984293823416">
        <ele>46.8</ele>
        <time>2017-12-20T18:32:35Z</time>
      </trkpt>
      <trkpt lat="62.6336136396" lon="17.984170777124">
        <ele>46.8</ele>
        <time>2017-12-20T18:32:36Z</time>
      </trkpt>
      <trkpt lat="62.633615651256" lon="17.984060052225">
        <ele>47</ele>
        <time>2017-12-20T18:32:37Z</time>
      </trkpt>
      <trkpt lat="62.633616489446" lon="17.983931809155">
        <ele>47</ele>
        <time>2017-12-20T18:32:38Z</time>
      </trkpt>
      <trkpt lat="62.633619004016" lon="17.983796106194">
        <ele>47.2</ele>
        <time>2017-12-20T18:32:39Z</time>
      </trkpt>
      <trkpt lat="62.633630571038" lon="17.983700636353">
        <ele>47.4</ele>
        <time>2017-12-20T18:32:40Z</time>
      </trkpt>
      <trkpt lat="62.633634342893" lon="17.983602065209">
        <ele>47.8</ele>
        <time>2017-12-20T18:32:41Z</time>
      </trkpt>
      <trkpt lat="62.633644401173" lon="17.983500225124">
        <ele>48.2</ele>
        <time>2017-12-20T18:32:42Z</time>
      </trkpt>
      <trkpt lat="62.633651441969" lon="17.983415735572">
        <ele>48.4</ele>
        <time>2017-12-20T18:32:43Z</time>
      </trkpt>
      <trkpt lat="62.633664517733" lon="17.983317415885">
        <ele>48.6</ele>
        <time>2017-12-20T18:32:44Z</time>
      </trkpt>
      <trkpt lat="62.633675162746" lon="17.983231669048">
        <ele>49</ele>
        <time>2017-12-20T18:32:45Z</time>
      </trkpt>
      <trkpt lat="62.633679688972" lon="17.983156986319">
        <ele>49</ele>
        <time>2017-12-20T18:32:46Z</time>
      </trkpt>
      <trkpt lat="62.633694273478" lon="17.983077945002">
        <ele>48.6</ele>
        <time>2017-12-20T18:32:47Z</time>
      </trkpt>
      <trkpt lat="62.63370416412" lon="17.98300854287">
        <ele>48.6</ele>
        <time>2017-12-20T18:32:48Z</time>
      </trkpt>
      <trkpt lat="62.633719000083" lon="17.982929669191">
        <ele>48.8</ele>
        <time>2017-12-20T18:32:49Z</time>
      </trkpt>
      <trkpt lat="62.633735093331" lon="17.982847861847">
        <ele>48.6</ele>
        <time>2017-12-20T18:32:50Z</time>
      </trkpt>
      <trkpt lat="62.633749845475" lon="17.982769910177">
        <ele>48.6</ele>
        <time>2017-12-20T18:32:51Z</time>
      </trkpt>
      <trkpt lat="62.633758981746" lon="17.98270176533">
        <ele>48.6</ele>
        <time>2017-12-20T18:32:52Z</time>
      </trkpt>
      <trkpt lat="62.633768956207" lon="17.98263303375">
        <ele>48.8</ele>
        <time>2017-12-20T18:32:53Z</time>
      </trkpt>
      <trkpt lat="62.633779517401" lon="17.982576539744">
        <ele>48.8</ele>
        <time>2017-12-20T18:32:54Z</time>
      </trkpt>
      <trkpt lat="62.633789827138" lon="17.982504371585">
        <ele>48.8</ele>
        <time>2017-12-20T18:32:55Z</time>
      </trkpt>
      <trkpt lat="62.63379887959" lon="17.982438406032">
        <ele>48.8</ele>
        <time>2017-12-20T18:32:56Z</time>
      </trkpt>
      <trkpt lat="62.633807680585" lon="17.982361795466">
        <ele>48.8</ele>
        <time>2017-12-20T18:32:57Z</time>
      </trkpt>
      <trkpt lat="62.633813883191" lon="17.982284514348">
        <ele>48.8</ele>
        <time>2017-12-20T18:32:58Z</time>
      </trkpt>
      <trkpt lat="62.633826456041" lon="17.982204886298">
        <ele>48.8</ele>
        <time>2017-12-20T18:32:59Z</time>
      </trkpt>
      <trkpt lat="62.633832323371" lon="17.9821343107">
        <ele>48.8</ele>
        <time>2017-12-20T18:33:00Z</time>
      </trkpt>
      <trkpt lat="62.633836011407" lon="17.982054095917">
        <ele>48.4</ele>
        <time>2017-12-20T18:33:01Z</time>
      </trkpt>
      <trkpt lat="62.6338399509" lon="17.981985029061">
        <ele>48.4</ele>
        <time>2017-12-20T18:33:02Z</time>
      </trkpt>
      <trkpt lat="62.633843136022" lon="17.981909843418">
        <ele>48.4</ele>
        <time>2017-12-20T18:33:03Z</time>
      </trkpt>
      <trkpt lat="62.633851769379" lon="17.981846224797">
        <ele>48.6</ele>
        <time>2017-12-20T18:33:04Z</time>
      </trkpt>
      <trkpt lat="62.633866270066" lon="17.981766010014">
        <ele>48.6</ele>
        <time>2017-12-20T18:33:05Z</time>
      </trkpt>
      <trkpt lat="62.633891248128" lon="17.981697697529">
        <ele>49</ele>
        <time>2017-12-20T18:33:06Z</time>
      </trkpt>
      <trkpt lat="62.633923350805" lon="17.981654111649">
        <ele>49</ele>
        <time>2017-12-20T18:33:07Z</time>
      </trkpt>
      <trkpt lat="62.633939946967" lon="17.981594432521">
        <ele>49.2</ele>
        <time>2017-12-20T18:33:08Z</time>
      </trkpt>
      <trkpt lat="62.633949083238" lon="17.981528047873">
        <ele>49.2</ele>
        <time>2017-12-20T18:33:09Z</time>
      </trkpt>
      <trkpt lat="62.633953609464" lon="17.981479013758">
        <ele>49.4</ele>
        <time>2017-12-20T18:33:10Z</time>
      </trkpt>
      <trkpt lat="62.633964589753" lon="17.981422100657">
        <ele>49.4</ele>
        <time>2017-12-20T18:33:11Z</time>
      </trkpt>
      <trkpt lat="62.633981521191" lon="17.981355129276">
        <ele>49.6</ele>
        <time>2017-12-20T18:33:12Z</time>
      </trkpt>
      <trkpt lat="62.633993758765" lon="17.981282039108">
        <ele>49.4</ele>
        <time>2017-12-20T18:33:13Z</time>
      </trkpt>
      <trkpt lat="62.634012869497" lon="17.981218001392">
        <ele>49.2</ele>
        <time>2017-12-20T18:33:14Z</time>
      </trkpt>
      <trkpt lat="62.6340327346" lon="17.98114189374">
        <ele>49.2</ele>
        <time>2017-12-20T18:33:15Z</time>
      </trkpt>
      <trkpt lat="62.634046397097" lon="17.981080370594">
        <ele>49.2</ele>
        <time>2017-12-20T18:33:16Z</time>
      </trkpt>
      <trkpt lat="62.634061484517" lon="17.981016584335">
        <ele>49.2</ele>
        <time>2017-12-20T18:33:17Z</time>
      </trkpt>
      <trkpt lat="62.634079421783" lon="17.980952378981">
        <ele>49.4</ele>
        <time>2017-12-20T18:33:18Z</time>
      </trkpt>
      <trkpt lat="62.634086127303" lon="17.980880965193">
        <ele>49.2</ele>
        <time>2017-12-20T18:33:19Z</time>
      </trkpt>
      <trkpt lat="62.634093671013" lon="17.980807623568">
        <ele>49.8</ele>
        <time>2017-12-20T18:33:20Z</time>
      </trkpt>
      <trkpt lat="62.634103561655" lon="17.980731096821">
        <ele>49.8</ele>
        <time>2017-12-20T18:33:21Z</time>
      </trkpt>
      <trkpt lat="62.634118816713" lon="17.980669322218">
        <ele>50</ele>
        <time>2017-12-20T18:33:22Z</time>
      </trkpt>
      <trkpt lat="62.634135161418" lon="17.980606625606">
        <ele>50</ele>
        <time>2017-12-20T18:33:23Z</time>
      </trkpt>
      <trkpt lat="62.634155361797" lon="17.980549628686">
        <ele>50.2</ele>
        <time>2017-12-20T18:33:24Z</time>
      </trkpt>
      <trkpt lat="62.634171287407" lon="17.98050319296">
        <ele>50.2</ele>
        <time>2017-12-20T18:33:25Z</time>
      </trkpt>
      <trkpt lat="62.63420121079" lon="17.980460948184">
        <ele>50.2</ele>
        <time>2017-12-20T18:33:26Z</time>
      </trkpt>
      <trkpt lat="62.634230295983" lon="17.980417278485">
        <ele>50.2</ele>
        <time>2017-12-20T18:33:27Z</time>
      </trkpt>
      <trkpt lat="62.634251250733" lon="17.980377213003">
        <ele>50.2</ele>
        <time>2017-12-20T18:33:28Z</time>
      </trkpt>
      <trkpt lat="62.634273127492" lon="17.980323568843">
        <ele>50.2</ele>
        <time>2017-12-20T18:33:29Z</time>
      </trkpt>
      <trkpt lat="62.63429927902" lon="17.980273445081">
        <ele>50.2</ele>
        <time>2017-12-20T18:33:30Z</time>
      </trkpt>
      <trkpt lat="62.634317048648" lon="17.980203204759">
        <ele>50.2</ele>
        <time>2017-12-20T18:33:31Z</time>
      </trkpt>
      <trkpt lat="62.634337332846" lon="17.980131623333">
        <ele>50</ele>
        <time>2017-12-20T18:33:32Z</time>
      </trkpt>
      <trkpt lat="62.634353677551" lon="17.980062807934">
        <ele>50.2</ele>
        <time>2017-12-20T18:33:33Z</time>
      </trkpt>
      <trkpt lat="62.634380164355" lon="17.979963314781">
        <ele>50.2</ele>
        <time>2017-12-20T18:33:35Z</time>
      </trkpt>
      <trkpt lat="62.634399275087" lon="17.979910760268">
        <ele>50.2</ele>
        <time>2017-12-20T18:33:36Z</time>
      </trkpt>
      <trkpt lat="62.634424420787" lon="17.979813530228">
        <ele>50.2</ele>
        <time>2017-12-20T18:33:37Z</time>
      </trkpt>
      <trkpt lat="62.634440597854" lon="17.979727280477">
        <ele>50.2</ele>
        <time>2017-12-20T18:33:38Z</time>
      </trkpt>
      <trkpt lat="62.63444931503" lon="17.979664500046">
        <ele>50.2</ele>
        <time>2017-12-20T18:33:39Z</time>
      </trkpt>
      <trkpt lat="62.634456439645" lon="17.979564923074">
        <ele>50.4</ele>
        <time>2017-12-20T18:33:40Z</time>
      </trkpt>
      <trkpt lat="62.634463396622" lon="17.979507087964">
        <ele>50.2</ele>
        <time>2017-12-20T18:33:41Z</time>
      </trkpt>
      <trkpt lat="62.63447362254" lon="17.979437434375">
        <ele>50.2</ele>
        <time>2017-12-20T18:33:42Z</time>
      </trkpt>
      <trkpt lat="62.634483932277" lon="17.979364679483">
        <ele>50.2</ele>
        <time>2017-12-20T18:33:43Z</time>
      </trkpt>
      <trkpt lat="62.634490973073" lon="17.979291505496">
        <ele>50</ele>
        <time>2017-12-20T18:33:44Z</time>
      </trkpt>
      <trkpt lat="62.634502791552" lon="17.979222019545">
        <ele>50</ele>
        <time>2017-12-20T18:33:45Z</time>
      </trkpt>
      <trkpt lat="62.634513520384" lon="17.979148594101">
        <ele>50</ele>
        <time>2017-12-20T18:33:46Z</time>
      </trkpt>
      <trkpt lat="62.634522824293" lon="17.979087909145">
        <ele>50</ele>
        <time>2017-12-20T18:33:47Z</time>
      </trkpt>
      <trkpt lat="62.634547802355" lon="17.978972490382">
        <ele>49.8</ele>
        <time>2017-12-20T18:33:49Z</time>
      </trkpt>
      <trkpt lat="62.634567080725" lon="17.978917924213">
        <ele>49.8</ele>
        <time>2017-12-20T18:33:50Z</time>
      </trkpt>
      <trkpt lat="62.634582838697" lon="17.978873164867">
        <ele>49.8</ele>
        <time>2017-12-20T18:33:51Z</time>
      </trkpt>
      <trkpt lat="62.63460689475" lon="17.978835530136">
        <ele>49.8</ele>
        <time>2017-12-20T18:33:52Z</time>
      </trkpt>
      <trkpt lat="62.634627933319" lon="17.978818850155">
        <ele>49.8</ele>
        <time>2017-12-20T18:33:53Z</time>
      </trkpt>
      <trkpt lat="62.634651402639" lon="17.978814323929">
        <ele>49.8</ele>
        <time>2017-12-20T18:33:54Z</time>
      </trkpt>
      <trkpt lat="62.634680404013" lon="17.978806528762">
        <ele>49.8</ele>
        <time>2017-12-20T18:33:55Z</time>
      </trkpt>
      <trkpt lat="62.634712590509" lon="17.978815665033">
        <ele>49.8</ele>
        <time>2017-12-20T18:33:56Z</time>
      </trkpt>
      <trkpt lat="62.634745112281" lon="17.978830668634">
        <ele>50</ele>
        <time>2017-12-20T18:33:57Z</time>
      </trkpt>
      <trkpt lat="62.634778220786" lon="17.978844163493">
        <ele>50</ele>
        <time>2017-12-20T18:33:58Z</time>
      </trkpt>
      <trkpt lat="62.634803450305" lon="17.978854640868">
        <ele>50</ele>
        <time>2017-12-20T18:33:59Z</time>
      </trkpt>
      <trkpt lat="62.634849047841" lon="17.978872242858">
        <ele>50</ele>
        <time>2017-12-20T18:34:00Z</time>
      </trkpt>
      <trkpt lat="62.634884670916" lon="17.978888084649">
        <ele>49.8</ele>
        <time>2017-12-20T18:34:01Z</time>
      </trkpt>
      <trkpt lat="62.634916103041" lon="17.978892862332">
        <ele>49.6</ele>
        <time>2017-12-20T18:34:02Z</time>
      </trkpt>
      <trkpt lat="62.634949546822" lon="17.978893197608">
        <ele>49.4</ele>
        <time>2017-12-20T18:34:03Z</time>
      </trkpt>
      <trkpt lat="62.634977458549" lon="17.978907865933">
        <ele>49.2</ele>
        <time>2017-12-20T18:34:04Z</time>
      </trkpt>
      <trkpt lat="62.635005537914" lon="17.978915577281">
        <ele>49</ele>
        <time>2017-12-20T18:34:05Z</time>
      </trkpt>
      <trkpt lat="62.635032443813" lon="17.978925384104">
        <ele>48.8</ele>
        <time>2017-12-20T18:34:06Z</time>
      </trkpt>
      <trkpt lat="62.63506203192" lon="17.97893577766">
        <ele>48.8</ele>
        <time>2017-12-20T18:34:07Z</time>
      </trkpt>
      <trkpt lat="62.635092793493" lon="17.978947344682">
        <ele>48.8</ele>
        <time>2017-12-20T18:34:08Z</time>
      </trkpt>
      <trkpt lat="62.635124644713" lon="17.978958492609">
        <ele>48.8</ele>
        <time>2017-12-20T18:34:09Z</time>
      </trkpt>
      <trkpt lat="62.635162530901" lon="17.978966874509">
        <ele>48.6</ele>
        <time>2017-12-20T18:34:10Z</time>
      </trkpt>
      <trkpt lat="62.635197148148" lon="17.978972406563">
        <ele>48.6</ele>
        <time>2017-12-20T18:34:11Z</time>
      </trkpt>
      <trkpt lat="62.635235788707" lon="17.978978441531">
        <ele>48.4</ele>
        <time>2017-12-20T18:34:12Z</time>
      </trkpt>
      <trkpt lat="62.635273423438" lon="17.978985398508">
        <ele>48.4</ele>
        <time>2017-12-20T18:34:13Z</time>
      </trkpt>
      <trkpt lat="62.635307118676" lon="17.978987913078">
        <ele>48.2</ele>
        <time>2017-12-20T18:34:14Z</time>
      </trkpt>
      <trkpt lat="62.635345675416" lon="17.978988918906">
        <ele>48</ele>
        <time>2017-12-20T18:34:15Z</time>
      </trkpt>
      <trkpt lat="62.635387584916" lon="17.978982548662">
        <ele>48</ele>
        <time>2017-12-20T18:34:16Z</time>
      </trkpt>
      <trkpt lat="62.635415496643" lon="17.978975843142">
        <ele>48</ele>
        <time>2017-12-20T18:34:17Z</time>
      </trkpt>
      <trkpt lat="62.635471571554" lon="17.978961426274">
        <ele>47.8</ele>
        <time>2017-12-20T18:34:18Z</time>
      </trkpt>
      <trkpt lat="62.635513564873" lon="17.978948266691">
        <ele>47.8</ele>
        <time>2017-12-20T18:34:19Z</time>
      </trkpt>
      <trkpt lat="62.635564694463" lon="17.97893745404">
        <ele>47.6</ele>
        <time>2017-12-20T18:34:20Z</time>
      </trkpt>
      <trkpt lat="62.635613393302" lon="17.97893074852">
        <ele>47.6</ele>
        <time>2017-12-20T18:34:21Z</time>
      </trkpt>
      <trkpt lat="62.635661840684" lon="17.978927647217">
        <ele>47.2</ele>
        <time>2017-12-20T18:34:22Z</time>
      </trkpt>
      <trkpt lat="62.635703666365" lon="17.978925300285">
        <ele>47</ele>
        <time>2017-12-20T18:34:23Z</time>
      </trkpt>
      <trkpt lat="62.635748174254" lon="17.978925384104">
        <ele>46.6</ele>
        <time>2017-12-20T18:34:24Z</time>
      </trkpt>
      <trkpt lat="62.635792430686" lon="17.978932760176">
        <ele>46.2</ele>
        <time>2017-12-20T18:34:25Z</time>
      </trkpt>
      <trkpt lat="62.63583065215" lon="17.978944327198">
        <ele>46</ele>
        <time>2017-12-20T18:34:26Z</time>
      </trkpt>
      <trkpt lat="62.635859066791" lon="17.978964024663">
        <ele>45.8</ele>
        <time>2017-12-20T18:34:27Z</time>
      </trkpt>
      <trkpt lat="62.635886224147" lon="17.978969556717">
        <ele>45.6</ele>
        <time>2017-12-20T18:34:28Z</time>
      </trkpt>
      <trkpt lat="62.635899886644" lon="17.978972825658">
        <ele>45.4</ele>
        <time>2017-12-20T18:34:29Z</time>
      </trkpt>
      <trkpt lat="62.635922517774" lon="17.978976513694">
        <ele>45.6</ele>
        <time>2017-12-20T18:34:30Z</time>
      </trkpt>
      <trkpt lat="62.635940119764" lon="17.978978357712">
        <ele>45.6</ele>
        <time>2017-12-20T18:34:31Z</time>
      </trkpt>
      <trkpt lat="62.635955710098" lon="17.978983889766">
        <ele>45.6</ele>
        <time>2017-12-20T18:34:32Z</time>
      </trkpt>
      <trkpt lat="62.635972725355" lon="17.978992858399">
        <ele>45.8</ele>
        <time>2017-12-20T18:34:33Z</time>
      </trkpt>
      <trkpt lat="62.635989572974" lon="17.979007359086">
        <ele>45.8</ele>
        <time>2017-12-20T18:34:34Z</time>
      </trkpt>
      <trkpt lat="62.635998876883" lon="17.979041054324">
        <ele>46</ele>
        <time>2017-12-20T18:34:35Z</time>
      </trkpt>
      <trkpt lat="62.636003403109" lon="17.979082963824">
        <ele>46</ele>
        <time>2017-12-20T18:34:36Z</time>
      </trkpt>
      <trkpt lat="62.636001223815" lon="17.979128058446">
        <ele>46</ele>
        <time>2017-12-20T18:34:37Z</time>
      </trkpt>
      <trkpt lat="62.635994685933" lon="17.979150019024">
        <ele>46</ele>
        <time>2017-12-20T18:34:38Z</time>
      </trkpt>
      <trkpt lat="62.635989153879" lon="17.979169800308">
        <ele>46</ele>
        <time>2017-12-20T18:34:39Z</time>
      </trkpt>
      <trkpt lat="62.635988483327" lon="17.979182959891">
        <ele>46</ele>
        <time>2017-12-20T18:34:40Z</time>
      </trkpt>
      <trkpt lat="62.635985801119" lon="17.97918974923">
        <ele>46</ele>
        <time>2017-12-20T18:34:42Z</time>
      </trkpt>
      <trkpt lat="62.635980017608" lon="17.979380102179">
        <ele>45.6</ele>
        <time>2017-12-20T18:34:47Z</time>
      </trkpt>
      <trkpt lat="62.635980101427" lon="17.97946299917">
        <ele>45.6</ele>
        <time>2017-12-20T18:34:48Z</time>
      </trkpt>
      <trkpt lat="62.635969037319" lon="17.979580681046">
        <ele>45.6</ele>
        <time>2017-12-20T18:34:49Z</time>
      </trkpt>
      <trkpt lat="62.635958811401" lon="17.979708337383">
        <ele>45.4</ele>
        <time>2017-12-20T18:34:50Z</time>
      </trkpt>
      <trkpt lat="62.635962080342" lon="17.979866671474">
        <ele>45.4</ele>
        <time>2017-12-20T18:34:51Z</time>
      </trkpt>
      <trkpt lat="62.635974485554" lon="17.980011426887">
        <ele>44.8</ele>
        <time>2017-12-20T18:34:52Z</time>
      </trkpt>
      <trkpt lat="62.63599745196" lon="17.980162971639">
        <ele>44</ele>
        <time>2017-12-20T18:34:53Z</time>
      </trkpt>
      <trkpt lat="62.63601840671" lon="17.980313091468">
        <ele>43.2</ele>
        <time>2017-12-20T18:34:54Z</time>
      </trkpt>
      <trkpt lat="62.636033745587" lon="17.98046128346">
        <ele>42.4</ele>
        <time>2017-12-20T18:34:55Z</time>
      </trkpt>
      <trkpt lat="62.636057550183" lon="17.980585251761">
        <ele>41</ele>
        <time>2017-12-20T18:34:56Z</time>
      </trkpt>
      <trkpt lat="62.636070877404" lon="17.980711399356">
        <ele>40.2</ele>
        <time>2017-12-20T18:34:57Z</time>
      </trkpt>
      <trkpt lat="62.636083114978" lon="17.98084265991">
        <ele>39.2</ele>
        <time>2017-12-20T18:34:58Z</time>
      </trkpt>
      <trkpt lat="62.636097364208" lon="17.980974423378">
        <ele>38.8</ele>
        <time>2017-12-20T18:34:59Z</time>
      </trkpt>
      <trkpt lat="62.636119408605" lon="17.981121441904">
        <ele>38.4</ele>
        <time>2017-12-20T18:35:00Z</time>
      </trkpt>
      <trkpt lat="62.636137764966" lon="17.981262341643">
        <ele>38.2</ele>
        <time>2017-12-20T18:35:01Z</time>
      </trkpt>
      <trkpt lat="62.636154780223" lon="17.981386142306">
        <ele>38</ele>
        <time>2017-12-20T18:35:02Z</time>
      </trkpt>
      <trkpt lat="62.636169867643" lon="17.981502985992">
        <ele>37.8</ele>
        <time>2017-12-20T18:35:03Z</time>
      </trkpt>
      <trkpt lat="62.636188391642" lon="17.98163055851">
        <ele>37.6</ele>
        <time>2017-12-20T18:35:04Z</time>
      </trkpt>
      <trkpt lat="62.636214040256" lon="17.981751090232">
        <ele>37.2</ele>
        <time>2017-12-20T18:35:05Z</time>
      </trkpt>
      <trkpt lat="62.636226110192" lon="17.981842872037">
        <ele>37</ele>
        <time>2017-12-20T18:35:06Z</time>
      </trkpt>
      <trkpt lat="62.636234156816" lon="17.98193649786">
        <ele>37</ele>
        <time>2017-12-20T18:35:07Z</time>
      </trkpt>
      <trkpt lat="62.636227032201" lon="17.982060885256">
        <ele>37</ele>
        <time>2017-12-20T18:35:08Z</time>
      </trkpt>
      <trkpt lat="62.636230804056" lon="17.98217538201">
        <ele>37</ele>
        <time>2017-12-20T18:35:09Z</time>
      </trkpt>
      <trkpt lat="62.636232228979" lon="17.982293482981">
        <ele>37</ele>
        <time>2017-12-20T18:35:10Z</time>
      </trkpt>
      <trkpt lat="62.636248657503" lon="17.982406806269">
        <ele>37</ele>
        <time>2017-12-20T18:35:11Z</time>
      </trkpt>
      <trkpt lat="62.636249830969" lon="17.98251903991">
        <ele>37.2</ele>
        <time>2017-12-20T18:35:12Z</time>
      </trkpt>
      <trkpt lat="62.636240275603" lon="17.982633285207">
        <ele>37.6</ele>
        <time>2017-12-20T18:35:13Z</time>
      </trkpt>
      <trkpt lat="62.636235581739" lon="17.98274116026">
        <ele>38</ele>
        <time>2017-12-20T18:35:14Z</time>
      </trkpt>
      <trkpt lat="62.636232312798" lon="17.982828751115">
        <ele>38.2</ele>
        <time>2017-12-20T18:35:15Z</time>
      </trkpt>
      <trkpt lat="62.636233402445" lon="17.982931597028">
        <ele>38.4</ele>
        <time>2017-12-20T18:35:16Z</time>
      </trkpt>
      <trkpt lat="62.636244131277" lon="17.983025725765">
        <ele>38.6</ele>
        <time>2017-12-20T18:35:17Z</time>
      </trkpt>
      <trkpt lat="62.636246142933" lon="17.98310828748">
        <ele>38.8</ele>
        <time>2017-12-20T18:35:18Z</time>
      </trkpt>
      <trkpt lat="62.636244969467" lon="17.983183389304">
        <ele>38.8</ele>
        <time>2017-12-20T18:35:19Z</time>
      </trkpt>
      <trkpt lat="62.636252177901" lon="17.983270393426">
        <ele>38.6</ele>
        <time>2017-12-20T18:35:20Z</time>
      </trkpt>
      <trkpt lat="62.636255782118" lon="17.983348428915">
        <ele>38.8</ele>
        <time>2017-12-20T18:35:21Z</time>
      </trkpt>
      <trkpt lat="62.636246226752" lon="17.983396373383">
        <ele>38.8</ele>
        <time>2017-12-20T18:35:22Z</time>
      </trkpt>
      <trkpt lat="62.636243125449" lon="17.983451777742">
        <ele>39</ele>
        <time>2017-12-20T18:35:23Z</time>
      </trkpt>
      <trkpt lat="62.636233234807" lon="17.983516402191">
        <ele>39.2</ele>
        <time>2017-12-20T18:35:24Z</time>
      </trkpt>
      <trkpt lat="62.636232312798" lon="17.983583205934">
        <ele>39.2</ele>
        <time>2017-12-20T18:35:25Z</time>
      </trkpt>
      <trkpt lat="62.636228289486" lon="17.983648165659">
        <ele>39</ele>
        <time>2017-12-20T18:35:26Z</time>
      </trkpt>
      <trkpt lat="62.63620280851" lon="17.983696780679">
        <ele>39.2</ele>
        <time>2017-12-20T18:35:27Z</time>
      </trkpt>
      <trkpt lat="62.636178836276" lon="17.983754867246">
        <ele>39.2</ele>
        <time>2017-12-20T18:35:28Z</time>
      </trkpt>
      <trkpt lat="62.636165257598" lon="17.983817228582">
        <ele>39.4</ele>
        <time>2017-12-20T18:35:29Z</time>
      </trkpt>
      <trkpt lat="62.636154109671" lon="17.98388780418">
        <ele>39.4</ele>
        <time>2017-12-20T18:35:30Z</time>
      </trkpt>
      <trkpt lat="62.636142039735" lon="17.983964247108">
        <ele>39.8</ele>
        <time>2017-12-20T18:35:31Z</time>
      </trkpt>
      <trkpt lat="62.636132316731" lon="17.984031553765">
        <ele>40</ele>
        <time>2017-12-20T18:35:32Z</time>
      </trkpt>
      <trkpt lat="62.636135334215" lon="17.984100955897">
        <ele>40.2</ele>
        <time>2017-12-20T18:35:33Z</time>
      </trkpt>
      <trkpt lat="62.636129550704" lon="17.984161221758">
        <ele>40.4</ele>
        <time>2017-12-20T18:35:34Z</time>
      </trkpt>
      <trkpt lat="62.63613323874" lon="17.984228025501">
        <ele>40.4</ele>
        <time>2017-12-20T18:35:35Z</time>
      </trkpt>
      <trkpt lat="62.636136088586" lon="17.984300864212">
        <ele>40.4</ele>
        <time>2017-12-20T18:35:36Z</time>
      </trkpt>
      <trkpt lat="62.636136926776" lon="17.984376301312">
        <ele>40.4</ele>
        <time>2017-12-20T18:35:37Z</time>
      </trkpt>
      <trkpt lat="62.636138854613" lon="17.984455174991">
        <ele>40.2</ele>
        <time>2017-12-20T18:35:38Z</time>
      </trkpt>
      <trkpt lat="62.636133825473" lon="17.984515357033">
        <ele>40.4</ele>
        <time>2017-12-20T18:35:39Z</time>
      </trkpt>
      <trkpt lat="62.636118654234" lon="17.984588698658">
        <ele>40.6</ele>
        <time>2017-12-20T18:35:40Z</time>
      </trkpt>
      <trkpt lat="62.636108260678" lon="17.984646952863">
        <ele>40.6</ele>
        <time>2017-12-20T18:35:41Z</time>
      </trkpt>
      <trkpt lat="62.636105662289" lon="17.984714846253">
        <ele>40.8</ele>
        <time>2017-12-20T18:35:42Z</time>
      </trkpt>
      <trkpt lat="62.636103315357" lon="17.984768658051">
        <ele>40.8</ele>
        <time>2017-12-20T18:35:43Z</time>
      </trkpt>
      <trkpt lat="62.63610809304" lon="17.984809980818">
        <ele>40.8</ele>
        <time>2017-12-20T18:35:44Z</time>
      </trkpt>
      <trkpt lat="62.636108344497" lon="17.984874186172">
        <ele>41</ele>
        <time>2017-12-20T18:35:45Z</time>
      </trkpt>
      <trkpt lat="62.636112703085" lon="17.984926908323">
        <ele>41</ele>
        <time>2017-12-20T18:35:46Z</time>
      </trkpt>
      <trkpt lat="62.636109015049" lon="17.984975690981">
        <ele>41</ele>
        <time>2017-12-20T18:35:47Z</time>
      </trkpt>
      <trkpt lat="62.636106081384" lon="17.985042494724">
        <ele>41.2</ele>
        <time>2017-12-20T18:35:48Z</time>
      </trkpt>
      <trkpt lat="62.636095939285" lon="17.985102425309">
        <ele>41.2</ele>
        <time>2017-12-20T18:35:49Z</time>
      </trkpt>
      <trkpt lat="62.636097783303" lon="17.985151543243">
        <ele>41.4</ele>
        <time>2017-12-20T18:35:50Z</time>
      </trkpt>
      <trkpt lat="62.636098202398" lon="17.98521465895">
        <ele>41.6</ele>
        <time>2017-12-20T18:35:51Z</time>
      </trkpt>
      <trkpt lat="62.636098705312" lon="17.985280121589">
        <ele>41.8</ele>
        <time>2017-12-20T18:35:52Z</time>
      </trkpt>
      <trkpt lat="62.636098956769" lon="17.98534206383">
        <ele>42</ele>
        <time>2017-12-20T18:35:53Z</time>
      </trkpt>
      <trkpt lat="62.63609300562" lon="17.98539654618">
        <ele>42</ele>
        <time>2017-12-20T18:35:54Z</time>
      </trkpt>
      <trkpt lat="62.636092251249" lon="17.985463769018">
        <ele>42.2</ele>
        <time>2017-12-20T18:35:55Z</time>
      </trkpt>
      <trkpt lat="62.636067440825" lon="17.985551192235">
        <ele>42.2</ele>
        <time>2017-12-20T18:35:56Z</time>
      </trkpt>
      <trkpt lat="62.636051263758" lon="17.985606596594">
        <ele>42.2</ele>
        <time>2017-12-20T18:35:57Z</time>
      </trkpt>
      <trkpt lat="62.636029973732" lon="17.985657726184">
        <ele>42.2</ele>
        <time>2017-12-20T18:35:58Z</time>
      </trkpt>
      <trkpt lat="62.636010192448" lon="17.985700390055">
        <ele>42.2</ele>
        <time>2017-12-20T18:35:59Z</time>
      </trkpt>
      <trkpt lat="62.635978676504" lon="17.98573433675">
        <ele>42.2</ele>
        <time>2017-12-20T18:36:00Z</time>
      </trkpt>
      <trkpt lat="62.635958224668" lon="17.985768618721">
        <ele>42.2</ele>
        <time>2017-12-20T18:36:01Z</time>
      </trkpt>
      <trkpt lat="62.635940119764" lon="17.985822681976">
        <ele>42.4</ele>
        <time>2017-12-20T18:36:02Z</time>
      </trkpt>
      <trkpt lat="62.635920673756" lon="17.985849084961">
        <ele>42.4</ele>
        <time>2017-12-20T18:36:03Z</time>
      </trkpt>
      <trkpt lat="62.635899216092" lon="17.985871380815">
        <ele>42.4</ele>
        <time>2017-12-20T18:36:04Z</time>
      </trkpt>
      <trkpt lat="62.635884380129" lon="17.985880852362">
        <ele>42.4</ele>
        <time>2017-12-20T18:36:05Z</time>
      </trkpt>
      <trkpt lat="62.635866442863" lon="17.98589946018">
        <ele>42.6</ele>
        <time>2017-12-20T18:36:06Z</time>
      </trkpt>
      <trkpt lat="62.63584406319" lon="17.985925611708">
        <ele>42.8</ele>
        <time>2017-12-20T18:36:07Z</time>
      </trkpt>
      <trkpt lat="62.635815229454" lon="17.985937514006">
        <ele>42.8</ele>
        <time>2017-12-20T18:36:08Z</time>
      </trkpt>
      <trkpt lat="62.635787233908" lon="17.985944890078">
        <ele>43</ele>
        <time>2017-12-20T18:36:09Z</time>
      </trkpt>
      <trkpt lat="62.635762507303" lon="17.985971795977">
        <ele>43.2</ele>
        <time>2017-12-20T18:36:10Z</time>
      </trkpt>
      <trkpt lat="62.635736607232" lon="17.986020830092">
        <ele>43.2</ele>
        <time>2017-12-20T18:36:11Z</time>
      </trkpt>
      <trkpt lat="62.635714395197" lon="17.98606961275">
        <ele>43.6</ele>
        <time>2017-12-20T18:36:12Z</time>
      </trkpt>
      <trkpt lat="62.635692015524" lon="17.986109259137">
        <ele>43.8</ele>
        <time>2017-12-20T18:36:13Z</time>
      </trkpt>
      <trkpt lat="62.635672820973" lon="17.986147480601">
        <ele>43.8</ele>
        <time>2017-12-20T18:36:14Z</time>
      </trkpt>
      <trkpt lat="62.635659242295" lon="17.986183522771">
        <ele>43.8</ele>
        <time>2017-12-20T18:36:15Z</time>
      </trkpt>
      <trkpt lat="62.635638874278" lon="17.986219900217">
        <ele>44.2</ele>
        <time>2017-12-20T18:36:16Z</time>
      </trkpt>
      <trkpt lat="62.635615488777" lon="17.986257283491">
        <ele>44</ele>
        <time>2017-12-20T18:36:17Z</time>
      </trkpt>
      <trkpt lat="62.63559679714" lon="17.986305730873">
        <ele>44.4</ele>
        <time>2017-12-20T18:36:18Z</time>
      </trkpt>
      <trkpt lat="62.635578524598" lon="17.986343533242">
        <ele>44.4</ele>
        <time>2017-12-20T18:36:19Z</time>
      </trkpt>
      <trkpt lat="62.635560335875" lon="17.986387957312">
        <ele>44.8</ele>
        <time>2017-12-20T18:36:20Z</time>
      </trkpt>
      <trkpt lat="62.635524964257" lon="17.986442104386">
        <ele>44.6</ele>
        <time>2017-12-20T18:36:21Z</time>
      </trkpt>
      <trkpt lat="62.635501159661" lon="17.986488540112">
        <ele>44.8</ele>
        <time>2017-12-20T18:36:22Z</time>
      </trkpt>
      <trkpt lat="62.635485401689" lon="17.986539753521">
        <ele>44.8</ele>
        <time>2017-12-20T18:36:23Z</time>
      </trkpt>
      <trkpt lat="62.635465033672" lon="17.986579148451">
        <ele>45</ele>
        <time>2017-12-20T18:36:24Z</time>
      </trkpt>
      <trkpt lat="62.635446174397" lon="17.986625835634">
        <ele>45</ele>
        <time>2017-12-20T18:36:25Z</time>
      </trkpt>
      <trkpt lat="62.63543167371" lon="17.986668499505">
        <ele>45</ele>
        <time>2017-12-20T18:36:26Z</time>
      </trkpt>
      <trkpt lat="62.635414826091" lon="17.98672675371">
        <ele>45</ele>
        <time>2017-12-20T18:36:27Z</time>
      </trkpt>
      <trkpt lat="62.635393284608" lon="17.986772099789">
        <ele>45.2</ele>
        <time>2017-12-20T18:36:28Z</time>
      </trkpt>
      <trkpt lat="62.635387752554" lon="17.98683823298">
        <ele>45.4</ele>
        <time>2017-12-20T18:36:29Z</time>
      </trkpt>
      <trkpt lat="62.635365624338" lon="17.986896319547">
        <ele>45.4</ele>
        <time>2017-12-20T18:36:30Z</time>
      </trkpt>
      <trkpt lat="62.635338383163" lon="17.986927416396">
        <ele>45.6</ele>
        <time>2017-12-20T18:36:31Z</time>
      </trkpt>
      <trkpt lat="62.635323966295" lon="17.986969325896">
        <ele>46</ele>
        <time>2017-12-20T18:36:32Z</time>
      </trkpt>
      <trkpt lat="62.635307537771" lon="17.986999752193">
        <ele>46.2</ele>
        <time>2017-12-20T18:36:33Z</time>
      </trkpt>
      <trkpt lat="62.63529588693" lon="17.987027831558">
        <ele>46.2</ele>
        <time>2017-12-20T18:36:34Z</time>
      </trkpt>
      <trkpt lat="62.635278704035" lon="17.987055827104">
        <ele>46.4</ele>
        <time>2017-12-20T18:36:35Z</time>
      </trkpt>
      <trkpt lat="62.635266801737" lon="17.987109219807">
        <ele>46.6</ele>
        <time>2017-12-20T18:36:36Z</time>
      </trkpt>
      <trkpt lat="62.635246768996" lon="17.987155487895">
        <ele>46.4</ele>
        <time>2017-12-20T18:36:37Z</time>
      </trkpt>
      <trkpt lat="62.635227574445" lon="17.98719614011">
        <ele>46.6</ele>
        <time>2017-12-20T18:36:38Z</time>
      </trkpt>
      <trkpt lat="62.635209720998" lon="17.987242575836">
        <ele>46.6</ele>
        <time>2017-12-20T18:36:39Z</time>
      </trkpt>
      <trkpt lat="62.635189939714" lon="17.987287419001">
        <ele>46.8</ele>
        <time>2017-12-20T18:36:40Z</time>
      </trkpt>
      <trkpt lat="62.635166302756" lon="17.98732522137">
        <ele>46.8</ele>
        <time>2017-12-20T18:36:41Z</time>
      </trkpt>
      <trkpt lat="62.635147359662" lon="17.987360090074">
        <ele>47</ele>
        <time>2017-12-20T18:36:42Z</time>
      </trkpt>
      <trkpt lat="62.635128416568" lon="17.987405100877">
        <ele>47</ele>
        <time>2017-12-20T18:36:43Z</time>
      </trkpt>
      <trkpt lat="62.635110898397" lon="17.987447848567">
        <ele>47</ele>
        <time>2017-12-20T18:36:44Z</time>
      </trkpt>
      <trkpt lat="62.635097152081" lon="17.987483974556">
        <ele>47.2</ele>
        <time>2017-12-20T18:36:45Z</time>
      </trkpt>
      <trkpt lat="62.635073598942" lon="17.987529655911">
        <ele>47.2</ele>
        <time>2017-12-20T18:36:46Z</time>
      </trkpt>
      <trkpt lat="62.635053063287" lon="17.987561423312">
        <ele>47.2</ele>
        <time>2017-12-20T18:36:47Z</time>
      </trkpt>
      <trkpt lat="62.63503101889" lon="17.987597046387">
        <ele>47.4</ele>
        <time>2017-12-20T18:36:48Z</time>
      </trkpt>
      <trkpt lat="62.635011237606" lon="17.987633759109">
        <ele>47.4</ele>
        <time>2017-12-20T18:36:49Z</time>
      </trkpt>
      <trkpt lat="62.6349882712" lon="17.987667286709">
        <ele>47.6</ele>
        <time>2017-12-20T18:36:50Z</time>
      </trkpt>
      <trkpt lat="62.634967484088" lon="17.987703999431">
        <ele>47.6</ele>
        <time>2017-12-20T18:36:51Z</time>
      </trkpt>
      <trkpt lat="62.634953737772" lon="17.987747417673">
        <ele>47.8</ele>
        <time>2017-12-20T18:36:52Z</time>
      </trkpt>
      <trkpt lat="62.634938231257" lon="17.987782118739">
        <ele>48.2</ele>
        <time>2017-12-20T18:36:53Z</time>
      </trkpt>
      <trkpt lat="62.634923898208" lon="17.98783148813">
        <ele>48.4</ele>
        <time>2017-12-20T18:36:54Z</time>
      </trkpt>
      <trkpt lat="62.634903949286" lon="17.987864680454">
        <ele>48.4</ele>
        <time>2017-12-20T18:36:55Z</time>
      </trkpt>
      <trkpt lat="62.634892466083" lon="17.987904829755">
        <ele>48.6</ele>
        <time>2017-12-20T18:36:56Z</time>
      </trkpt>
      <trkpt lat="62.634871511333" lon="17.987930562188">
        <ele>48.8</ele>
        <time>2017-12-20T18:36:57Z</time>
      </trkpt>
      <trkpt lat="62.634846281814" lon="17.987945565789">
        <ele>48.6</ele>
        <time>2017-12-20T18:36:58Z</time>
      </trkpt>
      <trkpt lat="62.634832870774" lon="17.987962664865">
        <ele>48.8</ele>
        <time>2017-12-20T18:36:59Z</time>
      </trkpt>
      <trkpt lat="62.634807054522" lon="17.987988984031">
        <ele>48.8</ele>
        <time>2017-12-20T18:37:00Z</time>
      </trkpt>
      <trkpt lat="62.634780902994" lon="17.988018823595">
        <ele>49</ele>
        <time>2017-12-20T18:37:01Z</time>
      </trkpt>
      <trkpt lat="62.634764893565" lon="17.988041454725">
        <ele>49.2</ele>
        <time>2017-12-20T18:37:02Z</time>
      </trkpt>
      <trkpt lat="62.63474268153" lon="17.988048914616">
        <ele>49.4</ele>
        <time>2017-12-20T18:37:03Z</time>
      </trkpt>
      <trkpt lat="62.634719463667" lon="17.988042460553">
        <ele>49.4</ele>
        <time>2017-12-20T18:37:04Z</time>
      </trkpt>
      <trkpt lat="62.634707393731" lon="17.988038856336">
        <ele>49.6</ele>
        <time>2017-12-20T18:37:05Z</time>
      </trkpt>
      <trkpt lat="62.634687109533" lon="17.988034497748">
        <ele>49.8</ele>
        <time>2017-12-20T18:37:06Z</time>
      </trkpt>
      <trkpt lat="62.634669172267" lon="17.988023182183">
        <ele>49.8</ele>
        <time>2017-12-20T18:37:07Z</time>
      </trkpt>
      <trkpt lat="62.634648552793" lon="17.988021338165">
        <ele>49.8</ele>
        <time>2017-12-20T18:37:08Z</time>
      </trkpt>
      <trkpt lat="62.634622233627" lon="17.988029720065">
        <ele>50</ele>
        <time>2017-12-20T18:37:09Z</time>
      </trkpt>
      <trkpt lat="62.634595579185" lon="17.98802846278">
        <ele>50</ele>
        <time>2017-12-20T18:37:10Z</time>
      </trkpt>
      <trkpt lat="62.634574372978" lon="17.988025026201">
        <ele>50</ele>
        <time>2017-12-20T18:37:11Z</time>
      </trkpt>
      <trkpt lat="62.634547047984" lon="17.988022930726">
        <ele>50.2</ele>
        <time>2017-12-20T18:37:12Z</time>
      </trkpt>
      <trkpt lat="62.634516705506" lon="17.988027205495">
        <ele>50.2</ele>
        <time>2017-12-20T18:37:13Z</time>
      </trkpt>
      <trkpt lat="62.634493487643" lon="17.988042879648">
        <ele>50.2</ele>
        <time>2017-12-20T18:37:14Z</time>
      </trkpt>
      <trkpt lat="62.634464570088" lon="17.988042795829">
        <ele>50.4</ele>
        <time>2017-12-20T18:37:15Z</time>
      </trkpt>
      <trkpt lat="62.634440681673" lon="17.988052099738">
        <ele>50.4</ele>
        <time>2017-12-20T18:37:16Z</time>
      </trkpt>
      <trkpt lat="62.634429869022" lon="17.988057464154">
        <ele>50.6</ele>
        <time>2017-12-20T18:37:17Z</time>
      </trkpt>
      <trkpt lat="62.63440405277" lon="17.988057296516">
        <ele>50.8</ele>
        <time>2017-12-20T18:37:18Z</time>
      </trkpt>
      <trkpt lat="62.63438309802" lon="17.988072132479">
        <ele>51</ele>
        <time>2017-12-20T18:37:19Z</time>
      </trkpt>
      <trkpt lat="62.634361221261" lon="17.988073305945">
        <ele>51</ele>
        <time>2017-12-20T18:37:20Z</time>
      </trkpt>
      <trkpt lat="62.634334818276" lon="17.988094344514">
        <ele>51.2</ele>
        <time>2017-12-20T18:37:21Z</time>
      </trkpt>
      <trkpt lat="62.634303889065" lon="17.988101972043">
        <ele>51.4</ele>
        <time>2017-12-20T18:37:22Z</time>
      </trkpt>
      <trkpt lat="62.634283101953" lon="17.988105408622">
        <ele>51.4</ele>
        <time>2017-12-20T18:37:23Z</time>
      </trkpt>
      <trkpt lat="62.634255944597" lon="17.988094931247">
        <ele>51.4</ele>
        <time>2017-12-20T18:37:24Z</time>
      </trkpt>
      <trkpt lat="62.634227110861" lon="17.988084956786">
        <ele>51.4</ele>
        <time>2017-12-20T18:37:25Z</time>
      </trkpt>
      <trkpt lat="62.634194169994" lon="17.988095601799">
        <ele>51.4</ele>
        <time>2017-12-20T18:37:26Z</time>
      </trkpt>
      <trkpt lat="62.634160810032" lon="17.988092416677">
        <ele>51.4</ele>
        <time>2017-12-20T18:37:27Z</time>
      </trkpt>
      <trkpt lat="62.634141280205" lon="17.988085124424">
        <ele>51.4</ele>
        <time>2017-12-20T18:37:28Z</time>
      </trkpt>
      <trkpt lat="62.634113536116" lon="17.988064672588">
        <ele>51.4</ele>
        <time>2017-12-20T18:37:29Z</time>
      </trkpt>
      <trkpt lat="62.634086881674" lon="17.98805277029">
        <ele>51.4</ele>
        <time>2017-12-20T18:37:30Z</time>
      </trkpt>
      <trkpt lat="62.63405368935" lon="17.988035587395">
        <ele>51.4</ele>
        <time>2017-12-20T18:37:31Z</time>
      </trkpt>
      <trkpt lat="62.634020832302" lon="17.988034078653">
        <ele>51.4</ele>
        <time>2017-12-20T18:37:32Z</time>
      </trkpt>
      <trkpt lat="62.633992250023" lon="17.988004406727">
        <ele>51.6</ele>
        <time>2017-12-20T18:37:33Z</time>
      </trkpt>
      <trkpt lat="62.633975486223" lon="17.987996863017">
        <ele>51.6</ele>
        <time>2017-12-20T18:37:34Z</time>
      </trkpt>
      <trkpt lat="62.633956543129" lon="17.987990828049">
        <ele>51.8</ele>
        <time>2017-12-20T18:37:35Z</time>
      </trkpt>
      <trkpt lat="62.633920668597" lon="17.987962664865">
        <ele>51.8</ele>
        <time>2017-12-20T18:37:36Z</time>
      </trkpt>
      <trkpt lat="62.633896361087" lon="17.987954450603">
        <ele>52</ele>
        <time>2017-12-20T18:37:37Z</time>
      </trkpt>
      <trkpt lat="62.633863923134" lon="17.987925197772">
        <ele>52.2</ele>
        <time>2017-12-20T18:37:38Z</time>
      </trkpt>
      <trkpt lat="62.63382989262" lon="17.987921845012">
        <ele>52.2</ele>
        <time>2017-12-20T18:37:39Z</time>
      </trkpt>
      <trkpt lat="62.633795862106" lon="17.987888568869">
        <ele>52.4</ele>
        <time>2017-12-20T18:37:40Z</time>
      </trkpt>
      <trkpt lat="62.633764597619" lon="17.987870296327">
        <ele>52.4</ele>
        <time>2017-12-20T18:37:41Z</time>
      </trkpt>
      <trkpt lat="62.633730483286" lon="17.987834757071">
        <ele>52.6</ele>
        <time>2017-12-20T18:37:42Z</time>
      </trkpt>
      <trkpt lat="62.633699051161" lon="17.987798211987">
        <ele>52.6</ele>
        <time>2017-12-20T18:37:43Z</time>
      </trkpt>
      <trkpt lat="62.633669295416" lon="17.98778538768">
        <ele>52.6</ele>
        <time>2017-12-20T18:37:44Z</time>
      </trkpt>
      <trkpt lat="62.633648927399" lon="17.98774934551">
        <ele>52.6</ele>
        <time>2017-12-20T18:37:45Z</time>
      </trkpt>
      <trkpt lat="62.633621518586" lon="17.987736102108">
        <ele>52.8</ele>
        <time>2017-12-20T18:37:46Z</time>
      </trkpt>
      <trkpt lat="62.633603665139" lon="17.987703161241">
        <ele>53</ele>
        <time>2017-12-20T18:37:47Z</time>
      </trkpt>
      <trkpt lat="62.633584051493" lon="17.987692600047">
        <ele>53.2</ele>
        <time>2017-12-20T18:37:48Z</time>
      </trkpt>
      <trkpt lat="62.633560163078" lon="17.987658318076">
        <ele>53.4</ele>
        <time>2017-12-20T18:37:49Z</time>
      </trkpt>
      <trkpt lat="62.633531413161" lon="17.987643985027">
        <ele>53.6</ele>
        <time>2017-12-20T18:37:50Z</time>
      </trkpt>
      <trkpt lat="62.633500819226" lon="17.987600566785">
        <ele>53.8</ele>
        <time>2017-12-20T18:37:51Z</time>
      </trkpt>
      <trkpt lat="62.633463771228" lon="17.987559160199">
        <ele>53.8</ele>
        <time>2017-12-20T18:37:52Z</time>
      </trkpt>
      <trkpt lat="62.633442062107" lon="17.987536696707">
        <ele>54</ele>
        <time>2017-12-20T18:37:53Z</time>
      </trkpt>
      <trkpt lat="62.633420688262" lon="17.987494871026">
        <ele>54</ele>
        <time>2017-12-20T18:37:54Z</time>
      </trkpt>
      <trkpt lat="62.633395374924" lon="17.987451955698">
        <ele>54</ele>
        <time>2017-12-20T18:37:55Z</time>
      </trkpt>
      <trkpt lat="62.633374839269" lon="17.987412812225">
        <ele>54</ele>
        <time>2017-12-20T18:37:56Z</time>
      </trkpt>
      <trkpt lat="62.633355225623" lon="17.987362856101">
        <ele>54.2</ele>
        <time>2017-12-20T18:37:57Z</time>
      </trkpt>
      <trkpt lat="62.633337539814" lon="17.987320527506">
        <ele>54.6</ele>
        <time>2017-12-20T18:37:58Z</time>
      </trkpt>
      <trkpt lat="62.633315830693" lon="17.98726235712">
        <ele>54.8</ele>
        <time>2017-12-20T18:37:59Z</time>
      </trkpt>
      <trkpt lat="62.633292109916" lon="17.987197397395">
        <ele>55</ele>
        <time>2017-12-20T18:38:00Z</time>
      </trkpt>
      <trkpt lat="62.63327249627" lon="17.987116847336">
        <ele>55.2</ele>
        <time>2017-12-20T18:38:01Z</time>
      </trkpt>
      <trkpt lat="62.633258414678" lon="17.987005116609">
        <ele>55</ele>
        <time>2017-12-20T18:38:02Z</time>
      </trkpt>
      <trkpt lat="62.633249948959" lon="17.986920459419">
        <ele>54.4</ele>
        <time>2017-12-20T18:38:03Z</time>
      </trkpt>
      <trkpt lat="62.633240812688" lon="17.986831695098">
        <ele>54</ele>
        <time>2017-12-20T18:38:04Z</time>
      </trkpt>
      <trkpt lat="62.633236370281" lon="17.986734465058">
        <ele>53.4</ele>
        <time>2017-12-20T18:38:05Z</time>
      </trkpt>
      <trkpt lat="62.633231927874" lon="17.986634049896">
        <ele>52.6</ele>
        <time>2017-12-20T18:38:06Z</time>
      </trkpt>
      <trkpt lat="62.633236035005" lon="17.986550901448">
        <ele>52.2</ele>
        <time>2017-12-20T18:38:07Z</time>
      </trkpt>
      <trkpt lat="62.633252714986" lon="17.986477392185">
        <ele>51.6</ele>
        <time>2017-12-20T18:38:08Z</time>
      </trkpt>
      <trkpt lat="62.633276771039" lon="17.986397931773">
        <ele>51.4</ele>
        <time>2017-12-20T18:38:09Z</time>
      </trkpt>
      <trkpt lat="62.633298061065" lon="17.986298522439">
        <ele>51.4</ele>
        <time>2017-12-20T18:38:10Z</time>
      </trkpt>
      <trkpt lat="62.63330434749" lon="17.986182181667">
        <ele>51.2</ele>
        <time>2017-12-20T18:38:11Z</time>
      </trkpt>
      <trkpt lat="62.633319602548" lon="17.986067181999">
        <ele>51</ele>
        <time>2017-12-20T18:38:12Z</time>
      </trkpt>
      <trkpt lat="62.633337623633" lon="17.985958301118">
        <ele>50.8</ele>
        <time>2017-12-20T18:38:13Z</time>
      </trkpt>
      <trkpt lat="62.633353297786" lon="17.985863082734">
        <ele>50.4</ele>
        <time>2017-12-20T18:38:14Z</time>
      </trkpt>
      <trkpt lat="62.633361679686" lon="17.985741377546">
        <ele>50.2</ele>
        <time>2017-12-20T18:38:15Z</time>
      </trkpt>
      <trkpt lat="62.633369474853" lon="17.985592431183">
        <ele>50</ele>
        <time>2017-12-20T18:38:16Z</time>
      </trkpt>
      <trkpt lat="62.63337810821" lon="17.985440467336">
        <ele>49.6</ele>
        <time>2017-12-20T18:38:17Z</time>
      </trkpt>
      <trkpt lat="62.633401828987" lon="17.985283055254">
        <ele>49.4</ele>
        <time>2017-12-20T18:38:18Z</time>
      </trkpt>
      <trkpt lat="62.633405600842" lon="17.98510737063">
        <ele>49</ele>
        <time>2017-12-20T18:38:19Z</time>
      </trkpt>
      <trkpt lat="62.633431165637" lon="17.984924980486">
        <ele>48.6</ele>
        <time>2017-12-20T18:38:20Z</time>
      </trkpt>
      <trkpt lat="62.633454132043" lon="17.984782488186">
        <ele>48.2</ele>
        <time>2017-12-20T18:38:21Z</time>
      </trkpt>
      <trkpt lat="62.633486989091" lon="17.984656256772">
        <ele>47.6</ele>
        <time>2017-12-20T18:38:22Z</time>
      </trkpt>
      <trkpt lat="62.633495119534" lon="17.984546956796">
        <ele>47</ele>
        <time>2017-12-20T18:38:23Z</time>
      </trkpt>
      <trkpt lat="62.633501992692" lon="17.984408403989">
        <ele>46.4</ele>
        <time>2017-12-20T18:38:24Z</time>
      </trkpt>
      <trkpt lat="62.633507860022" lon="17.984284854783">
        <ele>46</ele>
        <time>2017-12-20T18:38:25Z</time>
      </trkpt>
      <trkpt lat="62.633511212782" lon="17.984159210102">
        <ele>46</ele>
        <time>2017-12-20T18:38:26Z</time>
      </trkpt>
      <trkpt lat="62.633519091768" lon="17.984050999773">
        <ele>46</ele>
        <time>2017-12-20T18:38:27Z</time>
      </trkpt>
      <trkpt lat="62.633519427044" lon="17.983956116665">
        <ele>46</ele>
        <time>2017-12-20T18:38:28Z</time>
      </trkpt>
      <trkpt lat="62.633512805343" lon="17.983875315149">
        <ele>46.2</ele>
        <time>2017-12-20T18:38:29Z</time>
      </trkpt>
      <trkpt lat="62.633517415388" lon="17.9837436355">
        <ele>46.2</ele>
        <time>2017-12-20T18:38:30Z</time>
      </trkpt>
      <trkpt lat="62.63351808594" lon="17.983621092122">
        <ele>46.6</ele>
        <time>2017-12-20T18:38:31Z</time>
      </trkpt>
      <trkpt lat="62.633524623822" lon="17.983546744669">
        <ele>46.8</ele>
        <time>2017-12-20T18:38:32Z</time>
      </trkpt>
      <trkpt lat="62.63353652612" lon="17.983466446067">
        <ele>47.2</ele>
        <time>2017-12-20T18:38:33Z</time>
      </trkpt>
      <trkpt lat="62.633552200273" lon="17.983356810815">
        <ele>47.4</ele>
        <time>2017-12-20T18:38:34Z</time>
      </trkpt>
      <trkpt lat="62.633575753412" lon="17.983290342348">
        <ele>47.6</ele>
        <time>2017-12-20T18:38:35Z</time>
      </trkpt>
      <trkpt lat="62.633598635999" lon="17.983210798117">
        <ele>47.8</ele>
        <time>2017-12-20T18:38:36Z</time>
      </trkpt>
      <trkpt lat="62.633620680396" lon="17.983152376274">
        <ele>48</ele>
        <time>2017-12-20T18:38:37Z</time>
      </trkpt>
      <trkpt lat="62.63363543254" lon="17.983077777364">
        <ele>48</ele>
        <time>2017-12-20T18:38:38Z</time>
      </trkpt>
      <trkpt lat="62.633657644575" lon="17.982998568409">
        <ele>48</ele>
        <time>2017-12-20T18:38:39Z</time>
      </trkpt>
      <trkpt lat="62.633672731995" lon="17.982930423562">
        <ele>48</ele>
        <time>2017-12-20T18:38:40Z</time>
      </trkpt>
      <trkpt lat="62.633689495795" lon="17.982850711693">
        <ele>48.2</ele>
        <time>2017-12-20T18:38:41Z</time>
      </trkpt>
      <trkpt lat="62.63370667869" lon="17.982787176891">
        <ele>48.2</ele>
        <time>2017-12-20T18:38:42Z</time>
      </trkpt>
      <trkpt lat="62.633724364499" lon="17.982722217166">
        <ele>48</ele>
        <time>2017-12-20T18:38:43Z</time>
      </trkpt>
      <trkpt lat="62.633737943177" lon="17.982644516953">
        <ele>48.4</ele>
        <time>2017-12-20T18:38:44Z</time>
      </trkpt>
      <trkpt lat="62.633744732516" lon="17.982574444269">
        <ele>48.2</ele>
        <time>2017-12-20T18:38:45Z</time>
      </trkpt>
      <trkpt lat="62.633747582362" lon="17.982472436546">
        <ele>48.2</ele>
        <time>2017-12-20T18:38:46Z</time>
      </trkpt>
      <trkpt lat="62.63374188267" lon="17.982373111031">
        <ele>48</ele>
        <time>2017-12-20T18:38:47Z</time>
      </trkpt>
      <trkpt lat="62.633731405295" lon="17.982271690041">
        <ele>48</ele>
        <time>2017-12-20T18:38:48Z</time>
      </trkpt>
      <trkpt lat="62.633735009512" lon="17.982198264597">
        <ele>48</ele>
        <time>2017-12-20T18:38:49Z</time>
      </trkpt>
      <trkpt lat="62.633746576534" lon="17.982130874121">
        <ele>48</ele>
        <time>2017-12-20T18:38:50Z</time>
      </trkpt>
      <trkpt lat="62.633749677837" lon="17.982052587175">
        <ele>48</ele>
        <time>2017-12-20T18:38:51Z</time>
      </trkpt>
      <trkpt lat="62.633750013113" lon="17.981970779831">
        <ele>48.2</ele>
        <time>2017-12-20T18:38:52Z</time>
      </trkpt>
      <trkpt lat="62.633756383357" lon="17.981916716576">
        <ele>48.2</ele>
        <time>2017-12-20T18:38:53Z</time>
      </trkpt>
      <trkpt lat="62.633758143556" lon="17.981839686915">
        <ele>48.2</ele>
        <time>2017-12-20T18:38:54Z</time>
      </trkpt>
      <trkpt lat="62.633757556823" lon="17.981746144911">
        <ele>48.2</ele>
        <time>2017-12-20T18:38:55Z</time>
      </trkpt>
      <trkpt lat="62.633771554596" lon="17.981676407503">
        <ele>48.4</ele>
        <time>2017-12-20T18:38:56Z</time>
      </trkpt>
      <trkpt lat="62.633790330052" lon="17.981605580448">
        <ele>48.4</ele>
        <time>2017-12-20T18:38:57Z</time>
      </trkpt>
      <trkpt lat="62.633812206811" lon="17.981526455312">
        <ele>48.4</ele>
        <time>2017-12-20T18:38:58Z</time>
      </trkpt>
      <trkpt lat="62.633827210412" lon="17.981496531929">
        <ele>48.2</ele>
        <time>2017-12-20T18:38:59Z</time>
      </trkpt>
      <trkpt lat="62.633835173217" lon="17.981425872512">
        <ele>48.4</ele>
        <time>2017-12-20T18:39:00Z</time>
      </trkpt>
      <trkpt lat="62.633845985868" lon="17.981376000207">
        <ele>48.2</ele>
        <time>2017-12-20T18:39:01Z</time>
      </trkpt>
      <trkpt lat="62.633852942845" lon="17.981332246689">
        <ele>48.4</ele>
        <time>2017-12-20T18:39:02Z</time>
      </trkpt>
      <trkpt lat="62.633865012781" lon="17.98127684233">
        <ele>48.2</ele>
        <time>2017-12-20T18:39:03Z</time>
      </trkpt>
      <trkpt lat="62.633875071061" lon="17.981220767419">
        <ele>48.2</ele>
        <time>2017-12-20T18:39:04Z</time>
      </trkpt>
      <trkpt lat="62.633885296979" lon="17.981165279241">
        <ele>48.4</ele>
        <time>2017-12-20T18:39:05Z</time>
      </trkpt>
      <trkpt lat="62.633905162082" lon="17.981092524349">
        <ele>48.4</ele>
        <time>2017-12-20T18:39:06Z</time>
      </trkpt>
      <trkpt lat="62.633933492904" lon="17.98102454714">
        <ele>48.6</ele>
        <time>2017-12-20T18:39:07Z</time>
      </trkpt>
      <trkpt lat="62.633955537301" lon="17.980988085875">
        <ele>48.8</ele>
        <time>2017-12-20T18:39:08Z</time>
      </trkpt>
      <trkpt lat="62.633977162603" lon="17.980942823615">
        <ele>48.8</ele>
        <time>2017-12-20T18:39:09Z</time>
      </trkpt>
      <trkpt lat="62.633992417661" lon="17.980887335437">
        <ele>49</ele>
        <time>2017-12-20T18:39:10Z</time>
      </trkpt>
      <trkpt lat="62.63400507433" lon="17.980827321033">
        <ele>49</ele>
        <time>2017-12-20T18:39:11Z</time>
      </trkpt>
      <trkpt lat="62.634022005768" lon="17.980753141218">
        <ele>49.2</ele>
        <time>2017-12-20T18:39:12Z</time>
      </trkpt>
      <trkpt lat="62.634035165351" lon="17.980704777655">
        <ele>49.2</ele>
        <time>2017-12-20T18:39:13Z</time>
      </trkpt>
      <trkpt lat="62.6340494984" lon="17.980632525677">
        <ele>49.4</ele>
        <time>2017-12-20T18:39:14Z</time>
      </trkpt>
      <trkpt lat="62.634069698779" lon="17.9805836592">
        <ele>49.4</ele>
        <time>2017-12-20T18:39:15Z</time>
      </trkpt>
      <trkpt lat="62.634100041257" lon="17.980546443564">
        <ele>49.6</ele>
        <time>2017-12-20T18:39:16Z</time>
      </trkpt>
      <trkpt lat="62.634122672387" lon="17.980492464128">
        <ele>49.6</ele>
        <time>2017-12-20T18:39:17Z</time>
      </trkpt>
      <trkpt lat="62.634138933273" lon="17.980453069198">
        <ele>49.6</ele>
        <time>2017-12-20T18:39:18Z</time>
      </trkpt>
      <trkpt lat="62.63415678672" lon="17.980418871046">
        <ele>49.6</ele>
        <time>2017-12-20T18:39:19Z</time>
      </trkpt>
      <trkpt lat="62.634175478357" lon="17.980392384242">
        <ele>49.6</ele>
        <time>2017-12-20T18:39:20Z</time>
      </trkpt>
      <trkpt lat="62.634200540238" lon="17.980358353728">
        <ele>49.6</ele>
        <time>2017-12-20T18:39:21Z</time>
      </trkpt>
      <trkpt lat="62.634231972363" lon="17.980269505588">
        <ele>49.6</ele>
        <time>2017-12-20T18:39:22Z</time>
      </trkpt>
      <trkpt lat="62.634257285701" lon="17.980193565574">
        <ele>49.4</ele>
        <time>2017-12-20T18:39:23Z</time>
      </trkpt>
      <trkpt lat="62.634287292903" lon="17.980122319424">
        <ele>49.4</ele>
        <time>2017-12-20T18:39:24Z</time>
      </trkpt>
      <trkpt lat="62.634315372268" lon="17.980049061618">
        <ele>49.6</ele>
        <time>2017-12-20T18:39:25Z</time>
      </trkpt>
      <trkpt lat="62.63433196843" lon="17.979965242618">
        <ele>49.6</ele>
        <time>2017-12-20T18:39:26Z</time>
      </trkpt>
      <trkpt lat="62.634341523796" lon="17.979870443329">
        <ele>49.4</ele>
        <time>2017-12-20T18:39:27Z</time>
      </trkpt>
      <trkpt lat="62.634352168809" lon="17.979796263514">
        <ele>49.4</ele>
        <time>2017-12-20T18:39:28Z</time>
      </trkpt>
      <trkpt lat="62.634361388899" lon="17.979720155862">
        <ele>49.4</ele>
        <time>2017-12-20T18:39:29Z</time>
      </trkpt>
      <trkpt lat="62.634375302853" lon="17.979626194763">
        <ele>49.4</ele>
        <time>2017-12-20T18:39:30Z</time>
      </trkpt>
      <trkpt lat="62.634395251775" lon="17.979559474839">
        <ele>49.4</ele>
        <time>2017-12-20T18:39:31Z</time>
      </trkpt>
      <trkpt lat="62.634408578996" lon="17.979455706917">
        <ele>49.6</ele>
        <time>2017-12-20T18:39:32Z</time>
      </trkpt>
      <trkpt lat="62.634425594253" lon="17.979384376948">
        <ele>49.6</ele>
        <time>2017-12-20T18:39:33Z</time>
      </trkpt>
      <trkpt lat="62.634432635049" lon="17.979320674508">
        <ele>49.6</ele>
        <time>2017-12-20T18:39:34Z</time>
      </trkpt>
      <trkpt lat="62.634440430216" lon="17.97924339339">
        <ele>49.6</ele>
        <time>2017-12-20T18:39:35Z</time>
      </trkpt>
      <trkpt lat="62.634457026378" lon="17.979185223004">
        <ele>49.8</ele>
        <time>2017-12-20T18:39:36Z</time>
      </trkpt>
      <trkpt lat="62.634469012495" lon="17.979106684601">
        <ele>49.6</ele>
        <time>2017-12-20T18:39:37Z</time>
      </trkpt>
      <trkpt lat="62.634486111571" lon="17.978980956101">
        <ele>49.4</ele>
        <time>2017-12-20T18:39:39Z</time>
      </trkpt>
      <trkpt lat="62.634503545923" lon="17.978913397987">
        <ele>49.4</ele>
        <time>2017-12-20T18:39:40Z</time>
      </trkpt>
      <trkpt lat="62.634523578664" lon="17.978884061337">
        <ele>49.4</ele>
        <time>2017-12-20T18:39:41Z</time>
      </trkpt>
      <trkpt lat="62.634551322753" lon="17.97885028228">
        <ele>49.4</ele>
        <time>2017-12-20T18:39:42Z</time>
      </trkpt>
      <trkpt lat="62.634575462625" lon="17.978820610354">
        <ele>49.2</ele>
        <time>2017-12-20T18:39:43Z</time>
      </trkpt>
      <trkpt lat="62.634593735167" lon="17.9788066964">
        <ele>49.6</ele>
        <time>2017-12-20T18:39:44Z</time>
      </trkpt>
      <trkpt lat="62.634620389609" lon="17.9788066964">
        <ele>49.6</ele>
        <time>2017-12-20T18:39:45Z</time>
      </trkpt>
      <trkpt lat="62.634655174494" lon="17.978816670861">
        <ele>49.6</ele>
        <time>2017-12-20T18:39:46Z</time>
      </trkpt>
      <trkpt lat="62.634678559995" lon="17.978823208743">
        <ele>49.8</ele>
        <time>2017-12-20T18:39:47Z</time>
      </trkpt>
      <trkpt lat="62.634721894418" lon="17.978847600072">
        <ele>49.8</ele>
        <time>2017-12-20T18:39:48Z</time>
      </trkpt>
      <trkpt lat="62.634751482525" lon="17.978857993628">
        <ele>49.6</ele>
        <time>2017-12-20T18:39:49Z</time>
      </trkpt>
      <trkpt lat="62.634801773925" lon="17.978880121844">
        <ele>49.4</ele>
        <time>2017-12-20T18:39:50Z</time>
      </trkpt>
      <trkpt lat="62.634839324837" lon="17.978896047454">
        <ele>49.2</ele>
        <time>2017-12-20T18:39:51Z</time>
      </trkpt>
      <trkpt lat="62.634876372835" lon="17.978901244232">
        <ele>48.8</ele>
        <time>2017-12-20T18:39:52Z</time>
      </trkpt>
      <trkpt lat="62.634905793304" lon="17.978914068539">
        <ele>48.6</ele>
        <time>2017-12-20T18:39:53Z</time>
      </trkpt>
      <trkpt lat="62.634939739999" lon="17.978926976665">
        <ele>48.6</ele>
        <time>2017-12-20T18:39:54Z</time>
      </trkpt>
      <trkpt lat="62.634968070821" lon="17.978932508719">
        <ele>48.4</ele>
        <time>2017-12-20T18:39:55Z</time>
      </trkpt>
      <trkpt lat="62.634999838222" lon="17.978954553116">
        <ele>48.4</ele>
        <time>2017-12-20T18:39:56Z</time>
      </trkpt>
      <trkpt lat="62.635025486836" lon="17.978960671903">
        <ele>48.2</ele>
        <time>2017-12-20T18:39:57Z</time>
      </trkpt>
      <trkpt lat="62.635056080771" lon="17.978981291377">
        <ele>48.2</ele>
        <time>2017-12-20T18:39:58Z</time>
      </trkpt>
      <trkpt lat="62.635083405765" lon="17.978989505639">
        <ele>48.2</ele>
        <time>2017-12-20T18:39:59Z</time>
      </trkpt>
      <trkpt lat="62.635122213962" lon="17.979003335774">
        <ele>48.2</ele>
        <time>2017-12-20T18:40:00Z</time>
      </trkpt>
      <trkpt lat="62.635163285272" lon="17.979011633855">
        <ele>48</ele>
        <time>2017-12-20T18:40:01Z</time>
      </trkpt>
      <trkpt lat="62.635200752365" lon="17.979014651339">
        <ele>47.8</ele>
        <time>2017-12-20T18:40:02Z</time>
      </trkpt>
      <trkpt lat="62.635238973829" lon="17.979020183393">
        <ele>47.6</ele>
        <time>2017-12-20T18:40:03Z</time>
      </trkpt>
      <trkpt lat="62.63527157942" lon="17.97902378761">
        <ele>47.2</ele>
        <time>2017-12-20T18:40:04Z</time>
      </trkpt>
      <trkpt lat="62.635313405101" lon="17.979032504786">
        <ele>46.8</ele>
        <time>2017-12-20T18:40:05Z</time>
      </trkpt>
      <trkpt lat="62.635358499723" lon="17.979035857546">
        <ele>46.4</ele>
        <time>2017-12-20T18:40:06Z</time>
      </trkpt>
      <trkpt lat="62.635401917965" lon="17.979027559465">
        <ele>46.2</ele>
        <time>2017-12-20T18:40:07Z</time>
      </trkpt>
      <trkpt lat="62.635439887972" lon="17.979016579176">
        <ele>45.8</ele>
        <time>2017-12-20T18:40:08Z</time>
      </trkpt>
      <trkpt lat="62.635478444712" lon="17.979003587231">
        <ele>45.4</ele>
        <time>2017-12-20T18:40:09Z</time>
      </trkpt>
      <trkpt lat="62.635520354212" lon="17.9789910982">
        <ele>45.2</ele>
        <time>2017-12-20T18:40:10Z</time>
      </trkpt>
      <trkpt lat="62.635560587332" lon="17.978985398508">
        <ele>44.8</ele>
        <time>2017-12-20T18:40:11Z</time>
      </trkpt>
      <trkpt lat="62.635607945067" lon="17.978982800119">
        <ele>44.4</ele>
        <time>2017-12-20T18:40:12Z</time>
      </trkpt>
      <trkpt lat="62.635649351653" lon="17.978974921133">
        <ele>44.2</ele>
        <time>2017-12-20T18:40:13Z</time>
      </trkpt>
      <trkpt lat="62.635683549805" lon="17.978972155106">
        <ele>44</ele>
        <time>2017-12-20T18:40:14Z</time>
      </trkpt>
      <trkpt lat="62.635724034382" lon="17.978975340228">
        <ele>44</ele>
        <time>2017-12-20T18:40:15Z</time>
      </trkpt>
      <trkpt lat="62.635771643574" lon="17.97898858363">
        <ele>43.8</ele>
        <time>2017-12-20T18:40:16Z</time>
      </trkpt>
      <trkpt lat="62.635806428459" lon="17.978996797892">
        <ele>43.6</ele>
        <time>2017-12-20T18:40:17Z</time>
      </trkpt>
      <trkpt lat="62.635843392638" lon="17.979013310235">
        <ele>43.4</ele>
        <time>2017-12-20T18:40:18Z</time>
      </trkpt>
      <trkpt lat="62.635866526682" lon="17.979012723502">
        <ele>43.4</ele>
        <time>2017-12-20T18:40:19Z</time>
      </trkpt>
      <trkpt lat="62.635889912183" lon="17.97901875847">
        <ele>43.4</ele>
        <time>2017-12-20T18:40:20Z</time>
      </trkpt>
      <trkpt lat="62.63590776563" lon="17.979020602488">
        <ele>43.4</ele>
        <time>2017-12-20T18:40:21Z</time>
      </trkpt>
      <trkpt lat="62.635920589937" lon="17.979022697963">
        <ele>43.6</ele>
        <time>2017-12-20T18:40:22Z</time>
      </trkpt>
      <trkpt lat="62.635940035945" lon="17.979030912225">
        <ele>43.8</ele>
        <time>2017-12-20T18:40:23Z</time>
      </trkpt>
      <trkpt lat="62.635956967383" lon="17.97903552227">
        <ele>44.2</ele>
        <time>2017-12-20T18:40:24Z</time>
      </trkpt>
      <trkpt lat="62.635972473898" lon="17.97905563883">
        <ele>44.4</ele>
        <time>2017-12-20T18:40:25Z</time>
      </trkpt>
      <trkpt lat="62.635984124739" lon="17.979079275788">
        <ele>44.8</ele>
        <time>2017-12-20T18:40:26Z</time>
      </trkpt>
      <trkpt lat="62.635989321517" lon="17.979112049017">
        <ele>45.2</ele>
        <time>2017-12-20T18:40:27Z</time>
      </trkpt>
      <trkpt lat="62.635990159707" lon="17.979145241341">
        <ele>45.4</ele>
        <time>2017-12-20T18:40:28Z</time>
      </trkpt>
      <trkpt lat="62.635986974585" lon="17.979167285738">
        <ele>45.4</ele>
        <time>2017-12-20T18:40:29Z</time>
      </trkpt>
      <trkpt lat="62.635978676504" lon="17.979209530514">
        <ele>45.2</ele>
        <time>2017-12-20T18:40:31Z</time>
      </trkpt>
      <trkpt lat="62.635979598513" lon="17.979233083653">
        <ele>45.2</ele>
        <time>2017-12-20T18:40:32Z</time>
      </trkpt>
      <trkpt lat="62.635974066459" lon="17.979274574058">
        <ele>45.2</ele>
        <time>2017-12-20T18:40:33Z</time>
      </trkpt>
      <trkpt lat="62.635969456414" lon="17.979319501042">
        <ele>45</ele>
        <time>2017-12-20T18:40:34Z</time>
      </trkpt>
      <trkpt lat="62.635964175817" lon="17.979392926486">
        <ele>44.8</ele>
        <time>2017-12-20T18:40:35Z</time>
      </trkpt>
      <trkpt lat="62.635959565772" lon="17.979507758516">
        <ele>44.6</ele>
        <time>2017-12-20T18:40:36Z</time>
      </trkpt>
      <trkpt lat="62.635956296831" lon="17.979631978274">
        <ele>44.6</ele>
        <time>2017-12-20T18:40:37Z</time>
      </trkpt>
      <trkpt lat="62.635961828885" lon="17.97977815861">
        <ele>44.4</ele>
        <time>2017-12-20T18:40:38Z</time>
      </trkpt>
      <trkpt lat="62.635964259636" lon="17.979944790782">
        <ele>43.4</ele>
        <time>2017-12-20T18:40:39Z</time>
      </trkpt>
      <trkpt lat="62.635971887165" lon="17.980106393814">
        <ele>42.4</ele>
        <time>2017-12-20T18:40:40Z</time>
      </trkpt>
      <trkpt lat="62.63599158463" lon="17.980224159509">
        <ele>41.6</ele>
        <time>2017-12-20T18:40:41Z</time>
      </trkpt>
      <trkpt lat="62.636009270439" lon="17.980412165526">
        <ele>40.6</ele>
        <time>2017-12-20T18:40:42Z</time>
      </trkpt>
      <trkpt lat="62.636032069207" lon="17.980554993102">
        <ele>39.8</ele>
        <time>2017-12-20T18:40:43Z</time>
      </trkpt>
      <trkpt lat="62.636055203251" lon="17.980673010254">
        <ele>39.2</ele>
        <time>2017-12-20T18:40:44Z</time>
      </trkpt>
      <trkpt lat="62.636072218508" lon="17.980805025179">
        <ele>38.6</ele>
        <time>2017-12-20T18:40:45Z</time>
      </trkpt>
      <trkpt lat="62.636094262905" lon="17.980948355669">
        <ele>38.4</ele>
        <time>2017-12-20T18:40:46Z</time>
      </trkpt>
      <trkpt lat="62.636110439972" lon="17.981082214612">
        <ele>38</ele>
        <time>2017-12-20T18:40:47Z</time>
      </trkpt>
      <trkpt lat="62.636125946487" lon="17.981237866495">
        <ele>37.8</ele>
        <time>2017-12-20T18:40:48Z</time>
      </trkpt>
      <trkpt lat="62.636139692803" lon="17.981372563628">
        <ele>37.4</ele>
        <time>2017-12-20T18:40:49Z</time>
      </trkpt>
      <trkpt lat="62.636147404151" lon="17.981528634606">
        <ele>37.2</ele>
        <time>2017-12-20T18:40:50Z</time>
      </trkpt>
      <trkpt lat="62.636162491571" lon="17.981651764717">
        <ele>36.8</ele>
        <time>2017-12-20T18:40:51Z</time>
      </trkpt>
      <trkpt lat="62.636173639498" lon="17.981828706626">
        <ele>36.8</ele>
        <time>2017-12-20T18:40:52Z</time>
      </trkpt>
      <trkpt lat="62.636202976148" lon="17.981958542257">
        <ele>36.6</ele>
        <time>2017-12-20T18:40:53Z</time>
      </trkpt>
      <trkpt lat="62.636218063568" lon="17.982079073979">
        <ele>36.4</ele>
        <time>2017-12-20T18:40:54Z</time>
      </trkpt>
      <trkpt lat="62.63622543964" lon="17.982186949032">
        <ele>36.4</ele>
        <time>2017-12-20T18:40:55Z</time>
      </trkpt>
      <trkpt lat="62.636233653902" lon="17.982287280375">
        <ele>36.4</ele>
        <time>2017-12-20T18:40:56Z</time>
      </trkpt>
      <trkpt lat="62.636244382734" lon="17.982382079664">
        <ele>36.4</ele>
        <time>2017-12-20T18:40:57Z</time>
      </trkpt>
      <trkpt lat="62.636248406046" lon="17.982468999967">
        <ele>36.4</ele>
        <time>2017-12-20T18:40:58Z</time>
      </trkpt>
      <trkpt lat="62.636246226752" lon="17.982559608306">
        <ele>36.4</ele>
        <time>2017-12-20T18:40:59Z</time>
      </trkpt>
      <trkpt lat="62.636248406046" lon="17.982662705676">
        <ele>36.6</ele>
        <time>2017-12-20T18:41:00Z</time>
      </trkpt>
      <trkpt lat="62.636251674987" lon="17.982755074214">
        <ele>36.8</ele>
        <time>2017-12-20T18:41:01Z</time>
      </trkpt>
      <trkpt lat="62.636249244236" lon="17.98285012496">
        <ele>37.2</ele>
        <time>2017-12-20T18:41:02Z</time>
      </trkpt>
      <trkpt lat="62.636247903132" lon="17.982930339743">
        <ele>37.4</ele>
        <time>2017-12-20T18:41:03Z</time>
      </trkpt>
      <trkpt lat="62.636248741322" lon="17.983019187883">
        <ele>37.6</ele>
        <time>2017-12-20T18:41:04Z</time>
      </trkpt>
      <trkpt lat="62.636249495693" lon="17.983116250285">
        <ele>37.8</ele>
        <time>2017-12-20T18:41:05Z</time>
      </trkpt>
      <trkpt lat="62.636250501521" lon="17.983208367366">
        <ele>38.2</ele>
        <time>2017-12-20T18:41:06Z</time>
      </trkpt>
      <trkpt lat="62.636250417702" lon="17.983287827778">
        <ele>38.2</ele>
        <time>2017-12-20T18:41:07Z</time>
      </trkpt>
      <trkpt lat="62.636249663331" lon="17.983368294018">
        <ele>38</ele>
        <time>2017-12-20T18:41:08Z</time>
      </trkpt>
      <trkpt lat="62.636239772689" lon="17.983447167697">
        <ele>38.2</ele>
        <time>2017-12-20T18:41:09Z</time>
      </trkpt>
      <trkpt lat="62.636223595622" lon="17.983501985323">
        <ele>38</ele>
        <time>2017-12-20T18:41:10Z</time>
      </trkpt>
      <trkpt lat="62.636209262573" lon="17.983572309464">
        <ele>38</ele>
        <time>2017-12-20T18:41:11Z</time>
      </trkpt>
      <trkpt lat="62.636201299768" lon="17.983645399632">
        <ele>38</ele>
        <time>2017-12-20T18:41:12Z</time>
      </trkpt>
      <trkpt lat="62.636195180981" lon="17.983710694633">
        <ele>38.4</ele>
        <time>2017-12-20T18:41:13Z</time>
      </trkpt>
      <trkpt lat="62.63618772109" lon="17.983775989634">
        <ele>38.4</ele>
        <time>2017-12-20T18:41:14Z</time>
      </trkpt>
      <trkpt lat="62.636180596475" lon="17.983829047061">
        <ele>38.4</ele>
        <time>2017-12-20T18:41:15Z</time>
      </trkpt>
      <trkpt lat="62.636167520711" lon="17.983913033699">
        <ele>39</ele>
        <time>2017-12-20T18:41:16Z</time>
      </trkpt>
      <trkpt lat="62.636156791879" lon="17.983975981768">
        <ele>39.2</ele>
        <time>2017-12-20T18:41:17Z</time>
      </trkpt>
      <trkpt lat="62.636149583445" lon="17.98403197286">
        <ele>39.4</ele>
        <time>2017-12-20T18:41:18Z</time>
      </trkpt>
      <trkpt lat="62.63613994426" lon="17.984092238721">
        <ele>39.4</ele>
        <time>2017-12-20T18:41:19Z</time>
      </trkpt>
      <trkpt lat="62.63613156236" lon="17.984150828202">
        <ele>39.6</ele>
        <time>2017-12-20T18:41:20Z</time>
      </trkpt>
      <trkpt lat="62.636132819645" lon="17.984213608633">
        <ele>39.8</ele>
        <time>2017-12-20T18:41:21Z</time>
      </trkpt>
      <trkpt lat="62.636132735826" lon="17.984276389064">
        <ele>39.8</ele>
        <time>2017-12-20T18:41:22Z</time>
      </trkpt>
      <trkpt lat="62.636134244568" lon="17.98433539764">
        <ele>39.8</ele>
        <time>2017-12-20T18:41:23Z</time>
      </trkpt>
      <trkpt lat="62.636132735826" lon="17.984403458668">
        <ele>39.8</ele>
        <time>2017-12-20T18:41:24Z</time>
      </trkpt>
      <trkpt lat="62.636122090813" lon="17.984481158881">
        <ele>40</ele>
        <time>2017-12-20T18:41:25Z</time>
      </trkpt>
      <trkpt lat="62.636114211827" lon="17.984551231565">
        <ele>40</ele>
        <time>2017-12-20T18:41:26Z</time>
      </trkpt>
      <trkpt lat="62.636103818271" lon="17.984614263453">
        <ele>40</ele>
        <time>2017-12-20T18:41:27Z</time>
      </trkpt>
      <trkpt lat="62.636094514362" lon="17.984663716663">
        <ele>40</ele>
        <time>2017-12-20T18:41:28Z</time>
      </trkpt>
      <trkpt lat="62.636092502706" lon="17.984726497094">
        <ele>40</ele>
        <time>2017-12-20T18:41:29Z</time>
      </trkpt>
      <trkpt lat="62.636094262905" lon="17.984796653597">
        <ele>40.2</ele>
        <time>2017-12-20T18:41:30Z</time>
      </trkpt>
      <trkpt lat="62.636097950941" lon="17.984848621377">
        <ele>40.2</ele>
        <time>2017-12-20T18:41:31Z</time>
      </trkpt>
      <trkpt lat="62.636097531846" lon="17.98490369046">
        <ele>40.4</ele>
        <time>2017-12-20T18:41:32Z</time>
      </trkpt>
      <trkpt lat="62.636093508534" lon="17.984962950493">
        <ele>40.4</ele>
        <time>2017-12-20T18:41:33Z</time>
      </trkpt>
      <trkpt lat="62.636092251249" lon="17.985022964897">
        <ele>40.8</ele>
        <time>2017-12-20T18:41:34Z</time>
      </trkpt>
      <trkpt lat="62.636093173258" lon="17.985094127228">
        <ele>40.8</ele>
        <time>2017-12-20T18:41:35Z</time>
      </trkpt>
      <trkpt lat="62.63608965286" lon="17.985148609578">
        <ele>41</ele>
        <time>2017-12-20T18:41:36Z</time>
      </trkpt>
      <trkpt lat="62.636086551557" lon="17.985201080272">
        <ele>41</ele>
        <time>2017-12-20T18:41:37Z</time>
      </trkpt>
      <trkpt lat="62.636083366435" lon="17.98526243578">
        <ele>41.2</ele>
        <time>2017-12-20T18:41:38Z</time>
      </trkpt>
      <trkpt lat="62.636087222109" lon="17.985334101025">
        <ele>41.2</ele>
        <time>2017-12-20T18:41:39Z</time>
      </trkpt>
      <trkpt lat="62.636083282616" lon="17.985384560063">
        <ele>41.4</ele>
        <time>2017-12-20T18:41:40Z</time>
      </trkpt>
      <trkpt lat="62.636067943739" lon="17.985453626919">
        <ele>41.4</ele>
        <time>2017-12-20T18:41:41Z</time>
      </trkpt>
      <trkpt lat="62.636051263758" lon="17.985520263024">
        <ele>41.4</ele>
        <time>2017-12-20T18:41:42Z</time>
      </trkpt>
      <trkpt lat="62.636033326492" lon="17.98557591884">
        <ele>41.4</ele>
        <time>2017-12-20T18:41:43Z</time>
      </trkpt>
      <trkpt lat="62.636018574348" lon="17.98562285748">
        <ele>41.6</ele>
        <time>2017-12-20T18:41:44Z</time>
      </trkpt>
      <trkpt lat="62.636002313462" lon="17.985670215215">
        <ele>41.6</ele>
        <time>2017-12-20T18:41:45Z</time>
      </trkpt>
      <trkpt lat="62.635987477499" lon="17.985703407539">
        <ele>41.6</ele>
        <time>2017-12-20T18:41:46Z</time>
      </trkpt>
      <trkpt lat="62.635972892993" lon="17.985740539356">
        <ele>41.8</ele>
        <time>2017-12-20T18:41:47Z</time>
      </trkpt>
      <trkpt lat="62.635954368994" lon="17.985784125236">
        <ele>41.8</ele>
        <time>2017-12-20T18:41:48Z</time>
      </trkpt>
      <trkpt lat="62.635926708724" lon="17.985825112727">
        <ele>42</ele>
        <time>2017-12-20T18:41:49Z</time>
      </trkpt>
      <trkpt lat="62.635901395386" lon="17.985853527368">
        <ele>42.2</ele>
        <time>2017-12-20T18:41:50Z</time>
      </trkpt>
      <trkpt lat="62.635877255514" lon="17.985882025828">
        <ele>42</ele>
        <time>2017-12-20T18:41:51Z</time>
      </trkpt>
      <trkpt lat="62.635856133126" lon="17.985905662786">
        <ele>42.2</ele>
        <time>2017-12-20T18:41:52Z</time>
      </trkpt>
      <trkpt lat="62.63583400491" lon="17.98591957674">
        <ele>42.4</ele>
        <time>2017-12-20T18:41:53Z</time>
      </trkpt>
      <trkpt lat="62.635807937201" lon="17.985932568685">
        <ele>42.6</ele>
        <time>2017-12-20T18:41:54Z</time>
      </trkpt>
      <trkpt lat="62.635794023247" lon="17.985944051888">
        <ele>42.8</ele>
        <time>2017-12-20T18:41:55Z</time>
      </trkpt>
      <trkpt lat="62.635772900859" lon="17.985969951959">
        <ele>42.8</ele>
        <time>2017-12-20T18:41:56Z</time>
      </trkpt>
      <trkpt lat="62.63574683315" lon="17.986009011613">
        <ele>43</ele>
        <time>2017-12-20T18:41:57Z</time>
      </trkpt>
      <trkpt lat="62.635725794581" lon="17.986042623032">
        <ele>43</ele>
        <time>2017-12-20T18:41:58Z</time>
      </trkpt>
      <trkpt lat="62.635705258926" lon="17.986082520876">
        <ele>43.2</ele>
        <time>2017-12-20T18:41:59Z</time>
      </trkpt>
      <trkpt lat="62.635687154022" lon="17.986122083444">
        <ele>43.4</ele>
        <time>2017-12-20T18:42:00Z</time>
      </trkpt>
      <trkpt lat="62.635668210928" lon="17.986158544709">
        <ele>43.6</ele>
        <time>2017-12-20T18:42:01Z</time>
      </trkpt>
      <trkpt lat="62.635652788232" lon="17.98620372315">
        <ele>43.8</ele>
        <time>2017-12-20T18:42:02Z</time>
      </trkpt>
      <trkpt lat="62.6356336775" lon="17.986247979582">
        <ele>43.8</ele>
        <time>2017-12-20T18:42:03Z</time>
      </trkpt>
      <trkpt lat="62.635612136017" lon="17.986299444448">
        <ele>44.2</ele>
        <time>2017-12-20T18:42:04Z</time>
      </trkpt>
      <trkpt lat="62.635591097448" lon="17.986349735848">
        <ele>44.4</ele>
        <time>2017-12-20T18:42:05Z</time>
      </trkpt>
      <trkpt lat="62.635571819078" lon="17.986401116895">
        <ele>44.6</ele>
        <time>2017-12-20T18:42:06Z</time>
      </trkpt>
      <trkpt lat="62.635556480201" lon="17.986457610901">
        <ele>44.6</ele>
        <time>2017-12-20T18:42:07Z</time>
      </trkpt>
      <trkpt lat="62.635536363641" lon="17.986518966409">
        <ele>44.8</ele>
        <time>2017-12-20T18:42:08Z</time>
      </trkpt>
      <trkpt lat="62.635515827986" lon="17.986582417392">
        <ele>44.8</ele>
        <time>2017-12-20T18:42:09Z</time>
      </trkpt>
      <trkpt lat="62.635499734738" lon="17.986625751815">
        <ele>44.8</ele>
        <time>2017-12-20T18:42:10Z</time>
      </trkpt>
      <trkpt lat="62.635487245707" lon="17.986659447053">
        <ele>44.8</ele>
        <time>2017-12-20T18:42:11Z</time>
      </trkpt>
      <trkpt lat="62.635477690341" lon="17.986702027105">
        <ele>45</ele>
        <time>2017-12-20T18:42:12Z</time>
      </trkpt>
      <trkpt lat="62.635467129147" lon="17.986750474487">
        <ele>45</ele>
        <time>2017-12-20T18:42:13Z</time>
      </trkpt>
      <trkpt lat="62.635456735591" lon="17.986790791426">
        <ele>45</ele>
        <time>2017-12-20T18:42:14Z</time>
      </trkpt>
      <trkpt lat="62.635437205764" lon="17.986831276003">
        <ele>45.2</ele>
        <time>2017-12-20T18:42:15Z</time>
      </trkpt>
      <trkpt lat="62.635418933222" lon="17.986879052833">
        <ele>45.2</ele>
        <time>2017-12-20T18:42:16Z</time>
      </trkpt>
      <trkpt lat="62.635401331232" lon="17.986924063636">
        <ele>45.4</ele>
        <time>2017-12-20T18:42:17Z</time>
      </trkpt>
      <trkpt lat="62.635387417278" lon="17.98695557958">
        <ele>45.6</ele>
        <time>2017-12-20T18:42:18Z</time>
      </trkpt>
      <trkpt lat="62.635371240211" lon="17.987001763849">
        <ele>45.8</ele>
        <time>2017-12-20T18:42:19Z</time>
      </trkpt>
      <trkpt lat="62.635355314601" lon="17.987044846815">
        <ele>46</ele>
        <time>2017-12-20T18:42:20Z</time>
      </trkpt>
      <trkpt lat="62.635340394819" lon="17.987116428241">
        <ele>46.2</ele>
        <time>2017-12-20T18:42:21Z</time>
      </trkpt>
      <trkpt lat="62.635319523888" lon="17.98715842156">
        <ele>46.4</ele>
        <time>2017-12-20T18:42:22Z</time>
      </trkpt>
      <trkpt lat="62.635294964921" lon="17.987191697703">
        <ele>46.4</ele>
        <time>2017-12-20T18:42:23Z</time>
      </trkpt>
      <trkpt lat="62.635270238316" lon="17.987229919167">
        <ele>46.4</ele>
        <time>2017-12-20T18:42:24Z</time>
      </trkpt>
      <trkpt lat="62.635247439548" lon="17.987273672685">
        <ele>46.4</ele>
        <time>2017-12-20T18:42:25Z</time>
      </trkpt>
      <trkpt lat="62.635224724599" lon="17.987322036248">
        <ele>46.6</ele>
        <time>2017-12-20T18:42:26Z</time>
      </trkpt>
      <trkpt lat="62.635204943315" lon="17.987363191377">
        <ele>46.6</ele>
        <time>2017-12-20T18:42:27Z</time>
      </trkpt>
      <trkpt lat="62.635188263334" lon="17.987398646814">
        <ele>46.8</ele>
        <time>2017-12-20T18:42:28Z</time>
      </trkpt>
      <trkpt lat="62.635164626376" lon="17.987436365364">
        <ele>46.8</ele>
        <time>2017-12-20T18:42:29Z</time>
      </trkpt>
      <trkpt lat="62.635142079065" lon="17.987482130538">
        <ele>47</ele>
        <time>2017-12-20T18:42:30Z</time>
      </trkpt>
      <trkpt lat="62.635122465419" lon="17.987534349775">
        <ele>47</ele>
        <time>2017-12-20T18:42:31Z</time>
      </trkpt>
      <trkpt lat="62.635105114886" lon="17.98758422208">
        <ele>47.2</ele>
        <time>2017-12-20T18:42:32Z</time>
      </trkpt>
      <trkpt lat="62.635086087973" lon="17.987629819616">
        <ele>47.2</ele>
        <time>2017-12-20T18:42:33Z</time>
      </trkpt>
      <trkpt lat="62.635064714128" lon="17.987679105188">
        <ele>47.2</ele>
        <time>2017-12-20T18:42:34Z</time>
      </trkpt>
      <trkpt lat="62.635041663903" lon="17.987722020516">
        <ele>47.4</ele>
        <time>2017-12-20T18:42:35Z</time>
      </trkpt>
      <trkpt lat="62.635019703325" lon="17.987759236152">
        <ele>47.4</ele>
        <time>2017-12-20T18:42:36Z</time>
      </trkpt>
      <trkpt lat="62.634998664756" lon="17.987797792892">
        <ele>47.6</ele>
        <time>2017-12-20T18:42:37Z</time>
      </trkpt>
      <trkpt lat="62.634977039454" lon="17.987828554465">
        <ele>48</ele>
        <time>2017-12-20T18:42:38Z</time>
      </trkpt>
      <trkpt lat="62.634948792451" lon="17.98785998659">
        <ele>48.2</ele>
        <time>2017-12-20T18:42:39Z</time>
      </trkpt>
      <trkpt lat="62.634924987855" lon="17.98789183781">
        <ele>48.4</ele>
        <time>2017-12-20T18:42:40Z</time>
      </trkpt>
      <trkpt lat="62.634906463856" lon="17.987921258279">
        <ele>48.4</ele>
        <time>2017-12-20T18:42:41Z</time>
      </trkpt>
      <trkpt lat="62.634887269305" lon="17.987942380667">
        <ele>48.4</ele>
        <time>2017-12-20T18:42:42Z</time>
      </trkpt>
      <trkpt lat="62.634864805813" lon="17.987963670693">
        <ele>48.4</ele>
        <time>2017-12-20T18:42:43Z</time>
      </trkpt>
      <trkpt lat="62.634840582122" lon="17.987987978203">
        <ele>48.6</ele>
        <time>2017-12-20T18:42:44Z</time>
      </trkpt>
      <trkpt lat="62.634811580748" lon="17.988000048139">
        <ele>48.6</ele>
        <time>2017-12-20T18:42:45Z</time>
      </trkpt>
      <trkpt lat="62.634782411736" lon="17.988006921297">
        <ele>48.8</ele>
        <time>2017-12-20T18:42:46Z</time>
      </trkpt>
      <trkpt lat="62.634752404534" lon="17.988023685097">
        <ele>48.8</ele>
        <time>2017-12-20T18:42:47Z</time>
      </trkpt>
      <trkpt lat="62.634728767576" lon="17.988029384789">
        <ele>49</ele>
        <time>2017-12-20T18:42:48Z</time>
      </trkpt>
      <trkpt lat="62.634704460066" lon="17.988031983178">
        <ele>49.2</ele>
        <time>2017-12-20T18:42:49Z</time>
      </trkpt>
      <trkpt lat="62.634686774257" lon="17.988046986779">
        <ele>49.2</ele>
        <time>2017-12-20T18:42:50Z</time>
      </trkpt>
      <trkpt lat="62.634668836991" lon="17.988058302344">
        <ele>49.4</ele>
        <time>2017-12-20T18:42:51Z</time>
      </trkpt>
      <trkpt lat="62.634650312992" lon="17.988063834398">
        <ele>49.6</ele>
        <time>2017-12-20T18:42:52Z</time>
      </trkpt>
      <trkpt lat="62.634629944975" lon="17.988073054488">
        <ele>49.6</ele>
        <time>2017-12-20T18:42:53Z</time>
      </trkpt>
      <trkpt lat="62.634612510623" lon="17.98807623961">
        <ele>49.6</ele>
        <time>2017-12-20T18:42:54Z</time>
      </trkpt>
      <trkpt lat="62.634590047131" lon="17.988074982325">
        <ele>49.6</ele>
        <time>2017-12-20T18:42:55Z</time>
      </trkpt>
      <trkpt lat="62.634558112092" lon="17.988074982325">
        <ele>49.6</ele>
        <time>2017-12-20T18:42:56Z</time>
      </trkpt>
      <trkpt lat="62.634534475134" lon="17.988076826343">
        <ele>49.8</ele>
        <time>2017-12-20T18:42:57Z</time>
      </trkpt>
      <trkpt lat="62.634512933651" lon="17.988081017293">
        <ele>49.8</ele>
        <time>2017-12-20T18:42:58Z</time>
      </trkpt>
      <trkpt lat="62.634487368856" lon="17.988094093057">
        <ele>49.8</ele>
        <time>2017-12-20T18:42:59Z</time>
      </trkpt>
      <trkpt lat="62.634461552604" lon="17.988103396966">
        <ele>50</ele>
        <time>2017-12-20T18:43:00Z</time>
      </trkpt>
      <trkpt lat="62.634433640877" lon="17.988105995355">
        <ele>50.2</ele>
        <time>2017-12-20T18:43:01Z</time>
      </trkpt>
      <trkpt lat="62.634402124933" lon="17.98811731092">
        <ele>50.4</ele>
        <time>2017-12-20T18:43:02Z</time>
      </trkpt>
      <trkpt lat="62.63437303974" lon="17.988128542666">
        <ele>50.6</ele>
        <time>2017-12-20T18:43:03Z</time>
      </trkpt>
      <trkpt lat="62.634343451633" lon="17.988141786068">
        <ele>50.8</ele>
        <time>2017-12-20T18:43:04Z</time>
      </trkpt>
      <trkpt lat="62.634310091671" lon="17.988149329778">
        <ele>51</ele>
        <time>2017-12-20T18:43:05Z</time>
      </trkpt>
      <trkpt lat="62.634276899347" lon="17.988155951479">
        <ele>51.2</ele>
        <time>2017-12-20T18:43:06Z</time>
      </trkpt>
      <trkpt lat="62.63424563486" lon="17.988154610375">
        <ele>51</ele>
        <time>2017-12-20T18:43:07Z</time>
      </trkpt>
      <trkpt lat="62.634213616002" lon="17.988151257615">
        <ele>51</ele>
        <time>2017-12-20T18:43:08Z</time>
      </trkpt>
      <trkpt lat="62.634182267696" lon="17.988151425253">
        <ele>51</ele>
        <time>2017-12-20T18:43:09Z</time>
      </trkpt>
      <trkpt lat="62.634149829743" lon="17.988147988674">
        <ele>51</ele>
        <time>2017-12-20T18:43:10Z</time>
      </trkpt>
      <trkpt lat="62.634110350994" lon="17.988137511299">
        <ele>51</ele>
        <time>2017-12-20T18:43:11Z</time>
      </trkpt>
      <trkpt lat="62.634079421783" lon="17.988122591517">
        <ele>51.2</ele>
        <time>2017-12-20T18:43:12Z</time>
      </trkpt>
      <trkpt lat="62.634055449549" lon="17.988124100259">
        <ele>51</ele>
        <time>2017-12-20T18:43:13Z</time>
      </trkpt>
      <trkpt lat="62.63402770546" lon="17.988119154938">
        <ele>51</ele>
        <time>2017-12-20T18:43:14Z</time>
      </trkpt>
      <trkpt lat="62.633995518964" lon="17.98810473807">
        <ele>51</ele>
        <time>2017-12-20T18:43:15Z</time>
      </trkpt>
      <trkpt lat="62.633965344124" lon="17.988089315374">
        <ele>51.2</ele>
        <time>2017-12-20T18:43:16Z</time>
      </trkpt>
      <trkpt lat="62.633937432397" lon="17.988081520207">
        <ele>51.2</ele>
        <time>2017-12-20T18:43:17Z</time>
      </trkpt>
      <trkpt lat="62.633903401883" lon="17.988072132479">
        <ele>51.2</ele>
        <time>2017-12-20T18:43:18Z</time>
      </trkpt>
      <trkpt lat="62.633861995297" lon="17.988060062543">
        <ele>51.4</ele>
        <time>2017-12-20T18:43:19Z</time>
      </trkpt>
      <trkpt lat="62.633826875136" lon="17.988055787774">
        <ele>51.6</ele>
        <time>2017-12-20T18:43:20Z</time>
      </trkpt>
      <trkpt lat="62.633797957581" lon="17.988032737549">
        <ele>51.8</ele>
        <time>2017-12-20T18:43:21Z</time>
      </trkpt>
      <trkpt lat="62.633775577908" lon="17.988004071451">
        <ele>52</ele>
        <time>2017-12-20T18:43:22Z</time>
      </trkpt>
      <trkpt lat="62.633751438036" lon="17.987982110873">
        <ele>52.2</ele>
        <time>2017-12-20T18:43:23Z</time>
      </trkpt>
      <trkpt lat="62.633727298164" lon="17.987963419236">
        <ele>52.2</ele>
        <time>2017-12-20T18:43:24Z</time>
      </trkpt>
      <trkpt lat="62.633695614582" lon="17.987934753138">
        <ele>52.2</ele>
        <time>2017-12-20T18:43:25Z</time>
      </trkpt>
      <trkpt lat="62.633666948484" lon="17.987899716796">
        <ele>52.4</ele>
        <time>2017-12-20T18:43:26Z</time>
      </trkpt>
      <trkpt lat="62.633649178856" lon="17.987877253304">
        <ele>52.4</ele>
        <time>2017-12-20T18:43:27Z</time>
      </trkpt>
      <trkpt lat="62.633631995961" lon="17.987861998246">
        <ele>52.4</ele>
        <time>2017-12-20T18:43:28Z</time>
      </trkpt>
      <trkpt lat="62.633606682623" lon="17.987836014356">
        <ele>52.6</ele>
        <time>2017-12-20T18:43:29Z</time>
      </trkpt>
      <trkpt lat="62.633581034009" lon="17.987813802321">
        <ele>52.8</ele>
        <time>2017-12-20T18:43:30Z</time>
      </trkpt>
      <trkpt lat="62.633557397051" lon="17.987777927789">
        <ele>53.2</ele>
        <time>2017-12-20T18:43:31Z</time>
      </trkpt>
      <trkpt lat="62.63353401155" lon="17.987740544515">
        <ele>53.4</ele>
        <time>2017-12-20T18:43:32Z</time>
      </trkpt>
      <trkpt lat="62.633511296601" lon="17.987700311395">
        <ele>53.6</ele>
        <time>2017-12-20T18:43:33Z</time>
      </trkpt>
      <trkpt lat="62.633484642159" lon="17.987650271452">
        <ele>53.8</ele>
        <time>2017-12-20T18:43:34Z</time>
      </trkpt>
      <trkpt lat="62.633456227518" lon="17.987603919545">
        <ele>53.8</ele>
        <time>2017-12-20T18:43:35Z</time>
      </trkpt>
      <trkpt lat="62.633432842017" lon="17.987562596778">
        <ele>53.8</ele>
        <time>2017-12-20T18:43:36Z</time>
      </trkpt>
      <trkpt lat="62.633409791792" lon="17.987520687278">
        <ele>53.8</ele>
        <time>2017-12-20T18:43:37Z</time>
      </trkpt>
      <trkpt lat="62.633387244481" lon="17.987476682303">
        <ele>53.8</ele>
        <time>2017-12-20T18:43:38Z</time>
      </trkpt>
      <trkpt lat="62.63336385898" lon="17.987426223265">
        <ele>54</ele>
        <time>2017-12-20T18:43:39Z</time>
      </trkpt>
      <trkpt lat="62.633343239506" lon="17.987374423123">
        <ele>54.2</ele>
        <time>2017-12-20T18:43:40Z</time>
      </trkpt>
      <trkpt lat="62.633319602548" lon="17.987301249136">
        <ele>54.6</ele>
        <time>2017-12-20T18:43:41Z</time>
      </trkpt>
      <trkpt lat="62.633293283382" lon="17.987226901683">
        <ele>54.8</ele>
        <time>2017-12-20T18:43:42Z</time>
      </trkpt>
      <trkpt lat="62.633273585917" lon="17.9871550688">
        <ele>55</ele>
        <time>2017-12-20T18:43:43Z</time>
      </trkpt>
      <trkpt lat="62.633263192361" lon="17.987081559537">
        <ele>55</ele>
        <time>2017-12-20T18:43:44Z</time>
      </trkpt>
      <trkpt lat="62.633249194588" lon="17.986972762475">
        <ele>54.4</ele>
        <time>2017-12-20T18:43:45Z</time>
      </trkpt>
      <trkpt lat="62.633237040833" lon="17.986857930445">
        <ele>53.6</ele>
        <time>2017-12-20T18:43:46Z</time>
      </trkpt>
      <trkpt lat="62.633225725268" lon="17.986729100642">
        <ele>52.8</ele>
        <time>2017-12-20T18:43:47Z</time>
      </trkpt>
      <trkpt lat="62.633215918445" lon="17.986607982187">
        <ele>52</ele>
        <time>2017-12-20T18:43:48Z</time>
      </trkpt>
      <trkpt lat="62.633217091911" lon="17.986454593417">
        <ele>51.2</ele>
        <time>2017-12-20T18:43:49Z</time>
      </trkpt>
      <trkpt lat="62.633221869594" lon="17.986314531868">
        <ele>50.8</ele>
        <time>2017-12-20T18:43:50Z</time>
      </trkpt>
      <trkpt lat="62.633236118824" lon="17.986203052598">
        <ele>51</ele>
        <time>2017-12-20T18:43:51Z</time>
      </trkpt>
      <trkpt lat="62.633252044434" lon="17.986110013508">
        <ele>51</ele>
        <time>2017-12-20T18:43:52Z</time>
      </trkpt>
      <trkpt lat="62.633270316976" lon="17.985996271125">
        <ele>50.8</ele>
        <time>2017-12-20T18:43:53Z</time>
      </trkpt>
      <trkpt lat="62.633284901482" lon="17.985860149069">
        <ele>50.6</ele>
        <time>2017-12-20T18:43:54Z</time>
      </trkpt>
      <trkpt lat="62.633303090205" lon="17.985739449709">
        <ele>50.2</ele>
        <time>2017-12-20T18:43:55Z</time>
      </trkpt>
      <trkpt lat="62.633324715507" lon="17.985620929643">
        <ele>50</ele>
        <time>2017-12-20T18:43:56Z</time>
      </trkpt>
      <trkpt lat="62.63334709518" lon="17.9854870707">
        <ele>49.6</ele>
        <time>2017-12-20T18:43:57Z</time>
      </trkpt>
      <trkpt lat="62.633367379378" lon="17.985356061603">
        <ele>49.2</ele>
        <time>2017-12-20T18:43:58Z</time>
      </trkpt>
      <trkpt lat="62.63339654839" lon="17.985193788019">
        <ele>48.8</ele>
        <time>2017-12-20T18:43:59Z</time>
      </trkpt>
      <trkpt lat="62.633419933891" lon="17.985028245494">
        <ele>48.4</ele>
        <time>2017-12-20T18:44:00Z</time>
      </trkpt>
      <trkpt lat="62.633442816478" lon="17.984869157032">
        <ele>48</ele>
        <time>2017-12-20T18:44:01Z</time>
      </trkpt>
      <trkpt lat="62.633466201979" lon="17.984726664732">
        <ele>47.4</ele>
        <time>2017-12-20T18:44:02Z</time>
      </trkpt>
      <trkpt lat="62.633484809797" lon="17.984589285391">
        <ele>46.8</ele>
        <time>2017-12-20T18:44:03Z</time>
      </trkpt>
      <trkpt lat="62.633495706267" lon="17.984451570774">
        <ele>46</ele>
        <time>2017-12-20T18:44:04Z</time>
      </trkpt>
      <trkpt lat="62.633507692384" lon="17.984309749026">
        <ele>45.6</ele>
        <time>2017-12-20T18:44:05Z</time>
      </trkpt>
      <trkpt lat="62.633517583026" lon="17.984184691078">
        <ele>45.6</ele>
        <time>2017-12-20T18:44:06Z</time>
      </trkpt>
      <trkpt lat="62.633524456184" lon="17.984064243175">
        <ele>45.6</ele>
        <time>2017-12-20T18:44:07Z</time>
      </trkpt>
      <trkpt lat="62.633539459785" lon="17.983953602095">
        <ele>45.6</ele>
        <time>2017-12-20T18:44:08Z</time>
      </trkpt>
      <trkpt lat="62.633547590228" lon="17.983826197215">
        <ele>45.8</ele>
        <time>2017-12-20T18:44:09Z</time>
      </trkpt>
      <trkpt lat="62.633559073431" lon="17.983722094017">
        <ele>46.4</ele>
        <time>2017-12-20T18:44:10Z</time>
      </trkpt>
      <trkpt lat="62.633567455331" lon="17.983621595036">
        <ele>46.6</ele>
        <time>2017-12-20T18:44:11Z</time>
      </trkpt>
      <trkpt lat="62.633570724272" lon="17.983528555946">
        <ele>47.2</ele>
        <time>2017-12-20T18:44:12Z</time>
      </trkpt>
      <trkpt lat="62.633582207475" lon="17.98344021072">
        <ele>47.4</ele>
        <time>2017-12-20T18:44:13Z</time>
      </trkpt>
      <trkpt lat="62.63359939037" lon="17.983352536046">
        <ele>47.6</ele>
        <time>2017-12-20T18:44:14Z</time>
      </trkpt>
      <trkpt lat="62.633617662912" lon="17.983257736757">
        <ele>47.8</ele>
        <time>2017-12-20T18:44:15Z</time>
      </trkpt>
      <trkpt lat="62.633637863291" lon="17.983168720979">
        <ele>47.6</ele>
        <time>2017-12-20T18:44:16Z</time>
      </trkpt>
      <trkpt lat="62.633666697027" lon="17.983095379354">
        <ele>47.6</ele>
        <time>2017-12-20T18:44:17Z</time>
      </trkpt>
      <trkpt lat="62.633690333985" lon="17.983021199539">
        <ele>47.6</ele>
        <time>2017-12-20T18:44:18Z</time>
      </trkpt>
      <trkpt lat="62.633715144409" lon="17.98293478215">
        <ele>47.6</ele>
        <time>2017-12-20T18:44:19Z</time>
      </trkpt>
      <trkpt lat="62.633733081675" lon="17.982858255403">
        <ele>47.6</ele>
        <time>2017-12-20T18:44:20Z</time>
      </trkpt>
      <trkpt lat="62.633745738344" lon="17.982778375896">
        <ele>47.6</ele>
        <time>2017-12-20T18:44:21Z</time>
      </trkpt>
      <trkpt lat="62.633759400841" lon="17.982700256588">
        <ele>47.6</ele>
        <time>2017-12-20T18:44:22Z</time>
      </trkpt>
      <trkpt lat="62.633775661727" lon="17.982615850855">
        <ele>47.6</ele>
        <time>2017-12-20T18:44:23Z</time>
      </trkpt>
      <trkpt lat="62.633784797998" lon="17.982536055167">
        <ele>47.6</ele>
        <time>2017-12-20T18:44:24Z</time>
      </trkpt>
      <trkpt lat="62.633788905129" lon="17.982454080185">
        <ele>47.8</ele>
        <time>2017-12-20T18:44:25Z</time>
      </trkpt>
      <trkpt lat="62.63379049769" lon="17.982370428823">
        <ele>47.8</ele>
        <time>2017-12-20T18:44:26Z</time>
      </trkpt>
      <trkpt lat="62.633796281201" lon="17.98229021404">
        <ele>47.6</ele>
        <time>2017-12-20T18:44:27Z</time>
      </trkpt>
      <trkpt lat="62.633802651445" lon="17.982230451093">
        <ele>47.8</ele>
        <time>2017-12-20T18:44:28Z</time>
      </trkpt>
      <trkpt lat="62.633812961182" lon="17.982161216599">
        <ele>48</ele>
        <time>2017-12-20T18:44:29Z</time>
      </trkpt>
      <trkpt lat="62.633820253435" lon="17.982087791155">
        <ele>47.8</ele>
        <time>2017-12-20T18:44:30Z</time>
      </trkpt>
      <trkpt lat="62.633825114937" lon="17.982004475069">
        <ele>47.8</ele>
        <time>2017-12-20T18:44:31Z</time>
      </trkpt>
      <trkpt lat="62.633829222068" lon="17.981924260286">
        <ele>47.8</ele>
        <time>2017-12-20T18:44:32Z</time>
      </trkpt>
      <trkpt lat="62.63383073081" lon="17.981848236453">
        <ele>47.8</ele>
        <time>2017-12-20T18:44:33Z</time>
      </trkpt>
      <trkpt lat="62.633830814629" lon="17.981755029725">
        <ele>47.8</ele>
        <time>2017-12-20T18:44:34Z</time>
      </trkpt>
      <trkpt lat="62.633840621452" lon="17.981670456354">
        <ele>47.6</ele>
        <time>2017-12-20T18:44:35Z</time>
      </trkpt>
      <trkpt lat="62.633852691388" lon="17.98159367815">
        <ele>47.6</ele>
        <time>2017-12-20T18:44:36Z</time>
      </trkpt>
      <trkpt lat="62.633865599514" lon="17.981514469195">
        <ele>47.8</ele>
        <time>2017-12-20T18:44:37Z</time>
      </trkpt>
      <trkpt lat="62.633890577576" lon="17.981437188077">
        <ele>47.8</ele>
        <time>2017-12-20T18:44:38Z</time>
      </trkpt>
      <trkpt lat="62.633901557865" lon="17.981391925817">
        <ele>47.8</ele>
        <time>2017-12-20T18:44:39Z</time>
      </trkpt>
      <trkpt lat="62.633913041068" lon="17.981341802055">
        <ele>48</ele>
        <time>2017-12-20T18:44:40Z</time>
      </trkpt>
      <trkpt lat="62.633925362461" lon="17.98129109156">
        <ele>48</ele>
        <time>2017-12-20T18:44:41Z</time>
      </trkpt>
      <trkpt lat="62.633940701338" lon="17.981244236739">
        <ele>48</ele>
        <time>2017-12-20T18:44:42Z</time>
      </trkpt>
      <trkpt lat="62.633953609464" lon="17.981189335294">
        <ele>48.2</ele>
        <time>2017-12-20T18:44:43Z</time>
      </trkpt>
      <trkpt lat="62.633965176486" lon="17.981130661994">
        <ele>48.2</ele>
        <time>2017-12-20T18:44:44Z</time>
      </trkpt>
      <trkpt lat="62.633985879779" lon="17.981071401961">
        <ele>48.4</ele>
        <time>2017-12-20T18:44:45Z</time>
      </trkpt>
      <trkpt lat="62.634008594728" lon="17.981013315394">
        <ele>48.4</ele>
        <time>2017-12-20T18:44:46Z</time>
      </trkpt>
      <trkpt lat="62.634034578618" lon="17.980968556048">
        <ele>48.6</ele>
        <time>2017-12-20T18:44:47Z</time>
      </trkpt>
      <trkpt lat="62.63405285116" lon="17.980913738422">
        <ele>48.6</ele>
        <time>2017-12-20T18:44:48Z</time>
      </trkpt>
      <trkpt lat="62.634069950236" lon="17.980850538896">
        <ele>48.8</ele>
        <time>2017-12-20T18:44:49Z</time>
      </trkpt>
      <trkpt lat="62.634088558054" lon="17.980789770121">
        <ele>48.8</ele>
        <time>2017-12-20T18:44:50Z</time>
      </trkpt>
      <trkpt lat="62.634109093709" lon="17.980728749889">
        <ele>48.8</ele>
        <time>2017-12-20T18:44:51Z</time>
      </trkpt>
      <trkpt lat="62.634125689871" lon="17.980662700517">
        <ele>49</ele>
        <time>2017-12-20T18:44:52Z</time>
      </trkpt>
      <trkpt lat="62.634142621309" lon="17.980602434656">
        <ele>49</ele>
        <time>2017-12-20T18:44:53Z</time>
      </trkpt>
      <trkpt lat="62.63415762491" lon="17.980550299238">
        <ele>49</ele>
        <time>2017-12-20T18:44:54Z</time>
      </trkpt>
      <trkpt lat="62.634170113941" lon="17.980490201015">
        <ele>49.2</ele>
        <time>2017-12-20T18:44:55Z</time>
      </trkpt>
      <trkpt lat="62.634186626284" lon="17.980424151643">
        <ele>49.2</ele>
        <time>2017-12-20T18:44:56Z</time>
      </trkpt>
      <trkpt lat="62.634207832491" lon="17.980363047592">
        <ele>49.2</ele>
        <time>2017-12-20T18:44:57Z</time>
      </trkpt>
      <trkpt lat="62.634225350662" lon="17.980308229966">
        <ele>49.4</ele>
        <time>2017-12-20T18:44:58Z</time>
      </trkpt>
      <trkpt lat="62.634245131946" lon="17.98025173596">
        <ele>49.2</ele>
        <time>2017-12-20T18:44:59Z</time>
      </trkpt>
      <trkpt lat="62.634264661773" lon="17.98019892999">
        <ele>49.2</ele>
        <time>2017-12-20T18:45:00Z</time>
      </trkpt>
      <trkpt lat="62.634283437229" lon="17.980132880618">
        <ele>49.4</ele>
        <time>2017-12-20T18:45:01Z</time>
      </trkpt>
      <trkpt lat="62.634304643436" lon="17.980085690521">
        <ele>49.2</ele>
        <time>2017-12-20T18:45:02Z</time>
      </trkpt>
      <trkpt lat="62.634326687833" lon="17.980035315302">
        <ele>49.4</ele>
        <time>2017-12-20T18:45:03Z</time>
      </trkpt>
      <trkpt lat="62.634354096646" lon="17.979964572066">
        <ele>49.4</ele>
        <time>2017-12-20T18:45:04Z</time>
      </trkpt>
      <trkpt lat="62.634376224862" lon="17.979888129138">
        <ele>49.4</ele>
        <time>2017-12-20T18:45:05Z</time>
      </trkpt>
      <trkpt lat="62.634387372789" lon="17.979818810825">
        <ele>49.2</ele>
        <time>2017-12-20T18:45:06Z</time>
      </trkpt>
      <trkpt lat="62.634400280915" lon="17.97973457273">
        <ele>49.2</ele>
        <time>2017-12-20T18:45:07Z</time>
      </trkpt>
      <trkpt lat="62.634412602308" lon="17.979662153114">
        <ele>49.2</ele>
        <time>2017-12-20T18:45:08Z</time>
      </trkpt>
      <trkpt lat="62.63442416933" lon="17.979578501752">
        <ele>49</ele>
        <time>2017-12-20T18:45:09Z</time>
      </trkpt>
      <trkpt lat="62.634439424388" lon="17.97950826143">
        <ele>49</ele>
        <time>2017-12-20T18:45:10Z</time>
      </trkpt>
      <trkpt lat="62.634460379138" lon="17.979440116583">
        <ele>49</ele>
        <time>2017-12-20T18:45:11Z</time>
      </trkpt>
      <trkpt lat="62.634472197617" lon="17.979366691139">
        <ele>49</ele>
        <time>2017-12-20T18:45:12Z</time>
      </trkpt>
      <trkpt lat="62.634483848458" lon="17.979305000355">
        <ele>48.8</ele>
        <time>2017-12-20T18:45:13Z</time>
      </trkpt>
      <trkpt lat="62.634493571462" lon="17.979232077825">
        <ele>49</ele>
        <time>2017-12-20T18:45:14Z</time>
      </trkpt>
      <trkpt lat="62.634504970846" lon="17.979153036508">
        <ele>49</ele>
        <time>2017-12-20T18:45:15Z</time>
      </trkpt>
      <trkpt lat="62.634516705506" lon="17.979092686828">
        <ele>49</ele>
        <time>2017-12-20T18:45:16Z</time>
      </trkpt>
      <trkpt lat="62.634543779043" lon="17.978975088771">
        <ele>49</ele>
        <time>2017-12-20T18:45:18Z</time>
      </trkpt>
      <trkpt lat="62.634564566155" lon="17.978922701896">
        <ele>49</ele>
        <time>2017-12-20T18:45:19Z</time>
      </trkpt>
      <trkpt lat="62.634587197285" lon="17.978886659726">
        <ele>49</ele>
        <time>2017-12-20T18:45:20Z</time>
      </trkpt>
      <trkpt lat="62.634611253338" lon="17.978857490714">
        <ele>49</ele>
        <time>2017-12-20T18:45:21Z</time>
      </trkpt>
      <trkpt lat="62.634629106785" lon="17.978840643095">
        <ele>49</ele>
        <time>2017-12-20T18:45:22Z</time>
      </trkpt>
      <trkpt lat="62.634651905553" lon="17.978832428833">
        <ele>49</ele>
        <time>2017-12-20T18:45:23Z</time>
      </trkpt>
      <trkpt lat="62.634675710149" lon="17.978830081901">
        <ele>49</ele>
        <time>2017-12-20T18:45:24Z</time>
      </trkpt>
      <trkpt lat="62.634705382075" lon="17.978839134353">
        <ele>49.2</ele>
        <time>2017-12-20T18:45:25Z</time>
      </trkpt>
      <trkpt lat="62.6347368142" lon="17.978854137954">
        <ele>49.2</ele>
        <time>2017-12-20T18:45:26Z</time>
      </trkpt>
      <trkpt lat="62.634769587429" lon="17.978868219546">
        <ele>49.2</ele>
        <time>2017-12-20T18:45:27Z</time>
      </trkpt>
      <trkpt lat="62.634800013726" lon="17.978885150984">
        <ele>49.2</ele>
        <time>2017-12-20T18:45:28Z</time>
      </trkpt>
      <trkpt lat="62.634828428367" lon="17.978895628359">
        <ele>49</ele>
        <time>2017-12-20T18:45:29Z</time>
      </trkpt>
      <trkpt lat="62.634872098066" lon="17.978912056883">
        <ele>48.8</ele>
        <time>2017-12-20T18:45:30Z</time>
      </trkpt>
      <trkpt lat="62.634905122752" lon="17.978925551742">
        <ele>48.6</ele>
        <time>2017-12-20T18:45:31Z</time>
      </trkpt>
      <trkpt lat="62.634937728343" lon="17.978937621678">
        <ele>48.4</ele>
        <time>2017-12-20T18:45:32Z</time>
      </trkpt>
      <trkpt lat="62.634964550423" lon="17.978948853424">
        <ele>48.2</ele>
        <time>2017-12-20T18:45:33Z</time>
      </trkpt>
      <trkpt lat="62.634990031399" lon="17.97895840879">
        <ele>48.2</ele>
        <time>2017-12-20T18:45:34Z</time>
      </trkpt>
      <trkpt lat="62.635014841823" lon="17.978968131794">
        <ele>48</ele>
        <time>2017-12-20T18:45:35Z</time>
      </trkpt>
      <trkpt lat="62.635037975867" lon="17.978979782635">
        <ele>48</ele>
        <time>2017-12-20T18:45:36Z</time>
      </trkpt>
      <trkpt lat="62.635060020264" lon="17.978986571974">
        <ele>47.8</ele>
        <time>2017-12-20T18:45:37Z</time>
      </trkpt>
      <trkpt lat="62.635090865656" lon="17.978999144824">
        <ele>47.8</ele>
        <time>2017-12-20T18:45:38Z</time>
      </trkpt>
      <trkpt lat="62.635117771555" lon="17.979008197276">
        <ele>47.8</ele>
        <time>2017-12-20T18:45:39Z</time>
      </trkpt>
      <trkpt lat="62.635144509816" lon="17.979020770126">
        <ele>47.8</ele>
        <time>2017-12-20T18:45:40Z</time>
      </trkpt>
      <trkpt lat="62.635177534502" lon="17.979039797039">
        <ele>47.8</ele>
        <time>2017-12-20T18:45:41Z</time>
      </trkpt>
      <trkpt lat="62.63520871517" lon="17.979054046269">
        <ele>47.8</ele>
        <time>2017-12-20T18:45:42Z</time>
      </trkpt>
      <trkpt lat="62.63523805182" lon="17.979062092893">
        <ele>47.6</ele>
        <time>2017-12-20T18:45:43Z</time>
      </trkpt>
      <trkpt lat="62.635269986859" lon="17.979068463137">
        <ele>47.6</ele>
        <time>2017-12-20T18:45:44Z</time>
      </trkpt>
      <trkpt lat="62.635303263002" lon="17.979073911372">
        <ele>47.4</ele>
        <time>2017-12-20T18:45:45Z</time>
      </trkpt>
      <trkpt lat="62.635331342367" lon="17.979075336295">
        <ele>47.4</ele>
        <time>2017-12-20T18:45:46Z</time>
      </trkpt>
      <trkpt lat="62.635364031777" lon="17.979078018503">
        <ele>47.2</ele>
        <time>2017-12-20T18:45:47Z</time>
      </trkpt>
      <trkpt lat="62.635394038979" lon="17.979080449254">
        <ele>47</ele>
        <time>2017-12-20T18:45:48Z</time>
      </trkpt>
      <trkpt lat="62.635429242959" lon="17.979083634376">
        <ele>46.8</ele>
        <time>2017-12-20T18:45:49Z</time>
      </trkpt>
      <trkpt lat="62.635466290957" lon="17.979087406231">
        <ele>46.8</ele>
        <time>2017-12-20T18:45:50Z</time>
      </trkpt>
      <trkpt lat="62.635500153833" lon="17.979088495878">
        <ele>46.6</ele>
        <time>2017-12-20T18:45:51Z</time>
      </trkpt>
      <trkpt lat="62.635528652293" lon="17.979082041815">
        <ele>46.4</ele>
        <time>2017-12-20T18:45:52Z</time>
      </trkpt>
      <trkpt lat="62.635558072762" lon="17.979077347951">
        <ele>46.2</ele>
        <time>2017-12-20T18:45:53Z</time>
      </trkpt>
      <trkpt lat="62.635587409412" lon="17.979076509761">
        <ele>46.2</ele>
        <time>2017-12-20T18:45:54Z</time>
      </trkpt>
      <trkpt lat="62.635607442153" lon="17.979075503933">
        <ele>46</ele>
        <time>2017-12-20T18:45:55Z</time>
      </trkpt>
      <trkpt lat="62.635621607564" lon="17.9790665353">
        <ele>45.8</ele>
        <time>2017-12-20T18:45:56Z</time>
      </trkpt>
      <trkpt lat="62.635628732179" lon="17.979060165056">
        <ele>45.8</ele>
        <time>2017-12-20T18:45:57Z</time>
      </trkpt>
      <trkpt lat="62.635626888161" lon="17.979051783156">
        <ele>45.6</ele>
        <time>2017-12-20T18:45:58Z</time>
      </trkpt>
      <trkpt lat="62.635613728578" lon="17.978998306634">
        <ele>45.4</ele>
        <time>2017-12-20T18:46:04Z</time>
      </trkpt>
      <trkpt lat="62.63562194284" lon="17.978998977186">
        <ele>45.4</ele>
        <time>2017-12-20T18:46:05Z</time>
      </trkpt>
      <trkpt lat="62.635840878068" lon="17.97897601078">
        <ele>44.8</ele>
        <time>2017-12-20T18:47:37Z</time>
      </trkpt>
      <trkpt lat="62.63586585613" lon="17.978979950273">
        <ele>44.8</ele>
        <time>2017-12-20T18:47:38Z</time>
      </trkpt>
      <trkpt lat="62.635890079821" lon="17.978986404336">
        <ele>44.8</ele>
        <time>2017-12-20T18:47:39Z</time>
      </trkpt>
      <trkpt lat="62.635915896073" lon="17.979000234471">
        <ele>44.8</ele>
        <time>2017-12-20T18:47:40Z</time>
      </trkpt>
      <trkpt lat="62.635931151131" lon="17.979000905023">
        <ele>44.8</ele>
        <time>2017-12-20T18:47:41Z</time>
      </trkpt>
      <trkpt lat="62.635948585483" lon="17.979005766525">
        <ele>44.8</ele>
        <time>2017-12-20T18:47:42Z</time>
      </trkpt>
      <trkpt lat="62.635969037319" lon="17.979013394054">
        <ele>44.8</ele>
        <time>2017-12-20T18:47:43Z</time>
      </trkpt>
      <trkpt lat="62.635979263237" lon="17.979016579176">
        <ele>44.6</ele>
        <time>2017-12-20T18:47:44Z</time>
      </trkpt>
      <trkpt lat="62.635993931562" lon="17.979022530325">
        <ele>44.8</ele>
        <time>2017-12-20T18:47:45Z</time>
      </trkpt>
      <trkpt lat="62.636009773353" lon="17.979027727103">
        <ele>44.6</ele>
        <time>2017-12-20T18:47:46Z</time>
      </trkpt>
      <trkpt lat="62.636019496357" lon="17.979035773727">
        <ele>44.8</ele>
        <time>2017-12-20T18:47:47Z</time>
      </trkpt>
      <trkpt lat="62.636035505786" lon="17.979061589979">
        <ele>44.8</ele>
        <time>2017-12-20T18:47:48Z</time>
      </trkpt>
      <trkpt lat="62.636040283469" lon="17.979104840583">
        <ele>44.8</ele>
        <time>2017-12-20T18:47:49Z</time>
      </trkpt>
      <trkpt lat="62.636039110003" lon="17.979144235513">
        <ele>45</ele>
        <time>2017-12-20T18:47:50Z</time>
      </trkpt>
      <trkpt lat="62.63603265594" lon="17.979184636271">
        <ele>45</ele>
        <time>2017-12-20T18:47:51Z</time>
      </trkpt>
      <trkpt lat="62.636020669823" lon="17.979237609879">
        <ele>45.2</ele>
        <time>2017-12-20T18:47:53Z</time>
      </trkpt>
      <trkpt lat="62.636018825805" lon="17.979272394764">
        <ele>45.2</ele>
        <time>2017-12-20T18:47:54Z</time>
      </trkpt>
      <trkpt lat="62.636014048122" lon="17.979325871286">
        <ele>45</ele>
        <time>2017-12-20T18:47:55Z</time>
      </trkpt>
      <trkpt lat="62.636012371742" lon="17.979392172115">
        <ele>45</ele>
        <time>2017-12-20T18:47:56Z</time>
      </trkpt>
      <trkpt lat="62.636012623199" lon="17.979466854844">
        <ele>44.8</ele>
        <time>2017-12-20T18:47:57Z</time>
      </trkpt>
      <trkpt lat="62.636007677878" lon="17.979583279435">
        <ele>44.6</ele>
        <time>2017-12-20T18:47:58Z</time>
      </trkpt>
      <trkpt lat="62.636000050349" lon="17.979718479482">
        <ele>44.4</ele>
        <time>2017-12-20T18:47:59Z</time>
      </trkpt>
      <trkpt lat="62.636001726729" lon="17.979885698387">
        <ele>43.6</ele>
        <time>2017-12-20T18:48:00Z</time>
      </trkpt>
      <trkpt lat="62.636007761697" lon="17.980048307247">
        <ele>42.4</ele>
        <time>2017-12-20T18:48:01Z</time>
      </trkpt>
      <trkpt lat="62.636016897968" lon="17.98019557723">
        <ele>41.4</ele>
        <time>2017-12-20T18:48:02Z</time>
      </trkpt>
      <trkpt lat="62.636036595433" lon="17.980341925204">
        <ele>40.2</ele>
        <time>2017-12-20T18:48:03Z</time>
      </trkpt>
      <trkpt lat="62.636053107776" lon="17.980482405848">
        <ele>39.2</ele>
        <time>2017-12-20T18:48:04Z</time>
      </trkpt>
      <trkpt lat="62.636067524644" lon="17.980620707198">
        <ele>38.8</ele>
        <time>2017-12-20T18:48:05Z</time>
      </trkpt>
      <trkpt lat="62.636087305928" lon="17.980781723497">
        <ele>38.4</ele>
        <time>2017-12-20T18:48:06Z</time>
      </trkpt>
      <trkpt lat="62.636111864895" lon="17.9809273171">
        <ele>38</ele>
        <time>2017-12-20T18:48:07Z</time>
      </trkpt>
      <trkpt lat="62.636125275935" lon="17.981079616223">
        <ele>37.6</ele>
        <time>2017-12-20T18:48:08Z</time>
      </trkpt>
      <trkpt lat="62.636145476314" lon="17.981214983908">
        <ele>37.4</ele>
        <time>2017-12-20T18:48:09Z</time>
      </trkpt>
      <trkpt lat="62.636159977001" lon="17.98136569047">
        <ele>37.2</ele>
        <time>2017-12-20T18:48:10Z</time>
      </trkpt>
      <trkpt lat="62.636173388041" lon="17.981496196653">
        <ele>37</ele>
        <time>2017-12-20T18:48:11Z</time>
      </trkpt>
      <trkpt lat="62.636190822393" lon="17.98162888213">
        <ele>36.8</ele>
        <time>2017-12-20T18:48:12Z</time>
      </trkpt>
      <trkpt lat="62.636207586193" lon="17.981753604802">
        <ele>36.6</ele>
        <time>2017-12-20T18:48:13Z</time>
      </trkpt>
      <trkpt lat="62.636218315025" lon="17.981865000253">
        <ele>36.6</ele>
        <time>2017-12-20T18:48:14Z</time>
      </trkpt>
      <trkpt lat="62.636229211495" lon="17.981984777604">
        <ele>36.4</ele>
        <time>2017-12-20T18:48:15Z</time>
      </trkpt>
      <trkpt lat="62.636246310571" lon="17.982094664313">
        <ele>36.4</ele>
        <time>2017-12-20T18:48:16Z</time>
      </trkpt>
      <trkpt lat="62.636256787946" lon="17.982199018968">
        <ele>36.2</ele>
        <time>2017-12-20T18:48:17Z</time>
      </trkpt>
      <trkpt lat="62.636257793774" lon="17.982290716954">
        <ele>36.2</ele>
        <time>2017-12-20T18:48:18Z</time>
      </trkpt>
      <trkpt lat="62.636260895077" lon="17.982380990017">
        <ele>36.4</ele>
        <time>2017-12-20T18:48:19Z</time>
      </trkpt>
      <trkpt lat="62.63626148181" lon="17.982456510936">
        <ele>36.6</ele>
        <time>2017-12-20T18:48:20Z</time>
      </trkpt>
      <trkpt lat="62.636262655276" lon="17.98253161276">
        <ele>36.8</ele>
        <time>2017-12-20T18:48:21Z</time>
      </trkpt>
      <trkpt lat="62.636269696072" lon="17.982626579687">
        <ele>37.2</ele>
        <time>2017-12-20T18:48:22Z</time>
      </trkpt>
      <trkpt lat="62.636267516778" lon="17.982704866633">
        <ele>37.6</ele>
        <time>2017-12-20T18:48:23Z</time>
      </trkpt>
      <trkpt lat="62.636263912561" lon="17.982786087244">
        <ele>37.6</ele>
        <time>2017-12-20T18:48:24Z</time>
      </trkpt>
      <trkpt lat="62.636264415475" lon="17.982889771347">
        <ele>37.6</ele>
        <time>2017-12-20T18:48:25Z</time>
      </trkpt>
      <trkpt lat="62.636265840398" lon="17.982967890655">
        <ele>37.4</ele>
        <time>2017-12-20T18:48:26Z</time>
      </trkpt>
      <trkpt lat="62.636268606425" lon="17.983042321927">
        <ele>37.4</ele>
        <time>2017-12-20T18:48:27Z</time>
      </trkpt>
      <trkpt lat="62.636269444615" lon="17.983136450664">
        <ele>37.6</ele>
        <time>2017-12-20T18:48:28Z</time>
      </trkpt>
      <trkpt lat="62.636275479583" lon="17.983221526949">
        <ele>37.6</ele>
        <time>2017-12-20T18:48:29Z</time>
      </trkpt>
      <trkpt lat="62.636281766008" lon="17.983322612663">
        <ele>37.8</ele>
        <time>2017-12-20T18:48:30Z</time>
      </trkpt>
      <trkpt lat="62.636279419076" lon="17.983410119699">
        <ele>37.6</ele>
        <time>2017-12-20T18:48:31Z</time>
      </trkpt>
      <trkpt lat="62.636272043004" lon="17.983495112165">
        <ele>37.8</ele>
        <time>2017-12-20T18:48:32Z</time>
      </trkpt>
      <trkpt lat="62.636250920616" lon="17.983550432705">
        <ele>37.8</ele>
        <time>2017-12-20T18:48:33Z</time>
      </trkpt>
      <trkpt lat="62.636240610879" lon="17.983611788213">
        <ele>37.8</ele>
        <time>2017-12-20T18:48:34Z</time>
      </trkpt>
      <trkpt lat="62.636225523459" lon="17.983679430146">
        <ele>38</ele>
        <time>2017-12-20T18:48:35Z</time>
      </trkpt>
      <trkpt lat="62.636212950609" lon="17.983743467862">
        <ele>38</ele>
        <time>2017-12-20T18:48:36Z</time>
      </trkpt>
      <trkpt lat="62.636207921469" lon="17.983802979352">
        <ele>38.2</ele>
        <time>2017-12-20T18:48:37Z</time>
      </trkpt>
      <trkpt lat="62.636191828221" lon="17.983870956561">
        <ele>38.2</ele>
        <time>2017-12-20T18:48:38Z</time>
      </trkpt>
      <trkpt lat="62.636194007515" lon="17.983929378404">
        <ele>38.4</ele>
        <time>2017-12-20T18:48:39Z</time>
      </trkpt>
      <trkpt lat="62.636185038882" lon="17.983996265966">
        <ele>38.6</ele>
        <time>2017-12-20T18:48:40Z</time>
      </trkpt>
      <trkpt lat="62.636183027226" lon="17.984065835736">
        <ele>38.8</ele>
        <time>2017-12-20T18:48:41Z</time>
      </trkpt>
      <trkpt lat="62.636178584819" lon="17.984113864023">
        <ele>38.8</ele>
        <time>2017-12-20T18:48:42Z</time>
      </trkpt>
      <trkpt lat="62.636169364729" lon="17.984170441848">
        <ele>39</ele>
        <time>2017-12-20T18:48:43Z</time>
      </trkpt>
      <trkpt lat="62.636163329761" lon="17.984205394371">
        <ele>39</ele>
        <time>2017-12-20T18:48:44Z</time>
      </trkpt>
      <trkpt lat="62.636161569562" lon="17.984272868666">
        <ele>39.4</ele>
        <time>2017-12-20T18:48:45Z</time>
      </trkpt>
      <trkpt lat="62.636156372784" lon="17.984334224174">
        <ele>39.4</ele>
        <time>2017-12-20T18:48:46Z</time>
      </trkpt>
      <trkpt lat="62.636165509055" lon="17.984383425927">
        <ele>39.4</ele>
        <time>2017-12-20T18:48:47Z</time>
      </trkpt>
      <trkpt lat="62.636166263426" lon="17.984449978213">
        <ele>39.6</ele>
        <time>2017-12-20T18:48:48Z</time>
      </trkpt>
      <trkpt lat="62.636164587046" lon="17.984505131115">
        <ele>39.6</ele>
        <time>2017-12-20T18:48:49Z</time>
      </trkpt>
      <trkpt lat="62.636161485743" lon="17.984557098895">
        <ele>39.6</ele>
        <time>2017-12-20T18:48:50Z</time>
      </trkpt>
      <trkpt lat="62.636157043336" lon="17.984624489371">
        <ele>39.6</ele>
        <time>2017-12-20T18:48:51Z</time>
      </trkpt>
      <trkpt lat="62.636161401924" lon="17.984686934526">
        <ele>39.6</ele>
        <time>2017-12-20T18:48:52Z</time>
      </trkpt>
      <trkpt lat="62.63616006082" lon="17.984735801003">
        <ele>39.8</ele>
        <time>2017-12-20T18:48:53Z</time>
      </trkpt>
      <trkpt lat="62.636151343644" lon="17.984786930593">
        <ele>39.8</ele>
        <time>2017-12-20T18:48:54Z</time>
      </trkpt>
      <trkpt lat="62.636145224857" lon="17.984832528129">
        <ele>39.8</ele>
        <time>2017-12-20T18:48:55Z</time>
      </trkpt>
      <trkpt lat="62.636148996712" lon="17.984907965229">
        <ele>39.8</ele>
        <time>2017-12-20T18:48:56Z</time>
      </trkpt>
      <trkpt lat="62.636150505454" lon="17.984978624646">
        <ele>40</ele>
        <time>2017-12-20T18:48:57Z</time>
      </trkpt>
      <trkpt lat="62.636138519337" lon="17.985025647105">
        <ele>40</ele>
        <time>2017-12-20T18:48:58Z</time>
      </trkpt>
      <trkpt lat="62.636120246795" lon="17.985083230758">
        <ele>40</ele>
        <time>2017-12-20T18:48:59Z</time>
      </trkpt>
      <trkpt lat="62.636108260678" lon="17.985125307896">
        <ele>40</ele>
        <time>2017-12-20T18:49:00Z</time>
      </trkpt>
      <trkpt lat="62.636110859067" lon="17.985173503821">
        <ele>40</ele>
        <time>2017-12-20T18:49:01Z</time>
      </trkpt>
      <trkpt lat="62.636110439972" lon="17.98522471723">
        <ele>40.2</ele>
        <time>2017-12-20T18:49:02Z</time>
      </trkpt>
      <trkpt lat="62.636101555158" lon="17.985271236775">
        <ele>40.4</ele>
        <time>2017-12-20T18:49:03Z</time>
      </trkpt>
      <trkpt lat="62.636101052244" lon="17.985331502636">
        <ele>40.6</ele>
        <time>2017-12-20T18:49:04Z</time>
      </trkpt>
      <trkpt lat="62.636094011448" lon="17.985377603086">
        <ele>40.6</ele>
        <time>2017-12-20T18:49:05Z</time>
      </trkpt>
      <trkpt lat="62.636090826326" lon="17.985428481219">
        <ele>40.8</ele>
        <time>2017-12-20T18:49:06Z</time>
      </trkpt>
      <trkpt lat="62.636087054471" lon="17.985500146464">
        <ele>40.8</ele>
        <time>2017-12-20T18:49:07Z</time>
      </trkpt>
      <trkpt lat="62.636072134689" lon="17.985568291311">
        <ele>40.8</ele>
        <time>2017-12-20T18:49:08Z</time>
      </trkpt>
      <trkpt lat="62.636062914599" lon="17.985621684014">
        <ele>40.8</ele>
        <time>2017-12-20T18:49:09Z</time>
      </trkpt>
      <trkpt lat="62.636042881858" lon="17.985667197731">
        <ele>41</ele>
        <time>2017-12-20T18:49:10Z</time>
      </trkpt>
      <trkpt lat="62.636028129714" lon="17.985711537982">
        <ele>41</ele>
        <time>2017-12-20T18:49:11Z</time>
      </trkpt>
      <trkpt lat="62.635998625426" lon="17.985765768875">
        <ele>41</ele>
        <time>2017-12-20T18:49:12Z</time>
      </trkpt>
      <trkpt lat="62.635980101427" lon="17.985818491026">
        <ele>41.2</ele>
        <time>2017-12-20T18:49:13Z</time>
      </trkpt>
      <trkpt lat="62.635957805573" lon="17.985849001142">
        <ele>41.2</ele>
        <time>2017-12-20T18:49:14Z</time>
      </trkpt>
      <trkpt lat="62.635930145303" lon="17.985872554281">
        <ele>41.4</ele>
        <time>2017-12-20T18:49:15Z</time>
      </trkpt>
      <trkpt lat="62.63590357468" lon="17.98590281294">
        <ele>41.8</ele>
        <time>2017-12-20T18:49:16Z</time>
      </trkpt>
      <trkpt lat="62.635877171695" lon="17.985932736323">
        <ele>41.8</ele>
        <time>2017-12-20T18:49:17Z</time>
      </trkpt>
      <trkpt lat="62.635848170321" lon="17.985956876195">
        <ele>42</ele>
        <time>2017-12-20T18:49:18Z</time>
      </trkpt>
      <trkpt lat="62.63582143206" lon="17.985988643596">
        <ele>42.2</ele>
        <time>2017-12-20T18:49:19Z</time>
      </trkpt>
      <trkpt lat="62.635800225853" lon="17.986031810381">
        <ele>42.4</ele>
        <time>2017-12-20T18:49:20Z</time>
      </trkpt>
      <trkpt lat="62.635770721565" lon="17.986069193655">
        <ele>42.4</ele>
        <time>2017-12-20T18:49:21Z</time>
      </trkpt>
      <trkpt lat="62.635746078779" lon="17.986109510594">
        <ele>42.4</ele>
        <time>2017-12-20T18:49:22Z</time>
      </trkpt>
      <trkpt lat="62.635727890056" lon="17.986158377071">
        <ele>42.6</ele>
        <time>2017-12-20T18:49:23Z</time>
      </trkpt>
      <trkpt lat="62.635713640826" lon="17.986210177213">
        <ele>42.8</ele>
        <time>2017-12-20T18:49:24Z</time>
      </trkpt>
      <trkpt lat="62.635691931705" lon="17.986242782804">
        <ele>42.8</ele>
        <time>2017-12-20T18:49:25Z</time>
      </trkpt>
      <trkpt lat="62.63567223424" lon="17.98628754215">
        <ele>43</ele>
        <time>2017-12-20T18:49:26Z</time>
      </trkpt>
      <trkpt lat="62.63565714682" lon="17.986333977876">
        <ele>43.2</ele>
        <time>2017-12-20T18:49:27Z</time>
      </trkpt>
      <trkpt lat="62.635630911473" lon="17.986379659231">
        <ele>43.4</ele>
        <time>2017-12-20T18:49:28Z</time>
      </trkpt>
      <trkpt lat="62.635619176813" lon="17.986420059989">
        <ele>43.4</ele>
        <time>2017-12-20T18:49:29Z</time>
      </trkpt>
      <trkpt lat="62.635593947294" lon="17.986463059136">
        <ele>43.6</ele>
        <time>2017-12-20T18:49:30Z</time>
      </trkpt>
      <trkpt lat="62.635582380272" lon="17.986504800998">
        <ele>43.6</ele>
        <time>2017-12-20T18:49:31Z</time>
      </trkpt>
      <trkpt lat="62.63555991678" lon="17.986542184272">
        <ele>43.8</ele>
        <time>2017-12-20T18:49:32Z</time>
      </trkpt>
      <trkpt lat="62.635544661722" lon="17.986568587257">
        <ele>43.6</ele>
        <time>2017-12-20T18:49:33Z</time>
      </trkpt>
      <trkpt lat="62.635533010881" lon="17.986614520069">
        <ele>43.6</ele>
        <time>2017-12-20T18:49:34Z</time>
      </trkpt>
      <trkpt lat="62.635516666176" lon="17.986669505333">
        <ele>43.8</ele>
        <time>2017-12-20T18:49:35Z</time>
      </trkpt>
      <trkpt lat="62.63550627262" lon="17.986711917747">
        <ele>43.8</ele>
        <time>2017-12-20T18:49:36Z</time>
      </trkpt>
      <trkpt lat="62.63549034701" lon="17.986758018197">
        <ele>43.8</ele>
        <time>2017-12-20T18:49:37Z</time>
      </trkpt>
      <trkpt lat="62.635477606522" lon="17.986799005688">
        <ele>43.8</ele>
        <time>2017-12-20T18:49:38Z</time>
      </trkpt>
      <trkpt lat="62.635462519102" lon="17.986839657903">
        <ele>44</ele>
        <time>2017-12-20T18:49:39Z</time>
      </trkpt>
      <trkpt lat="62.635439385058" lon="17.986874610426">
        <ele>44.2</ele>
        <time>2017-12-20T18:49:40Z</time>
      </trkpt>
      <trkpt lat="62.635425219647" lon="17.986911323148">
        <ele>44.4</ele>
        <time>2017-12-20T18:49:41Z</time>
      </trkpt>
      <trkpt lat="62.635405522182" lon="17.986949796069">
        <ele>44.4</ele>
        <time>2017-12-20T18:49:42Z</time>
      </trkpt>
      <trkpt lat="62.63538976421" lon="17.987003021134">
        <ele>44.6</ele>
        <time>2017-12-20T18:49:43Z</time>
      </trkpt>
      <trkpt lat="62.635374257695" lon="17.987044343901">
        <ele>44.8</ele>
        <time>2017-12-20T18:49:44Z</time>
      </trkpt>
      <trkpt lat="62.635354895506" lon="17.98709136636">
        <ele>45.2</ele>
        <time>2017-12-20T18:49:45Z</time>
      </trkpt>
      <trkpt lat="62.635331258548" lon="17.987127995263">
        <ele>45.2</ele>
        <time>2017-12-20T18:49:46Z</time>
      </trkpt>
      <trkpt lat="62.635312566911" lon="17.98715339242">
        <ele>45.4</ele>
        <time>2017-12-20T18:49:47Z</time>
      </trkpt>
      <trkpt lat="62.635290941609" lon="17.987184656907">
        <ele>45.6</ele>
        <time>2017-12-20T18:49:48Z</time>
      </trkpt>
      <trkpt lat="62.635272585248" lon="17.987236121773">
        <ele>45.6</ele>
        <time>2017-12-20T18:49:49Z</time>
      </trkpt>
      <trkpt lat="62.635246852815" lon="17.987278031273">
        <ele>45.6</ele>
        <time>2017-12-20T18:49:50Z</time>
      </trkpt>
      <trkpt lat="62.63522547897" lon="17.987337878039">
        <ele>45.6</ele>
        <time>2017-12-20T18:49:51Z</time>
      </trkpt>
      <trkpt lat="62.635207122609" lon="17.987376267141">
        <ele>45.6</ele>
        <time>2017-12-20T18:49:52Z</time>
      </trkpt>
      <trkpt lat="62.635185832583" lon="17.987422535229">
        <ele>45.8</ele>
        <time>2017-12-20T18:49:53Z</time>
      </trkpt>
      <trkpt lat="62.635170745163" lon="17.987467294575">
        <ele>45.8</ele>
        <time>2017-12-20T18:49:54Z</time>
      </trkpt>
      <trkpt lat="62.635146437653" lon="17.98752554878">
        <ele>46</ele>
        <time>2017-12-20T18:49:55Z</time>
      </trkpt>
      <trkpt lat="62.635125231446" lon="17.987566703909">
        <ele>46</ele>
        <time>2017-12-20T18:49:56Z</time>
      </trkpt>
      <trkpt lat="62.635103773782" lon="17.987607104667">
        <ele>46</ele>
        <time>2017-12-20T18:49:57Z</time>
      </trkpt>
      <trkpt lat="62.635080304462" lon="17.987643314475">
        <ele>46.2</ele>
        <time>2017-12-20T18:49:58Z</time>
      </trkpt>
      <trkpt lat="62.635066390508" lon="17.987683882871">
        <ele>46.4</ele>
        <time>2017-12-20T18:49:59Z</time>
      </trkpt>
      <trkpt lat="62.635039233152" lon="17.987736269746">
        <ele>46.6</ele>
        <time>2017-12-20T18:50:00Z</time>
      </trkpt>
      <trkpt lat="62.63502096061" lon="17.987771222269">
        <ele>46.6</ele>
        <time>2017-12-20T18:50:01Z</time>
      </trkpt>
      <trkpt lat="62.634997575109" lon="17.987802402937">
        <ele>46.8</ele>
        <time>2017-12-20T18:50:02Z</time>
      </trkpt>
      <trkpt lat="62.634980392214" lon="17.987843390428">
        <ele>47</ele>
        <time>2017-12-20T18:50:03Z</time>
      </trkpt>
      <trkpt lat="62.634958850731" lon="17.987868452309">
        <ele>47.2</ele>
        <time>2017-12-20T18:50:04Z</time>
      </trkpt>
      <trkpt lat="62.634936219601" lon="17.987886557213">
        <ele>47.4</ele>
        <time>2017-12-20T18:50:05Z</time>
      </trkpt>
      <trkpt lat="62.634916941231" lon="17.987914720397">
        <ele>47.4</ele>
        <time>2017-12-20T18:50:06Z</time>
      </trkpt>
      <trkpt lat="62.634894980653" lon="17.987943302676">
        <ele>47.6</ele>
        <time>2017-12-20T18:50:07Z</time>
      </trkpt>
      <trkpt lat="62.634879893233" lon="17.987980937407">
        <ele>47.8</ele>
        <time>2017-12-20T18:50:08Z</time>
      </trkpt>
      <trkpt lat="62.634860531044" lon="17.988008010944">
        <ele>47.8</ele>
        <time>2017-12-20T18:50:09Z</time>
      </trkpt>
      <trkpt lat="62.634837983733" lon="17.988035587395">
        <ele>48</ele>
        <time>2017-12-20T18:50:10Z</time>
      </trkpt>
      <trkpt lat="62.634815687879" lon="17.988046567684">
        <ele>48.2</ele>
        <time>2017-12-20T18:50:11Z</time>
      </trkpt>
      <trkpt lat="62.634793392025" lon="17.988050339539">
        <ele>48.2</ele>
        <time>2017-12-20T18:50:12Z</time>
      </trkpt>
      <trkpt lat="62.634778220786" lon="17.98804690296">
        <ele>48.2</ele>
        <time>2017-12-20T18:50:13Z</time>
      </trkpt>
      <trkpt lat="62.634760115882" lon="17.988051764462">
        <ele>48.4</ele>
        <time>2017-12-20T18:50:14Z</time>
      </trkpt>
      <trkpt lat="62.634738825856" lon="17.988040700354">
        <ele>48.6</ele>
        <time>2017-12-20T18:50:15Z</time>
      </trkpt>
      <trkpt lat="62.634713680156" lon="17.988043047286">
        <ele>48.6</ele>
        <time>2017-12-20T18:50:16Z</time>
      </trkpt>
      <trkpt lat="62.634702196953" lon="17.98804606477">
        <ele>48.6</ele>
        <time>2017-12-20T18:50:17Z</time>
      </trkpt>
      <trkpt lat="62.63468233185" lon="17.988055703955">
        <ele>48.8</ele>
        <time>2017-12-20T18:50:18Z</time>
      </trkpt>
      <trkpt lat="62.634660958005" lon="17.988068025348">
        <ele>48.8</ele>
        <time>2017-12-20T18:50:19Z</time>
      </trkpt>
      <trkpt lat="62.634638075418" lon="17.98808797427">
        <ele>48.8</ele>
        <time>2017-12-20T18:50:20Z</time>
      </trkpt>
      <trkpt lat="62.634610750424" lon="17.988093254867">
        <ele>48.8</ele>
        <time>2017-12-20T18:50:21Z</time>
      </trkpt>
      <trkpt lat="62.634591639692" lon="17.988093087229">
        <ele>48.8</ele>
        <time>2017-12-20T18:50:22Z</time>
      </trkpt>
      <trkpt lat="62.634571858408" lon="17.988094093057">
        <ele>49</ele>
        <time>2017-12-20T18:50:23Z</time>
      </trkpt>
      <trkpt lat="62.634539923369" lon="17.988094260695">
        <ele>49.2</ele>
        <time>2017-12-20T18:50:24Z</time>
      </trkpt>
      <trkpt lat="62.634509999986" lon="17.988094763609">
        <ele>49.4</ele>
        <time>2017-12-20T18:50:25Z</time>
      </trkpt>
      <trkpt lat="62.634490721616" lon="17.988106079174">
        <ele>49.6</ele>
        <time>2017-12-20T18:50:26Z</time>
      </trkpt>
      <trkpt lat="62.634470353599" lon="17.988108174649">
        <ele>49.6</ele>
        <time>2017-12-20T18:50:27Z</time>
      </trkpt>
      <trkpt lat="62.634458954215" lon="17.9881189873">
        <ele>49.8</ele>
        <time>2017-12-20T18:50:28Z</time>
      </trkpt>
      <trkpt lat="62.634441268406" lon="17.988134242358">
        <ele>50</ele>
        <time>2017-12-20T18:50:29Z</time>
      </trkpt>
      <trkpt lat="62.634415452154" lon="17.988137008385">
        <ele>50</ele>
        <time>2017-12-20T18:50:30Z</time>
      </trkpt>
      <trkpt lat="62.634381756916" lon="17.98813826567">
        <ele>50</ele>
        <time>2017-12-20T18:50:31Z</time>
      </trkpt>
      <trkpt lat="62.634343367814" lon="17.988141953706">
        <ele>50.2</ele>
        <time>2017-12-20T18:50:32Z</time>
      </trkpt>
      <trkpt lat="62.63432442472" lon="17.988143462448">
        <ele>50.2</ele>
        <time>2017-12-20T18:50:33Z</time>
      </trkpt>
      <trkpt lat="62.634296848269" lon="17.988153939823">
        <ele>50.2</ele>
        <time>2017-12-20T18:50:34Z</time>
      </trkpt>
      <trkpt lat="62.63426407504" lon="17.988139355317">
        <ele>50.4</ele>
        <time>2017-12-20T18:50:35Z</time>
      </trkpt>
      <trkpt lat="62.634229373974" lon="17.988127620657">
        <ele>50.4</ele>
        <time>2017-12-20T18:50:36Z</time>
      </trkpt>
      <trkpt lat="62.634187632112" lon="17.988147988674">
        <ele>50.4</ele>
        <time>2017-12-20T18:50:37Z</time>
      </trkpt>
      <trkpt lat="62.634155026521" lon="17.988128542666">
        <ele>50.4</ele>
        <time>2017-12-20T18:50:38Z</time>
      </trkpt>
      <trkpt lat="62.634131221925" lon="17.988105157165">
        <ele>50.4</ele>
        <time>2017-12-20T18:50:39Z</time>
      </trkpt>
      <trkpt lat="62.634096520859" lon="17.988105827717">
        <ele>50.6</ele>
        <time>2017-12-20T18:50:40Z</time>
      </trkpt>
      <trkpt lat="62.634069531141" lon="17.988104821889">
        <ele>50.6</ele>
        <time>2017-12-20T18:50:41Z</time>
      </trkpt>
      <trkpt lat="62.63404698383" lon="17.988082442216">
        <ele>50.6</ele>
        <time>2017-12-20T18:50:42Z</time>
      </trkpt>
      <trkpt lat="62.634017228085" lon="17.988069869366">
        <ele>50.8</ele>
        <time>2017-12-20T18:50:43Z</time>
      </trkpt>
      <trkpt lat="62.633988729625" lon="17.988053440842">
        <ele>50.8</ele>
        <time>2017-12-20T18:50:44Z</time>
      </trkpt>
      <trkpt lat="62.633963081011" lon="17.98803935925">
        <ele>51</ele>
        <time>2017-12-20T18:50:45Z</time>
      </trkpt>
      <trkpt lat="62.633942042442" lon="17.988025864391">
        <ele>51</ele>
        <time>2017-12-20T18:50:46Z</time>
      </trkpt>
      <trkpt lat="62.633916477647" lon="17.988008597677">
        <ele>51.2</ele>
        <time>2017-12-20T18:50:47Z</time>
      </trkpt>
      <trkpt lat="62.633887811549" lon="17.988005915469">
        <ele>51.2</ele>
        <time>2017-12-20T18:50:48Z</time>
      </trkpt>
      <trkpt lat="62.63385755289" lon="17.987972136412">
        <ele>51.4</ele>
        <time>2017-12-20T18:50:49Z</time>
      </trkpt>
      <trkpt lat="62.633824109109" lon="17.98796308396">
        <ele>51.4</ele>
        <time>2017-12-20T18:50:50Z</time>
      </trkpt>
      <trkpt lat="62.633797454667" lon="17.987918408433">
        <ele>51.6</ele>
        <time>2017-12-20T18:50:51Z</time>
      </trkpt>
      <trkpt lat="62.633763172696" lon="17.987892508362">
        <ele>51.6</ele>
        <time>2017-12-20T18:50:52Z</time>
      </trkpt>
      <trkpt lat="62.633747666181" lon="17.987884377919">
        <ele>51.6</ele>
        <time>2017-12-20T18:50:53Z</time>
      </trkpt>
      <trkpt lat="62.633702739197" lon="17.987842133143">
        <ele>51.8</ele>
        <time>2017-12-20T18:50:54Z</time>
      </trkpt>
      <trkpt lat="62.633682790275" lon="17.987812545036">
        <ele>51.8</ele>
        <time>2017-12-20T18:50:55Z</time>
      </trkpt>
      <trkpt lat="62.633662003163" lon="17.987801816204">
        <ele>52</ele>
        <time>2017-12-20T18:50:56Z</time>
      </trkpt>
      <trkpt lat="62.6336387853" lon="17.987764516749">
        <ele>52.2</ele>
        <time>2017-12-20T18:50:57Z</time>
      </trkpt>
      <trkpt lat="62.633608694279" lon="17.987736185927">
        <ele>52.4</ele>
        <time>2017-12-20T18:50:58Z</time>
      </trkpt>
      <trkpt lat="62.63358597933" lon="17.987705172897">
        <ele>52.6</ele>
        <time>2017-12-20T18:50:59Z</time>
      </trkpt>
      <trkpt lat="62.633556307404" lon="17.987664101587">
        <ele>52.8</ele>
        <time>2017-12-20T18:51:00Z</time>
      </trkpt>
      <trkpt lat="62.633529401505" lon="17.987633759109">
        <ele>53</ele>
        <time>2017-12-20T18:51:01Z</time>
      </trkpt>
      <trkpt lat="62.633498891389" lon="17.987589335039">
        <ele>53.2</ele>
        <time>2017-12-20T18:51:02Z</time>
      </trkpt>
      <trkpt lat="62.633471063481" lon="17.987558573466">
        <ele>53.4</ele>
        <time>2017-12-20T18:51:03Z</time>
      </trkpt>
      <trkpt lat="62.633452204206" lon="17.987530326463">
        <ele>53.4</ele>
        <time>2017-12-20T18:51:04Z</time>
      </trkpt>
      <trkpt lat="62.633435356587" lon="17.987501157451">
        <ele>53.4</ele>
        <time>2017-12-20T18:51:05Z</time>
      </trkpt>
      <trkpt lat="62.633414401837" lon="17.987454470268">
        <ele>53.6</ele>
        <time>2017-12-20T18:51:06Z</time>
      </trkpt>
      <trkpt lat="62.633392692716" lon="17.987409627103">
        <ele>53.8</ele>
        <time>2017-12-20T18:51:07Z</time>
      </trkpt>
      <trkpt lat="62.633373498165" lon="17.987361179721">
        <ele>54</ele>
        <time>2017-12-20T18:51:08Z</time>
      </trkpt>
      <trkpt lat="62.633347765732" lon="17.987301416774">
        <ele>54.2</ele>
        <time>2017-12-20T18:51:09Z</time>
      </trkpt>
      <trkpt lat="62.633322117118" lon="17.987230254443">
        <ele>54.4</ele>
        <time>2017-12-20T18:51:10Z</time>
      </trkpt>
      <trkpt lat="62.633296300866" lon="17.98716596527">
        <ele>54.6</ele>
        <time>2017-12-20T18:51:11Z</time>
      </trkpt>
      <trkpt lat="62.633264030551" lon="17.987067729402">
        <ele>54.6</ele>
        <time>2017-12-20T18:51:12Z</time>
      </trkpt>
      <trkpt lat="62.633235448272" lon="17.986930685337">
        <ele>54.4</ele>
        <time>2017-12-20T18:51:13Z</time>
      </trkpt>
      <trkpt lat="62.633222959241" lon="17.98682230737">
        <ele>54</ele>
        <time>2017-12-20T18:51:14Z</time>
      </trkpt>
      <trkpt lat="62.633224635621" lon="17.986705296046">
        <ele>53.4</ele>
        <time>2017-12-20T18:51:15Z</time>
      </trkpt>
      <trkpt lat="62.633215666988" lon="17.986592475672">
        <ele>52.4</ele>
        <time>2017-12-20T18:51:16Z</time>
      </trkpt>
      <trkpt lat="62.633216505178" lon="17.986503292256">
        <ele>51.6</ele>
        <time>2017-12-20T18:51:17Z</time>
      </trkpt>
      <trkpt lat="62.633225473811" lon="17.98642835807">
        <ele>50.8</ele>
        <time>2017-12-20T18:51:18Z</time>
      </trkpt>
      <trkpt lat="62.633237627566" lon="17.986345125803">
        <ele>50.4</ele>
        <time>2017-12-20T18:51:19Z</time>
      </trkpt>
      <trkpt lat="62.633240225955" lon="17.986217301828">
        <ele>50.2</ele>
        <time>2017-12-20T18:51:20Z</time>
      </trkpt>
      <trkpt lat="62.633247099113" lon="17.986079838668">
        <ele>49.8</ele>
        <time>2017-12-20T18:51:21Z</time>
      </trkpt>
      <trkpt lat="62.633249781321" lon="17.98593634054">
        <ele>49.6</ele>
        <time>2017-12-20T18:51:22Z</time>
      </trkpt>
      <trkpt lat="62.633247434389" lon="17.985794854068">
        <ele>49.2</ele>
        <time>2017-12-20T18:51:23Z</time>
      </trkpt>
      <trkpt lat="62.633249110769" lon="17.98566392879">
        <ele>48.6</ele>
        <time>2017-12-20T18:51:24Z</time>
      </trkpt>
      <trkpt lat="62.633272580089" lon="17.985546749828">
        <ele>48.4</ele>
        <time>2017-12-20T18:51:25Z</time>
      </trkpt>
      <trkpt lat="62.633291523183" lon="17.98540660446">
        <ele>48.2</ele>
        <time>2017-12-20T18:51:26Z</time>
      </trkpt>
      <trkpt lat="62.633312394114" lon="17.985253550966">
        <ele>48</ele>
        <time>2017-12-20T18:51:27Z</time>
      </trkpt>
      <trkpt lat="62.633334019416" lon="17.985091277382">
        <ele>47.6</ele>
        <time>2017-12-20T18:51:28Z</time>
      </trkpt>
      <trkpt lat="62.633358913659" lon="17.984956664068">
        <ele>47.4</ele>
        <time>2017-12-20T18:51:29Z</time>
      </trkpt>
      <trkpt lat="62.633390848698" lon="17.984803610574">
        <ele>46.8</ele>
        <time>2017-12-20T18:51:30Z</time>
      </trkpt>
      <trkpt lat="62.633415994398" lon="17.984675870418">
        <ele>46.2</ele>
        <time>2017-12-20T18:51:31Z</time>
      </trkpt>
      <trkpt lat="62.633440469546" lon="17.984547208253">
        <ele>45.6</ele>
        <time>2017-12-20T18:51:32Z</time>
      </trkpt>
      <trkpt lat="62.633457987717" lon="17.984431873309">
        <ele>45.4</ele>
        <time>2017-12-20T18:51:33Z</time>
      </trkpt>
      <trkpt lat="62.633472153128" lon="17.984332631613">
        <ele>45.2</ele>
        <time>2017-12-20T18:51:34Z</time>
      </trkpt>
      <trkpt lat="62.633486067082" lon="17.984229701881">
        <ele>45</ele>
        <time>2017-12-20T18:51:35Z</time>
      </trkpt>
      <trkpt lat="62.633496712095" lon="17.984107493779">
        <ele>45</ele>
        <time>2017-12-20T18:51:36Z</time>
      </trkpt>
      <trkpt lat="62.633497550285" lon="17.983986794419">
        <ele>45</ele>
        <time>2017-12-20T18:51:37Z</time>
      </trkpt>
      <trkpt lat="62.633479361562" lon="17.983832986554">
        <ele>45.2</ele>
        <time>2017-12-20T18:51:38Z</time>
      </trkpt>
      <trkpt lat="62.63345773626" lon="17.983707425692">
        <ele>45.4</ele>
        <time>2017-12-20T18:51:39Z</time>
      </trkpt>
      <trkpt lat="62.63348036739" lon="17.983629474022">
        <ele>45.8</ele>
        <time>2017-12-20T18:51:40Z</time>
      </trkpt>
      <trkpt lat="62.633494365163" lon="17.983536351113">
        <ele>46.2</ele>
        <time>2017-12-20T18:51:41Z</time>
      </trkpt>
      <trkpt lat="62.633509284945" lon="17.983459321452">
        <ele>46.8</ele>
        <time>2017-12-20T18:51:42Z</time>
      </trkpt>
      <trkpt lat="62.633526132564" lon="17.983375502452">
        <ele>47</ele>
        <time>2017-12-20T18:51:43Z</time>
      </trkpt>
      <trkpt lat="62.633541052346" lon="17.98327257272">
        <ele>47.2</ele>
        <time>2017-12-20T18:51:44Z</time>
      </trkpt>
      <trkpt lat="62.633548428418" lon="17.983180958553">
        <ele>47.2</ele>
        <time>2017-12-20T18:51:45Z</time>
      </trkpt>
      <trkpt lat="62.633561588001" lon="17.983108874213">
        <ele>47.2</ele>
        <time>2017-12-20T18:51:46Z</time>
      </trkpt>
      <trkpt lat="62.633568293521" lon="17.9830144102">
        <ele>47.2</ele>
        <time>2017-12-20T18:51:47Z</time>
      </trkpt>
      <trkpt lat="62.633588577719" lon="17.982942996412">
        <ele>47.2</ele>
        <time>2017-12-20T18:51:48Z</time>
      </trkpt>
      <trkpt lat="62.633603162225" lon="17.982863200724">
        <ele>47.2</ele>
        <time>2017-12-20T18:51:49Z</time>
      </trkpt>
      <trkpt lat="62.633629649029" lon="17.982787763624">
        <ele>47</ele>
        <time>2017-12-20T18:51:50Z</time>
      </trkpt>
      <trkpt lat="62.633649514132" lon="17.982711991248">
        <ele>47</ele>
        <time>2017-12-20T18:51:51Z</time>
      </trkpt>
      <trkpt lat="62.633664182457" lon="17.982622388737">
        <ele>47</ele>
        <time>2017-12-20T18:51:52Z</time>
      </trkpt>
      <trkpt lat="62.633674324556" lon="17.982549717664">
        <ele>47</ele>
        <time>2017-12-20T18:51:53Z</time>
      </trkpt>
      <trkpt lat="62.633675917117" lon="17.982475202573">
        <ele>47</ele>
        <time>2017-12-20T18:51:54Z</time>
      </trkpt>
      <trkpt lat="62.633676000936" lon="17.982359699991">
        <ele>47</ele>
        <time>2017-12-20T18:51:55Z</time>
      </trkpt>
      <trkpt lat="62.633683879922" lon="17.982290716954">
        <ele>47</ele>
        <time>2017-12-20T18:51:56Z</time>
      </trkpt>
      <trkpt lat="62.633692094184" lon="17.982200024796">
        <ele>47.2</ele>
        <time>2017-12-20T18:51:57Z</time>
      </trkpt>
      <trkpt lat="62.633696452772" lon="17.982140010392">
        <ele>47</ele>
        <time>2017-12-20T18:51:58Z</time>
      </trkpt>
      <trkpt lat="62.63369410584" lon="17.982082678196">
        <ele>47</ele>
        <time>2017-12-20T18:51:59Z</time>
      </trkpt>
      <trkpt lat="62.633704667034" lon="17.982004307431">
        <ele>47.2</ele>
        <time>2017-12-20T18:52:00Z</time>
      </trkpt>
      <trkpt lat="62.63373601534" lon="17.981937587507">
        <ele>47.2</ele>
        <time>2017-12-20T18:52:01Z</time>
      </trkpt>
      <trkpt lat="62.63374272086" lon="17.98190045569">
        <ele>47.2</ele>
        <time>2017-12-20T18:52:02Z</time>
      </trkpt>
      <trkpt lat="62.633746492715" lon="17.981816971966">
        <ele>47.2</ele>
        <time>2017-12-20T18:52:03Z</time>
      </trkpt>
      <trkpt lat="62.633746492715" lon="17.981724687247">
        <ele>47.2</ele>
        <time>2017-12-20T18:52:04Z</time>
      </trkpt>
      <trkpt lat="62.633756886271" lon="17.981663331739">
        <ele>47.4</ele>
        <time>2017-12-20T18:52:05Z</time>
      </trkpt>
      <trkpt lat="62.633760658126" lon="17.981579512739">
        <ele>47.4</ele>
        <time>2017-12-20T18:52:06Z</time>
      </trkpt>
      <trkpt lat="62.633763843248" lon="17.981507931313">
        <ele>47.2</ele>
        <time>2017-12-20T18:52:07Z</time>
      </trkpt>
      <trkpt lat="62.633776080822" lon="17.981413132024">
        <ele>47.4</ele>
        <time>2017-12-20T18:52:08Z</time>
      </trkpt>
      <trkpt lat="62.633782199609" lon="17.981339538942">
        <ele>47.4</ele>
        <time>2017-12-20T18:52:09Z</time>
      </trkpt>
      <trkpt lat="62.633793347536" lon="17.981287906438">
        <ele>47.4</ele>
        <time>2017-12-20T18:52:10Z</time>
      </trkpt>
      <trkpt lat="62.633809356965" lon="17.981246080757">
        <ele>47.6</ele>
        <time>2017-12-20T18:52:11Z</time>
      </trkpt>
      <trkpt lat="62.633841124366" lon="17.981204841809">
        <ele>47.6</ele>
        <time>2017-12-20T18:52:12Z</time>
      </trkpt>
      <trkpt lat="62.633856966157" lon="17.981152538753">
        <ele>47.8</ele>
        <time>2017-12-20T18:52:13Z</time>
      </trkpt>
      <trkpt lat="62.633862749668" lon="17.981095206557">
        <ele>47.8</ele>
        <time>2017-12-20T18:52:14Z</time>
      </trkpt>
      <trkpt lat="62.63387096393" lon="17.98105220741">
        <ele>47.8</ele>
        <time>2017-12-20T18:52:15Z</time>
      </trkpt>
      <trkpt lat="62.633885967531" lon="17.981004011485">
        <ele>47.8</ele>
        <time>2017-12-20T18:52:16Z</time>
      </trkpt>
      <trkpt lat="62.633919914226" lon="17.980956989026">
        <ele>48</ele>
        <time>2017-12-20T18:52:17Z</time>
      </trkpt>
      <trkpt lat="62.633957632776" lon="17.98089714226">
        <ele>48.2</ele>
        <time>2017-12-20T18:52:18Z</time>
      </trkpt>
      <trkpt lat="62.633970624721" lon="17.98085271819">
        <ele>48.2</ele>
        <time>2017-12-20T18:52:19Z</time>
      </trkpt>
      <trkpt lat="62.6339908251" lon="17.980803013523">
        <ele>48.2</ele>
        <time>2017-12-20T18:52:20Z</time>
      </trkpt>
      <trkpt lat="62.634012031307" lon="17.980751548657">
        <ele>48.4</ele>
        <time>2017-12-20T18:52:21Z</time>
      </trkpt>
      <trkpt lat="62.634028040736" lon="17.980679967231">
        <ele>48.4</ele>
        <time>2017-12-20T18:52:22Z</time>
      </trkpt>
      <trkpt lat="62.63404614564" lon="17.980632190401">
        <ele>48.4</ele>
        <time>2017-12-20T18:52:23Z</time>
      </trkpt>
      <trkpt lat="62.634059808137" lon="17.980578127146">
        <ele>48.4</ele>
        <time>2017-12-20T18:52:24Z</time>
      </trkpt>
      <trkpt lat="62.634080008516" lon="17.980503612055">
        <ele>48.6</ele>
        <time>2017-12-20T18:52:25Z</time>
      </trkpt>
      <trkpt lat="62.634117056514" lon="17.980422559082">
        <ele>48.4</ele>
        <time>2017-12-20T18:52:26Z</time>
      </trkpt>
      <trkpt lat="62.634135161418" lon="17.980372686777">
        <ele>48.8</ele>
        <time>2017-12-20T18:52:27Z</time>
      </trkpt>
      <trkpt lat="62.634162067317" lon="17.980312169459">
        <ele>48.8</ele>
        <time>2017-12-20T18:52:28Z</time>
      </trkpt>
      <trkpt lat="62.634171790321" lon="17.980278641859">
        <ele>48.6</ele>
        <time>2017-12-20T18:52:29Z</time>
      </trkpt>
      <trkpt lat="62.634199282953" lon="17.980225919708">
        <ele>48.8</ele>
        <time>2017-12-20T18:52:30Z</time>
      </trkpt>
      <trkpt lat="62.634235828037" lon="17.980189206986">
        <ele>48.8</ele>
        <time>2017-12-20T18:52:31Z</time>
      </trkpt>
      <trkpt lat="62.634265332325" lon="17.980140927242">
        <ele>48.6</ele>
        <time>2017-12-20T18:52:32Z</time>
      </trkpt>
      <trkpt lat="62.634288298731" lon="17.980093653326">
        <ele>48.8</ele>
        <time>2017-12-20T18:52:33Z</time>
      </trkpt>
      <trkpt lat="62.634312773879" lon="17.980037913691">
        <ele>48.8</ele>
        <time>2017-12-20T18:52:34Z</time>
      </trkpt>
      <trkpt lat="62.634333309534" lon="17.979994998363">
        <ele>49</ele>
        <time>2017-12-20T18:52:35Z</time>
      </trkpt>
      <trkpt lat="62.63435543775" lon="17.979947389171">
        <ele>49</ele>
        <time>2017-12-20T18:52:36Z</time>
      </trkpt>
      <trkpt lat="62.634384020029" lon="17.97986197761">
        <ele>48.8</ele>
        <time>2017-12-20T18:52:37Z</time>
      </trkpt>
      <trkpt lat="62.634392485748" lon="17.979765082846">
        <ele>49</ele>
        <time>2017-12-20T18:52:38Z</time>
      </trkpt>
      <trkpt lat="62.63440321458" lon="17.979695513076">
        <ele>48.8</ele>
        <time>2017-12-20T18:52:39Z</time>
      </trkpt>
      <trkpt lat="62.634411177385" lon="17.979618315777">
        <ele>48.8</ele>
        <time>2017-12-20T18:52:40Z</time>
      </trkpt>
      <trkpt lat="62.634422157674" lon="17.979533910044">
        <ele>48.8</ele>
        <time>2017-12-20T18:52:41Z</time>
      </trkpt>
      <trkpt lat="62.634431126307" lon="17.979452270338">
        <ele>48.8</ele>
        <time>2017-12-20T18:52:42Z</time>
      </trkpt>
      <trkpt lat="62.634444621166" lon="17.979376917057">
        <ele>48.8</ele>
        <time>2017-12-20T18:52:43Z</time>
      </trkpt>
      <trkpt lat="62.634455098541" lon="17.979310700047">
        <ele>48.8</ele>
        <time>2017-12-20T18:52:44Z</time>
      </trkpt>
      <trkpt lat="62.634467587572" lon="17.979261330656">
        <ele>48.8</ele>
        <time>2017-12-20T18:52:45Z</time>
      </trkpt>
      <trkpt lat="62.634485189562" lon="17.979198466406">
        <ele>48.8</ele>
        <time>2017-12-20T18:52:46Z</time>
      </trkpt>
      <trkpt lat="62.634493236186" lon="17.979123029306">
        <ele>48.6</ele>
        <time>2017-12-20T18:52:47Z</time>
      </trkpt>
      <trkpt lat="62.634504803208" lon="17.979047676025">
        <ele>48.6</ele>
        <time>2017-12-20T18:52:48Z</time>
      </trkpt>
      <trkpt lat="62.63453313403" lon="17.978928569226">
        <ele>48.6</ele>
        <time>2017-12-20T18:52:50Z</time>
      </trkpt>
      <trkpt lat="62.634560626662" lon="17.978893281427">
        <ele>48.4</ele>
        <time>2017-12-20T18:52:51Z</time>
      </trkpt>
      <trkpt lat="62.634587113466" lon="17.978863106587">
        <ele>48.4</ele>
        <time>2017-12-20T18:52:52Z</time>
      </trkpt>
      <trkpt lat="62.634607397664" lon="17.978840056362">
        <ele>48.4</ele>
        <time>2017-12-20T18:52:53Z</time>
      </trkpt>
      <trkpt lat="62.634632543364" lon="17.97882262201">
        <ele>48.4</ele>
        <time>2017-12-20T18:52:54Z</time>
      </trkpt>
      <trkpt lat="62.634659281625" lon="17.978821532363">
        <ele>48.4</ele>
        <time>2017-12-20T18:52:55Z</time>
      </trkpt>
      <trkpt lat="62.634689624103" lon="17.978838966715">
        <ele>48.6</ele>
        <time>2017-12-20T18:52:56Z</time>
      </trkpt>
      <trkpt lat="62.634721140047" lon="17.978853132126">
        <ele>48.6</ele>
        <time>2017-12-20T18:52:57Z</time>
      </trkpt>
      <trkpt lat="62.634754583828" lon="17.978872410496">
        <ele>48.6</ele>
        <time>2017-12-20T18:52:58Z</time>
      </trkpt>
      <trkpt lat="62.634783082288" lon="17.978887833192">
        <ele>48.6</ele>
        <time>2017-12-20T18:52:59Z</time>
      </trkpt>
      <trkpt lat="62.634823399227" lon="17.978904345535">
        <ele>48.4</ele>
        <time>2017-12-20T18:53:00Z</time>
      </trkpt>
      <trkpt lat="62.634861285415" lon="17.978919349136">
        <ele>48.4</ele>
        <time>2017-12-20T18:53:01Z</time>
      </trkpt>
      <trkpt lat="62.634900345069" lon="17.978932843995">
        <ele>48.2</ele>
        <time>2017-12-20T18:53:02Z</time>
      </trkpt>
      <trkpt lat="62.634940326732" lon="17.978948434329">
        <ele>48.2</ele>
        <time>2017-12-20T18:53:03Z</time>
      </trkpt>
      <trkpt lat="62.634972680866" lon="17.978969556717">
        <ele>48</ele>
        <time>2017-12-20T18:53:04Z</time>
      </trkpt>
      <trkpt lat="62.634997575109" lon="17.978975004952">
        <ele>48</ele>
        <time>2017-12-20T18:53:05Z</time>
      </trkpt>
      <trkpt lat="62.635030767433" lon="17.978990595286">
        <ele>47.8</ele>
        <time>2017-12-20T18:53:06Z</time>
      </trkpt>
      <trkpt lat="62.635055074943" lon="17.979002413765">
        <ele>47.8</ele>
        <time>2017-12-20T18:53:07Z</time>
      </trkpt>
      <trkpt lat="62.635085920335" lon="17.9790162439">
        <ele>47.6</ele>
        <time>2017-12-20T18:53:08Z</time>
      </trkpt>
      <trkpt lat="62.63511567608" lon="17.979037282469">
        <ele>47.4</ele>
        <time>2017-12-20T18:53:09Z</time>
      </trkpt>
      <trkpt lat="62.63515255644" lon="17.979052202251">
        <ele>47</ele>
        <time>2017-12-20T18:53:10Z</time>
      </trkpt>
      <trkpt lat="62.635187592782" lon="17.979062511988">
        <ele>46.8</ele>
        <time>2017-12-20T18:53:11Z</time>
      </trkpt>
      <trkpt lat="62.635227239169" lon="17.979071648259">
        <ele>46.4</ele>
        <time>2017-12-20T18:53:12Z</time>
      </trkpt>
      <trkpt lat="62.635263868072" lon="17.979079694883">
        <ele>46</ele>
        <time>2017-12-20T18:53:13Z</time>
      </trkpt>
      <trkpt lat="62.635297228034" lon="17.979079862521">
        <ele>45.8</ele>
        <time>2017-12-20T18:53:14Z</time>
      </trkpt>
      <trkpt lat="62.635334192213" lon="17.979086065127">
        <ele>45.6</ele>
        <time>2017-12-20T18:53:15Z</time>
      </trkpt>
      <trkpt lat="62.6353738386" lon="17.97908916643">
        <ele>45.4</ele>
        <time>2017-12-20T18:53:16Z</time>
      </trkpt>
      <trkpt lat="62.635418178851" lon="17.979095117579">
        <ele>45.4</ele>
        <time>2017-12-20T18:53:17Z</time>
      </trkpt>
      <trkpt lat="62.635456400315" lon="17.979108360981">
        <ele>45.2</ele>
        <time>2017-12-20T18:53:18Z</time>
      </trkpt>
      <trkpt lat="62.635482635662" lon="17.979102912746">
        <ele>45.2</ele>
        <time>2017-12-20T18:53:19Z</time>
      </trkpt>
      <trkpt lat="62.635521946773" lon="17.979099392348">
        <ele>45</ele>
        <time>2017-12-20T18:53:20Z</time>
      </trkpt>
      <trkpt lat="62.63556746049" lon="17.979090591353">
        <ele>45</ele>
        <time>2017-12-20T18:53:21Z</time>
      </trkpt>
      <trkpt lat="62.635606184868" lon="17.979094447027">
        <ele>44.8</ele>
        <time>2017-12-20T18:53:22Z</time>
      </trkpt>
      <trkpt lat="62.635628145446" lon="17.979109869723">
        <ele>44.6</ele>
        <time>2017-12-20T18:53:23Z</time>
      </trkpt>
      <trkpt lat="62.635672737154" lon="17.979097799787">
        <ele>44.4</ele>
        <time>2017-12-20T18:53:24Z</time>
      </trkpt>
      <trkpt lat="62.63571330555" lon="17.979086316584">
        <ele>44.2</ele>
        <time>2017-12-20T18:53:25Z</time>
      </trkpt>
      <trkpt lat="62.635755801783" lon="17.979082125634">
        <ele>43.8</ele>
        <time>2017-12-20T18:53:26Z</time>
      </trkpt>
      <trkpt lat="62.635797376007" lon="17.979082712367">
        <ele>43.6</ele>
        <time>2017-12-20T18:53:27Z</time>
      </trkpt>
      <trkpt lat="62.635837525308" lon="17.97908665186">
        <ele>43.4</ele>
        <time>2017-12-20T18:53:28Z</time>
      </trkpt>
      <trkpt lat="62.635869711804" lon="17.979103667117">
        <ele>43.6</ele>
        <time>2017-12-20T18:53:29Z</time>
      </trkpt>
      <trkpt lat="62.635899635187" lon="17.979104002393">
        <ele>43.8</ele>
        <time>2017-12-20T18:53:30Z</time>
      </trkpt>
      <trkpt lat="62.635914974064" lon="17.979098889434">
        <ele>44</ele>
        <time>2017-12-20T18:53:31Z</time>
      </trkpt>
      <trkpt lat="62.635936683185" lon="17.979107355153">
        <ele>44</ele>
        <time>2017-12-20T18:53:32Z</time>
      </trkpt>
      <trkpt lat="62.635949339854" lon="17.979110204999">
        <ele>44.2</ele>
        <time>2017-12-20T18:53:33Z</time>
      </trkpt>
      <trkpt lat="62.635965014007" lon="17.979119089813">
        <ele>44.2</ele>
        <time>2017-12-20T18:53:34Z</time>
      </trkpt>
      <trkpt lat="62.63598152635" lon="17.979116742881">
        <ele>44.4</ele>
        <time>2017-12-20T18:53:35Z</time>
      </trkpt>
      <trkpt lat="62.63600751024" lon="17.979127555532">
        <ele>44.4</ele>
        <time>2017-12-20T18:53:36Z</time>
      </trkpt>
      <trkpt lat="62.636023603488" lon="17.979152785051">
        <ele>44.6</ele>
        <time>2017-12-20T18:53:37Z</time>
      </trkpt>
      <trkpt lat="62.636024609316" lon="17.979191928524">
        <ele>44.6</ele>
        <time>2017-12-20T18:53:38Z</time>
      </trkpt>
      <trkpt lat="62.636026453334" lon="17.979228976522">
        <ele>44.8</ele>
        <time>2017-12-20T18:53:39Z</time>
      </trkpt>
      <trkpt lat="62.636016143597" lon="17.979274071144">
        <ele>44.6</ele>
        <time>2017-12-20T18:53:40Z</time>
      </trkpt>
      <trkpt lat="62.636005247127" lon="17.979340288154">
        <ele>44.6</ele>
        <time>2017-12-20T18:53:42Z</time>
      </trkpt>
      <trkpt lat="62.63600331929" lon="17.979393094124">
        <ele>44.6</ele>
        <time>2017-12-20T18:53:43Z</time>
      </trkpt>
      <trkpt lat="62.636009521896" lon="17.979442631153">
        <ele>44.6</ele>
        <time>2017-12-20T18:53:44Z</time>
      </trkpt>
      <trkpt lat="62.636006420593" lon="17.979512536199">
        <ele>44.4</ele>
        <time>2017-12-20T18:53:45Z</time>
      </trkpt>
      <trkpt lat="62.636000553263" lon="17.979592667163">
        <ele>44.2</ele>
        <time>2017-12-20T18:53:46Z</time>
      </trkpt>
      <trkpt lat="62.635990159707" lon="17.979719652948">
        <ele>44.2</ele>
        <time>2017-12-20T18:53:47Z</time>
      </trkpt>
      <trkpt lat="62.635984292377" lon="17.979873460813">
        <ele>43.6</ele>
        <time>2017-12-20T18:53:48Z</time>
      </trkpt>
      <trkpt lat="62.635989824431" lon="17.980026849583">
        <ele>42.6</ele>
        <time>2017-12-20T18:53:49Z</time>
      </trkpt>
      <trkpt lat="62.635995440304" lon="17.980167665503">
        <ele>41.6</ele>
        <time>2017-12-20T18:53:50Z</time>
      </trkpt>
      <trkpt lat="62.636004828032" lon="17.980315103124">
        <ele>40.4</ele>
        <time>2017-12-20T18:53:51Z</time>
      </trkpt>
      <trkpt lat="62.636014970131" lon="17.980444435841">
        <ele>39.6</ele>
        <time>2017-12-20T18:53:52Z</time>
      </trkpt>
      <trkpt lat="62.63604103784" lon="17.980584665028">
        <ele>38.6</ele>
        <time>2017-12-20T18:53:53Z</time>
      </trkpt>
      <trkpt lat="62.636075235992" lon="17.980726067681">
        <ele>38</ele>
        <time>2017-12-20T18:53:54Z</time>
      </trkpt>
      <trkpt lat="62.636104656461" lon="17.980865710135">
        <ele>37.6</ele>
        <time>2017-12-20T18:53:55Z</time>
      </trkpt>
      <trkpt lat="62.63612904779" lon="17.9809943723">
        <ele>37.2</ele>
        <time>2017-12-20T18:53:56Z</time>
      </trkpt>
      <trkpt lat="62.63614413521" lon="17.981140887912">
        <ele>37</ele>
        <time>2017-12-20T18:53:57Z</time>
      </trkpt>
      <trkpt lat="62.636160563734" lon="17.981288828447">
        <ele>36.6</ele>
        <time>2017-12-20T18:53:58Z</time>
      </trkpt>
      <trkpt lat="62.636186296167" lon="17.981402822287">
        <ele>36.4</ele>
        <time>2017-12-20T18:53:59Z</time>
      </trkpt>
      <trkpt lat="62.636200377759" lon="17.981529472796">
        <ele>36.2</ele>
        <time>2017-12-20T18:54:00Z</time>
      </trkpt>
      <trkpt lat="62.63621621955" lon="17.981660146617">
        <ele>36</ele>
        <time>2017-12-20T18:54:01Z</time>
      </trkpt>
      <trkpt lat="62.636232480436" lon="17.981792748275">
        <ele>36</ele>
        <time>2017-12-20T18:54:02Z</time>
      </trkpt>
      <trkpt lat="62.636247567856" lon="17.981907664124">
        <ele>35.8</ele>
        <time>2017-12-20T18:54:03Z</time>
      </trkpt>
      <trkpt lat="62.636255195385" lon="17.981981005749">
        <ele>35.8</ele>
        <time>2017-12-20T18:54:04Z</time>
      </trkpt>
      <trkpt lat="62.636262990552" lon="17.982106482792">
        <ele>35.8</ele>
        <time>2017-12-20T18:54:05Z</time>
      </trkpt>
      <trkpt lat="62.636266091855" lon="17.982220895727">
        <ele>35.8</ele>
        <time>2017-12-20T18:54:06Z</time>
      </trkpt>
      <trkpt lat="62.636267935873" lon="17.982367830434">
        <ele>35.8</ele>
        <time>2017-12-20T18:54:07Z</time>
      </trkpt>
      <trkpt lat="62.636261649448" lon="17.982488445975">
        <ele>35.8</ele>
        <time>2017-12-20T18:54:08Z</time>
      </trkpt>
      <trkpt lat="62.636254189557" lon="17.982600679616">
        <ele>36.2</ele>
        <time>2017-12-20T18:54:09Z</time>
      </trkpt>
      <trkpt lat="62.636251004435" lon="17.982672261042">
        <ele>36.4</ele>
        <time>2017-12-20T18:54:10Z</time>
      </trkpt>
      <trkpt lat="62.636250417702" lon="17.982763372295">
        <ele>36.8</ele>
        <time>2017-12-20T18:54:11Z</time>
      </trkpt>
      <trkpt lat="62.636255446842" lon="17.982887172958">
        <ele>37.2</ele>
        <time>2017-12-20T18:54:12Z</time>
      </trkpt>
      <trkpt lat="62.636261230353" lon="17.982968645026">
        <ele>37.4</ele>
        <time>2017-12-20T18:54:13Z</time>
      </trkpt>
      <trkpt lat="62.636261817086" lon="17.983067635265">
        <ele>37.4</ele>
        <time>2017-12-20T18:54:14Z</time>
      </trkpt>
      <trkpt lat="62.636256704127" lon="17.983135696293">
        <ele>37.4</ele>
        <time>2017-12-20T18:54:15Z</time>
      </trkpt>
      <trkpt lat="62.636260140706" lon="17.983220940216">
        <ele>37.4</ele>
        <time>2017-12-20T18:54:16Z</time>
      </trkpt>
      <trkpt lat="62.636259973068" lon="17.983320768645">
        <ele>37.6</ele>
        <time>2017-12-20T18:54:17Z</time>
      </trkpt>
      <trkpt lat="62.636251172073" lon="17.983396373383">
        <ele>37.4</ele>
        <time>2017-12-20T18:54:18Z</time>
      </trkpt>
      <trkpt lat="62.63625729086" lon="17.983456639244">
        <ele>37.6</ele>
        <time>2017-12-20T18:54:19Z</time>
      </trkpt>
      <trkpt lat="62.636249160417" lon="17.983526292833">
        <ele>37.6</ele>
        <time>2017-12-20T18:54:20Z</time>
      </trkpt>
      <trkpt lat="62.636231809884" lon="17.983592258386">
        <ele>37.6</ele>
        <time>2017-12-20T18:54:21Z</time>
      </trkpt>
      <trkpt lat="62.636228960038" lon="17.983647914202">
        <ele>37.6</ele>
        <time>2017-12-20T18:54:22Z</time>
      </trkpt>
      <trkpt lat="62.636222254518" lon="17.983717483972">
        <ele>37.6</ele>
        <time>2017-12-20T18:54:23Z</time>
      </trkpt>
      <trkpt lat="62.63621789593" lon="17.983788478665">
        <ele>37.8</ele>
        <time>2017-12-20T18:54:24Z</time>
      </trkpt>
      <trkpt lat="62.636200461578" lon="17.983849750354">
        <ele>38</ele>
        <time>2017-12-20T18:54:25Z</time>
      </trkpt>
      <trkpt lat="62.636193504601" lon="17.983920912685">
        <ele>38.2</ele>
        <time>2017-12-20T18:54:26Z</time>
      </trkpt>
      <trkpt lat="62.636186379986" lon="17.984001295106">
        <ele>38.2</ele>
        <time>2017-12-20T18:54:27Z</time>
      </trkpt>
      <trkpt lat="62.636176154068" lon="17.984056531827">
        <ele>38.4</ele>
        <time>2017-12-20T18:54:28Z</time>
      </trkpt>
      <trkpt lat="62.636175483516" lon="17.984110175987">
        <ele>38.4</ele>
        <time>2017-12-20T18:54:29Z</time>
      </trkpt>
      <trkpt lat="62.636172214575" lon="17.984187205648">
        <ele>38.6</ele>
        <time>2017-12-20T18:54:30Z</time>
      </trkpt>
      <trkpt lat="62.636163245942" lon="17.984264067671">
        <ele>38.8</ele>
        <time>2017-12-20T18:54:31Z</time>
      </trkpt>
      <trkpt lat="62.636167436892" lon="17.984320142582">
        <ele>38.8</ele>
        <time>2017-12-20T18:54:32Z</time>
      </trkpt>
      <trkpt lat="62.636163665037" lon="17.984397507519">
        <ele>38.8</ele>
        <time>2017-12-20T18:54:33Z</time>
      </trkpt>
      <trkpt lat="62.636155283137" lon="17.98447118442">
        <ele>39</ele>
        <time>2017-12-20T18:54:34Z</time>
      </trkpt>
      <trkpt lat="62.636147236513" lon="17.984524158028">
        <ele>39.2</ele>
        <time>2017-12-20T18:54:35Z</time>
      </trkpt>
      <trkpt lat="62.636140279536" lon="17.984611581245">
        <ele>39.2</ele>
        <time>2017-12-20T18:54:36Z</time>
      </trkpt>
      <trkpt lat="62.636133825473" lon="17.984707302543">
        <ele>39.4</ele>
        <time>2017-12-20T18:54:37Z</time>
      </trkpt>
      <trkpt lat="62.636133741654" lon="17.984769496241">
        <ele>39.4</ele>
        <time>2017-12-20T18:54:38Z</time>
      </trkpt>
      <trkpt lat="62.636130975627" lon="17.984809058809">
        <ele>39.4</ele>
        <time>2017-12-20T18:54:39Z</time>
      </trkpt>
      <trkpt lat="62.636122509908" lon="17.984884915004">
        <ele>39.6</ele>
        <time>2017-12-20T18:54:40Z</time>
      </trkpt>
      <trkpt lat="62.636117564587" lon="17.984956999344">
        <ele>39.6</ele>
        <time>2017-12-20T18:54:41Z</time>
      </trkpt>
      <trkpt lat="62.636119743881" lon="17.985010559685">
        <ele>39.6</ele>
        <time>2017-12-20T18:54:42Z</time>
      </trkpt>
      <trkpt lat="62.636112619266" lon="17.985082141111">
        <ele>39.8</ele>
        <time>2017-12-20T18:54:43Z</time>
      </trkpt>
      <trkpt lat="62.636097615665" lon="17.985145256818">
        <ele>40</ele>
        <time>2017-12-20T18:54:44Z</time>
      </trkpt>
      <trkpt lat="62.636088730851" lon="17.985207534335">
        <ele>40.2</ele>
        <time>2017-12-20T18:54:45Z</time>
      </trkpt>
      <trkpt lat="62.636082612064" lon="17.985283725806">
        <ele>40.4</ele>
        <time>2017-12-20T18:54:46Z</time>
      </trkpt>
      <trkpt lat="62.636075068354" lon="17.985330496808">
        <ele>40.4</ele>
        <time>2017-12-20T18:54:47Z</time>
      </trkpt>
      <trkpt lat="62.636079762218" lon="17.985400653311">
        <ele>40.4</ele>
        <time>2017-12-20T18:54:48Z</time>
      </trkpt>
      <trkpt lat="62.636069871576" lon="17.985466451226">
        <ele>40.6</ele>
        <time>2017-12-20T18:54:49Z</time>
      </trkpt>
      <trkpt lat="62.636064423341" lon="17.98552730382">
        <ele>40.6</ele>
        <time>2017-12-20T18:54:50Z</time>
      </trkpt>
      <trkpt lat="62.636057214907" lon="17.985599555798">
        <ele>40.4</ele>
        <time>2017-12-20T18:54:51Z</time>
      </trkpt>
      <trkpt lat="62.636037433623" lon="17.985668455016">
        <ele>40.6</ele>
        <time>2017-12-20T18:54:52Z</time>
      </trkpt>
      <trkpt lat="62.636026369515" lon="17.985725703393">
        <ele>40.6</ele>
        <time>2017-12-20T18:54:53Z</time>
      </trkpt>
      <trkpt lat="62.63601002481" lon="17.98578965729">
        <ele>40.8</ele>
        <time>2017-12-20T18:54:54Z</time>
      </trkpt>
      <trkpt lat="62.635987142223" lon="17.985836847387">
        <ele>41</ele>
        <time>2017-12-20T18:54:55Z</time>
      </trkpt>
      <trkpt lat="62.635964259636" lon="17.985881774371">
        <ele>41.2</ele>
        <time>2017-12-20T18:54:56Z</time>
      </trkpt>
      <trkpt lat="62.635936850823" lon="17.985923516233">
        <ele>41.4</ele>
        <time>2017-12-20T18:54:57Z</time>
      </trkpt>
      <trkpt lat="62.635908017087" lon="17.985958720213">
        <ele>41.6</ele>
        <time>2017-12-20T18:54:58Z</time>
      </trkpt>
      <trkpt lat="62.635881614102" lon="17.985975064918">
        <ele>41.6</ele>
        <time>2017-12-20T18:54:59Z</time>
      </trkpt>
      <trkpt lat="62.635853450918" lon="17.98600926307">
        <ele>41.8</ele>
        <time>2017-12-20T18:55:00Z</time>
      </trkpt>
      <trkpt lat="62.635825287734" lon="17.986052597493">
        <ele>42</ele>
        <time>2017-12-20T18:55:01Z</time>
      </trkpt>
      <trkpt lat="62.635800980224" lon="17.986090148405">
        <ele>42</ele>
        <time>2017-12-20T18:55:02Z</time>
      </trkpt>
      <trkpt lat="62.635781534216" lon="17.98612074234">
        <ele>42</ele>
        <time>2017-12-20T18:55:03Z</time>
      </trkpt>
      <trkpt lat="62.635750102091" lon="17.986148737886">
        <ele>42.2</ele>
        <time>2017-12-20T18:55:04Z</time>
      </trkpt>
      <trkpt lat="62.635725710762" lon="17.986193245775">
        <ele>42.4</ele>
        <time>2017-12-20T18:55:05Z</time>
      </trkpt>
      <trkpt lat="62.635706264754" lon="17.986236747836">
        <ele>42.4</ele>
        <time>2017-12-20T18:55:06Z</time>
      </trkpt>
      <trkpt lat="62.635688914221" lon="17.986281842458">
        <ele>42.6</ele>
        <time>2017-12-20T18:55:07Z</time>
      </trkpt>
      <trkpt lat="62.635672820973" lon="17.986325093062">
        <ele>42.6</ele>
        <time>2017-12-20T18:55:08Z</time>
      </trkpt>
      <trkpt lat="62.635658320286" lon="17.986378737222">
        <ele>42.8</ele>
        <time>2017-12-20T18:55:09Z</time>
      </trkpt>
      <trkpt lat="62.635645160703" lon="17.986408995881">
        <ele>43</ele>
        <time>2017-12-20T18:55:10Z</time>
      </trkpt>
      <trkpt lat="62.635629318912" lon="17.986469094104">
        <ele>43</ele>
        <time>2017-12-20T18:55:11Z</time>
      </trkpt>
      <trkpt lat="62.635620350279" lon="17.986518212038">
        <ele>43</ele>
        <time>2017-12-20T18:55:12Z</time>
      </trkpt>
      <trkpt lat="62.635587241774" lon="17.986556098226">
        <ele>43.2</ele>
        <time>2017-12-20T18:55:13Z</time>
      </trkpt>
      <trkpt lat="62.635579362788" lon="17.986570431275">
        <ele>43.2</ele>
        <time>2017-12-20T18:55:14Z</time>
      </trkpt>
      <trkpt lat="62.635560168237" lon="17.986611837861">
        <ele>43.4</ele>
        <time>2017-12-20T18:55:15Z</time>
      </trkpt>
      <trkpt lat="62.635542985342" lon="17.986663805641">
        <ele>43.6</ele>
        <time>2017-12-20T18:55:16Z</time>
      </trkpt>
      <trkpt lat="62.635524964257" lon="17.986702865295">
        <ele>43.6</ele>
        <time>2017-12-20T18:55:17Z</time>
      </trkpt>
      <trkpt lat="62.635509960656" lon="17.986735638524">
        <ele>43.8</ele>
        <time>2017-12-20T18:55:18Z</time>
      </trkpt>
      <trkpt lat="62.635494286503" lon="17.986776877472">
        <ele>44</ele>
        <time>2017-12-20T18:55:19Z</time>
      </trkpt>
      <trkpt lat="62.635483557671" lon="17.986830605451">
        <ele>44</ele>
        <time>2017-12-20T18:55:20Z</time>
      </trkpt>
      <trkpt lat="62.635467129147" lon="17.986874526607">
        <ele>44.4</ele>
        <time>2017-12-20T18:55:21Z</time>
      </trkpt>
      <trkpt lat="62.635450281528" lon="17.986912245157">
        <ele>44.6</ele>
        <time>2017-12-20T18:55:22Z</time>
      </trkpt>
      <trkpt lat="62.635437121945" lon="17.986958597064">
        <ele>44.6</ele>
        <time>2017-12-20T18:55:23Z</time>
      </trkpt>
      <trkpt lat="62.635410383684" lon="17.987017773278">
        <ele>44.6</ele>
        <time>2017-12-20T18:55:24Z</time>
      </trkpt>
      <trkpt lat="62.635393200789" lon="17.98705700057">
        <ele>44.6</ele>
        <time>2017-12-20T18:55:25Z</time>
      </trkpt>
      <trkpt lat="62.63537802955" lon="17.987086001944">
        <ele>44.6</ele>
        <time>2017-12-20T18:55:26Z</time>
      </trkpt>
      <trkpt lat="62.635355649877" lon="17.987129420186">
        <ele>44.6</ele>
        <time>2017-12-20T18:55:27Z</time>
      </trkpt>
      <trkpt lat="62.635334024575" lon="17.987192954988">
        <ele>45</ele>
        <time>2017-12-20T18:55:28Z</time>
      </trkpt>
      <trkpt lat="62.635318182784" lon="17.987247521157">
        <ele>45.2</ele>
        <time>2017-12-20T18:55:29Z</time>
      </trkpt>
      <trkpt lat="62.63530091607" lon="17.98729504653">
        <ele>45.4</ele>
        <time>2017-12-20T18:55:30Z</time>
      </trkpt>
      <trkpt lat="62.63527744675" lon="17.987340727885">
        <ele>45.6</ele>
        <time>2017-12-20T18:55:31Z</time>
      </trkpt>
      <trkpt lat="62.635256324362" lon="17.987385319593">
        <ele>45.6</ele>
        <time>2017-12-20T18:55:32Z</time>
      </trkpt>
      <trkpt lat="62.635239476743" lon="17.987422367591">
        <ele>45.6</ele>
        <time>2017-12-20T18:55:33Z</time>
      </trkpt>
      <trkpt lat="62.635215504509" lon="17.987472156077">
        <ele>45.8</ele>
        <time>2017-12-20T18:55:34Z</time>
      </trkpt>
      <trkpt lat="62.635184072384" lon="17.987520268183">
        <ele>45.8</ele>
        <time>2017-12-20T18:55:35Z</time>
      </trkpt>
      <trkpt lat="62.635160854521" lon="17.987565698081">
        <ele>46</ele>
        <time>2017-12-20T18:55:36Z</time>
      </trkpt>
      <trkpt lat="62.6351391454" lon="17.98760350045">
        <ele>46</ele>
        <time>2017-12-20T18:55:37Z</time>
      </trkpt>
      <trkpt lat="62.635119950849" lon="17.987632250367">
        <ele>46.2</ele>
        <time>2017-12-20T18:55:38Z</time>
      </trkpt>
      <trkpt lat="62.635091452389" lon="17.987682793224">
        <ele>46.6</ele>
        <time>2017-12-20T18:55:39Z</time>
      </trkpt>
      <trkpt lat="62.635069072716" lon="17.987718164842">
        <ele>46.8</ele>
        <time>2017-12-20T18:55:40Z</time>
      </trkpt>
      <trkpt lat="62.635050967812" lon="17.987763343283">
        <ele>47</ele>
        <time>2017-12-20T18:55:41Z</time>
      </trkpt>
      <trkpt lat="62.635027917587" lon="17.987794943046">
        <ele>47</ele>
        <time>2017-12-20T18:55:42Z</time>
      </trkpt>
      <trkpt lat="62.635006795199" lon="17.987833835062">
        <ele>47.2</ele>
        <time>2017-12-20T18:55:43Z</time>
      </trkpt>
      <trkpt lat="62.634982822965" lon="17.987875744562">
        <ele>47.2</ele>
        <time>2017-12-20T18:55:44Z</time>
      </trkpt>
      <trkpt lat="62.634961784396" lon="17.987909691257">
        <ele>47.2</ele>
        <time>2017-12-20T18:55:45Z</time>
      </trkpt>
      <trkpt lat="62.634942757483" lon="17.987939363183">
        <ele>47.4</ele>
        <time>2017-12-20T18:55:46Z</time>
      </trkpt>
      <trkpt lat="62.634917360326" lon="17.987964927978">
        <ele>47.6</ele>
        <time>2017-12-20T18:55:47Z</time>
      </trkpt>
      <trkpt lat="62.634891627893" lon="17.987989570764">
        <ele>47.6</ele>
        <time>2017-12-20T18:55:48Z</time>
      </trkpt>
      <trkpt lat="62.63487846831" lon="17.988017901586">
        <ele>47.6</ele>
        <time>2017-12-20T18:55:49Z</time>
      </trkpt>
      <trkpt lat="62.634847958194" lon="17.988045561856">
        <ele>48</ele>
        <time>2017-12-20T18:55:50Z</time>
      </trkpt>
      <trkpt lat="62.634820381743" lon="17.988059811086">
        <ele>48</ele>
        <time>2017-12-20T18:55:51Z</time>
      </trkpt>
      <trkpt lat="62.634794816948" lon="17.988073892678">
        <ele>48.2</ele>
        <time>2017-12-20T18:55:52Z</time>
      </trkpt>
      <trkpt lat="62.634770677076" lon="17.988082358397">
        <ele>48.4</ele>
        <time>2017-12-20T18:55:53Z</time>
      </trkpt>
      <trkpt lat="62.634736981838" lon="17.988091410849">
        <ele>48.6</ele>
        <time>2017-12-20T18:55:54Z</time>
      </trkpt>
      <trkpt lat="62.634713261061" lon="17.988092751953">
        <ele>48.6</ele>
        <time>2017-12-20T18:55:55Z</time>
      </trkpt>
      <trkpt lat="62.634689959379" lon="17.988109431934">
        <ele>48.8</ele>
        <time>2017-12-20T18:55:56Z</time>
      </trkpt>
      <trkpt lat="62.634660790367" lon="17.988107923192">
        <ele>48.8</ele>
        <time>2017-12-20T18:55:57Z</time>
      </trkpt>
      <trkpt lat="62.634639751798" lon="17.988112952332">
        <ele>49</ele>
        <time>2017-12-20T18:55:58Z</time>
      </trkpt>
      <trkpt lat="62.634617875039" lon="17.988112868513">
        <ele>49.2</ele>
        <time>2017-12-20T18:55:59Z</time>
      </trkpt>
      <trkpt lat="62.634582754878" lon="17.988105827717">
        <ele>49.2</ele>
        <time>2017-12-20T18:56:00Z</time>
      </trkpt>
      <trkpt lat="62.63455492697" lon="17.988136337833">
        <ele>49.4</ele>
        <time>2017-12-20T18:56:01Z</time>
      </trkpt>
      <trkpt lat="62.634526512329" lon="17.98815922042">
        <ele>49.6</ele>
        <time>2017-12-20T18:56:02Z</time>
      </trkpt>
      <trkpt lat="62.63450295919" lon="17.988189814355">
        <ele>49.6</ele>
        <time>2017-12-20T18:56:03Z</time>
      </trkpt>
      <trkpt lat="62.634480663336" lon="17.988176235677">
        <ele>49.6</ele>
        <time>2017-12-20T18:56:04Z</time>
      </trkpt>
      <trkpt lat="62.634445543175" lon="17.988192915658">
        <ele>49.8</ele>
        <time>2017-12-20T18:56:05Z</time>
      </trkpt>
      <trkpt lat="62.634419056371" lon="17.988203560671">
        <ele>50</ele>
        <time>2017-12-20T18:56:06Z</time>
      </trkpt>
      <trkpt lat="62.634398688354" lon="17.988210014734">
        <ele>50</ele>
        <time>2017-12-20T18:56:07Z</time>
      </trkpt>
      <trkpt lat="62.634376308681" lon="17.988211104381">
        <ele>50</ele>
        <time>2017-12-20T18:56:08Z</time>
      </trkpt>
      <trkpt lat="62.634344876556" lon="17.988216049702">
        <ele>50</ele>
        <time>2017-12-20T18:56:09Z</time>
      </trkpt>
      <trkpt lat="62.634303050875" lon="17.988222336127">
        <ele>50.2</ele>
        <time>2017-12-20T18:56:10Z</time>
      </trkpt>
      <trkpt lat="62.634285784161" lon="17.988220659747">
        <ele>50.2</ele>
        <time>2017-12-20T18:56:11Z</time>
      </trkpt>
      <trkpt lat="62.634264577954" lon="17.988243207058">
        <ele>50.4</ele>
        <time>2017-12-20T18:56:12Z</time>
      </trkpt>
      <trkpt lat="62.63422803287" lon="17.988215798245">
        <ele>50.4</ele>
        <time>2017-12-20T18:56:13Z</time>
      </trkpt>
      <trkpt lat="62.63420288717" lon="17.988209176544">
        <ele>50.6</ele>
        <time>2017-12-20T18:56:14Z</time>
      </trkpt>
      <trkpt lat="62.634185704275" lon="17.988195011133">
        <ele>50.8</ele>
        <time>2017-12-20T18:56:15Z</time>
      </trkpt>
      <trkpt lat="62.63417606509" lon="17.988174894573">
        <ele>50.8</ele>
        <time>2017-12-20T18:56:16Z</time>
      </trkpt>
      <trkpt lat="62.634148823915" lon="17.988158968963">
        <ele>50.8</ele>
        <time>2017-12-20T18:56:17Z</time>
      </trkpt>
      <trkpt lat="62.634123510577" lon="17.988141953706">
        <ele>50.6</ele>
        <time>2017-12-20T18:56:18Z</time>
      </trkpt>
      <trkpt lat="62.634092916642" lon="17.988149916511">
        <ele>50.8</ele>
        <time>2017-12-20T18:56:19Z</time>
      </trkpt>
      <trkpt lat="62.634055533368" lon="17.988125525182">
        <ele>50.8</ele>
        <time>2017-12-20T18:56:20Z</time>
      </trkpt>
      <trkpt lat="62.634025442347" lon="17.988110270124">
        <ele>50.8</ele>
        <time>2017-12-20T18:56:21Z</time>
      </trkpt>
      <trkpt lat="62.633988645806" lon="17.988088141908">
        <ele>51</ele>
        <time>2017-12-20T18:56:22Z</time>
      </trkpt>
      <trkpt lat="62.633960231165" lon="17.988077580714">
        <ele>51.2</ele>
        <time>2017-12-20T18:56:23Z</time>
      </trkpt>
      <trkpt lat="62.633937935311" lon="17.988042879648">
        <ele>51.2</ele>
        <time>2017-12-20T18:56:24Z</time>
      </trkpt>
      <trkpt lat="62.633916142371" lon="17.988022679269">
        <ele>51.4</ele>
        <time>2017-12-20T18:56:25Z</time>
      </trkpt>
      <trkpt lat="62.633884207332" lon="17.988002981804">
        <ele>51.4</ele>
        <time>2017-12-20T18:56:26Z</time>
      </trkpt>
      <trkpt lat="62.633853445759" lon="17.987989570764">
        <ele>51.6</ele>
        <time>2017-12-20T18:56:27Z</time>
      </trkpt>
      <trkpt lat="62.633821678358" lon="17.987971298222">
        <ele>51.6</ele>
        <time>2017-12-20T18:56:28Z</time>
      </trkpt>
      <trkpt lat="62.633792760803" lon="17.987928801989">
        <ele>51.6</ele>
        <time>2017-12-20T18:56:29Z</time>
      </trkpt>
      <trkpt lat="62.633754706977" lon="17.987920420089">
        <ele>51.8</ele>
        <time>2017-12-20T18:56:30Z</time>
      </trkpt>
      <trkpt lat="62.633721933748" lon="17.987878929684">
        <ele>51.8</ele>
        <time>2017-12-20T18:56:31Z</time>
      </trkpt>
      <trkpt lat="62.633693351469" lon="17.98786585392">
        <ele>52</ele>
        <time>2017-12-20T18:56:32Z</time>
      </trkpt>
      <trkpt lat="62.63367901842" lon="17.987828219189">
        <ele>52</ele>
        <time>2017-12-20T18:56:33Z</time>
      </trkpt>
      <trkpt lat="62.633652028702" lon="17.987789243354">
        <ele>52</ele>
        <time>2017-12-20T18:56:34Z</time>
      </trkpt>
      <trkpt lat="62.633628307925" lon="17.987783878938">
        <ele>52</ele>
        <time>2017-12-20T18:56:35Z</time>
      </trkpt>
      <trkpt lat="62.633599055094" lon="17.987749932243">
        <ele>52.2</ele>
        <time>2017-12-20T18:56:36Z</time>
      </trkpt>
      <trkpt lat="62.633569634625" lon="17.987714560625">
        <ele>52.4</ele>
        <time>2017-12-20T18:56:37Z</time>
      </trkpt>
      <trkpt lat="62.633543399278" lon="17.987699724662">
        <ele>52.6</ele>
        <time>2017-12-20T18:56:38Z</time>
      </trkpt>
      <trkpt lat="62.633516996293" lon="17.987645829045">
        <ele>52.8</ele>
        <time>2017-12-20T18:56:39Z</time>
      </trkpt>
      <trkpt lat="62.633486737634" lon="17.987618671689">
        <ele>53</ele>
        <time>2017-12-20T18:56:40Z</time>
      </trkpt>
      <trkpt lat="62.633463184495" lon="17.987570475764">
        <ele>53.4</ele>
        <time>2017-12-20T18:56:41Z</time>
      </trkpt>
      <trkpt lat="62.633440721003" lon="17.987525045866">
        <ele>53.6</ele>
        <time>2017-12-20T18:56:42Z</time>
      </trkpt>
      <trkpt lat="62.633424627755" lon="17.987503588202">
        <ele>53.6</ele>
        <time>2017-12-20T18:56:43Z</time>
      </trkpt>
      <trkpt lat="62.633407528679" lon="17.987457739209">
        <ele>53.8</ele>
        <time>2017-12-20T18:56:44Z</time>
      </trkpt>
      <trkpt lat="62.633382466798" lon="17.987409710922">
        <ele>54</ele>
        <time>2017-12-20T18:56:45Z</time>
      </trkpt>
      <trkpt lat="62.633359248935" lon="17.987370232173">
        <ele>54.2</ele>
        <time>2017-12-20T18:56:46Z</time>
      </trkpt>
      <trkpt lat="62.633337539814" lon="17.987308122294">
        <ele>54.4</ele>
        <time>2017-12-20T18:56:47Z</time>
      </trkpt>
      <trkpt lat="62.633310885372" lon="17.987236876144">
        <ele>54.8</ele>
        <time>2017-12-20T18:56:48Z</time>
      </trkpt>
      <trkpt lat="62.633285152939" lon="17.987157415732">
        <ele>54.8</ele>
        <time>2017-12-20T18:56:49Z</time>
      </trkpt>
      <trkpt lat="62.633251792977" lon="17.987011989767">
        <ele>54.8</ele>
        <time>2017-12-20T18:56:50Z</time>
      </trkpt>
      <trkpt lat="62.633232095512" lon="17.986887770009">
        <ele>54.4</ele>
        <time>2017-12-20T18:56:51Z</time>
      </trkpt>
      <trkpt lat="62.633216169902" lon="17.986765561907">
        <ele>54</ele>
        <time>2017-12-20T18:56:52Z</time>
      </trkpt>
      <trkpt lat="62.633199825197" lon="17.986637654113">
        <ele>53</ele>
        <time>2017-12-20T18:56:53Z</time>
      </trkpt>
      <trkpt lat="62.633185492148" lon="17.986490551768">
        <ele>52.2</ele>
        <time>2017-12-20T18:56:54Z</time>
      </trkpt>
      <trkpt lat="62.633170656185" lon="17.986346802183">
        <ele>51.4</ele>
        <time>2017-12-20T18:56:55Z</time>
      </trkpt>
      <trkpt lat="62.633157831878" lon="17.986208836109">
        <ele>50.8</ele>
        <time>2017-12-20T18:56:56Z</time>
      </trkpt>
      <trkpt lat="62.63316269338" lon="17.986101380151">
        <ele>50.6</ele>
        <time>2017-12-20T18:56:57Z</time>
      </trkpt>
      <trkpt lat="62.633170907642" lon="17.985976657479">
        <ele>50.4</ele>
        <time>2017-12-20T18:56:58Z</time>
      </trkpt>
      <trkpt lat="62.633189934555" lon="17.985885797683">
        <ele>50.2</ele>
        <time>2017-12-20T18:56:59Z</time>
      </trkpt>
      <trkpt lat="62.633198903188" lon="17.985747077238">
        <ele>49.8</ele>
        <time>2017-12-20T18:57:00Z</time>
      </trkpt>
      <trkpt lat="62.633203429414" lon="17.985614391761">
        <ele>49.4</ele>
        <time>2017-12-20T18:57:01Z</time>
      </trkpt>
      <trkpt lat="62.633218768291" lon="17.98551054002">
        <ele>49</ele>
        <time>2017-12-20T18:57:02Z</time>
      </trkpt>
      <trkpt lat="62.633230670589" lon="17.985387829004">
        <ele>48.6</ele>
        <time>2017-12-20T18:57:03Z</time>
      </trkpt>
      <trkpt lat="62.633251876796" lon="17.985259837391">
        <ele>48.4</ele>
        <time>2017-12-20T18:57:04Z</time>
      </trkpt>
      <trkpt lat="62.633275765211" lon="17.985070238813">
        <ele>48</ele>
        <time>2017-12-20T18:57:05Z</time>
      </trkpt>
      <trkpt lat="62.633303928395" lon="17.984932440377">
        <ele>47.6</ele>
        <time>2017-12-20T18:57:06Z</time>
      </trkpt>
      <trkpt lat="62.633321865661" lon="17.984831857577">
        <ele>47.2</ele>
        <time>2017-12-20T18:57:07Z</time>
      </trkpt>
      <trkpt lat="62.63335631527" lon="17.98466061536">
        <ele>46.6</ele>
        <time>2017-12-20T18:57:08Z</time>
      </trkpt>
      <trkpt lat="62.633381796246" lon="17.984536730878">
        <ele>46</ele>
        <time>2017-12-20T18:57:09Z</time>
      </trkpt>
      <trkpt lat="62.633411551991" lon="17.984394238578">
        <ele>45.4</ele>
        <time>2017-12-20T18:57:10Z</time>
      </trkpt>
      <trkpt lat="62.63342756142" lon="17.98430354642">
        <ele>45.2</ele>
        <time>2017-12-20T18:57:11Z</time>
      </trkpt>
      <trkpt lat="62.633450946921" lon="17.984213776271">
        <ele>45</ele>
        <time>2017-12-20T18:57:12Z</time>
      </trkpt>
      <trkpt lat="62.63345773626" lon="17.984102632277">
        <ele>45</ele>
        <time>2017-12-20T18:57:13Z</time>
      </trkpt>
      <trkpt lat="62.633468800368" lon="17.983997774708">
        <ele>45</ele>
        <time>2017-12-20T18:57:14Z</time>
      </trkpt>
      <trkpt lat="62.633478523372" lon="17.983879925194">
        <ele>45</ele>
        <time>2017-12-20T18:57:15Z</time>
      </trkpt>
      <trkpt lat="62.633487994919" lon="17.983768697381">
        <ele>45.2</ele>
        <time>2017-12-20T18:57:16Z</time>
      </trkpt>
      <trkpt lat="62.633498639932" lon="17.983670126237">
        <ele>45.6</ele>
        <time>2017-12-20T18:57:17Z</time>
      </trkpt>
      <trkpt lat="62.63352311508" lon="17.983574572577">
        <ele>45.8</ele>
        <time>2017-12-20T18:57:18Z</time>
      </trkpt>
      <trkpt lat="62.633537196672" lon="17.983487903731">
        <ele>46.2</ele>
        <time>2017-12-20T18:57:19Z</time>
      </trkpt>
      <trkpt lat="62.633553038463" lon="17.9833748319">
        <ele>46.4</ele>
        <time>2017-12-20T18:57:20Z</time>
      </trkpt>
      <trkpt lat="62.633566114227" lon="17.98330274756">
        <ele>46.8</ele>
        <time>2017-12-20T18:57:21Z</time>
      </trkpt>
      <trkpt lat="62.633595702334" lon="17.983228819202">
        <ele>47.2</ele>
        <time>2017-12-20T18:57:22Z</time>
      </trkpt>
      <trkpt lat="62.633615064523" lon="17.983136283026">
        <ele>47.2</ele>
        <time>2017-12-20T18:57:23Z</time>
      </trkpt>
      <trkpt lat="62.633620261301" lon="17.983066713256">
        <ele>47.2</ele>
        <time>2017-12-20T18:57:24Z</time>
      </trkpt>
      <trkpt lat="62.633640629318" lon="17.982987252844">
        <ele>47.4</ele>
        <time>2017-12-20T18:57:25Z</time>
      </trkpt>
      <trkpt lat="62.633650352322" lon="17.982902511835">
        <ele>47.2</ele>
        <time>2017-12-20T18:57:26Z</time>
      </trkpt>
      <trkpt lat="62.633656890204" lon="17.982786925434">
        <ele>47.2</ele>
        <time>2017-12-20T18:57:27Z</time>
      </trkpt>
      <trkpt lat="62.633661751706" lon="17.98271349999">
        <ele>47.2</ele>
        <time>2017-12-20T18:57:28Z</time>
      </trkpt>
      <trkpt lat="62.633683544646" lon="17.982647702075">
        <ele>47.2</ele>
        <time>2017-12-20T18:57:29Z</time>
      </trkpt>
      <trkpt lat="62.63370248774" lon="17.982551645501">
        <ele>47</ele>
        <time>2017-12-20T18:57:30Z</time>
      </trkpt>
      <trkpt lat="62.633711121097" lon="17.982471179261">
        <ele>46.8</ele>
        <time>2017-12-20T18:57:31Z</time>
      </trkpt>
      <trkpt lat="62.633712797477" lon="17.982380068008">
        <ele>46.8</ele>
        <time>2017-12-20T18:57:32Z</time>
      </trkpt>
      <trkpt lat="62.63371338421" lon="17.982286442185">
        <ele>46.8</ele>
        <time>2017-12-20T18:57:33Z</time>
      </trkpt>
      <trkpt lat="62.633716485513" lon="17.982204634841">
        <ele>47</ele>
        <time>2017-12-20T18:57:34Z</time>
      </trkpt>
      <trkpt lat="62.633725789422" lon="17.982127102266">
        <ele>47</ele>
        <time>2017-12-20T18:57:35Z</time>
      </trkpt>
      <trkpt lat="62.633730064191" lon="17.982024423991">
        <ele>47</ele>
        <time>2017-12-20T18:57:36Z</time>
      </trkpt>
      <trkpt lat="62.63373433896" lon="17.981969941641">
        <ele>47.4</ele>
        <time>2017-12-20T18:57:37Z</time>
      </trkpt>
      <trkpt lat="62.633743810507" lon="17.981909256685">
        <ele>47.4</ele>
        <time>2017-12-20T18:57:38Z</time>
      </trkpt>
      <trkpt lat="62.633764094705" lon="17.981841447114">
        <ele>47.4</ele>
        <time>2017-12-20T18:57:39Z</time>
      </trkpt>
      <trkpt lat="62.633766441637" lon="17.981779840149">
        <ele>47.4</ele>
        <time>2017-12-20T18:57:40Z</time>
      </trkpt>
      <trkpt lat="62.633769626759" lon="17.981715383338">
        <ele>47.4</ele>
        <time>2017-12-20T18:57:41Z</time>
      </trkpt>
      <trkpt lat="62.633779098306" lon="17.981611615416">
        <ele>47.4</ele>
        <time>2017-12-20T18:57:42Z</time>
      </trkpt>
      <trkpt lat="62.633779517401" lon="17.981533244651">
        <ele>47.4</ele>
        <time>2017-12-20T18:57:43Z</time>
      </trkpt>
      <trkpt lat="62.63378714493" lon="17.981458394284">
        <ele>47.6</ele>
        <time>2017-12-20T18:57:44Z</time>
      </trkpt>
      <trkpt lat="62.633791922613" lon="17.981358901131">
        <ele>47.6</ele>
        <time>2017-12-20T18:57:45Z</time>
      </trkpt>
      <trkpt lat="62.633813547915" lon="17.981309950835">
        <ele>47.6</ele>
        <time>2017-12-20T18:57:46Z</time>
      </trkpt>
      <trkpt lat="62.633837017235" lon="17.981254630295">
        <ele>47.6</ele>
        <time>2017-12-20T18:57:47Z</time>
      </trkpt>
      <trkpt lat="62.633855960329" lon="17.98119469971">
        <ele>47.6</ele>
        <time>2017-12-20T18:57:48Z</time>
      </trkpt>
      <trkpt lat="62.633874400509" lon="17.981135272039">
        <ele>47.8</ele>
        <time>2017-12-20T18:57:49Z</time>
      </trkpt>
      <trkpt lat="62.633889655567" lon="17.981081376422">
        <ele>47.6</ele>
        <time>2017-12-20T18:57:50Z</time>
      </trkpt>
      <trkpt lat="62.633900384399" lon="17.981014321222">
        <ele>47.6</ele>
        <time>2017-12-20T18:57:51Z</time>
      </trkpt>
      <trkpt lat="62.633916896742" lon="17.980967885496">
        <ele>47.8</ele>
        <time>2017-12-20T18:57:52Z</time>
      </trkpt>
      <trkpt lat="62.633942712994" lon="17.980930334584">
        <ele>47.8</ele>
        <time>2017-12-20T18:57:53Z</time>
      </trkpt>
      <trkpt lat="62.633968696884" lon="17.980900243563">
        <ele>47.8</ele>
        <time>2017-12-20T18:57:54Z</time>
      </trkpt>
      <trkpt lat="62.633990657462" lon="17.980855903312">
        <ele>48</ele>
        <time>2017-12-20T18:57:55Z</time>
      </trkpt>
      <trkpt lat="62.634002978855" lon="17.980814329088">
        <ele>48.2</ele>
        <time>2017-12-20T18:57:56Z</time>
      </trkpt>
      <trkpt lat="62.634014964972" lon="17.980750375191">
        <ele>48.4</ele>
        <time>2017-12-20T18:57:57Z</time>
      </trkpt>
      <trkpt lat="62.634023430691" lon="17.980663790164">
        <ele>48.6</ele>
        <time>2017-12-20T18:57:58Z</time>
      </trkpt>
      <trkpt lat="62.634010690203" lon="17.980608972538">
        <ele>48.6</ele>
        <time>2017-12-20T18:57:59Z</time>
      </trkpt>
      <trkpt lat="62.634029717116" lon="17.980530434135">
        <ele>48.6</ele>
        <time>2017-12-20T18:58:00Z</time>
      </trkpt>
      <trkpt lat="62.63405452754" lon="17.980484920418">
        <ele>48.6</ele>
        <time>2017-12-20T18:58:01Z</time>
      </trkpt>
      <trkpt lat="62.634067854761" lon="17.980433287914">
        <ele>48.6</ele>
        <time>2017-12-20T18:58:02Z</time>
      </trkpt>
      <trkpt lat="62.634100376533" lon="17.980355922977">
        <ele>48.6</ele>
        <time>2017-12-20T18:58:03Z</time>
      </trkpt>
      <trkpt lat="62.634125438414" lon="17.980304961025">
        <ele>48.6</ele>
        <time>2017-12-20T18:58:04Z</time>
      </trkpt>
      <trkpt lat="62.634149159191" lon="17.980275875832">
        <ele>48.4</ele>
        <time>2017-12-20T18:58:05Z</time>
      </trkpt>
      <trkpt lat="62.634177657651" lon="17.980249389028">
        <ele>48.6</ele>
        <time>2017-12-20T18:58:06Z</time>
      </trkpt>
      <trkpt lat="62.634201629885" lon="17.980207647166">
        <ele>48.8</ele>
        <time>2017-12-20T18:58:07Z</time>
      </trkpt>
      <trkpt lat="62.634229793069" lon="17.980153080997">
        <ele>48.8</ele>
        <time>2017-12-20T18:58:08Z</time>
      </trkpt>
      <trkpt lat="62.634253094751" lon="17.980112512601">
        <ele>48.8</ele>
        <time>2017-12-20T18:58:09Z</time>
      </trkpt>
      <trkpt lat="62.634279497736" lon="17.98007823063">
        <ele>49</ele>
        <time>2017-12-20T18:58:10Z</time>
      </trkpt>
      <trkpt lat="62.634299195201" lon="17.980008744679">
        <ele>49</ele>
        <time>2017-12-20T18:58:11Z</time>
      </trkpt>
      <trkpt lat="62.634316964829" lon="17.979942695307">
        <ele>49</ele>
        <time>2017-12-20T18:58:12Z</time>
      </trkpt>
      <trkpt lat="62.634339595959" lon="17.979876645935">
        <ele>48.8</ele>
        <time>2017-12-20T18:58:13Z</time>
      </trkpt>
      <trkpt lat="62.634363735831" lon="17.979832473322">
        <ele>49</ele>
        <time>2017-12-20T18:58:14Z</time>
      </trkpt>
      <trkpt lat="62.634380415812" lon="17.979767681235">
        <ele>48.8</ele>
        <time>2017-12-20T18:58:15Z</time>
      </trkpt>
      <trkpt lat="62.634399526544" lon="17.979679000733">
        <ele>48.8</ele>
        <time>2017-12-20T18:58:16Z</time>
      </trkpt>
      <trkpt lat="62.634405980607" lon="17.979628457876">
        <ele>48.8</ele>
        <time>2017-12-20T18:58:17Z</time>
      </trkpt>
      <trkpt lat="62.634407154073" lon="17.979537681899">
        <ele>49</ele>
        <time>2017-12-20T18:58:18Z</time>
      </trkpt>
      <trkpt lat="62.634415619792" lon="17.979471297251">
        <ele>48.8</ele>
        <time>2017-12-20T18:58:19Z</time>
      </trkpt>
      <trkpt lat="62.634420229837" lon="17.979414216512">
        <ele>48.8</ele>
        <time>2017-12-20T18:58:20Z</time>
      </trkpt>
      <trkpt lat="62.634431293945" lon="17.979320590689">
        <ele>49</ele>
        <time>2017-12-20T18:58:21Z</time>
      </trkpt>
      <trkpt lat="62.634464486269" lon="17.979286308718">
        <ele>49</ele>
        <time>2017-12-20T18:58:22Z</time>
      </trkpt>
      <trkpt lat="62.63447026978" lon="17.979234676214">
        <ele>49</ele>
        <time>2017-12-20T18:58:23Z</time>
      </trkpt>
      <trkpt lat="62.634493487643" lon="17.979159239114">
        <ele>49</ele>
        <time>2017-12-20T18:58:24Z</time>
      </trkpt>
      <trkpt lat="62.634504300294" lon="17.979080952168">
        <ele>49</ele>
        <time>2017-12-20T18:58:25Z</time>
      </trkpt>
      <trkpt lat="62.634523746302" lon="17.978965617224">
        <ele>48.8</ele>
        <time>2017-12-20T18:58:27Z</time>
      </trkpt>
      <trkpt lat="62.634538414627" lon="17.978912727435">
        <ele>48.8</ele>
        <time>2017-12-20T18:58:28Z</time>
      </trkpt>
      <trkpt lat="62.634558615006" lon="17.978891940323">
        <ele>48.8</ele>
        <time>2017-12-20T18:58:29Z</time>
      </trkpt>
      <trkpt lat="62.634587197285" lon="17.978848689719">
        <ele>48.6</ele>
        <time>2017-12-20T18:58:30Z</time>
      </trkpt>
      <trkpt lat="62.634609241682" lon="17.978826980598">
        <ele>48.4</ele>
        <time>2017-12-20T18:58:31Z</time>
      </trkpt>
      <trkpt lat="62.634626340758" lon="17.978805271477">
        <ele>48.4</ele>
        <time>2017-12-20T18:58:32Z</time>
      </trkpt>
      <trkpt lat="62.634654001028" lon="17.978807869866">
        <ele>48.6</ele>
        <time>2017-12-20T18:58:33Z</time>
      </trkpt>
      <trkpt lat="62.63467646452" lon="17.978818682517">
        <ele>48.8</ele>
        <time>2017-12-20T18:58:34Z</time>
      </trkpt>
      <trkpt lat="62.634700185297" lon="17.978829998082">
        <ele>48.8</ele>
        <time>2017-12-20T18:58:35Z</time>
      </trkpt>
      <trkpt lat="62.63474184334" lon="17.978847348615">
        <ele>49</ele>
        <time>2017-12-20T18:58:36Z</time>
      </trkpt>
      <trkpt lat="62.634773107827" lon="17.978871488487">
        <ele>48.8</ele>
        <time>2017-12-20T18:58:37Z</time>
      </trkpt>
      <trkpt lat="62.634806719246" lon="17.978877774912">
        <ele>48.8</ele>
        <time>2017-12-20T18:58:38Z</time>
      </trkpt>
      <trkpt lat="62.634838319009" lon="17.978890934495">
        <ele>48.6</ele>
        <time>2017-12-20T18:58:39Z</time>
      </trkpt>
      <trkpt lat="62.634876708111" lon="17.978906524829">
        <ele>48.2</ele>
        <time>2017-12-20T18:58:40Z</time>
      </trkpt>
      <trkpt lat="62.63490864315" lon="17.978910799598">
        <ele>48.2</ele>
        <time>2017-12-20T18:58:41Z</time>
      </trkpt>
      <trkpt lat="62.634950049736" lon="17.978930580882">
        <ele>48.2</ele>
        <time>2017-12-20T18:58:42Z</time>
      </trkpt>
      <trkpt lat="62.634984415526" lon="17.978942818456">
        <ele>48.2</ele>
        <time>2017-12-20T18:58:43Z</time>
      </trkpt>
      <trkpt lat="62.635013835995" lon="17.978954553116">
        <ele>48</ele>
        <time>2017-12-20T18:58:44Z</time>
      </trkpt>
      <trkpt lat="62.635040071342" lon="17.978961677731">
        <ele>48</ele>
        <time>2017-12-20T18:58:45Z</time>
      </trkpt>
      <trkpt lat="62.635075275322" lon="17.978980872282">
        <ele>47.8</ele>
        <time>2017-12-20T18:58:46Z</time>
      </trkpt>
      <trkpt lat="62.635100337203" lon="17.978989673277">
        <ele>47.8</ele>
        <time>2017-12-20T18:58:47Z</time>
      </trkpt>
      <trkpt lat="62.635133194251" lon="17.979002497584">
        <ele>47.6</ele>
        <time>2017-12-20T18:58:48Z</time>
      </trkpt>
      <trkpt lat="62.635167979136" lon="17.97901289114">
        <ele>47.6</ele>
        <time>2017-12-20T18:58:49Z</time>
      </trkpt>
      <trkpt lat="62.635203266935" lon="17.97903049313">
        <ele>47.6</ele>
        <time>2017-12-20T18:58:50Z</time>
      </trkpt>
      <trkpt lat="62.635241236942" lon="17.979047424568">
        <ele>47.4</ele>
        <time>2017-12-20T18:58:51Z</time>
      </trkpt>
      <trkpt lat="62.635281470062" lon="17.979062931083">
        <ele>47.2</ele>
        <time>2017-12-20T18:58:52Z</time>
      </trkpt>
      <trkpt lat="62.635337880249" lon="17.979072737906">
        <ele>47</ele>
        <time>2017-12-20T18:58:53Z</time>
      </trkpt>
      <trkpt lat="62.635376939903" lon="17.979073157001">
        <ele>47</ele>
        <time>2017-12-20T18:58:54Z</time>
      </trkpt>
      <trkpt lat="62.635416753928" lon="17.979074162829">
        <ele>46.8</ele>
        <time>2017-12-20T18:58:55Z</time>
      </trkpt>
      <trkpt lat="62.635456316496" lon="17.979072654087">
        <ele>46.8</ele>
        <time>2017-12-20T18:58:56Z</time>
      </trkpt>
      <trkpt lat="62.635500908204" lon="17.979062260531">
        <ele>46.8</ele>
        <time>2017-12-20T18:58:57Z</time>
      </trkpt>
      <trkpt lat="62.635540051677" lon="17.979053375717">
        <ele>46.6</ele>
        <time>2017-12-20T18:58:58Z</time>
      </trkpt>
      <trkpt lat="62.635590594534" lon="17.979044407084">
        <ele>46.4</ele>
        <time>2017-12-20T18:58:59Z</time>
      </trkpt>
      <trkpt lat="62.635636108251" lon="17.979041557238">
        <ele>46.2</ele>
        <time>2017-12-20T18:59:00Z</time>
      </trkpt>
      <trkpt lat="62.635680699959" lon="17.979038120659">
        <ele>45.8</ele>
        <time>2017-12-20T18:59:01Z</time>
      </trkpt>
      <trkpt lat="62.635725459305" lon="17.979037953021">
        <ele>45.4</ele>
        <time>2017-12-20T18:59:02Z</time>
      </trkpt>
      <trkpt lat="62.635763513131" lon="17.979044239446">
        <ele>45.2</ele>
        <time>2017-12-20T18:59:03Z</time>
      </trkpt>
      <trkpt lat="62.635802572785" lon="17.979049855319">
        <ele>45</ele>
        <time>2017-12-20T18:59:04Z</time>
      </trkpt>
      <trkpt lat="62.63584657776" lon="17.97905312426">
        <ele>44.8</ele>
        <time>2017-12-20T18:59:05Z</time>
      </trkpt>
      <trkpt lat="62.635882536111" lon="17.979058488676">
        <ele>44.6</ele>
        <time>2017-12-20T18:59:06Z</time>
      </trkpt>
      <trkpt lat="62.635915644616" lon="17.979071480621">
        <ele>44.6</ele>
        <time>2017-12-20T18:59:07Z</time>
      </trkpt>
      <trkpt lat="62.635940538859" lon="17.97907659358">
        <ele>44.6</ele>
        <time>2017-12-20T18:59:08Z</time>
      </trkpt>
      <trkpt lat="62.635966019835" lon="17.979079611064">
        <ele>44.4</ele>
        <time>2017-12-20T18:59:09Z</time>
      </trkpt>
      <trkpt lat="62.635987561318" lon="17.979085478394">
        <ele>44.4</ele>
        <time>2017-12-20T18:59:10Z</time>
      </trkpt>
      <trkpt lat="62.636006755869" lon="17.979084724023">
        <ele>44.4</ele>
        <time>2017-12-20T18:59:11Z</time>
      </trkpt>
      <trkpt lat="62.636027207705" lon="17.979087573869">
        <ele>44.4</ele>
        <time>2017-12-20T18:59:12Z</time>
      </trkpt>
      <trkpt lat="62.636045480247" lon="17.979087825326">
        <ele>44.4</ele>
        <time>2017-12-20T18:59:13Z</time>
      </trkpt>
      <trkpt lat="62.636064674798" lon="17.979096626321">
        <ele>44.6</ele>
        <time>2017-12-20T18:59:14Z</time>
      </trkpt>
      <trkpt lat="62.636073643431" lon="17.979127890808">
        <ele>44.6</ele>
        <time>2017-12-20T18:59:15Z</time>
      </trkpt>
      <trkpt lat="62.636076577096" lon="17.979159490571">
        <ele>44.6</ele>
        <time>2017-12-20T18:59:16Z</time>
      </trkpt>
      <trkpt lat="62.636075235992" lon="17.979196622388">
        <ele>44.6</ele>
        <time>2017-12-20T18:59:17Z</time>
      </trkpt>
      <trkpt lat="62.636071631775" lon="17.979223779744">
        <ele>44.8</ele>
        <time>2017-12-20T18:59:18Z</time>
      </trkpt>
      <trkpt lat="62.636056209079" lon="17.979276669533">
        <ele>44.8</ele>
        <time>2017-12-20T18:59:20Z</time>
      </trkpt>
      <trkpt lat="62.636053443052" lon="17.979304329803">
        <ele>44.8</ele>
        <time>2017-12-20T18:59:21Z</time>
      </trkpt>
      <trkpt lat="62.63604774336" lon="17.979345401113">
        <ele>44.6</ele>
        <time>2017-12-20T18:59:22Z</time>
      </trkpt>
      <trkpt lat="62.636041456935" lon="17.979397117436">
        <ele>44.6</ele>
        <time>2017-12-20T18:59:23Z</time>
      </trkpt>
      <trkpt lat="62.636037768899" lon="17.979473811821">
        <ele>44.6</ele>
        <time>2017-12-20T18:59:24Z</time>
      </trkpt>
      <trkpt lat="62.636038690908" lon="17.979559055744">
        <ele>44.6</ele>
        <time>2017-12-20T18:59:25Z</time>
      </trkpt>
      <trkpt lat="62.636035338148" lon="17.979667601349">
        <ele>44.4</ele>
        <time>2017-12-20T18:59:26Z</time>
      </trkpt>
      <trkpt lat="62.636032823578" lon="17.979822415042">
        <ele>44.2</ele>
        <time>2017-12-20T18:59:27Z</time>
      </trkpt>
      <trkpt lat="62.636035924881" lon="17.979955687252">
        <ele>43.8</ele>
        <time>2017-12-20T18:59:28Z</time>
      </trkpt>
      <trkpt lat="62.636037182166" lon="17.980116200637">
        <ele>43.2</ele>
        <time>2017-12-20T18:59:29Z</time>
      </trkpt>
      <trkpt lat="62.636045647885" lon="17.980251568322">
        <ele>42.6</ele>
        <time>2017-12-20T18:59:30Z</time>
      </trkpt>
      <trkpt lat="62.636057634002" lon="17.980412919897">
        <ele>41.8</ele>
        <time>2017-12-20T18:59:31Z</time>
      </trkpt>
      <trkpt lat="62.636071967051" lon="17.980543845175">
        <ele>40.6</ele>
        <time>2017-12-20T18:59:32Z</time>
      </trkpt>
      <trkpt lat="62.63608713829" lon="17.980675273367">
        <ele>39.4</ele>
        <time>2017-12-20T18:59:33Z</time>
      </trkpt>
      <trkpt lat="62.636108679773" lon="17.980814664364">
        <ele>38.4</ele>
        <time>2017-12-20T18:59:34Z</time>
      </trkpt>
      <trkpt lat="62.636135920948" lon="17.980990600445">
        <ele>37.8</ele>
        <time>2017-12-20T18:59:35Z</time>
      </trkpt>
      <trkpt lat="62.636153942033" lon="17.981136194048">
        <ele>37.2</ele>
        <time>2017-12-20T18:59:36Z</time>
      </trkpt>
      <trkpt lat="62.636178836276" lon="17.981275668864">
        <ele>37</ele>
        <time>2017-12-20T18:59:37Z</time>
      </trkpt>
      <trkpt lat="62.636197444094" lon="17.981398463699">
        <ele>36.6</ele>
        <time>2017-12-20T18:59:38Z</time>
      </trkpt>
      <trkpt lat="62.636216722464" lon="17.981539614895">
        <ele>36.4</ele>
        <time>2017-12-20T18:59:39Z</time>
      </trkpt>
      <trkpt lat="62.636228540943" lon="17.981627792483">
        <ele>36.4</ele>
        <time>2017-12-20T18:59:40Z</time>
      </trkpt>
      <trkpt lat="62.636244382734" lon="17.981745893454">
        <ele>36.2</ele>
        <time>2017-12-20T18:59:41Z</time>
      </trkpt>
      <trkpt lat="62.636257458498" lon="17.981855947801">
        <ele>36.2</ele>
        <time>2017-12-20T18:59:42Z</time>
      </trkpt>
      <trkpt lat="62.636266678588" lon="17.981954518945">
        <ele>36</ele>
        <time>2017-12-20T18:59:43Z</time>
      </trkpt>
      <trkpt lat="62.636275563402" lon="17.982086030956">
        <ele>36</ele>
        <time>2017-12-20T18:59:44Z</time>
      </trkpt>
      <trkpt lat="62.636281430732" lon="17.98219130762">
        <ele>36</ele>
        <time>2017-12-20T18:59:45Z</time>
      </trkpt>
      <trkpt lat="62.636288974442" lon="17.982259787743">
        <ele>35.8</ele>
        <time>2017-12-20T18:59:46Z</time>
      </trkpt>
      <trkpt lat="62.636292159564" lon="17.982368920081">
        <ele>35.8</ele>
        <time>2017-12-20T18:59:47Z</time>
      </trkpt>
      <trkpt lat="62.636289058261" lon="17.982454750737">
        <ele>36</ele>
        <time>2017-12-20T18:59:48Z</time>
      </trkpt>
      <trkpt lat="62.636284532035" lon="17.982548460379">
        <ele>36.2</ele>
        <time>2017-12-20T18:59:49Z</time>
      </trkpt>
      <trkpt lat="62.636282771836" lon="17.982647199161">
        <ele>36.6</ele>
        <time>2017-12-20T18:59:50Z</time>
      </trkpt>
      <trkpt lat="62.636293165392" lon="17.982729090324">
        <ele>36.8</ele>
        <time>2017-12-20T18:59:51Z</time>
      </trkpt>
      <trkpt lat="62.636289477356" lon="17.982809137469">
        <ele>37</ele>
        <time>2017-12-20T18:59:52Z</time>
      </trkpt>
      <trkpt lat="62.636287214243" lon="17.982887172958">
        <ele>37.4</ele>
        <time>2017-12-20T18:59:53Z</time>
      </trkpt>
      <trkpt lat="62.636285370225" lon="17.982971913967">
        <ele>37.6</ele>
        <time>2017-12-20T18:59:54Z</time>
      </trkpt>
      <trkpt lat="62.636284196759" lon="17.983038298615">
        <ele>37.6</ele>
        <time>2017-12-20T18:59:55Z</time>
      </trkpt>
      <trkpt lat="62.636280592542" lon="17.983103425978">
        <ele>37.4</ele>
        <time>2017-12-20T18:59:56Z</time>
      </trkpt>
      <trkpt lat="62.636278748524" lon="17.983183556942">
        <ele>37.6</ele>
        <time>2017-12-20T18:59:57Z</time>
      </trkpt>
      <trkpt lat="62.636277491239" lon="17.983253629626">
        <ele>37.6</ele>
        <time>2017-12-20T18:59:58Z</time>
      </trkpt>
      <trkpt lat="62.63627405466" lon="17.983346417259">
        <ele>37.6</ele>
        <time>2017-12-20T18:59:59Z</time>
      </trkpt>
      <trkpt lat="62.636265086027" lon="17.983413556278">
        <ele>37.6</ele>
        <time>2017-12-20T19:00:00Z</time>
      </trkpt>
      <trkpt lat="62.636262655276" lon="17.983491507948">
        <ele>38</ele>
        <time>2017-12-20T19:00:01Z</time>
      </trkpt>
      <trkpt lat="62.636250333883" lon="17.983553031094">
        <ele>38</ele>
        <time>2017-12-20T19:00:02Z</time>
      </trkpt>
      <trkpt lat="62.636243125449" lon="17.983603741589">
        <ele>38.4</ele>
        <time>2017-12-20T19:00:03Z</time>
      </trkpt>
      <trkpt lat="62.636236252291" lon="17.983660235595">
        <ele>38.4</ele>
        <time>2017-12-20T19:00:04Z</time>
      </trkpt>
      <trkpt lat="62.636229714409" lon="17.98372854808">
        <ele>38.4</ele>
        <time>2017-12-20T19:00:05Z</time>
      </trkpt>
      <trkpt lat="62.636228121848" lon="17.983781773145">
        <ele>38.2</ele>
        <time>2017-12-20T19:00:06Z</time>
      </trkpt>
      <trkpt lat="62.636224014717" lon="17.983822173903">
        <ele>38.4</ele>
        <time>2017-12-20T19:00:07Z</time>
      </trkpt>
      <trkpt lat="62.636214710808" lon="17.983899455021">
        <ele>38.4</ele>
        <time>2017-12-20T19:00:08Z</time>
      </trkpt>
      <trkpt lat="62.636204820166" lon="17.983955613751">
        <ele>38.6</ele>
        <time>2017-12-20T19:00:09Z</time>
      </trkpt>
      <trkpt lat="62.636198366103" lon="17.983997690889">
        <ele>38.6</ele>
        <time>2017-12-20T19:00:10Z</time>
      </trkpt>
      <trkpt lat="62.63619191204" lon="17.984080504061">
        <ele>38.8</ele>
        <time>2017-12-20T19:00:11Z</time>
      </trkpt>
      <trkpt lat="62.636188894556" lon="17.98414093756">
        <ele>39</ele>
        <time>2017-12-20T19:00:12Z</time>
      </trkpt>
      <trkpt lat="62.636182775769" lon="17.984185026354">
        <ele>39</ele>
        <time>2017-12-20T19:00:13Z</time>
      </trkpt>
      <trkpt lat="62.636172968946" lon="17.984241687998">
        <ele>39</ele>
        <time>2017-12-20T19:00:14Z</time>
      </trkpt>
      <trkpt lat="62.636171963118" lon="17.984301618583">
        <ele>39</ele>
        <time>2017-12-20T19:00:15Z</time>
      </trkpt>
      <trkpt lat="62.636170286738" lon="17.984353251087">
        <ele>39.2</ele>
        <time>2017-12-20T19:00:16Z</time>
      </trkpt>
      <trkpt lat="62.636157378612" lon="17.984412259663">
        <ele>39</ele>
        <time>2017-12-20T19:00:17Z</time>
      </trkpt>
      <trkpt lat="62.636147739427" lon="17.984462718701">
        <ele>39.2</ele>
        <time>2017-12-20T19:00:18Z</time>
      </trkpt>
      <trkpt lat="62.636137262052" lon="17.984552907945">
        <ele>39.2</ele>
        <time>2017-12-20T19:00:20Z</time>
      </trkpt>
      <trkpt lat="62.636132652007" lon="17.984600517137">
        <ele>39.4</ele>
        <time>2017-12-20T19:00:21Z</time>
      </trkpt>
      <trkpt lat="62.636129550704" lon="17.984646701406">
        <ele>39.4</ele>
        <time>2017-12-20T19:00:22Z</time>
      </trkpt>
      <trkpt lat="62.636123515736" lon="17.984692885675">
        <ele>39.4</ele>
        <time>2017-12-20T19:00:23Z</time>
      </trkpt>
      <trkpt lat="62.636121168804" lon="17.984736136279">
        <ele>39.4</ele>
        <time>2017-12-20T19:00:24Z</time>
      </trkpt>
      <trkpt lat="62.636126449401" lon="17.984797156511">
        <ele>39.6</ele>
        <time>2017-12-20T19:00:25Z</time>
      </trkpt>
      <trkpt lat="62.636124689202" lon="17.984857506191">
        <ele>39.6</ele>
        <time>2017-12-20T19:00:26Z</time>
      </trkpt>
      <trkpt lat="62.636125192116" lon="17.984907713772">
        <ele>40</ele>
        <time>2017-12-20T19:00:27Z</time>
      </trkpt>
      <trkpt lat="62.636126700858" lon="17.984970829479">
        <ele>40</ele>
        <time>2017-12-20T19:00:28Z</time>
      </trkpt>
      <trkpt lat="62.636121839356" lon="17.985008715667">
        <ele>40.2</ele>
        <time>2017-12-20T19:00:29Z</time>
      </trkpt>
      <trkpt lat="62.636108428316" lon="17.985069819718">
        <ele>40.4</ele>
        <time>2017-12-20T19:00:30Z</time>
      </trkpt>
      <trkpt lat="62.636101052244" lon="17.985124721163">
        <ele>40.4</ele>
        <time>2017-12-20T19:00:31Z</time>
      </trkpt>
      <trkpt lat="62.636099459683" lon="17.985161350066">
        <ele>40.4</ele>
        <time>2017-12-20T19:00:32Z</time>
      </trkpt>
      <trkpt lat="62.636101890434" lon="17.985221699746">
        <ele>40.4</ele>
        <time>2017-12-20T19:00:33Z</time>
      </trkpt>
      <trkpt lat="62.636101806615" lon="17.985275176268">
        <ele>40.6</ele>
        <time>2017-12-20T19:00:34Z</time>
      </trkpt>
      <trkpt lat="62.636105075556" lon="17.985324880935">
        <ele>40.6</ele>
        <time>2017-12-20T19:00:35Z</time>
      </trkpt>
      <trkpt lat="62.636104488823" lon="17.985387409909">
        <ele>40.6</ele>
        <time>2017-12-20T19:00:36Z</time>
      </trkpt>
      <trkpt lat="62.636098956769" lon="17.985432504531">
        <ele>40.6</ele>
        <time>2017-12-20T19:00:37Z</time>
      </trkpt>
      <trkpt lat="62.636100633149" lon="17.985489249994">
        <ele>40.8</ele>
        <time>2017-12-20T19:00:38Z</time>
      </trkpt>
      <trkpt lat="62.636092251249" lon="17.985526381811">
        <ele>40.8</ele>
        <time>2017-12-20T19:00:39Z</time>
      </trkpt>
      <trkpt lat="62.63608546191" lon="17.98557508065">
        <ele>41</ele>
        <time>2017-12-20T19:00:40Z</time>
      </trkpt>
      <trkpt lat="62.636070877404" lon="17.985637861081">
        <ele>41</ele>
        <time>2017-12-20T19:00:41Z</time>
      </trkpt>
      <trkpt lat="62.63605528707" lon="17.985693684535">
        <ele>41</ele>
        <time>2017-12-20T19:00:42Z</time>
      </trkpt>
      <trkpt lat="62.636046150799" lon="17.985715980389">
        <ele>41.2</ele>
        <time>2017-12-20T19:00:43Z</time>
      </trkpt>
      <trkpt lat="62.63603684689" lon="17.985772306757">
        <ele>41.2</ele>
        <time>2017-12-20T19:00:44Z</time>
      </trkpt>
      <trkpt lat="62.636011533552" lon="17.985805247624">
        <ele>41.2</ele>
        <time>2017-12-20T19:00:45Z</time>
      </trkpt>
      <trkpt lat="62.635990327345" lon="17.985844223459">
        <ele>41.4</ele>
        <time>2017-12-20T19:00:46Z</time>
      </trkpt>
      <trkpt lat="62.635972473898" lon="17.985867860417">
        <ele>41.4</ele>
        <time>2017-12-20T19:00:47Z</time>
      </trkpt>
      <trkpt lat="62.63594464599" lon="17.985881355276">
        <ele>41.6</ele>
        <time>2017-12-20T19:00:48Z</time>
      </trkpt>
      <trkpt lat="62.635923942697" lon="17.985911362478">
        <ele>41.8</ele>
        <time>2017-12-20T19:00:49Z</time>
      </trkpt>
      <trkpt lat="62.635903993775" lon="17.985923180957">
        <ele>42</ele>
        <time>2017-12-20T19:00:50Z</time>
      </trkpt>
      <trkpt lat="62.635881949378" lon="17.985952769064">
        <ele>42.2</ele>
        <time>2017-12-20T19:00:51Z</time>
      </trkpt>
      <trkpt lat="62.635865437035" lon="17.985948410476">
        <ele>42.4</ele>
        <time>2017-12-20T19:00:52Z</time>
      </trkpt>
      <trkpt lat="62.635844398466" lon="17.985962994982">
        <ele>42.4</ele>
        <time>2017-12-20T19:00:53Z</time>
      </trkpt>
      <trkpt lat="62.635824030449" lon="17.985998534238">
        <ele>42.4</ele>
        <time>2017-12-20T19:00:54Z</time>
      </trkpt>
      <trkpt lat="62.635801902233" lon="17.98603776153">
        <ele>42.4</ele>
        <time>2017-12-20T19:00:55Z</time>
      </trkpt>
      <trkpt lat="62.635779187284" lon="17.986054860606">
        <ele>42.4</ele>
        <time>2017-12-20T19:00:56Z</time>
      </trkpt>
      <trkpt lat="62.635767033529" lon="17.986087466197">
        <ele>42.4</ele>
        <time>2017-12-20T19:00:57Z</time>
      </trkpt>
      <trkpt lat="62.635744653856" lon="17.986122753996">
        <ele>42.4</ele>
        <time>2017-12-20T19:00:58Z</time>
      </trkpt>
      <trkpt lat="62.635733003015" lon="17.986149073162">
        <ele>42.4</ele>
        <time>2017-12-20T19:00:59Z</time>
      </trkpt>
      <trkpt lat="62.635717161224" lon="17.986188216635">
        <ele>42.6</ele>
        <time>2017-12-20T19:01:00Z</time>
      </trkpt>
      <trkpt lat="62.635691680248" lon="17.986198191096">
        <ele>42.8</ele>
        <time>2017-12-20T19:01:01Z</time>
      </trkpt>
      <trkpt lat="62.635677095742" lon="17.986233814171">
        <ele>43</ele>
        <time>2017-12-20T19:01:02Z</time>
      </trkpt>
      <trkpt lat="62.635665780177" lon="17.986273460558">
        <ele>43.4</ele>
        <time>2017-12-20T19:01:03Z</time>
      </trkpt>
      <trkpt lat="62.63564289759" lon="17.986314196592">
        <ele>43.6</ele>
        <time>2017-12-20T19:01:04Z</time>
      </trkpt>
      <trkpt lat="62.635631079111" lon="17.986351998961">
        <ele>43.8</ele>
        <time>2017-12-20T19:01:05Z</time>
      </trkpt>
      <trkpt lat="62.635601155728" lon="17.986407570958">
        <ele>44</ele>
        <time>2017-12-20T19:01:06Z</time>
      </trkpt>
      <trkpt lat="62.63559260619" lon="17.986440595644">
        <ele>44</ele>
        <time>2017-12-20T19:01:07Z</time>
      </trkpt>
      <trkpt lat="62.635571902897" lon="17.986495329451">
        <ele>44</ele>
        <time>2017-12-20T19:01:08Z</time>
      </trkpt>
      <trkpt lat="62.635566203205" lon="17.986546878136">
        <ele>44.2</ele>
        <time>2017-12-20T19:01:09Z</time>
      </trkpt>
      <trkpt lat="62.63554902031" lon="17.986594738785">
        <ele>44.2</ele>
        <time>2017-12-20T19:01:10Z</time>
      </trkpt>
      <trkpt lat="62.635537704745" lon="17.986640001045">
        <ele>44.2</ele>
        <time>2017-12-20T19:01:11Z</time>
      </trkpt>
      <trkpt lat="62.635522114411" lon="17.98668484421">
        <ele>44</ele>
        <time>2017-12-20T19:01:12Z</time>
      </trkpt>
      <trkpt lat="62.635498225996" lon="17.986732872497">
        <ele>44.4</ele>
        <time>2017-12-20T19:01:13Z</time>
      </trkpt>
      <trkpt lat="62.635482970938" lon="17.986782241888">
        <ele>44.6</ele>
        <time>2017-12-20T19:01:14Z</time>
      </trkpt>
      <trkpt lat="62.635456987048" lon="17.986826163044">
        <ele>44.6</ele>
        <time>2017-12-20T19:01:15Z</time>
      </trkpt>
      <trkpt lat="62.635443324551" lon="17.986881315946">
        <ele>44.8</ele>
        <time>2017-12-20T19:01:16Z</time>
      </trkpt>
      <trkpt lat="62.635430584063" lon="17.986921465247">
        <ele>45</ele>
        <time>2017-12-20T19:01:17Z</time>
      </trkpt>
      <trkpt lat="62.635413484987" lon="17.986950718078">
        <ele>45.2</ele>
        <time>2017-12-20T19:01:18Z</time>
      </trkpt>
      <trkpt lat="62.635403007612" lon="17.986974941769">
        <ele>45.2</ele>
        <time>2017-12-20T19:01:19Z</time>
      </trkpt>
      <trkpt lat="62.635379370654" lon="17.987015007251">
        <ele>45.2</ele>
        <time>2017-12-20T19:01:20Z</time>
      </trkpt>
      <trkpt lat="62.635358667361" lon="17.987068399954">
        <ele>45.4</ele>
        <time>2017-12-20T19:01:21Z</time>
      </trkpt>
      <trkpt lat="62.635350201642" lon="17.987104861219">
        <ele>45.4</ele>
        <time>2017-12-20T19:01:22Z</time>
      </trkpt>
      <trkpt lat="62.635321367906" lon="17.987139310828">
        <ele>45.4</ele>
        <time>2017-12-20T19:01:23Z</time>
      </trkpt>
      <trkpt lat="62.635310219979" lon="17.987192535893">
        <ele>45.6</ele>
        <time>2017-12-20T19:01:24Z</time>
      </trkpt>
      <trkpt lat="62.63528499046" lon="17.987240731818">
        <ele>45.8</ele>
        <time>2017-12-20T19:01:25Z</time>
      </trkpt>
      <trkpt lat="62.635258755113" lon="17.987289514476">
        <ele>46</ele>
        <time>2017-12-20T19:01:26Z</time>
      </trkpt>
      <trkpt lat="62.635245930806" lon="17.987322203886">
        <ele>46.2</ele>
        <time>2017-12-20T19:01:27Z</time>
      </trkpt>
      <trkpt lat="62.635220868925" lon="17.987368471974">
        <ele>46.2</ele>
        <time>2017-12-20T19:01:28Z</time>
      </trkpt>
      <trkpt lat="62.635205613867" lon="17.98739143838">
        <ele>46.2</ele>
        <time>2017-12-20T19:01:29Z</time>
      </trkpt>
      <trkpt lat="62.635188263334" lon="17.987448938214">
        <ele>46.2</ele>
        <time>2017-12-20T19:01:30Z</time>
      </trkpt>
      <trkpt lat="62.635175690484" lon="17.98748531566">
        <ele>46.4</ele>
        <time>2017-12-20T19:01:31Z</time>
      </trkpt>
      <trkpt lat="62.635152053526" lon="17.987515574319">
        <ele>46.4</ele>
        <time>2017-12-20T19:01:32Z</time>
      </trkpt>
      <trkpt lat="62.635137133744" lon="17.987562764416">
        <ele>46.6</ele>
        <time>2017-12-20T19:01:33Z</time>
      </trkpt>
      <trkpt lat="62.635121291953" lon="17.987595537645">
        <ele>46.6</ele>
        <time>2017-12-20T19:01:34Z</time>
      </trkpt>
      <trkpt lat="62.635099415194" lon="17.987634262023">
        <ele>46.6</ele>
        <time>2017-12-20T19:01:35Z</time>
      </trkpt>
      <trkpt lat="62.635083908679" lon="17.987678434636">
        <ele>46.8</ele>
        <time>2017-12-20T19:01:36Z</time>
      </trkpt>
      <trkpt lat="62.63506035554" lon="17.987713135702">
        <ele>47</ele>
        <time>2017-12-20T19:01:37Z</time>
      </trkpt>
      <trkpt lat="62.635036215668" lon="17.987745741293">
        <ele>47</ele>
        <time>2017-12-20T19:01:38Z</time>
      </trkpt>
      <trkpt lat="62.635028420501" lon="17.987781532006">
        <ele>47.2</ele>
        <time>2017-12-20T19:01:39Z</time>
      </trkpt>
      <trkpt lat="62.635006124647" lon="17.987810030466">
        <ele>47.4</ele>
        <time>2017-12-20T19:01:40Z</time>
      </trkpt>
      <trkpt lat="62.634988187381" lon="17.987846240274">
        <ele>47.4</ele>
        <time>2017-12-20T19:01:41Z</time>
      </trkpt>
      <trkpt lat="62.634961197663" lon="17.987873900544">
        <ele>47.6</ele>
        <time>2017-12-20T19:01:42Z</time>
      </trkpt>
      <trkpt lat="62.634934543221" lon="17.987902315185">
        <ele>47.6</ele>
        <time>2017-12-20T19:01:43Z</time>
      </trkpt>
      <trkpt lat="62.634920042534" lon="17.987920420089">
        <ele>47.6</ele>
        <time>2017-12-20T19:01:44Z</time>
      </trkpt>
      <trkpt lat="62.634894477739" lon="17.987943218857">
        <ele>47.8</ele>
        <time>2017-12-20T19:01:45Z</time>
      </trkpt>
      <trkpt lat="62.634877713939" lon="17.987972806964">
        <ele>47.8</ele>
        <time>2017-12-20T19:01:46Z</time>
      </trkpt>
      <trkpt lat="62.634853154972" lon="17.987987726746">
        <ele>48</ele>
        <time>2017-12-20T19:01:47Z</time>
      </trkpt>
      <trkpt lat="62.634831362032" lon="17.988025864391">
        <ele>48.2</ele>
        <time>2017-12-20T19:01:48Z</time>
      </trkpt>
      <trkpt lat="62.634812754214" lon="17.988021002889">
        <ele>48.6</ele>
        <time>2017-12-20T19:01:49Z</time>
      </trkpt>
      <trkpt lat="62.634782747012" lon="17.988038437241">
        <ele>48.8</ele>
        <time>2017-12-20T19:01:50Z</time>
      </trkpt>
      <trkpt lat="62.634768162506" lon="17.988049333711">
        <ele>48.8</ele>
        <time>2017-12-20T19:01:51Z</time>
      </trkpt>
      <trkpt lat="62.634741508064" lon="17.988032989006">
        <ele>48.8</ele>
        <time>2017-12-20T19:01:52Z</time>
      </trkpt>
      <trkpt lat="62.63473094687" lon="17.988047824969">
        <ele>49</ele>
        <time>2017-12-20T19:01:53Z</time>
      </trkpt>
      <trkpt lat="62.634710411215" lon="17.988051345367">
        <ele>49</ele>
        <time>2017-12-20T19:01:54Z</time>
      </trkpt>
      <trkpt lat="62.634689205008" lon="17.988063080027">
        <ele>49</ele>
        <time>2017-12-20T19:01:55Z</time>
      </trkpt>
      <trkpt lat="62.634660706548" lon="17.988072467755">
        <ele>49</ele>
        <time>2017-12-20T19:01:56Z</time>
      </trkpt>
      <trkpt lat="62.634637404866" lon="17.988080682017">
        <ele>49.2</ele>
        <time>2017-12-20T19:01:57Z</time>
      </trkpt>
      <trkpt lat="62.634615528107" lon="17.988100295663">
        <ele>49.2</ele>
        <time>2017-12-20T19:01:58Z</time>
      </trkpt>
      <trkpt lat="62.63459683647" lon="17.988094428333">
        <ele>49.4</ele>
        <time>2017-12-20T19:01:59Z</time>
      </trkpt>
      <trkpt lat="62.634565907259" lon="17.988086465528">
        <ele>49.4</ele>
        <time>2017-12-20T19:02:00Z</time>
      </trkpt>
      <trkpt lat="62.63453983955" lon="17.988083112768">
        <ele>49.4</ele>
        <time>2017-12-20T19:02:01Z</time>
      </trkpt>
      <trkpt lat="62.634523830121" lon="17.988098535464">
        <ele>49.6</ele>
        <time>2017-12-20T19:02:02Z</time>
      </trkpt>
      <trkpt lat="62.634493152367" lon="17.98811982549">
        <ele>49.8</ele>
        <time>2017-12-20T19:02:03Z</time>
      </trkpt>
      <trkpt lat="62.634461468785" lon="17.988170703623">
        <ele>49.8</ele>
        <time>2017-12-20T19:02:04Z</time>
      </trkpt>
      <trkpt lat="62.634435652533" lon="17.988175565125">
        <ele>49.8</ele>
        <time>2017-12-20T19:02:05Z</time>
      </trkpt>
      <trkpt lat="62.63440489096" lon="17.988166512673">
        <ele>50</ele>
        <time>2017-12-20T19:02:06Z</time>
      </trkpt>
      <trkpt lat="62.634393743033" lon="17.988186713052">
        <ele>50.2</ele>
        <time>2017-12-20T19:02:07Z</time>
      </trkpt>
      <trkpt lat="62.634370357532" lon="17.988184701396">
        <ele>50.2</ele>
        <time>2017-12-20T19:02:08Z</time>
      </trkpt>
      <trkpt lat="62.63435292318" lon="17.988198866807">
        <ele>50.4</ele>
        <time>2017-12-20T19:02:09Z</time>
      </trkpt>
      <trkpt lat="62.634320401408" lon="17.988195346409">
        <ele>50.6</ele>
        <time>2017-12-20T19:02:10Z</time>
      </trkpt>
      <trkpt lat="62.634310007852" lon="17.988212194028">
        <ele>50.6</ele>
        <time>2017-12-20T19:02:11Z</time>
      </trkpt>
      <trkpt lat="62.634270026189" lon="17.988192412744">
        <ele>50.6</ele>
        <time>2017-12-20T19:02:12Z</time>
      </trkpt>
      <trkpt lat="62.634246975964" lon="17.988199621178">
        <ele>50.8</ele>
        <time>2017-12-20T19:02:13Z</time>
      </trkpt>
      <trkpt lat="62.634211604346" lon="17.988164501017">
        <ele>50.6</ele>
        <time>2017-12-20T19:02:14Z</time>
      </trkpt>
      <trkpt lat="62.634186374827" lon="17.988175062211">
        <ele>50.8</ele>
        <time>2017-12-20T19:02:15Z</time>
      </trkpt>
      <trkpt lat="62.634157038177" lon="17.988150335606">
        <ele>50.6</ele>
        <time>2017-12-20T19:02:16Z</time>
      </trkpt>
      <trkpt lat="62.63412745007" lon="17.988149748873">
        <ele>50.6</ele>
        <time>2017-12-20T19:02:17Z</time>
      </trkpt>
      <trkpt lat="62.634102891103" lon="17.988139690593">
        <ele>50.6</ele>
        <time>2017-12-20T19:02:18Z</time>
      </trkpt>
      <trkpt lat="62.634069698779" lon="17.988124184078">
        <ele>50.6</ele>
        <time>2017-12-20T19:02:19Z</time>
      </trkpt>
      <trkpt lat="62.634048744029" lon="17.988108174649">
        <ele>50.8</ele>
        <time>2017-12-20T19:02:20Z</time>
      </trkpt>
      <trkpt lat="62.634018904465" lon="17.988074730868">
        <ele>51</ele>
        <time>2017-12-20T19:02:21Z</time>
      </trkpt>
      <trkpt lat="62.633992417661" lon="17.988071378108">
        <ele>51</ele>
        <time>2017-12-20T19:02:22Z</time>
      </trkpt>
      <trkpt lat="62.633966769047" lon="17.988039945983">
        <ele>51.2</ele>
        <time>2017-12-20T19:02:23Z</time>
      </trkpt>
      <trkpt lat="62.633943467365" lon="17.988040532716">
        <ele>51.4</ele>
        <time>2017-12-20T19:02:24Z</time>
      </trkpt>
      <trkpt lat="62.633919411312" lon="17.988016225206">
        <ele>51.6</ele>
        <time>2017-12-20T19:02:25Z</time>
      </trkpt>
      <trkpt lat="62.633883117685" lon="17.987992169153">
        <ele>51.6</ele>
        <time>2017-12-20T19:02:26Z</time>
      </trkpt>
      <trkpt lat="62.633854703044" lon="17.987991917696">
        <ele>51.8</ele>
        <time>2017-12-20T19:02:27Z</time>
      </trkpt>
      <trkpt lat="62.633823270919" lon="17.987940704287">
        <ele>52</ele>
        <time>2017-12-20T19:02:28Z</time>
      </trkpt>
      <trkpt lat="62.633816816856" lon="17.987925952143">
        <ele>52</ele>
        <time>2017-12-20T19:02:29Z</time>
      </trkpt>
      <trkpt lat="62.633784295084" lon="17.987886976308">
        <ele>52</ele>
        <time>2017-12-20T19:02:30Z</time>
      </trkpt>
      <trkpt lat="62.63376283742" lon="17.987882450082">
        <ele>52</ele>
        <time>2017-12-20T19:02:31Z</time>
      </trkpt>
      <trkpt lat="62.633740709204" lon="17.987839786211">
        <ele>52</ele>
        <time>2017-12-20T19:02:32Z</time>
      </trkpt>
      <trkpt lat="62.633718497169" lon="17.987830817578">
        <ele>52</ele>
        <time>2017-12-20T19:02:33Z</time>
      </trkpt>
      <trkpt lat="62.633696285134" lon="17.987814975787">
        <ele>52</ele>
        <time>2017-12-20T19:02:34Z</time>
      </trkpt>
      <trkpt lat="62.6336723129" lon="17.987787734612">
        <ele>52.2</ele>
        <time>2017-12-20T19:02:35Z</time>
      </trkpt>
      <trkpt lat="62.633651274331" lon="17.987778179246">
        <ele>52.4</ele>
        <time>2017-12-20T19:02:36Z</time>
      </trkpt>
      <trkpt lat="62.633637360377" lon="17.987749010234">
        <ele>52.6</ele>
        <time>2017-12-20T19:02:37Z</time>
      </trkpt>
      <trkpt lat="62.633609197193" lon="17.987715398815">
        <ele>52.8</ele>
        <time>2017-12-20T19:02:38Z</time>
      </trkpt>
      <trkpt lat="62.633589583547" lon="17.987710704951">
        <ele>52.8</ele>
        <time>2017-12-20T19:02:39Z</time>
      </trkpt>
      <trkpt lat="62.633562342372" lon="17.987665777967">
        <ele>53</ele>
        <time>2017-12-20T19:02:40Z</time>
      </trkpt>
      <trkpt lat="62.63354490802" lon="17.987654294764">
        <ele>53.2</ele>
        <time>2017-12-20T19:02:41Z</time>
      </trkpt>
      <trkpt lat="62.633514397904" lon="17.987611379436">
        <ele>53.2</ele>
        <time>2017-12-20T19:02:42Z</time>
      </trkpt>
      <trkpt lat="62.63348874929" lon="17.987575923999">
        <ele>53.4</ele>
        <time>2017-12-20T19:02:43Z</time>
      </trkpt>
      <trkpt lat="62.633465112332" lon="17.98755991457">
        <ele>53.6</ele>
        <time>2017-12-20T19:02:44Z</time>
      </trkpt>
      <trkpt lat="62.633448097075" lon="17.987527979531">
        <ele>53.6</ele>
        <time>2017-12-20T19:02:45Z</time>
      </trkpt>
      <trkpt lat="62.633431081818" lon="17.987480789434">
        <ele>53.8</ele>
        <time>2017-12-20T19:02:46Z</time>
      </trkpt>
      <trkpt lat="62.633413060733" lon="17.98744592073">
        <ele>54</ele>
        <time>2017-12-20T19:02:47Z</time>
      </trkpt>
      <trkpt lat="62.633390848698" lon="17.987395294054">
        <ele>54.2</ele>
        <time>2017-12-20T19:02:48Z</time>
      </trkpt>
      <trkpt lat="62.633374001079" lon="17.987346092301">
        <ele>54.4</ele>
        <time>2017-12-20T19:02:49Z</time>
      </trkpt>
      <trkpt lat="62.633341730764" lon="17.987255483962">
        <ele>54.6</ele>
        <time>2017-12-20T19:02:50Z</time>
      </trkpt>
      <trkpt lat="62.633321446566" lon="17.987168060745">
        <ele>54.8</ele>
        <time>2017-12-20T19:02:51Z</time>
      </trkpt>
      <trkpt lat="62.633304515128" lon="17.987054737457">
        <ele>54.8</ele>
        <time>2017-12-20T19:02:52Z</time>
      </trkpt>
      <trkpt lat="62.633286074948" lon="17.986964548213">
        <ele>54.2</ele>
        <time>2017-12-20T19:02:53Z</time>
      </trkpt>
      <trkpt lat="62.633271741899" lon="17.98688852438">
        <ele>53.4</ele>
        <time>2017-12-20T19:02:54Z</time>
      </trkpt>
      <trkpt lat="62.633266209845" lon="17.98678123606">
        <ele>52.6</ele>
        <time>2017-12-20T19:02:55Z</time>
      </trkpt>
      <trkpt lat="62.633245506552" lon="17.986654166456">
        <ele>51.8</ele>
        <time>2017-12-20T19:02:56Z</time>
      </trkpt>
      <trkpt lat="62.63323310134" lon="17.986550063258">
        <ele>51</ele>
        <time>2017-12-20T19:02:57Z</time>
      </trkpt>
      <trkpt lat="62.633230670589" lon="17.986437410522">
        <ele>50.8</ele>
        <time>2017-12-20T19:02:58Z</time>
      </trkpt>
      <trkpt lat="62.633234526263" lon="17.986343617061">
        <ele>50.6</ele>
        <time>2017-12-20T19:02:59Z</time>
      </trkpt>
      <trkpt lat="62.633238717213" lon="17.986238591854">
        <ele>50.6</ele>
        <time>2017-12-20T19:03:00Z</time>
      </trkpt>
      <trkpt lat="62.633244416905" lon="17.986126693489">
        <ele>50.6</ele>
        <time>2017-12-20T19:03:01Z</time>
      </trkpt>
      <trkpt lat="62.633242740525" lon="17.98599669022">
        <ele>50.4</ele>
        <time>2017-12-20T19:03:02Z</time>
      </trkpt>
      <trkpt lat="62.633246763837" lon="17.985856796309">
        <ele>50.2</ele>
        <time>2017-12-20T19:03:03Z</time>
      </trkpt>
      <trkpt lat="62.633256151565" lon="17.985747412514">
        <ele>50</ele>
        <time>2017-12-20T19:03:04Z</time>
      </trkpt>
      <trkpt lat="62.633252128253" lon="17.985679183848">
        <ele>49.8</ele>
        <time>2017-12-20T19:03:05Z</time>
      </trkpt>
      <trkpt lat="62.633266880397" lon="17.985488160347">
        <ele>49.4</ele>
        <time>2017-12-20T19:03:06Z</time>
      </trkpt>
      <trkpt lat="62.63328423093" lon="17.985325048573">
        <ele>49</ele>
        <time>2017-12-20T19:03:07Z</time>
      </trkpt>
      <trkpt lat="62.633309292811" lon="17.985173671459">
        <ele>48.4</ele>
        <time>2017-12-20T19:03:08Z</time>
      </trkpt>
      <trkpt lat="62.63333033138" lon="17.98502522801">
        <ele>48</ele>
        <time>2017-12-20T19:03:09Z</time>
      </trkpt>
      <trkpt lat="62.633361931143" lon="17.984872593611">
        <ele>47.4</ele>
        <time>2017-12-20T19:03:10Z</time>
      </trkpt>
      <trkpt lat="62.633381963884" lon="17.984739572858">
        <ele>46.8</ele>
        <time>2017-12-20T19:03:11Z</time>
      </trkpt>
      <trkpt lat="62.633410210887" lon="17.984614766367">
        <ele>46.2</ele>
        <time>2017-12-20T19:03:12Z</time>
      </trkpt>
      <trkpt lat="62.633437535881" lon="17.984489540781">
        <ele>45.6</ele>
        <time>2017-12-20T19:03:13Z</time>
      </trkpt>
      <trkpt lat="62.633449689636" lon="17.984371355991">
        <ele>45.2</ele>
        <time>2017-12-20T19:03:14Z</time>
      </trkpt>
      <trkpt lat="62.633458490631" lon="17.984246884776">
        <ele>45.2</ele>
        <time>2017-12-20T19:03:15Z</time>
      </trkpt>
      <trkpt lat="62.633459831735" lon="17.984138339171">
        <ele>45.2</ele>
        <time>2017-12-20T19:03:16Z</time>
      </trkpt>
      <trkpt lat="62.633466788712" lon="17.984027949548">
        <ele>45.2</ele>
        <time>2017-12-20T19:03:17Z</time>
      </trkpt>
      <trkpt lat="62.633459999373" lon="17.983939939598">
        <ele>45.2</ele>
        <time>2017-12-20T19:03:18Z</time>
      </trkpt>
      <trkpt lat="62.633461843391" lon="17.983837177504">
        <ele>45.2</ele>
        <time>2017-12-20T19:03:19Z</time>
      </trkpt>
      <trkpt lat="62.633468045997" lon="17.983755789255">
        <ele>45.6</ele>
        <time>2017-12-20T19:03:20Z</time>
      </trkpt>
      <trkpt lat="62.633491347679" lon="17.983652021333">
        <ele>45.8</ele>
        <time>2017-12-20T19:03:21Z</time>
      </trkpt>
      <trkpt lat="62.633499561941" lon="17.98356677741">
        <ele>46</ele>
        <time>2017-12-20T19:03:22Z</time>
      </trkpt>
      <trkpt lat="62.633503585253" lon="17.983497794373">
        <ele>46.4</ele>
        <time>2017-12-20T19:03:23Z</time>
      </trkpt>
      <trkpt lat="62.633515739008" lon="17.983406180206">
        <ele>46.6</ele>
        <time>2017-12-20T19:03:24Z</time>
      </trkpt>
      <trkpt lat="62.633537112853" lon="17.983334514961">
        <ele>47</ele>
        <time>2017-12-20T19:03:25Z</time>
      </trkpt>
      <trkpt lat="62.633538873052" lon="17.983261340974">
        <ele>47.2</ele>
        <time>2017-12-20T19:03:26Z</time>
      </trkpt>
      <trkpt lat="62.633554631024" lon="17.98317534268">
        <ele>47.2</ele>
        <time>2017-12-20T19:03:27Z</time>
      </trkpt>
      <trkpt lat="62.633573238842" lon="17.983109628584">
        <ele>47.2</ele>
        <time>2017-12-20T19:03:28Z</time>
      </trkpt>
      <trkpt lat="62.633586649882" lon="17.98304458504">
        <ele>47</ele>
        <time>2017-12-20T19:03:29Z</time>
      </trkpt>
      <trkpt lat="62.633609197193" lon="17.982950791579">
        <ele>47</ele>
        <time>2017-12-20T19:03:30Z</time>
      </trkpt>
      <trkpt lat="62.633613052867" lon="17.982897650333">
        <ele>47</ele>
        <time>2017-12-20T19:03:31Z</time>
      </trkpt>
      <trkpt lat="62.633636941282" lon="17.982816178265">
        <ele>47</ele>
        <time>2017-12-20T19:03:32Z</time>
      </trkpt>
      <trkpt lat="62.633660159145" lon="17.982752811101">
        <ele>47.2</ele>
        <time>2017-12-20T19:03:33Z</time>
      </trkpt>
      <trkpt lat="62.633668038131" lon="17.98267410506">
        <ele>47.2</ele>
        <time>2017-12-20T19:03:34Z</time>
      </trkpt>
      <trkpt lat="62.633678850782" lon="17.982578216124">
        <ele>47</ele>
        <time>2017-12-20T19:03:35Z</time>
      </trkpt>
      <trkpt lat="62.63370081136" lon="17.982510490372">
        <ele>47</ele>
        <time>2017-12-20T19:03:36Z</time>
      </trkpt>
      <trkpt lat="62.63370248774" lon="17.982429940313">
        <ele>47</ele>
        <time>2017-12-20T19:03:37Z</time>
      </trkpt>
      <trkpt lat="62.633708187432" lon="17.982326423848">
        <ele>47</ele>
        <time>2017-12-20T19:03:38Z</time>
      </trkpt>
      <trkpt lat="62.63369494403" lon="17.982280658674">
        <ele>47</ele>
        <time>2017-12-20T19:03:39Z</time>
      </trkpt>
      <trkpt lat="62.633707935975" lon="17.982177645123">
        <ele>47</ele>
        <time>2017-12-20T19:03:40Z</time>
      </trkpt>
      <trkpt lat="62.633711121097" lon="17.982117043986">
        <ele>47</ele>
        <time>2017-12-20T19:03:41Z</time>
      </trkpt>
      <trkpt lat="62.633717658979" lon="17.982046552207">
        <ele>47</ele>
        <time>2017-12-20T19:03:42Z</time>
      </trkpt>
      <trkpt lat="62.633721598472" lon="17.98196164356">
        <ele>47.2</ele>
        <time>2017-12-20T19:03:43Z</time>
      </trkpt>
      <trkpt lat="62.63371506059" lon="17.981901880613">
        <ele>47.2</ele>
        <time>2017-12-20T19:03:44Z</time>
      </trkpt>
      <trkpt lat="62.633724699775" lon="17.981816720509">
        <ele>47.2</ele>
        <time>2017-12-20T19:03:45Z</time>
      </trkpt>
      <trkpt lat="62.633738697548" lon="17.981749832947">
        <ele>47.4</ele>
        <time>2017-12-20T19:03:46Z</time>
      </trkpt>
      <trkpt lat="62.633733836046" lon="17.981682191014">
        <ele>47.4</ele>
        <time>2017-12-20T19:03:47Z</time>
      </trkpt>
      <trkpt lat="62.633740122471" lon="17.981580015653">
        <ele>47.4</ele>
        <time>2017-12-20T19:03:48Z</time>
      </trkpt>
      <trkpt lat="62.633760490488" lon="17.981539363438">
        <ele>47.4</ele>
        <time>2017-12-20T19:03:49Z</time>
      </trkpt>
      <trkpt lat="62.633783121618" lon="17.981466357089">
        <ele>47.6</ele>
        <time>2017-12-20T19:03:50Z</time>
      </trkpt>
      <trkpt lat="62.633801142703" lon="17.981399134251">
        <ele>47.6</ele>
        <time>2017-12-20T19:03:51Z</time>
      </trkpt>
      <trkpt lat="62.633806758576" lon="17.981342724064">
        <ele>47.6</ele>
        <time>2017-12-20T19:03:52Z</time>
      </trkpt>
      <trkpt lat="62.633830060258" lon="17.981267286964">
        <ele>47.6</ele>
        <time>2017-12-20T19:03:53Z</time>
      </trkpt>
      <trkpt lat="62.633842046375" lon="17.981205931456">
        <ele>47.6</ele>
        <time>2017-12-20T19:03:54Z</time>
      </trkpt>
      <trkpt lat="62.633850176818" lon="17.981164776327">
        <ele>47.8</ele>
        <time>2017-12-20T19:03:55Z</time>
      </trkpt>
      <trkpt lat="62.633857971985" lon="17.981121358085">
        <ele>47.8</ele>
        <time>2017-12-20T19:03:56Z</time>
      </trkpt>
      <trkpt lat="62.633877837088" lon="17.981087495209">
        <ele>48</ele>
        <time>2017-12-20T19:03:57Z</time>
      </trkpt>
      <trkpt lat="62.633895774354" lon="17.981051788315">
        <ele>47.8</ele>
        <time>2017-12-20T19:03:58Z</time>
      </trkpt>
      <trkpt lat="62.633907173738" lon="17.981014321222">
        <ele>47.8</ele>
        <time>2017-12-20T19:03:59Z</time>
      </trkpt>
      <trkpt lat="62.633928882859" lon="17.980968304591">
        <ele>47.8</ele>
        <time>2017-12-20T19:04:00Z</time>
      </trkpt>
      <trkpt lat="62.633946568668" lon="17.980914408974">
        <ele>48</ele>
        <time>2017-12-20T19:04:01Z</time>
      </trkpt>
      <trkpt lat="62.633965176486" lon="17.980865039583">
        <ele>48</ele>
        <time>2017-12-20T19:04:02Z</time>
      </trkpt>
      <trkpt lat="62.633982778476" lon="17.980824052092">
        <ele>48</ele>
        <time>2017-12-20T19:04:03Z</time>
      </trkpt>
      <trkpt lat="62.634001637751" lon="17.980778370737">
        <ele>48.2</ele>
        <time>2017-12-20T19:04:04Z</time>
      </trkpt>
      <trkpt lat="62.634014881153" lon="17.980724642758">
        <ele>48.2</ele>
        <time>2017-12-20T19:04:05Z</time>
      </trkpt>
      <trkpt lat="62.63403776374" lon="17.980657168463">
        <ele>48.2</ele>
        <time>2017-12-20T19:04:06Z</time>
      </trkpt>
      <trkpt lat="62.634057796481" lon="17.980606374149">
        <ele>48.4</ele>
        <time>2017-12-20T19:04:07Z</time>
      </trkpt>
      <trkpt lat="62.6340997898" lon="17.980538983673">
        <ele>48.4</ele>
        <time>2017-12-20T19:04:08Z</time>
      </trkpt>
      <trkpt lat="62.634126779518" lon="17.980494727241">
        <ele>48.4</ele>
        <time>2017-12-20T19:04:09Z</time>
      </trkpt>
      <trkpt lat="62.634149662105" lon="17.980437059769">
        <ele>48.4</ele>
        <time>2017-12-20T19:04:10Z</time>
      </trkpt>
      <trkpt lat="62.634169108113" lon="17.980388863844">
        <ele>48.4</ele>
        <time>2017-12-20T19:04:11Z</time>
      </trkpt>
      <trkpt lat="62.634192158338" lon="17.98034226048">
        <ele>48.6</ele>
        <time>2017-12-20T19:04:12Z</time>
      </trkpt>
      <trkpt lat="62.634215795296" lon="17.980293142546">
        <ele>48.6</ele>
        <time>2017-12-20T19:04:13Z</time>
      </trkpt>
      <trkpt lat="62.634251669828" lon="17.980266907199">
        <ele>48.6</ele>
        <time>2017-12-20T19:04:14Z</time>
      </trkpt>
      <trkpt lat="62.634291483853" lon="17.980226757898">
        <ele>48.8</ele>
        <time>2017-12-20T19:04:15Z</time>
      </trkpt>
      <trkpt lat="62.634321239598" lon="17.980194822859">
        <ele>48.8</ele>
        <time>2017-12-20T19:04:16Z</time>
      </trkpt>
      <trkpt lat="62.634336075561" lon="17.98015785868">
        <ele>48.8</ele>
        <time>2017-12-20T19:04:17Z</time>
      </trkpt>
      <trkpt lat="62.634366669496" lon="17.98009247986">
        <ele>48.6</ele>
        <time>2017-12-20T19:04:18Z</time>
      </trkpt>
      <trkpt lat="62.634379996717" lon="17.980022323357">
        <ele>48.6</ele>
        <time>2017-12-20T19:04:19Z</time>
      </trkpt>
      <trkpt lat="62.634389384445" lon="17.979927440249">
        <ele>48.6</ele>
        <time>2017-12-20T19:04:20Z</time>
      </trkpt>
      <trkpt lat="62.634404136589" lon="17.979844040344">
        <ele>48.6</ele>
        <time>2017-12-20T19:04:21Z</time>
      </trkpt>
      <trkpt lat="62.634413859593" lon="17.979745720657">
        <ele>48.6</ele>
        <time>2017-12-20T19:04:22Z</time>
      </trkpt>
      <trkpt lat="62.634423582597" lon="17.979667685168">
        <ele>48.4</ele>
        <time>2017-12-20T19:04:23Z</time>
      </trkpt>
      <trkpt lat="62.634438502379" lon="17.97958537491">
        <ele>48.6</ele>
        <time>2017-12-20T19:04:24Z</time>
      </trkpt>
      <trkpt lat="62.634452416333" lon="17.979499208978">
        <ele>48.6</ele>
        <time>2017-12-20T19:04:25Z</time>
      </trkpt>
      <trkpt lat="62.634459624767" lon="17.979444223714">
        <ele>48.6</ele>
        <time>2017-12-20T19:04:26Z</time>
      </trkpt>
      <trkpt lat="62.63447362254" lon="17.979348083321">
        <ele>48.6</ele>
        <time>2017-12-20T19:04:27Z</time>
      </trkpt>
      <trkpt lat="62.63447865168" lon="17.979260660104">
        <ele>48.6</ele>
        <time>2017-12-20T19:04:28Z</time>
      </trkpt>
      <trkpt lat="62.634492397996" lon="17.979207183582">
        <ele>48.4</ele>
        <time>2017-12-20T19:04:29Z</time>
      </trkpt>
      <trkpt lat="62.634514358574" lon="17.979111965198">
        <ele>48.6</ele>
        <time>2017-12-20T19:04:30Z</time>
      </trkpt>
      <trkpt lat="62.634527518157" lon="17.979049268586">
        <ele>48.6</ele>
        <time>2017-12-20T19:04:31Z</time>
      </trkpt>
      <trkpt lat="62.634558782644" lon="17.97892488119">
        <ele>48.4</ele>
        <time>2017-12-20T19:04:33Z</time>
      </trkpt>
      <trkpt lat="62.634583844525" lon="17.978885821536">
        <ele>48.4</ele>
        <time>2017-12-20T19:04:34Z</time>
      </trkpt>
      <trkpt lat="62.634610498967" lon="17.978855562877">
        <ele>48.4</ele>
        <time>2017-12-20T19:04:35Z</time>
      </trkpt>
      <trkpt lat="62.634635141753" lon="17.978846761882">
        <ele>48.2</ele>
        <time>2017-12-20T19:04:36Z</time>
      </trkpt>
      <trkpt lat="62.634656767055" lon="17.978821448544">
        <ele>48.2</ele>
        <time>2017-12-20T19:04:37Z</time>
      </trkpt>
      <trkpt lat="62.634676045425" lon="17.978813318101">
        <ele>48.4</ele>
        <time>2017-12-20T19:04:38Z</time>
      </trkpt>
      <trkpt lat="62.634703621876" lon="17.97882094563">
        <ele>48.4</ele>
        <time>2017-12-20T19:04:39Z</time>
      </trkpt>
      <trkpt lat="62.634733377621" lon="17.978834440489">
        <ele>48.4</ele>
        <time>2017-12-20T19:04:40Z</time>
      </trkpt>
      <trkpt lat="62.634762462814" lon="17.978844917864">
        <ele>48.6</ele>
        <time>2017-12-20T19:04:41Z</time>
      </trkpt>
      <trkpt lat="62.634793978758" lon="17.97886285513">
        <ele>48.6</ele>
        <time>2017-12-20T19:04:42Z</time>
      </trkpt>
      <trkpt lat="62.634825578521" lon="17.978874505971">
        <ele>48.4</ele>
        <time>2017-12-20T19:04:43Z</time>
      </trkpt>
      <trkpt lat="62.634869415858" lon="17.978890850676">
        <ele>48.4</ele>
        <time>2017-12-20T19:04:44Z</time>
      </trkpt>
      <trkpt lat="62.634909900435" lon="17.978908201209">
        <ele>48.2</ele>
        <time>2017-12-20T19:04:45Z</time>
      </trkpt>
      <trkpt lat="62.634939572361" lon="17.978916164014">
        <ele>48</ele>
        <time>2017-12-20T19:04:46Z</time>
      </trkpt>
      <trkpt lat="62.634968909011" lon="17.978926976665">
        <ele>47.8</ele>
        <time>2017-12-20T19:04:47Z</time>
      </trkpt>
      <trkpt lat="62.635008052484" lon="17.978942231723">
        <ele>47.8</ele>
        <time>2017-12-20T19:04:48Z</time>
      </trkpt>
      <trkpt lat="62.635028839596" lon="17.978958241152">
        <ele>47.6</ele>
        <time>2017-12-20T19:04:49Z</time>
      </trkpt>
      <trkpt lat="62.635057673332" lon="17.978973244753">
        <ele>47.4</ele>
        <time>2017-12-20T19:04:50Z</time>
      </trkpt>
      <trkpt lat="62.635080555919" lon="17.978981123739">
        <ele>47.4</ele>
        <time>2017-12-20T19:04:51Z</time>
      </trkpt>
      <trkpt lat="62.63510394142" lon="17.978993109856">
        <ele>47.4</ele>
        <time>2017-12-20T19:04:52Z</time>
      </trkpt>
      <trkpt lat="62.635131853147" lon="17.97900283286">
        <ele>47.4</ele>
        <time>2017-12-20T19:04:53Z</time>
      </trkpt>
      <trkpt lat="62.635157334123" lon="17.979011969131">
        <ele>47.6</ele>
        <time>2017-12-20T19:04:54Z</time>
      </trkpt>
      <trkpt lat="62.635188682429" lon="17.97902630218">
        <ele>47.6</ele>
        <time>2017-12-20T19:04:55Z</time>
      </trkpt>
      <trkpt lat="62.635220366011" lon="17.979047005473">
        <ele>47.6</ele>
        <time>2017-12-20T19:04:56Z</time>
      </trkpt>
      <trkpt lat="62.635251714317" lon="17.979058488676">
        <ele>47.4</ele>
        <time>2017-12-20T19:04:57Z</time>
      </trkpt>
      <trkpt lat="62.635288427039" lon="17.979059159228">
        <ele>47.4</ele>
        <time>2017-12-20T19:04:58Z</time>
      </trkpt>
      <trkpt lat="62.63531684168" lon="17.979066032386">
        <ele>47.2</ele>
        <time>2017-12-20T19:04:59Z</time>
      </trkpt>
      <trkpt lat="62.635353554402" lon="17.979077012675">
        <ele>46.8</ele>
        <time>2017-12-20T19:05:00Z</time>
      </trkpt>
      <trkpt lat="62.635387417278" lon="17.979077683227">
        <ele>46.6</ele>
        <time>2017-12-20T19:05:01Z</time>
      </trkpt>
      <trkpt lat="62.63542077724" lon="17.97907407901">
        <ele>46.6</ele>
        <time>2017-12-20T19:05:02Z</time>
      </trkpt>
      <trkpt lat="62.635454807754" lon="17.979070810069">
        <ele>46.4</ele>
        <time>2017-12-20T19:05:03Z</time>
      </trkpt>
      <trkpt lat="62.63548867063" lon="17.979066032386">
        <ele>46.2</ele>
        <time>2017-12-20T19:05:04Z</time>
      </trkpt>
      <trkpt lat="62.635508116638" lon="17.979064104549">
        <ele>46.2</ele>
        <time>2017-12-20T19:05:05Z</time>
      </trkpt>
      <trkpt lat="62.635556228744" lon="17.979049855319">
        <ele>46</ele>
        <time>2017-12-20T19:05:06Z</time>
      </trkpt>
      <trkpt lat="62.635599814624" lon="17.979037617745">
        <ele>46</ele>
        <time>2017-12-20T19:05:07Z</time>
      </trkpt>
      <trkpt lat="62.63563870664" lon="17.979037869202">
        <ele>45.8</ele>
        <time>2017-12-20T19:05:08Z</time>
      </trkpt>
      <trkpt lat="62.635673742982" lon="17.979037114831">
        <ele>45.6</ele>
        <time>2017-12-20T19:05:09Z</time>
      </trkpt>
      <trkpt lat="62.635716825948" lon="17.979033426795">
        <ele>45.6</ele>
        <time>2017-12-20T19:05:10Z</time>
      </trkpt>
      <trkpt lat="62.635757142887" lon="17.97903133132">
        <ele>45.4</ele>
        <time>2017-12-20T19:05:11Z</time>
      </trkpt>
      <trkpt lat="62.635796118722" lon="17.979029403483">
        <ele>45.2</ele>
        <time>2017-12-20T19:05:12Z</time>
      </trkpt>
      <trkpt lat="62.635836854756" lon="17.979031918053">
        <ele>45</ele>
        <time>2017-12-20T19:05:13Z</time>
      </trkpt>
      <trkpt lat="62.635871304365" lon="17.9790330077">
        <ele>44.8</ele>
        <time>2017-12-20T19:05:14Z</time>
      </trkpt>
      <trkpt lat="62.635906675983" lon="17.979040970505">
        <ele>44.6</ele>
        <time>2017-12-20T19:05:15Z</time>
      </trkpt>
      <trkpt lat="62.635936096452" lon="17.979054633002">
        <ele>44.4</ele>
        <time>2017-12-20T19:05:16Z</time>
      </trkpt>
      <trkpt lat="62.635956045374" lon="17.979051364061">
        <ele>44.2</ele>
        <time>2017-12-20T19:05:17Z</time>
      </trkpt>
      <trkpt lat="62.63598068816" lon="17.979064523644">
        <ele>44</ele>
        <time>2017-12-20T19:05:18Z</time>
      </trkpt>
      <trkpt lat="62.635999463616" lon="17.979068463137">
        <ele>44</ele>
        <time>2017-12-20T19:05:19Z</time>
      </trkpt>
      <trkpt lat="62.636011030638" lon="17.979072905544">
        <ele>44</ele>
        <time>2017-12-20T19:05:20Z</time>
      </trkpt>
      <trkpt lat="62.63602427404" lon="17.979071899716">
        <ele>44</ele>
        <time>2017-12-20T19:05:21Z</time>
      </trkpt>
      <trkpt lat="62.636031147198" lon="17.979069636603">
        <ele>44.2</ele>
        <time>2017-12-20T19:05:22Z</time>
      </trkpt>
      <trkpt lat="62.636036260157" lon="17.979062679626">
        <ele>44.2</ele>
        <time>2017-12-20T19:05:23Z</time>
      </trkpt>
      <trkpt lat="62.636040115831" lon="17.979062260531">
        <ele>44.2</ele>
        <time>2017-12-20T19:05:24Z</time>
      </trkpt>
      <trkpt lat="62.636043217134" lon="17.979057231391">
        <ele>44.4</ele>
        <time>2017-12-20T19:05:25Z</time>
      </trkpt>
      <trkpt lat="62.63604774336" lon="17.979057985762">
        <ele>44.4</ele>
        <time>2017-12-20T19:05:26Z</time>
      </trkpt>
      <trkpt lat="62.636053191595" lon="17.979066870576">
        <ele>44.4</ele>
        <time>2017-12-20T19:05:27Z</time>
      </trkpt>
      <trkpt lat="62.636059058925" lon="17.979074665743">
        <ele>44.4</ele>
        <time>2017-12-20T19:05:28Z</time>
      </trkpt>
      <trkpt lat="62.636060735305" lon="17.979081874177">
        <ele>44.4</ele>
        <time>2017-12-20T19:05:29Z</time>
      </trkpt>
      <trkpt lat="62.636068530472" lon="17.979095620493">
        <ele>44.4</ele>
        <time>2017-12-20T19:05:30Z</time>
      </trkpt>
      <trkpt lat="62.636067189368" lon="17.979092100095">
        <ele>44.4</ele>
        <time>2017-12-20T19:05:31Z</time>
      </trkpt>
      <trkpt lat="62.636065932083" lon="17.979091681">
        <ele>44.4</ele>
        <time>2017-12-20T19:05:32Z</time>
      </trkpt>
      <trkpt lat="62.63604355241" lon="17.97942108967">
        <ele>43.8</ele>
        <time>2017-12-20T19:05:54Z</time>
      </trkpt>
      <trkpt lat="62.63604103784" lon="17.979523516488">
        <ele>43.8</ele>
        <time>2017-12-20T19:05:55Z</time>
      </trkpt>
      <trkpt lat="62.636036595433" lon="17.979616052664">
        <ele>43.8</ele>
        <time>2017-12-20T19:05:56Z</time>
      </trkpt>
      <trkpt lat="62.636036343976" lon="17.979739769508">
        <ele>43.8</ele>
        <time>2017-12-20T19:05:57Z</time>
      </trkpt>
      <trkpt lat="62.63602846499" lon="17.979902965101">
        <ele>43.2</ele>
        <time>2017-12-20T19:05:58Z</time>
      </trkpt>
      <trkpt lat="62.636033242673" lon="17.980034477112">
        <ele>43</ele>
        <time>2017-12-20T19:05:59Z</time>
      </trkpt>
      <trkpt lat="62.6360527725" lon="17.980230865029">
        <ele>42.4</ele>
        <time>2017-12-20T19:06:00Z</time>
      </trkpt>
      <trkpt lat="62.636079678399" lon="17.980376123356">
        <ele>41.2</ele>
        <time>2017-12-20T19:06:01Z</time>
      </trkpt>
      <trkpt lat="62.636102477167" lon="17.980519034751">
        <ele>39.8</ele>
        <time>2017-12-20T19:06:02Z</time>
      </trkpt>
      <trkpt lat="62.636125108297" lon="17.980657755196">
        <ele>39</ele>
        <time>2017-12-20T19:06:03Z</time>
      </trkpt>
      <trkpt lat="62.63614916435" lon="17.980779208927">
        <ele>38.4</ele>
        <time>2017-12-20T19:06:04Z</time>
      </trkpt>
      <trkpt lat="62.636171376385" lon="17.980904769789">
        <ele>38.4</ele>
        <time>2017-12-20T19:06:05Z</time>
      </trkpt>
      <trkpt lat="62.636177327534" lon="17.980965287107">
        <ele>38.4</ele>
        <time>2017-12-20T19:06:06Z</time>
      </trkpt>
      <trkpt lat="62.636208927297" lon="17.981155053323">
        <ele>38.4</ele>
        <time>2017-12-20T19:06:07Z</time>
      </trkpt>
      <trkpt lat="62.636224769088" lon="17.981302071849">
        <ele>38.2</ele>
        <time>2017-12-20T19:06:08Z</time>
      </trkpt>
      <trkpt lat="62.636237258119" lon="17.98141430549">
        <ele>38</ele>
        <time>2017-12-20T19:06:09Z</time>
      </trkpt>
      <trkpt lat="62.636260727439" lon="17.981535675402">
        <ele>37.4</ele>
        <time>2017-12-20T19:06:10Z</time>
      </trkpt>
      <trkpt lat="62.636271791547" lon="17.981638772772">
        <ele>36.8</ele>
        <time>2017-12-20T19:06:11Z</time>
      </trkpt>
      <trkpt lat="62.636283358569" lon="17.981727117998">
        <ele>36.4</ele>
        <time>2017-12-20T19:06:12Z</time>
      </trkpt>
      <trkpt lat="62.636300541464" lon="17.981847146806">
        <ele>36</ele>
        <time>2017-12-20T19:06:13Z</time>
      </trkpt>
      <trkpt lat="62.636308252812" lon="17.981946472321">
        <ele>35.8</ele>
        <time>2017-12-20T19:06:14Z</time>
      </trkpt>
      <trkpt lat="62.63630925864" lon="17.982052251899">
        <ele>35.6</ele>
        <time>2017-12-20T19:06:15Z</time>
      </trkpt>
      <trkpt lat="62.636309845373" lon="17.982129449198">
        <ele>35.6</ele>
        <time>2017-12-20T19:06:16Z</time>
      </trkpt>
      <trkpt lat="62.636309761554" lon="17.982222739745">
        <ele>35.6</ele>
        <time>2017-12-20T19:06:17Z</time>
      </trkpt>
      <trkpt lat="62.636317221445" lon="17.982309408591">
        <ele>35.6</ele>
        <time>2017-12-20T19:06:18Z</time>
      </trkpt>
      <trkpt lat="62.636313281952" lon="17.982363304208">
        <ele>35.6</ele>
        <time>2017-12-20T19:06:19Z</time>
      </trkpt>
      <trkpt lat="62.636308755726" lon="17.982448129036">
        <ele>36</ele>
        <time>2017-12-20T19:06:20Z</time>
      </trkpt>
      <trkpt lat="62.636312862857" lon="17.982545778171">
        <ele>36.2</ele>
        <time>2017-12-20T19:06:21Z</time>
      </trkpt>
      <trkpt lat="62.636309007183" lon="17.982625322402">
        <ele>36.6</ele>
        <time>2017-12-20T19:06:22Z</time>
      </trkpt>
      <trkpt lat="62.636308839545" lon="17.982712745619">
        <ele>36.8</ele>
        <time>2017-12-20T19:06:23Z</time>
      </trkpt>
      <trkpt lat="62.636309845373" lon="17.982795558791">
        <ele>36.8</ele>
        <time>2017-12-20T19:06:24Z</time>
      </trkpt>
      <trkpt lat="62.636301798749" lon="17.982887759691">
        <ele>36.6</ele>
        <time>2017-12-20T19:06:25Z</time>
      </trkpt>
      <trkpt lat="62.636307414622" lon="17.982979457677">
        <ele>36.6</ele>
        <time>2017-12-20T19:06:26Z</time>
      </trkpt>
      <trkpt lat="62.636305319147" lon="17.98304709961">
        <ele>36.6</ele>
        <time>2017-12-20T19:06:27Z</time>
      </trkpt>
      <trkpt lat="62.636304397138" lon="17.983133936094">
        <ele>36.8</ele>
        <time>2017-12-20T19:06:28Z</time>
      </trkpt>
      <trkpt lat="62.636310851201" lon="17.983218425646">
        <ele>36.8</ele>
        <time>2017-12-20T19:06:29Z</time>
      </trkpt>
      <trkpt lat="62.63630674407" lon="17.983354044788">
        <ele>36.6</ele>
        <time>2017-12-20T19:06:30Z</time>
      </trkpt>
      <trkpt lat="62.636289058261" lon="17.983428727517">
        <ele>36.6</ele>
        <time>2017-12-20T19:06:31Z</time>
      </trkpt>
      <trkpt lat="62.636278832343" lon="17.983497962011">
        <ele>36.8</ele>
        <time>2017-12-20T19:06:32Z</time>
      </trkpt>
      <trkpt lat="62.636278748524" lon="17.983564849573">
        <ele>36.6</ele>
        <time>2017-12-20T19:06:33Z</time>
      </trkpt>
      <trkpt lat="62.63628076018" lon="17.983623690511">
        <ele>36.6</ele>
        <time>2017-12-20T19:06:34Z</time>
      </trkpt>
      <trkpt lat="62.636265169846" lon="17.983691332444">
        <ele>36.6</ele>
        <time>2017-12-20T19:06:35Z</time>
      </trkpt>
      <trkpt lat="62.636261733267" lon="17.983766518087">
        <ele>36.8</ele>
        <time>2017-12-20T19:06:36Z</time>
      </trkpt>
      <trkpt lat="62.636256787946" lon="17.983818066772">
        <ele>37</ele>
        <time>2017-12-20T19:06:37Z</time>
      </trkpt>
      <trkpt lat="62.63625477629" lon="17.983895766985">
        <ele>37</ele>
        <time>2017-12-20T19:06:38Z</time>
      </trkpt>
      <trkpt lat="62.636246142933" lon="17.98394396291">
        <ele>37</ele>
        <time>2017-12-20T19:06:39Z</time>
      </trkpt>
      <trkpt lat="62.636246142933" lon="17.984002971486">
        <ele>37.4</ele>
        <time>2017-12-20T19:06:40Z</time>
      </trkpt>
      <trkpt lat="62.636238263947" lon="17.98406969141">
        <ele>37.6</ele>
        <time>2017-12-20T19:06:41Z</time>
      </trkpt>
      <trkpt lat="62.636227535115" lon="17.984120653362">
        <ele>37.8</ele>
        <time>2017-12-20T19:06:42Z</time>
      </trkpt>
      <trkpt lat="62.636219991405" lon="17.984177985558">
        <ele>38</ele>
        <time>2017-12-20T19:06:43Z</time>
      </trkpt>
      <trkpt lat="62.636215632817" lon="17.984239592523">
        <ele>38.2</ele>
        <time>2017-12-20T19:06:44Z</time>
      </trkpt>
      <trkpt lat="62.636205406899" lon="17.984291727941">
        <ele>38.2</ele>
        <time>2017-12-20T19:06:45Z</time>
      </trkpt>
      <trkpt lat="62.63620616127" lon="17.984384180298">
        <ele>38.2</ele>
        <time>2017-12-20T19:06:46Z</time>
      </trkpt>
      <trkpt lat="62.636197947008" lon="17.984462299606">
        <ele>38.2</ele>
        <time>2017-12-20T19:06:47Z</time>
      </trkpt>
      <trkpt lat="62.636195683895" lon="17.984528684254">
        <ele>38.2</ele>
        <time>2017-12-20T19:06:48Z</time>
      </trkpt>
      <trkpt lat="62.636187469633" lon="17.984583418061">
        <ele>38.4</ele>
        <time>2017-12-20T19:06:49Z</time>
      </trkpt>
      <trkpt lat="62.636173890955" lon="17.984664135758">
        <ele>38.4</ele>
        <time>2017-12-20T19:06:50Z</time>
      </trkpt>
      <trkpt lat="62.636170370557" lon="17.984709649475">
        <ele>38.4</ele>
        <time>2017-12-20T19:06:51Z</time>
      </trkpt>
      <trkpt lat="62.636167101616" lon="17.984762958359">
        <ele>38.6</ele>
        <time>2017-12-20T19:06:52Z</time>
      </trkpt>
      <trkpt lat="62.636163916494" lon="17.984821044926">
        <ele>38.6</ele>
        <time>2017-12-20T19:06:53Z</time>
      </trkpt>
      <trkpt lat="62.636156456603" lon="17.984899331872">
        <ele>38.8</ele>
        <time>2017-12-20T19:06:54Z</time>
      </trkpt>
      <trkpt lat="62.636166179607" lon="17.984948868901">
        <ele>39</ele>
        <time>2017-12-20T19:06:55Z</time>
      </trkpt>
      <trkpt lat="62.636162491571" lon="17.985013158074">
        <ele>39</ele>
        <time>2017-12-20T19:06:56Z</time>
      </trkpt>
      <trkpt lat="62.636160312277" lon="17.985063700931">
        <ele>39.2</ele>
        <time>2017-12-20T19:06:57Z</time>
      </trkpt>
      <trkpt lat="62.636153690576" lon="17.985126565181">
        <ele>39.2</ele>
        <time>2017-12-20T19:06:58Z</time>
      </trkpt>
      <trkpt lat="62.636148577617" lon="17.985175180201">
        <ele>39.2</ele>
        <time>2017-12-20T19:06:59Z</time>
      </trkpt>
      <trkpt lat="62.636147236513" lon="17.985224633411">
        <ele>39.2</ele>
        <time>2017-12-20T19:07:00Z</time>
      </trkpt>
      <trkpt lat="62.63614078245" lon="17.985300405787">
        <ele>39.2</ele>
        <time>2017-12-20T19:07:01Z</time>
      </trkpt>
      <trkpt lat="62.636126952315" lon="17.985355558689">
        <ele>39.2</ele>
        <time>2017-12-20T19:07:02Z</time>
      </trkpt>
      <trkpt lat="62.636133574016" lon="17.985397132913">
        <ele>39.4</ele>
        <time>2017-12-20T19:07:03Z</time>
      </trkpt>
      <trkpt lat="62.636126449401" lon="17.985458488421">
        <ele>39.6</ele>
        <time>2017-12-20T19:07:04Z</time>
      </trkpt>
      <trkpt lat="62.63612485684" lon="17.985498218627">
        <ele>39.8</ele>
        <time>2017-12-20T19:07:05Z</time>
      </trkpt>
      <trkpt lat="62.636116391121" lon="17.985560999058">
        <ele>40</ele>
        <time>2017-12-20T19:07:06Z</time>
      </trkpt>
      <trkpt lat="62.636104572642" lon="17.985626294059">
        <ele>40.2</ele>
        <time>2017-12-20T19:07:07Z</time>
      </trkpt>
      <trkpt lat="62.636095184914" lon="17.985692343431">
        <ele>40.2</ele>
        <time>2017-12-20T19:07:08Z</time>
      </trkpt>
      <trkpt lat="62.636069452481" lon="17.985745652315">
        <ele>40.2</ele>
        <time>2017-12-20T19:07:09Z</time>
      </trkpt>
      <trkpt lat="62.636053862147" lon="17.985804828529">
        <ele>40.4</ele>
        <time>2017-12-20T19:07:10Z</time>
      </trkpt>
      <trkpt lat="62.636043720048" lon="17.985825364184">
        <ele>40.4</ele>
        <time>2017-12-20T19:07:11Z</time>
      </trkpt>
      <trkpt lat="62.636018993443" lon="17.98587096172">
        <ele>40.4</ele>
        <time>2017-12-20T19:07:12Z</time>
      </trkpt>
      <trkpt lat="62.635995859399" lon="17.98587599086">
        <ele>40.6</ele>
        <time>2017-12-20T19:07:13Z</time>
      </trkpt>
      <trkpt lat="62.635979347056" lon="17.985898202895">
        <ele>40.6</ele>
        <time>2017-12-20T19:07:14Z</time>
      </trkpt>
      <trkpt lat="62.635960403962" lon="17.985915804885">
        <ele>40.8</ele>
        <time>2017-12-20T19:07:15Z</time>
      </trkpt>
      <trkpt lat="62.635940203583" lon="17.985927874821">
        <ele>40.8</ele>
        <time>2017-12-20T19:07:16Z</time>
      </trkpt>
      <trkpt lat="62.635926289629" lon="17.985934915617">
        <ele>41</ele>
        <time>2017-12-20T19:07:17Z</time>
      </trkpt>
      <trkpt lat="62.63590776563" lon="17.985953691073">
        <ele>41.2</ele>
        <time>2017-12-20T19:07:18Z</time>
      </trkpt>
      <trkpt lat="62.63588932545" lon="17.985966180104">
        <ele>41.2</ele>
        <time>2017-12-20T19:07:19Z</time>
      </trkpt>
      <trkpt lat="62.635868286881" lon="17.985991158166">
        <ele>41.2</ele>
        <time>2017-12-20T19:07:20Z</time>
      </trkpt>
      <trkpt lat="62.635844733742" lon="17.986014208391">
        <ele>41.2</ele>
        <time>2017-12-20T19:07:21Z</time>
      </trkpt>
      <trkpt lat="62.635820677689" lon="17.986058464823">
        <ele>41.2</ele>
        <time>2017-12-20T19:07:22Z</time>
      </trkpt>
      <trkpt lat="62.635794777618" lon="17.986102972712">
        <ele>41.2</ele>
        <time>2017-12-20T19:07:23Z</time>
      </trkpt>
      <trkpt lat="62.635770805384" lon="17.986141026538">
        <ele>41.2</ele>
        <time>2017-12-20T19:07:24Z</time>
      </trkpt>
      <trkpt lat="62.635755717964" lon="17.986191234119">
        <ele>41.4</ele>
        <time>2017-12-20T19:07:25Z</time>
      </trkpt>
      <trkpt lat="62.635738032155" lon="17.986230964325">
        <ele>41.6</ele>
        <time>2017-12-20T19:07:26Z</time>
      </trkpt>
      <trkpt lat="62.635718837604" lon="17.986261222984">
        <ele>41.8</ele>
        <time>2017-12-20T19:07:27Z</time>
      </trkpt>
      <trkpt lat="62.635699726872" lon="17.986313442221">
        <ele>42.2</ele>
        <time>2017-12-20T19:07:28Z</time>
      </trkpt>
      <trkpt lat="62.635676341371" lon="17.986356944282">
        <ele>42.4</ele>
        <time>2017-12-20T19:07:29Z</time>
      </trkpt>
      <trkpt lat="62.635657398277" lon="17.986405224026">
        <ele>42.6</ele>
        <time>2017-12-20T19:07:30Z</time>
      </trkpt>
      <trkpt lat="62.635632671672" lon="17.986471608674">
        <ele>42.8</ele>
        <time>2017-12-20T19:07:31Z</time>
      </trkpt>
      <trkpt lat="62.635610459637" lon="17.986499185125">
        <ele>43</ele>
        <time>2017-12-20T19:07:32Z</time>
      </trkpt>
      <trkpt lat="62.635589923982" lon="17.986568000524">
        <ele>43</ele>
        <time>2017-12-20T19:07:33Z</time>
      </trkpt>
      <trkpt lat="62.635560922608" lon="17.9866186272">
        <ele>43.2</ele>
        <time>2017-12-20T19:07:34Z</time>
      </trkpt>
      <trkpt lat="62.635551115785" lon="17.986674115378">
        <ele>43.2</ele>
        <time>2017-12-20T19:07:35Z</time>
      </trkpt>
      <trkpt lat="62.635532507967" lon="17.986712923575">
        <ele>43.2</ele>
        <time>2017-12-20T19:07:36Z</time>
      </trkpt>
      <trkpt lat="62.635513564873" lon="17.986757012369">
        <ele>43.2</ele>
        <time>2017-12-20T19:07:37Z</time>
      </trkpt>
      <trkpt lat="62.635500572928" lon="17.986823397017">
        <ele>43.4</ele>
        <time>2017-12-20T19:07:38Z</time>
      </trkpt>
      <trkpt lat="62.635476684513" lon="17.986872012037">
        <ele>43.6</ele>
        <time>2017-12-20T19:07:39Z</time>
      </trkpt>
      <trkpt lat="62.635457406143" lon="17.98691786103">
        <ele>43.6</ele>
        <time>2017-12-20T19:07:40Z</time>
      </trkpt>
      <trkpt lat="62.635439301239" lon="17.986958848521">
        <ele>43.6</ele>
        <time>2017-12-20T19:07:41Z</time>
      </trkpt>
      <trkpt lat="62.635418095032" lon="17.987007714998">
        <ele>43.8</ele>
        <time>2017-12-20T19:07:42Z</time>
      </trkpt>
      <trkpt lat="62.635396050635" lon="17.987067729402">
        <ele>43.8</ele>
        <time>2017-12-20T19:07:43Z</time>
      </trkpt>
      <trkpt lat="62.635379789749" lon="17.987109638902">
        <ele>44</ele>
        <time>2017-12-20T19:07:44Z</time>
      </trkpt>
      <trkpt lat="62.635353889678" lon="17.987163785976">
        <ele>44.2</ele>
        <time>2017-12-20T19:07:45Z</time>
      </trkpt>
      <trkpt lat="62.635336874421" lon="17.987230254443">
        <ele>44.2</ele>
        <time>2017-12-20T19:07:46Z</time>
      </trkpt>
      <trkpt lat="62.635309046513" lon="17.987266715708">
        <ele>44.2</ele>
        <time>2017-12-20T19:07:47Z</time>
      </trkpt>
      <trkpt lat="62.635294042912" lon="17.987317845298">
        <ele>44.4</ele>
        <time>2017-12-20T19:07:48Z</time>
      </trkpt>
      <trkpt lat="62.635268897212" lon="17.987371573277">
        <ele>44.6</ele>
        <time>2017-12-20T19:07:49Z</time>
      </trkpt>
      <trkpt lat="62.635233944689" lon="17.987427312912">
        <ele>44.6</ele>
        <time>2017-12-20T19:07:50Z</time>
      </trkpt>
      <trkpt lat="62.635217851441" lon="17.98745430263">
        <ele>44.8</ele>
        <time>2017-12-20T19:07:51Z</time>
      </trkpt>
      <trkpt lat="62.635212403206" lon="17.987483555461">
        <ele>44.8</ele>
        <time>2017-12-20T19:07:52Z</time>
      </trkpt>
      <trkpt lat="62.635198321614" lon="17.987513311206">
        <ele>45.2</ele>
        <time>2017-12-20T19:07:53Z</time>
      </trkpt>
      <trkpt lat="62.635173762647" lon="17.987552957593">
        <ele>45.2</ele>
        <time>2017-12-20T19:07:54Z</time>
      </trkpt>
      <trkpt lat="62.63514920368" lon="17.987589586496">
        <ele>45.4</ele>
        <time>2017-12-20T19:07:55Z</time>
      </trkpt>
      <trkpt lat="62.635123135971" lon="17.98761523511">
        <ele>45.4</ele>
        <time>2017-12-20T19:07:56Z</time>
      </trkpt>
      <trkpt lat="62.63510897056" lon="17.987664185406">
        <ele>45.6</ele>
        <time>2017-12-20T19:07:57Z</time>
      </trkpt>
      <trkpt lat="62.635078376625" lon="17.98771078877">
        <ele>45.8</ele>
        <time>2017-12-20T19:07:58Z</time>
      </trkpt>
      <trkpt lat="62.635056332228" lon="17.98774599275">
        <ele>45.8</ele>
        <time>2017-12-20T19:07:59Z</time>
      </trkpt>
      <trkpt lat="62.63503353346" lon="17.987783627481">
        <ele>46</ele>
        <time>2017-12-20T19:08:00Z</time>
      </trkpt>
      <trkpt lat="62.634997742747" lon="17.987814472873">
        <ele>46</ele>
        <time>2017-12-20T19:08:01Z</time>
      </trkpt>
      <trkpt lat="62.634976620359" lon="17.987864596635">
        <ele>46</ele>
        <time>2017-12-20T19:08:02Z</time>
      </trkpt>
      <trkpt lat="62.634949798279" lon="17.987893011276">
        <ele>46.2</ele>
        <time>2017-12-20T19:08:03Z</time>
      </trkpt>
      <trkpt lat="62.634925071674" lon="17.987926706514">
        <ele>46.2</ele>
        <time>2017-12-20T19:08:04Z</time>
      </trkpt>
      <trkpt lat="62.634903949286" lon="17.987963838331">
        <ele>46.4</ele>
        <time>2017-12-20T19:08:05Z</time>
      </trkpt>
      <trkpt lat="62.634877211025" lon="17.98799409699">
        <ele>46.4</ele>
        <time>2017-12-20T19:08:06Z</time>
      </trkpt>
      <trkpt lat="62.634846281814" lon="17.988018236862">
        <ele>46.6</ele>
        <time>2017-12-20T19:08:07Z</time>
      </trkpt>
      <trkpt lat="62.634828512186" lon="17.98804438839">
        <ele>46.8</ele>
        <time>2017-12-20T19:08:08Z</time>
      </trkpt>
      <trkpt lat="62.634798672622" lon="17.988042041458">
        <ele>47</ele>
        <time>2017-12-20T19:08:09Z</time>
      </trkpt>
      <trkpt lat="62.634767911049" lon="17.988069114995">
        <ele>47.4</ele>
        <time>2017-12-20T19:08:10Z</time>
      </trkpt>
      <trkpt lat="62.634744860824" lon="17.988051764462">
        <ele>47.6</ele>
        <time>2017-12-20T19:08:11Z</time>
      </trkpt>
      <trkpt lat="62.634714853622" lon="17.988072719212">
        <ele>47.6</ele>
        <time>2017-12-20T19:08:12Z</time>
      </trkpt>
      <trkpt lat="62.63469322832" lon="17.988070288461">
        <ele>47.8</ele>
        <time>2017-12-20T19:08:13Z</time>
      </trkpt>
      <trkpt lat="62.634659616901" lon="17.98807875418">
        <ele>47.8</ele>
        <time>2017-12-20T19:08:14Z</time>
      </trkpt>
      <trkpt lat="62.634631956631" lon="17.988078167447">
        <ele>48</ele>
        <time>2017-12-20T19:08:15Z</time>
      </trkpt>
      <trkpt lat="62.634596249737" lon="17.988088225727">
        <ele>48</ele>
        <time>2017-12-20T19:08:16Z</time>
      </trkpt>
      <trkpt lat="62.634567835096" lon="17.988095266523">
        <ele>48.2</ele>
        <time>2017-12-20T19:08:17Z</time>
      </trkpt>
      <trkpt lat="62.63453983955" lon="17.988109180477">
        <ele>48.4</ele>
        <time>2017-12-20T19:08:18Z</time>
      </trkpt>
      <trkpt lat="62.634511592547" lon="17.988128961761">
        <ele>48.4</ele>
        <time>2017-12-20T19:08:19Z</time>
      </trkpt>
      <trkpt lat="62.634477562033" lon="17.988148826864">
        <ele>48.6</ele>
        <time>2017-12-20T19:08:20Z</time>
      </trkpt>
      <trkpt lat="62.634452500152" lon="17.988152347262">
        <ele>48.8</ele>
        <time>2017-12-20T19:08:21Z</time>
      </trkpt>
      <trkpt lat="62.634431126307" lon="17.988159052782">
        <ele>48.8</ele>
        <time>2017-12-20T19:08:22Z</time>
      </trkpt>
      <trkpt lat="62.634402208752" lon="17.988166009759">
        <ele>49</ele>
        <time>2017-12-20T19:08:23Z</time>
      </trkpt>
      <trkpt lat="62.634377649785" lon="17.988169865433">
        <ele>49</ele>
        <time>2017-12-20T19:08:24Z</time>
      </trkpt>
      <trkpt lat="62.634353845189" lon="17.988197106608">
        <ele>49</ele>
        <time>2017-12-20T19:08:25Z</time>
      </trkpt>
      <trkpt lat="62.634309421119" lon="17.988182438283">
        <ele>49.2</ele>
        <time>2017-12-20T19:08:26Z</time>
      </trkpt>
      <trkpt lat="62.634289556016" lon="17.988187299785">
        <ele>49.4</ele>
        <time>2017-12-20T19:08:27Z</time>
      </trkpt>
      <trkpt lat="62.634249490534" lon="17.988179756075">
        <ele>49.2</ele>
        <time>2017-12-20T19:08:28Z</time>
      </trkpt>
      <trkpt lat="62.634225685938" lon="17.988191993649">
        <ele>49.4</ele>
        <time>2017-12-20T19:08:29Z</time>
      </trkpt>
      <trkpt lat="62.63418528518" lon="17.988160645343">
        <ele>49.4</ele>
        <time>2017-12-20T19:08:30Z</time>
      </trkpt>
      <trkpt lat="62.634164833344" lon="17.98812820739">
        <ele>49.6</ele>
        <time>2017-12-20T19:08:31Z</time>
      </trkpt>
      <trkpt lat="62.634130048459" lon="17.98810306169">
        <ele>49.4</ele>
        <time>2017-12-20T19:08:32Z</time>
      </trkpt>
      <trkpt lat="62.634093671013" lon="17.988077329257">
        <ele>49.4</ele>
        <time>2017-12-20T19:08:33Z</time>
      </trkpt>
      <trkpt lat="62.634058550852" lon="17.988068947357">
        <ele>49.6</ele>
        <time>2017-12-20T19:08:34Z</time>
      </trkpt>
      <trkpt lat="62.634031561134" lon="17.988073222126">
        <ele>49.8</ele>
        <time>2017-12-20T19:08:35Z</time>
      </trkpt>
      <trkpt lat="62.633988813444" lon="17.988036928499">
        <ele>49.8</ele>
        <time>2017-12-20T19:08:36Z</time>
      </trkpt>
      <trkpt lat="62.633957968052" lon="17.988032486092">
        <ele>49.8</ele>
        <time>2017-12-20T19:08:37Z</time>
      </trkpt>
      <trkpt lat="62.633938773501" lon="17.988013291541">
        <ele>50.2</ele>
        <time>2017-12-20T19:08:38Z</time>
      </trkpt>
      <trkpt lat="62.633904072435" lon="17.987988900212">
        <ele>50.2</ele>
        <time>2017-12-20T19:08:39Z</time>
      </trkpt>
      <trkpt lat="62.633873981414" lon="17.987972723145">
        <ele>50.4</ele>
        <time>2017-12-20T19:08:40Z</time>
      </trkpt>
      <trkpt lat="62.633843806574" lon="17.987938692631">
        <ele>50.4</ele>
        <time>2017-12-20T19:08:41Z</time>
      </trkpt>
      <trkpt lat="62.633814302286" lon="17.987916648234">
        <ele>50.6</ele>
        <time>2017-12-20T19:08:42Z</time>
      </trkpt>
      <trkpt lat="62.63378295398" lon="17.987894771475">
        <ele>50.6</ele>
        <time>2017-12-20T19:08:43Z</time>
      </trkpt>
      <trkpt lat="62.633755712805" lon="17.98787842677">
        <ele>50.8</ele>
        <time>2017-12-20T19:08:44Z</time>
      </trkpt>
      <trkpt lat="62.633718580988" lon="17.987846407912">
        <ele>50.8</ele>
        <time>2017-12-20T19:08:45Z</time>
      </trkpt>
      <trkpt lat="62.633698380609" lon="17.987817657995">
        <ele>51</ele>
        <time>2017-12-20T19:08:46Z</time>
      </trkpt>
      <trkpt lat="62.633679102239" lon="17.987790668277">
        <ele>51</ele>
        <time>2017-12-20T19:08:47Z</time>
      </trkpt>
      <trkpt lat="62.633645658458" lon="17.987757475953">
        <ele>51</ele>
        <time>2017-12-20T19:08:48Z</time>
      </trkpt>
      <trkpt lat="62.633623530242" lon="17.987741131248">
        <ele>51.2</ele>
        <time>2017-12-20T19:08:49Z</time>
      </trkpt>
      <trkpt lat="62.633595534696" lon="17.987702658327">
        <ele>51.2</ele>
        <time>2017-12-20T19:08:50Z</time>
      </trkpt>
      <trkpt lat="62.633565108399" lon="17.987669549822">
        <ele>51.4</ele>
        <time>2017-12-20T19:08:51Z</time>
      </trkpt>
      <trkpt lat="62.633538956871" lon="17.987625880123">
        <ele>51.6</ele>
        <time>2017-12-20T19:08:52Z</time>
      </trkpt>
      <trkpt lat="62.633507440927" lon="17.987611295617">
        <ele>51.8</ele>
        <time>2017-12-20T19:08:53Z</time>
      </trkpt>
      <trkpt lat="62.633479026286" lon="17.987575421085">
        <ele>52.2</ele>
        <time>2017-12-20T19:08:54Z</time>
      </trkpt>
      <trkpt lat="62.633452874758" lon="17.987534685051">
        <ele>52.4</ele>
        <time>2017-12-20T19:08:55Z</time>
      </trkpt>
      <trkpt lat="62.633435440406" lon="17.987500067804">
        <ele>52.4</ele>
        <time>2017-12-20T19:08:56Z</time>
      </trkpt>
      <trkpt lat="62.633416245855" lon="17.987465031462">
        <ele>52.8</ele>
        <time>2017-12-20T19:08:57Z</time>
      </trkpt>
      <trkpt lat="62.633389926689" lon="17.987413901872">
        <ele>53</ele>
        <time>2017-12-20T19:08:58Z</time>
      </trkpt>
      <trkpt lat="62.633372492337" lon="17.987369813078">
        <ele>53</ele>
        <time>2017-12-20T19:08:59Z</time>
      </trkpt>
      <trkpt lat="62.633340808755" lon="17.987299991851">
        <ele>53</ele>
        <time>2017-12-20T19:09:00Z</time>
      </trkpt>
      <trkpt lat="62.633332426855" lon="17.987235283583">
        <ele>53.4</ele>
        <time>2017-12-20T19:09:01Z</time>
      </trkpt>
      <trkpt lat="62.63331105301" lon="17.987135455154">
        <ele>53.2</ele>
        <time>2017-12-20T19:09:02Z</time>
      </trkpt>
      <trkpt lat="62.633284985301" lon="17.987026741911">
        <ele>53</ele>
        <time>2017-12-20T19:09:03Z</time>
      </trkpt>
      <trkpt lat="62.633266293664" lon="17.986941246531">
        <ele>52.6</ele>
        <time>2017-12-20T19:09:04Z</time>
      </trkpt>
      <trkpt lat="62.633251876796" lon="17.986845106138">
        <ele>52.2</ele>
        <time>2017-12-20T19:09:05Z</time>
      </trkpt>
      <trkpt lat="62.633239387765" lon="17.986712672118">
        <ele>51.8</ele>
        <time>2017-12-20T19:09:06Z</time>
      </trkpt>
      <trkpt lat="62.633231927874" lon="17.98659851064">
        <ele>51.2</ele>
        <time>2017-12-20T19:09:07Z</time>
      </trkpt>
      <trkpt lat="62.633224551802" lon="17.986484432981">
        <ele>50.6</ele>
        <time>2017-12-20T19:09:08Z</time>
      </trkpt>
      <trkpt lat="62.633218349196" lon="17.986380245964">
        <ele>50.4</ele>
        <time>2017-12-20T19:09:09Z</time>
      </trkpt>
      <trkpt lat="62.63321047021" lon="17.986254601283">
        <ele>50.4</ele>
        <time>2017-12-20T19:09:10Z</time>
      </trkpt>
      <trkpt lat="62.633215666988" lon="17.986145804221">
        <ele>50.2</ele>
        <time>2017-12-20T19:09:11Z</time>
      </trkpt>
      <trkpt lat="62.633212900961" lon="17.986030301639">
        <ele>50.4</ele>
        <time>2017-12-20T19:09:12Z</time>
      </trkpt>
      <trkpt lat="62.633212314228" lon="17.985898202895">
        <ele>50.4</ele>
        <time>2017-12-20T19:09:13Z</time>
      </trkpt>
      <trkpt lat="62.633214744979" lon="17.985788400005">
        <ele>50.4</ele>
        <time>2017-12-20T19:09:14Z</time>
      </trkpt>
      <trkpt lat="62.63320711745" lon="17.985655798347">
        <ele>49.8</ele>
        <time>2017-12-20T19:09:15Z</time>
      </trkpt>
      <trkpt lat="62.633203429414" lon="17.985554461176">
        <ele>49.6</ele>
        <time>2017-12-20T19:09:16Z</time>
      </trkpt>
      <trkpt lat="62.633210302572" lon="17.985453710738">
        <ele>49</ele>
        <time>2017-12-20T19:09:17Z</time>
      </trkpt>
      <trkpt lat="62.633236873195" lon="17.985327395505">
        <ele>48.8</ele>
        <time>2017-12-20T19:09:18Z</time>
      </trkpt>
      <trkpt lat="62.633254307547" lon="17.985185238481">
        <ele>48.4</ele>
        <time>2017-12-20T19:09:19Z</time>
      </trkpt>
      <trkpt lat="62.633275597573" lon="17.985019109223">
        <ele>47.8</ele>
        <time>2017-12-20T19:09:20Z</time>
      </trkpt>
      <trkpt lat="62.633302168196" lon="17.984868989394">
        <ele>47.2</ele>
        <time>2017-12-20T19:09:21Z</time>
      </trkpt>
      <trkpt lat="62.633327481534" lon="17.984730939501">
        <ele>46.2</ele>
        <time>2017-12-20T19:09:22Z</time>
      </trkpt>
      <trkpt lat="62.633353130148" lon="17.984613006168">
        <ele>45.6</ele>
        <time>2017-12-20T19:09:23Z</time>
      </trkpt>
      <trkpt lat="62.633379281676" lon="17.984505214934">
        <ele>45</ele>
        <time>2017-12-20T19:09:24Z</time>
      </trkpt>
      <trkpt lat="62.633398979141" lon="17.984378312968">
        <ele>44.6</ele>
        <time>2017-12-20T19:09:25Z</time>
      </trkpt>
      <trkpt lat="62.633410629982" lon="17.984269012992">
        <ele>44.2</ele>
        <time>2017-12-20T19:09:26Z</time>
      </trkpt>
      <trkpt lat="62.633421442633" lon="17.984172118228">
        <ele>44</ele>
        <time>2017-12-20T19:09:27Z</time>
      </trkpt>
      <trkpt lat="62.633428734886" lon="17.984059297854">
        <ele>44</ele>
        <time>2017-12-20T19:09:28Z</time>
      </trkpt>
      <trkpt lat="62.633425717402" lon="17.983948489136">
        <ele>44</ele>
        <time>2017-12-20T19:09:29Z</time>
      </trkpt>
      <trkpt lat="62.633423705746" lon="17.983849415078">
        <ele>44</ele>
        <time>2017-12-20T19:09:30Z</time>
      </trkpt>
      <trkpt lat="62.633434602216" lon="17.983763081508">
        <ele>44</ele>
        <time>2017-12-20T19:09:31Z</time>
      </trkpt>
      <trkpt lat="62.633442229745" lon="17.983681693259">
        <ele>44.2</ele>
        <time>2017-12-20T19:09:32Z</time>
      </trkpt>
      <trkpt lat="62.633469387101" lon="17.983605417969">
        <ele>44.4</ele>
        <time>2017-12-20T19:09:33Z</time>
      </trkpt>
      <trkpt lat="62.633473410413" lon="17.983527047204">
        <ele>44.8</ele>
        <time>2017-12-20T19:09:34Z</time>
      </trkpt>
      <trkpt lat="62.633476595535" lon="17.983431745001">
        <ele>45.2</ele>
        <time>2017-12-20T19:09:35Z</time>
      </trkpt>
      <trkpt lat="62.633490928584" lon="17.983359493023">
        <ele>45.6</ele>
        <time>2017-12-20T19:09:36Z</time>
      </trkpt>
      <trkpt lat="62.633504088167" lon="17.983279697335">
        <ele>45.8</ele>
        <time>2017-12-20T19:09:37Z</time>
      </trkpt>
      <trkpt lat="62.633511631877" lon="17.983185233322">
        <ele>46</ele>
        <time>2017-12-20T19:09:38Z</time>
      </trkpt>
      <trkpt lat="62.633518253578" lon="17.98313343318">
        <ele>46</ele>
        <time>2017-12-20T19:09:39Z</time>
      </trkpt>
      <trkpt lat="62.633531748437" lon="17.983054391863">
        <ele>46</ele>
        <time>2017-12-20T19:09:40Z</time>
      </trkpt>
      <trkpt lat="62.633538034862" lon="17.982981804609">
        <ele>46</ele>
        <time>2017-12-20T19:09:41Z</time>
      </trkpt>
      <trkpt lat="62.63354993716" lon="17.982917683074">
        <ele>46</ele>
        <time>2017-12-20T19:09:42Z</time>
      </trkpt>
      <trkpt lat="62.633564102571" lon="17.98283419935">
        <ele>46</ele>
        <time>2017-12-20T19:09:43Z</time>
      </trkpt>
      <trkpt lat="62.633577848887" lon="17.98276882053">
        <ele>46</ele>
        <time>2017-12-20T19:09:44Z</time>
      </trkpt>
      <trkpt lat="62.633598803637" lon="17.982673769784">
        <ele>46</ele>
        <time>2017-12-20T19:09:45Z</time>
      </trkpt>
      <trkpt lat="62.633617662912" lon="17.982577377934">
        <ele>46</ele>
        <time>2017-12-20T19:09:46Z</time>
      </trkpt>
      <trkpt lat="62.633621518586" lon="17.982506886155">
        <ele>46</ele>
        <time>2017-12-20T19:09:47Z</time>
      </trkpt>
      <trkpt lat="62.633634845807" lon="17.982420468766">
        <ele>46</ele>
        <time>2017-12-20T19:09:48Z</time>
      </trkpt>
      <trkpt lat="62.6336471672" lon="17.982327764952">
        <ele>46</ele>
        <time>2017-12-20T19:09:49Z</time>
      </trkpt>
      <trkpt lat="62.633638030929" lon="17.982254004232">
        <ele>46</ele>
        <time>2017-12-20T19:09:50Z</time>
      </trkpt>
      <trkpt lat="62.633653788901" lon="17.982145542446">
        <ele>45.8</ele>
        <time>2017-12-20T19:09:51Z</time>
      </trkpt>
      <trkpt lat="62.633672648176" lon="17.982060801437">
        <ele>46</ele>
        <time>2017-12-20T19:09:52Z</time>
      </trkpt>
      <trkpt lat="62.63366309281" lon="17.981992405133">
        <ele>46</ele>
        <time>2017-12-20T19:09:53Z</time>
      </trkpt>
      <trkpt lat="62.633679186058" lon="17.981919063508">
        <ele>45.8</ele>
        <time>2017-12-20T19:09:54Z</time>
      </trkpt>
      <trkpt lat="62.63369242946" lon="17.981850918661">
        <ele>46</ele>
        <time>2017-12-20T19:09:55Z</time>
      </trkpt>
      <trkpt lat="62.633687065044" lon="17.981753940078">
        <ele>46</ele>
        <time>2017-12-20T19:09:56Z</time>
      </trkpt>
      <trkpt lat="62.633691842727" lon="17.981676407503">
        <ele>46.2</ele>
        <time>2017-12-20T19:09:57Z</time>
      </trkpt>
      <trkpt lat="62.633698632066" lon="17.981572304305">
        <ele>46.2</ele>
        <time>2017-12-20T19:09:58Z</time>
      </trkpt>
      <trkpt lat="62.633704499396" lon="17.981500052327">
        <ele>46.4</ele>
        <time>2017-12-20T19:09:59Z</time>
      </trkpt>
      <trkpt lat="62.633710450545" lon="17.981411288006">
        <ele>46.4</ele>
        <time>2017-12-20T19:10:00Z</time>
      </trkpt>
      <trkpt lat="62.633708103613" lon="17.981332917241">
        <ele>46.6</ele>
        <time>2017-12-20T19:10:01Z</time>
      </trkpt>
      <trkpt lat="62.633732411123" lon="17.98127348957">
        <ele>46.6</ele>
        <time>2017-12-20T19:10:02Z</time>
      </trkpt>
      <trkpt lat="62.633759149384" lon="17.981199645031">
        <ele>46.6</ele>
        <time>2017-12-20T19:10:03Z</time>
      </trkpt>
      <trkpt lat="62.633783037799" lon="17.981139630627">
        <ele>46.6</ele>
        <time>2017-12-20T19:10:04Z</time>
      </trkpt>
      <trkpt lat="62.633805920386" lon="17.981091769978">
        <ele>46.6</ele>
        <time>2017-12-20T19:10:05Z</time>
      </trkpt>
      <trkpt lat="62.633831904276" lon="17.981064025889">
        <ele>46.6</ele>
        <time>2017-12-20T19:10:06Z</time>
      </trkpt>
      <trkpt lat="62.63386090565" lon="17.981008872987">
        <ele>46.6</ele>
        <time>2017-12-20T19:10:07Z</time>
      </trkpt>
      <trkpt lat="62.633878759097" lon="17.980961934347">
        <ele>46.6</ele>
        <time>2017-12-20T19:10:08Z</time>
      </trkpt>
      <trkpt lat="62.633898456562" lon="17.980931759507">
        <ele>46.8</ele>
        <time>2017-12-20T19:10:09Z</time>
      </trkpt>
      <trkpt lat="62.633923853719" lon="17.980876355148">
        <ele>46.8</ele>
        <time>2017-12-20T19:10:10Z</time>
      </trkpt>
      <trkpt lat="62.63395394474" lon="17.980814832002">
        <ele>47</ele>
        <time>2017-12-20T19:10:11Z</time>
      </trkpt>
      <trkpt lat="62.633979341897" lon="17.980766049344">
        <ele>47.2</ele>
        <time>2017-12-20T19:10:12Z</time>
      </trkpt>
      <trkpt lat="62.634000129009" lon="17.98072447512">
        <ele>47.2</ele>
        <time>2017-12-20T19:10:13Z</time>
      </trkpt>
      <trkpt lat="62.63403105822" lon="17.980650546762">
        <ele>47.2</ele>
        <time>2017-12-20T19:10:14Z</time>
      </trkpt>
      <trkpt lat="62.634043128156" lon="17.980601345009">
        <ele>47.2</ele>
        <time>2017-12-20T19:10:15Z</time>
      </trkpt>
      <trkpt lat="62.634061987431" lon="17.980540492415">
        <ele>47.2</ele>
        <time>2017-12-20T19:10:16Z</time>
      </trkpt>
      <trkpt lat="62.634082774543" lon="17.980482573486">
        <ele>47.4</ele>
        <time>2017-12-20T19:10:17Z</time>
      </trkpt>
      <trkpt lat="62.63410481894" lon="17.980423061996">
        <ele>47.4</ele>
        <time>2017-12-20T19:10:18Z</time>
      </trkpt>
      <trkpt lat="62.63413247921" lon="17.980379895211">
        <ele>47.6</ele>
        <time>2017-12-20T19:10:19Z</time>
      </trkpt>
      <trkpt lat="62.634167599371" lon="17.980316360409">
        <ele>47.8</ele>
        <time>2017-12-20T19:10:20Z</time>
      </trkpt>
      <trkpt lat="62.634197103659" lon="17.980283754818">
        <ele>47.8</ele>
        <time>2017-12-20T19:10:21Z</time>
      </trkpt>
      <trkpt lat="62.634222919911" lon="17.980227596088">
        <ele>47.8</ele>
        <time>2017-12-20T19:10:22Z</time>
      </trkpt>
      <trkpt lat="62.634249322896" lon="17.980134724636">
        <ele>47.8</ele>
        <time>2017-12-20T19:10:23Z</time>
      </trkpt>
      <trkpt lat="62.634268517447" lon="17.980075967517">
        <ele>47.6</ele>
        <time>2017-12-20T19:10:24Z</time>
      </trkpt>
      <trkpt lat="62.634280252107" lon="17.980008996136">
        <ele>47.6</ele>
        <time>2017-12-20T19:10:25Z</time>
      </trkpt>
      <trkpt lat="62.634304894893" lon="17.979958788555">
        <ele>47.6</ele>
        <time>2017-12-20T19:10:26Z</time>
      </trkpt>
      <trkpt lat="62.634323670349" lon="17.979895337572">
        <ele>47.6</ele>
        <time>2017-12-20T19:10:27Z</time>
      </trkpt>
      <trkpt lat="62.634342278167" lon="17.97981336259">
        <ele>47.6</ele>
        <time>2017-12-20T19:10:28Z</time>
      </trkpt>
      <trkpt lat="62.634366837134" lon="17.979730549418">
        <ele>47.6</ele>
        <time>2017-12-20T19:10:29Z</time>
      </trkpt>
      <trkpt lat="62.634388462436" lon="17.979645389314">
        <ele>47.6</ele>
        <time>2017-12-20T19:10:30Z</time>
      </trkpt>
      <trkpt lat="62.634396844336" lon="17.979561654133">
        <ele>47.6</ele>
        <time>2017-12-20T19:10:31Z</time>
      </trkpt>
      <trkpt lat="62.634408746634" lon="17.979477416038">
        <ele>47.6</ele>
        <time>2017-12-20T19:10:32Z</time>
      </trkpt>
      <trkpt lat="62.634421319484" lon="17.979409606467">
        <ele>47.4</ele>
        <time>2017-12-20T19:10:33Z</time>
      </trkpt>
      <trkpt lat="62.634430958669" lon="17.979335175195">
        <ele>47.4</ele>
        <time>2017-12-20T19:10:34Z</time>
      </trkpt>
      <trkpt lat="62.63445266779" lon="17.979255211869">
        <ele>47.6</ele>
        <time>2017-12-20T19:10:35Z</time>
      </trkpt>
      <trkpt lat="62.634465911192" lon="17.979195700379">
        <ele>47.4</ele>
        <time>2017-12-20T19:10:36Z</time>
      </trkpt>
      <trkpt lat="62.634480998612" lon="17.979104672945">
        <ele>47.6</ele>
        <time>2017-12-20T19:10:37Z</time>
      </trkpt>
      <trkpt lat="62.634500193163" lon="17.97901875847">
        <ele>47.4</ele>
        <time>2017-12-20T19:10:38Z</time>
      </trkpt>
      <trkpt lat="62.634512346918" lon="17.978949859252">
        <ele>47.6</ele>
        <time>2017-12-20T19:10:39Z</time>
      </trkpt>
      <trkpt lat="62.634554256418" lon="17.978782556528">
        <ele>47.6</ele>
        <time>2017-12-20T19:10:41Z</time>
      </trkpt>
      <trkpt lat="62.634567164544" lon="17.978707454704">
        <ele>47.6</ele>
        <time>2017-12-20T19:10:42Z</time>
      </trkpt>
      <trkpt lat="62.634583257792" lon="17.978627491378">
        <ele>47.6</ele>
        <time>2017-12-20T19:10:43Z</time>
      </trkpt>
      <trkpt lat="62.634591388235" lon="17.978556831961">
        <ele>47.4</ele>
        <time>2017-12-20T19:10:44Z</time>
      </trkpt>
      <trkpt lat="62.634608319673" lon="17.978452058211">
        <ele>47.4</ele>
        <time>2017-12-20T19:10:45Z</time>
      </trkpt>
      <trkpt lat="62.634615695745" lon="17.978354828171">
        <ele>47.4</ele>
        <time>2017-12-20T19:10:46Z</time>
      </trkpt>
      <trkpt lat="62.634635309391" lon="17.978263968375">
        <ele>47.2</ele>
        <time>2017-12-20T19:10:47Z</time>
      </trkpt>
      <trkpt lat="62.6346613771" lon="17.978164139946">
        <ele>47</ele>
        <time>2017-12-20T19:10:48Z</time>
      </trkpt>
      <trkpt lat="62.63467311176" lon="17.978073783064">
        <ele>47</ele>
        <time>2017-12-20T19:10:49Z</time>
      </trkpt>
      <trkpt lat="62.634693312139" lon="17.977969931323">
        <ele>46.8</ele>
        <time>2017-12-20T19:10:50Z</time>
      </trkpt>
      <trkpt lat="62.634703118962" lon="17.977884184486">
        <ele>46.6</ele>
        <time>2017-12-20T19:10:51Z</time>
      </trkpt>
      <trkpt lat="62.634720134219" lon="17.977773124311">
        <ele>46.2</ele>
        <time>2017-12-20T19:10:52Z</time>
      </trkpt>
      <trkpt lat="62.634729605766" lon="17.977692658071">
        <ele>46</ele>
        <time>2017-12-20T19:10:53Z</time>
      </trkpt>
      <trkpt lat="62.634745363738" lon="17.977595428031">
        <ele>46</ele>
        <time>2017-12-20T19:10:54Z</time>
      </trkpt>
      <trkpt lat="62.634765145022" lon="17.977524852433">
        <ele>45.8</ele>
        <time>2017-12-20T19:10:55Z</time>
      </trkpt>
      <trkpt lat="62.634779813347" lon="17.977436758664">
        <ele>45.6</ele>
        <time>2017-12-20T19:10:56Z</time>
      </trkpt>
      <trkpt lat="62.634788446704" lon="17.977345815049">
        <ele>45.6</ele>
        <time>2017-12-20T19:10:57Z</time>
      </trkpt>
      <trkpt lat="62.634818453906" lon="17.977297032391">
        <ele>45.8</ele>
        <time>2017-12-20T19:10:58Z</time>
      </trkpt>
      <trkpt lat="62.63482314777" lon="17.977247579181">
        <ele>45.8</ele>
        <time>2017-12-20T19:10:59Z</time>
      </trkpt>
      <trkpt lat="62.634836055896" lon="17.977158395765">
        <ele>45.6</ele>
        <time>2017-12-20T19:11:00Z</time>
      </trkpt>
      <trkpt lat="62.634847790556" lon="17.977082623389">
        <ele>45.8</ele>
        <time>2017-12-20T19:11:01Z</time>
      </trkpt>
      <trkpt lat="62.634866901288" lon="17.976981286218">
        <ele>45.8</ele>
        <time>2017-12-20T19:11:02Z</time>
      </trkpt>
      <trkpt lat="62.634879809414" lon="17.97690651967">
        <ele>45.6</ele>
        <time>2017-12-20T19:11:03Z</time>
      </trkpt>
      <trkpt lat="62.634896237938" lon="17.97682689162">
        <ele>45.6</ele>
        <time>2017-12-20T19:11:04Z</time>
      </trkpt>
      <trkpt lat="62.634913756109" lon="17.976727314648">
        <ele>45.8</ele>
        <time>2017-12-20T19:11:05Z</time>
      </trkpt>
      <trkpt lat="62.634933872669" lon="17.976630838979">
        <ele>45.6</ele>
        <time>2017-12-20T19:11:06Z</time>
      </trkpt>
      <trkpt lat="62.634949211546" lon="17.976540649735">
        <ele>45.6</ele>
        <time>2017-12-20T19:11:07Z</time>
      </trkpt>
      <trkpt lat="62.634964047509" lon="17.976455238174">
        <ele>45.6</ele>
        <time>2017-12-20T19:11:08Z</time>
      </trkpt>
      <trkpt lat="62.634983409698" lon="17.9764010911">
        <ele>45.6</ele>
        <time>2017-12-20T19:11:09Z</time>
      </trkpt>
      <trkpt lat="62.635010818511" lon="17.976302268499">
        <ele>45.4</ele>
        <time>2017-12-20T19:11:10Z</time>
      </trkpt>
      <trkpt lat="62.635009812683" lon="17.976258347343">
        <ele>45.4</ele>
        <time>2017-12-20T19:11:11Z</time>
      </trkpt>
      <trkpt lat="62.635041244808" lon="17.97615131048">
        <ele>45.2</ele>
        <time>2017-12-20T19:11:12Z</time>
      </trkpt>
      <trkpt lat="62.63505616459" lon="17.976058858123">
        <ele>45.2</ele>
        <time>2017-12-20T19:11:13Z</time>
      </trkpt>
      <trkpt lat="62.635075694417" lon="17.975972943648">
        <ele>45</ele>
        <time>2017-12-20T19:11:14Z</time>
      </trkpt>
      <trkpt lat="62.635098325547" lon="17.975845538768">
        <ele>44.8</ele>
        <time>2017-12-20T19:11:15Z</time>
      </trkpt>
      <trkpt lat="62.635114167338" lon="17.975745123606">
        <ele>44.4</ele>
        <time>2017-12-20T19:11:16Z</time>
      </trkpt>
      <trkpt lat="62.635128584206" lon="17.975660047321">
        <ele>44.2</ele>
        <time>2017-12-20T19:11:17Z</time>
      </trkpt>
      <trkpt lat="62.635142414341" lon="17.975565834765">
        <ele>44.2</ele>
        <time>2017-12-20T19:11:18Z</time>
      </trkpt>
      <trkpt lat="62.635150963879" lon="17.97548327305">
        <ele>44</ele>
        <time>2017-12-20T19:11:19Z</time>
      </trkpt>
      <trkpt lat="62.635164123462" lon="17.97535586817">
        <ele>44</ele>
        <time>2017-12-20T19:11:20Z</time>
      </trkpt>
      <trkpt lat="62.635169739335" lon="17.975246652013">
        <ele>43.8</ele>
        <time>2017-12-20T19:11:21Z</time>
      </trkpt>
      <trkpt lat="62.635164877833" lon="17.975137771132">
        <ele>43.8</ele>
        <time>2017-12-20T19:11:22Z</time>
      </trkpt>
      <trkpt lat="62.635148952223" lon="17.975039702902">
        <ele>43.6</ele>
        <time>2017-12-20T19:11:23Z</time>
      </trkpt>
      <trkpt lat="62.635122213962" lon="17.974933504229">
        <ele>43.4</ele>
        <time>2017-12-20T19:11:24Z</time>
      </trkpt>
      <trkpt lat="62.635092709674" lon="17.97482194114">
        <ele>43</ele>
        <time>2017-12-20T19:11:25Z</time>
      </trkpt>
      <trkpt lat="62.635062618653" lon="17.974693362794">
        <ele>42.6</ele>
        <time>2017-12-20T19:11:26Z</time>
      </trkpt>
      <trkpt lat="62.635038227324" lon="17.974581715886">
        <ele>42.2</ele>
        <time>2017-12-20T19:11:27Z</time>
      </trkpt>
      <trkpt lat="62.635019032773" lon="17.974487168054">
        <ele>41.4</ele>
        <time>2017-12-20T19:11:28Z</time>
      </trkpt>
      <trkpt lat="62.635011069968" lon="17.974425393451">
        <ele>41</ele>
        <time>2017-12-20T19:11:29Z</time>
      </trkpt>
      <trkpt lat="62.634991959236" lon="17.974296144553">
        <ele>40.2</ele>
        <time>2017-12-20T19:11:30Z</time>
      </trkpt>
      <trkpt lat="62.634967987002" lon="17.974192795726">
        <ele>39.8</ele>
        <time>2017-12-20T19:11:31Z</time>
      </trkpt>
      <trkpt lat="62.634945020596" lon="17.974095900962">
        <ele>39.6</ele>
        <time>2017-12-20T19:11:32Z</time>
      </trkpt>
      <trkpt lat="62.634922473285" lon="17.974007052822">
        <ele>39.8</ele>
        <time>2017-12-20T19:11:33Z</time>
      </trkpt>
      <trkpt lat="62.634905458028" lon="17.973934130292">
        <ele>40</ele>
        <time>2017-12-20T19:11:34Z</time>
      </trkpt>
      <trkpt lat="62.63488098288" lon="17.973838492813">
        <ele>40.2</ele>
        <time>2017-12-20T19:11:35Z</time>
      </trkpt>
      <trkpt lat="62.634848209651" lon="17.973798343512">
        <ele>40.4</ele>
        <time>2017-12-20T19:11:36Z</time>
      </trkpt>
      <trkpt lat="62.634822896313" lon="17.973714859788">
        <ele>40.4</ele>
        <time>2017-12-20T19:11:37Z</time>
      </trkpt>
      <trkpt lat="62.634797499156" lon="17.973631376064">
        <ele>40.4</ele>
        <time>2017-12-20T19:11:38Z</time>
      </trkpt>
      <trkpt lat="62.634781825003" lon="17.973565829606">
        <ele>40.4</ele>
        <time>2017-12-20T19:11:39Z</time>
      </trkpt>
      <trkpt lat="62.634769587429" lon="17.973448566825">
        <ele>40.2</ele>
        <time>2017-12-20T19:11:40Z</time>
      </trkpt>
      <trkpt lat="62.634755841113" lon="17.973392072819">
        <ele>40.2</ele>
        <time>2017-12-20T19:11:41Z</time>
      </trkpt>
      <trkpt lat="62.634764390651" lon="17.973272798382">
        <ele>40</ele>
        <time>2017-12-20T19:11:42Z</time>
      </trkpt>
      <trkpt lat="62.634770928533" lon="17.973159055999">
        <ele>40</ele>
        <time>2017-12-20T19:11:43Z</time>
      </trkpt>
      <trkpt lat="62.634780316261" lon="17.973053779335">
        <ele>39.8</ele>
        <time>2017-12-20T19:11:44Z</time>
      </trkpt>
      <trkpt lat="62.634799259355" lon="17.972940539866">
        <ele>39.6</ele>
        <time>2017-12-20T19:11:45Z</time>
      </trkpt>
      <trkpt lat="62.634811748386" lon="17.972852949011">
        <ele>39.4</ele>
        <time>2017-12-20T19:11:46Z</time>
      </trkpt>
      <trkpt lat="62.634836977905" lon="17.972763011224">
        <ele>39.2</ele>
        <time>2017-12-20T19:11:47Z</time>
      </trkpt>
      <trkpt lat="62.634857848836" lon="17.97268455664">
        <ele>39.2</ele>
        <time>2017-12-20T19:11:48Z</time>
      </trkpt>
      <trkpt lat="62.634887101667" lon="17.972613813404">
        <ele>39</ele>
        <time>2017-12-20T19:11:49Z</time>
      </trkpt>
      <trkpt lat="62.634916773593" lon="17.972526809282">
        <ele>38.8</ele>
        <time>2017-12-20T19:11:50Z</time>
      </trkpt>
      <trkpt lat="62.634932028651" lon="17.972454976399">
        <ele>38.8</ele>
        <time>2017-12-20T19:11:51Z</time>
      </trkpt>
      <trkpt lat="62.634964047509" lon="17.972360596205">
        <ele>38.8</ele>
        <time>2017-12-20T19:11:52Z</time>
      </trkpt>
      <trkpt lat="62.634984499345" lon="17.972302258181">
        <ele>38.6</ele>
        <time>2017-12-20T19:11:53Z</time>
      </trkpt>
      <trkpt lat="62.635015344737" lon="17.972204944322">
        <ele>38.6</ele>
        <time>2017-12-20T19:11:54Z</time>
      </trkpt>
      <trkpt lat="62.635037892048" lon="17.972105283531">
        <ele>38.4</ele>
        <time>2017-12-20T19:11:55Z</time>
      </trkpt>
      <trkpt lat="62.635060523178" lon="17.972005790378">
        <ele>38.2</ele>
        <time>2017-12-20T19:11:56Z</time>
      </trkpt>
      <trkpt lat="62.635086255611" lon="17.971889533425">
        <ele>38</ele>
        <time>2017-12-20T19:11:57Z</time>
      </trkpt>
      <trkpt lat="62.635108635284" lon="17.971764475477">
        <ele>38</ele>
        <time>2017-12-20T19:11:58Z</time>
      </trkpt>
      <trkpt lat="62.635120537582" lon="17.971652577112">
        <ele>37.8</ele>
        <time>2017-12-20T19:11:59Z</time>
      </trkpt>
      <trkpt lat="62.635139732133" lon="17.971514108124">
        <ele>37.6</ele>
        <time>2017-12-20T19:12:00Z</time>
      </trkpt>
      <trkpt lat="62.635151466793" lon="17.971395588058">
        <ele>37.4</ele>
        <time>2017-12-20T19:12:01Z</time>
      </trkpt>
      <trkpt lat="62.635163117634" lon="17.971277906182">
        <ele>36.8</ele>
        <time>2017-12-20T19:12:02Z</time>
      </trkpt>
      <trkpt lat="62.635179210882" lon="17.971160811039">
        <ele>36.2</ele>
        <time>2017-12-20T19:12:03Z</time>
      </trkpt>
      <trkpt lat="62.635195807044" lon="17.971060647334">
        <ele>35.8</ele>
        <time>2017-12-20T19:12:04Z</time>
      </trkpt>
      <trkpt lat="62.63521039155" lon="17.970937265766">
        <ele>35.2</ele>
        <time>2017-12-20T19:12:05Z</time>
      </trkpt>
      <trkpt lat="62.635222796762" lon="17.970819248614">
        <ele>34.8</ele>
        <time>2017-12-20T19:12:06Z</time>
      </trkpt>
      <trkpt lat="62.635240231114" lon="17.97070894281">
        <ele>34.4</ele>
        <time>2017-12-20T19:12:07Z</time>
      </trkpt>
      <trkpt lat="62.635252552507" lon="17.970599894291">
        <ele>34</ele>
        <time>2017-12-20T19:12:08Z</time>
      </trkpt>
      <trkpt lat="62.635263113701" lon="17.970495623455">
        <ele>33.8</ele>
        <time>2017-12-20T19:12:09Z</time>
      </trkpt>
      <trkpt lat="62.635276105646" lon="17.970378947407">
        <ele>33.4</ele>
        <time>2017-12-20T19:12:10Z</time>
      </trkpt>
      <trkpt lat="62.635288427039" lon="17.970273754562">
        <ele>33</ele>
        <time>2017-12-20T19:12:11Z</time>
      </trkpt>
      <trkpt lat="62.635303095364" lon="17.970156407962">
        <ele>32.6</ele>
        <time>2017-12-20T19:12:12Z</time>
      </trkpt>
      <trkpt lat="62.63532187082" lon="17.970046437434">
        <ele>32.2</ele>
        <time>2017-12-20T19:12:13Z</time>
      </trkpt>
      <trkpt lat="62.635341735923" lon="17.969940238761">
        <ele>32</ele>
        <time>2017-12-20T19:12:14Z</time>
      </trkpt>
      <trkpt lat="62.635369396193" lon="17.969845355653">
        <ele>31.6</ele>
        <time>2017-12-20T19:12:15Z</time>
      </trkpt>
      <trkpt lat="62.635396302092" lon="17.96975256802">
        <ele>31</ele>
        <time>2017-12-20T19:12:16Z</time>
      </trkpt>
      <trkpt lat="62.635423878543" lon="17.969674029617">
        <ele>30.8</ele>
        <time>2017-12-20T19:12:17Z</time>
      </trkpt>
      <trkpt lat="62.63545179027" lon="17.969605298037">
        <ele>30.4</ele>
        <time>2017-12-20T19:12:18Z</time>
      </trkpt>
      <trkpt lat="62.635473750848" lon="17.96954302052">
        <ele>30.2</ele>
        <time>2017-12-20T19:12:19Z</time>
      </trkpt>
      <trkpt lat="62.635503087498" lon="17.969425338644">
        <ele>29.8</ele>
        <time>2017-12-20T19:12:20Z</time>
      </trkpt>
      <trkpt lat="62.635529909578" lon="17.969328695337">
        <ele>29.6</ele>
        <time>2017-12-20T19:12:21Z</time>
      </trkpt>
      <trkpt lat="62.635557318391" lon="17.969224759777">
        <ele>29</ele>
        <time>2017-12-20T19:12:22Z</time>
      </trkpt>
      <trkpt lat="62.635583050824" lon="17.969134905809">
        <ele>28.6</ele>
        <time>2017-12-20T19:12:23Z</time>
      </trkpt>
      <trkpt lat="62.635609537628" lon="17.969029964421">
        <ele>27.8</ele>
        <time>2017-12-20T19:12:24Z</time>
      </trkpt>
      <trkpt lat="62.635639293373" lon="17.968939188444">
        <ele>27.4</ele>
        <time>2017-12-20T19:12:25Z</time>
      </trkpt>
      <trkpt lat="62.635669300575" lon="17.968836929264">
        <ele>27</ele>
        <time>2017-12-20T19:12:26Z</time>
      </trkpt>
      <trkpt lat="62.63570492365" lon="17.968742884346">
        <ele>26.4</ele>
        <time>2017-12-20T19:12:27Z</time>
      </trkpt>
      <trkpt lat="62.635741384915" lon="17.968668285436">
        <ele>25.8</ele>
        <time>2017-12-20T19:12:28Z</time>
      </trkpt>
      <trkpt lat="62.635784300243" lon="17.968602906616">
        <ele>25.4</ele>
        <time>2017-12-20T19:12:29Z</time>
      </trkpt>
      <trkpt lat="62.635839788421" lon="17.96854138347">
        <ele>25</ele>
        <time>2017-12-20T19:12:30Z</time>
      </trkpt>
      <trkpt lat="62.635894270771" lon="17.968499390151">
        <ele>24.4</ele>
        <time>2017-12-20T19:12:31Z</time>
      </trkpt>
      <trkpt lat="62.635953446985" lon="17.968473406261">
        <ele>23.8</ele>
        <time>2017-12-20T19:12:32Z</time>
      </trkpt>
      <trkpt lat="62.63601002481" lon="17.968472568071">
        <ele>23.4</ele>
        <time>2017-12-20T19:12:33Z</time>
      </trkpt>
      <trkpt lat="62.636055789984" lon="17.968479273591">
        <ele>23</ele>
        <time>2017-12-20T19:12:34Z</time>
      </trkpt>
      <trkpt lat="62.636105913746" lon="17.968478351582">
        <ele>22.6</ele>
        <time>2017-12-20T19:12:35Z</time>
      </trkpt>
      <trkpt lat="62.636155366956" lon="17.968520177263">
        <ele>22.4</ele>
        <time>2017-12-20T19:12:36Z</time>
      </trkpt>
      <trkpt lat="62.6361952648" lon="17.968549094818">
        <ele>22.4</ele>
        <time>2017-12-20T19:12:37Z</time>
      </trkpt>
      <trkpt lat="62.636230720237" lon="17.968568792283">
        <ele>22.4</ele>
        <time>2017-12-20T19:12:38Z</time>
      </trkpt>
      <trkpt lat="62.636268857882" lon="17.968587735377">
        <ele>22.6</ele>
        <time>2017-12-20T19:12:39Z</time>
      </trkpt>
      <trkpt lat="62.636312024667" lon="17.968630147791">
        <ele>22.8</ele>
        <time>2017-12-20T19:12:40Z</time>
      </trkpt>
      <trkpt lat="62.636346474276" lon="17.968655293491">
        <ele>23</ele>
        <time>2017-12-20T19:12:41Z</time>
      </trkpt>
      <trkpt lat="62.636393832011" lon="17.968711955135">
        <ele>23.2</ele>
        <time>2017-12-20T19:12:42Z</time>
      </trkpt>
      <trkpt lat="62.636423168661" lon="17.968766102209">
        <ele>23.4</ele>
        <time>2017-12-20T19:12:43Z</time>
      </trkpt>
      <trkpt lat="62.636443452859" lon="17.968802814931">
        <ele>23.4</ele>
        <time>2017-12-20T19:12:44Z</time>
      </trkpt>
      <trkpt lat="62.636473292423" lon="17.968873641986">
        <ele>23.6</ele>
        <time>2017-12-20T19:12:45Z</time>
      </trkpt>
      <trkpt lat="62.636501623245" lon="17.968916389676">
        <ele>23.4</ele>
        <time>2017-12-20T19:12:46Z</time>
      </trkpt>
      <trkpt lat="62.636517381217" lon="17.968953689131">
        <ele>23.2</ele>
        <time>2017-12-20T19:12:47Z</time>
      </trkpt>
      <trkpt lat="62.636545292944" lon="17.969029377688">
        <ele>23</ele>
        <time>2017-12-20T19:12:48Z</time>
      </trkpt>
      <trkpt lat="62.636565660961" lon="17.969063492021">
        <ele>23.2</ele>
        <time>2017-12-20T19:12:49Z</time>
      </trkpt>
      <trkpt lat="62.636586783349" lon="17.96911722">
        <ele>23.2</ele>
        <time>2017-12-20T19:12:50Z</time>
      </trkpt>
      <trkpt lat="62.636609414479" lon="17.969181006259">
        <ele>23.2</ele>
        <time>2017-12-20T19:12:51Z</time>
      </trkpt>
      <trkpt lat="62.636633051437" lon="17.969223083397">
        <ele>23.2</ele>
        <time>2017-12-20T19:12:52Z</time>
      </trkpt>
      <trkpt lat="62.636644869916" lon="17.969320564894">
        <ele>23.2</ele>
        <time>2017-12-20T19:12:53Z</time>
      </trkpt>
      <trkpt lat="62.636664483562" lon="17.969379070556">
        <ele>23</ele>
        <time>2017-12-20T19:12:54Z</time>
      </trkpt>
      <trkpt lat="62.636680409172" lon="17.969426176834">
        <ele>23.2</ele>
        <time>2017-12-20T19:12:55Z</time>
      </trkpt>
      <trkpt lat="62.636692562927" lon="17.969501530115">
        <ele>23.2</ele>
        <time>2017-12-20T19:12:56Z</time>
      </trkpt>
      <trkpt lat="62.636705135777" lon="17.96955726975">
        <ele>23.4</ele>
        <time>2017-12-20T19:12:57Z</time>
      </trkpt>
      <trkpt lat="62.636716702799" lon="17.969602280553">
        <ele>23.4</ele>
        <time>2017-12-20T19:12:58Z</time>
      </trkpt>
      <trkpt lat="62.636723827414" lon="17.969636981619">
        <ele>23.2</ele>
        <time>2017-12-20T19:12:59Z</time>
      </trkpt>
      <trkpt lat="62.636731371124" lon="17.969665312441">
        <ele>23.4</ele>
        <time>2017-12-20T19:13:00Z</time>
      </trkpt>
      <trkpt lat="62.636739753024" lon="17.969678304386">
        <ele>23.2</ele>
        <time>2017-12-20T19:13:01Z</time>
      </trkpt>
      <trkpt lat="62.636738328101" lon="17.969685093725">
        <ele>23.2</ele>
        <time>2017-12-20T19:13:02Z</time>
      </trkpt>
      <trkpt lat="62.636734053332" lon="17.969675538359">
        <ele>23.2</ele>
        <time>2017-12-20T19:13:03Z</time>
      </trkpt>
      <trkpt lat="62.636730784391" lon="17.969659696568">
        <ele>23.2</ele>
        <time>2017-12-20T19:13:04Z</time>
      </trkpt>
      <trkpt lat="62.636724665604" lon="17.96962600133">
        <ele>23.4</ele>
        <time>2017-12-20T19:13:05Z</time>
      </trkpt>
      <trkpt lat="62.63670739889" lon="17.969573362998">
        <ele>23.6</ele>
        <time>2017-12-20T19:13:06Z</time>
      </trkpt>
    </trkseg>
  </trk>
</gpx>